<?xml version="1.0" encoding="UTF-8" standalone="no" ?>
<gpx xmlns="http://www.topografix.com/GPX/1/1" xmlns:xsi="http://www.w3.org/2001/XMLSchema-instance" xsi:schemaLocation="http://www.topografix.com/GPX/1/1 http://www.topografix.com/GPX/1/1/gpx.xsd" version="1.1" creator="VisuGPX - https://www.visugpx.com">
  <metadata>
    <name>Entre Naudy et Cuzorn</name>
    <desc><![CDATA[Quasiment 30 kms entre Naudy et Cuzorn en passant par la Sauvetat. http://les4fantastiques.over-blog.org/]]></desc>
  </metadata>
  <trk>
    <name><![CDATA[Entre Naudy et Cuzorn_1]]></name>
    <trkseg>
      <trkpt lat="44.58947" lon="0.96179">
        <ele>190</ele>
        <time>2012-01-10T12:01:06Z</time>
      </trkpt>
      <trkpt lat="44.58923" lon="0.96156">
        <ele>194</ele>
        <time>2012-01-10T12:01:45Z</time>
      </trkpt>
      <trkpt lat="44.5892" lon="0.96154">
        <ele>194</ele>
        <time>2012-01-10T12:01:46Z</time>
      </trkpt>
      <trkpt lat="44.58915" lon="0.96151">
        <ele>194</ele>
        <time>2012-01-10T12:01:49Z</time>
      </trkpt>
      <trkpt lat="44.58909" lon="0.96148">
        <ele>194</ele>
        <time>2012-01-10T12:01:50Z</time>
      </trkpt>
      <trkpt lat="44.58906" lon="0.96146">
        <ele>194</ele>
        <time>2012-01-10T12:01:51Z</time>
      </trkpt>
      <trkpt lat="44.58898" lon="0.96139">
        <ele>194</ele>
        <time>2012-01-10T12:01:54Z</time>
      </trkpt>
      <trkpt lat="44.58895" lon="0.96137">
        <ele>194</ele>
        <time>2012-01-10T12:01:55Z</time>
      </trkpt>
      <trkpt lat="44.58891" lon="0.96131">
        <ele>194</ele>
        <time>2012-01-10T12:01:58Z</time>
      </trkpt>
      <trkpt lat="44.58886" lon="0.96127">
        <ele>194</ele>
        <time>2012-01-10T12:01:59Z</time>
      </trkpt>
      <trkpt lat="44.58883" lon="0.96125">
        <ele>194</ele>
        <time>2012-01-10T12:02:00Z</time>
      </trkpt>
      <trkpt lat="44.58879" lon="0.96122">
        <ele>194</ele>
        <time>2012-01-10T12:02:03Z</time>
      </trkpt>
      <trkpt lat="44.58876" lon="0.9612">
        <ele>194</ele>
        <time>2012-01-10T12:02:04Z</time>
      </trkpt>
      <trkpt lat="44.58876" lon="0.96119">
        <ele>194</ele>
        <time>2012-01-10T12:02:08Z</time>
      </trkpt>
      <trkpt lat="44.58874" lon="0.96119">
        <ele>194</ele>
        <time>2012-01-10T12:02:31Z</time>
      </trkpt>
      <trkpt lat="44.5887" lon="0.96119">
        <ele>194</ele>
        <time>2012-01-10T12:02:34Z</time>
      </trkpt>
      <trkpt lat="44.58865" lon="0.96118">
        <ele>194</ele>
        <time>2012-01-10T12:02:35Z</time>
      </trkpt>
      <trkpt lat="44.58863" lon="0.96117">
        <ele>194</ele>
        <time>2012-01-10T12:02:36Z</time>
      </trkpt>
      <trkpt lat="44.58857" lon="0.96116">
        <ele>194</ele>
        <time>2012-01-10T12:02:39Z</time>
      </trkpt>
      <trkpt lat="44.58852" lon="0.96115">
        <ele>194</ele>
        <time>2012-01-10T12:02:40Z</time>
      </trkpt>
      <trkpt lat="44.58849" lon="0.96115">
        <ele>194</ele>
        <time>2012-01-10T12:02:41Z</time>
      </trkpt>
      <trkpt lat="44.58844" lon="0.96115">
        <ele>194</ele>
        <time>2012-01-10T12:02:44Z</time>
      </trkpt>
      <trkpt lat="44.58839" lon="0.96113">
        <ele>194</ele>
        <time>2012-01-10T12:02:45Z</time>
      </trkpt>
      <trkpt lat="44.58836" lon="0.96112">
        <ele>194</ele>
        <time>2012-01-10T12:02:46Z</time>
      </trkpt>
      <trkpt lat="44.58834" lon="0.96109">
        <ele>194</ele>
        <time>2012-01-10T12:02:47Z</time>
      </trkpt>
      <trkpt lat="44.58828" lon="0.96105">
        <ele>194</ele>
        <time>2012-01-10T12:02:50Z</time>
      </trkpt>
      <trkpt lat="44.58822" lon="0.96102">
        <ele>194</ele>
        <time>2012-01-10T12:02:51Z</time>
      </trkpt>
      <trkpt lat="44.58819" lon="0.96102">
        <ele>194</ele>
        <time>2012-01-10T12:02:52Z</time>
      </trkpt>
      <trkpt lat="44.58817" lon="0.96102">
        <ele>195</ele>
        <time>2012-01-10T12:02:53Z</time>
      </trkpt>
      <trkpt lat="44.58811" lon="0.96101">
        <ele>195</ele>
        <time>2012-01-10T12:02:56Z</time>
      </trkpt>
      <trkpt lat="44.58804" lon="0.961">
        <ele>195</ele>
        <time>2012-01-10T12:02:57Z</time>
      </trkpt>
      <trkpt lat="44.588" lon="0.961">
        <ele>195</ele>
        <time>2012-01-10T12:02:58Z</time>
      </trkpt>
      <trkpt lat="44.58794" lon="0.96097">
        <ele>196</ele>
        <time>2012-01-10T12:03:01Z</time>
      </trkpt>
      <trkpt lat="44.58788" lon="0.96094">
        <ele>196</ele>
        <time>2012-01-10T12:03:02Z</time>
      </trkpt>
      <trkpt lat="44.58784" lon="0.96093">
        <ele>197</ele>
        <time>2012-01-10T12:03:03Z</time>
      </trkpt>
      <trkpt lat="44.58781" lon="0.96093">
        <ele>197</ele>
        <time>2012-01-10T12:03:04Z</time>
      </trkpt>
      <trkpt lat="44.58774" lon="0.96092">
        <ele>197</ele>
        <time>2012-01-10T12:03:08Z</time>
      </trkpt>
      <trkpt lat="44.58764" lon="0.96091">
        <ele>198</ele>
        <time>2012-01-10T12:03:09Z</time>
      </trkpt>
      <trkpt lat="44.5876" lon="0.9609">
        <ele>198</ele>
        <time>2012-01-10T12:03:10Z</time>
      </trkpt>
      <trkpt lat="44.58753" lon="0.96088">
        <ele>198</ele>
        <time>2012-01-10T12:03:13Z</time>
      </trkpt>
      <trkpt lat="44.58745" lon="0.96086">
        <ele>198</ele>
        <time>2012-01-10T12:03:14Z</time>
      </trkpt>
      <trkpt lat="44.58741" lon="0.96085">
        <ele>198</ele>
        <time>2012-01-10T12:03:15Z</time>
      </trkpt>
      <trkpt lat="44.58733" lon="0.96083">
        <ele>198</ele>
        <time>2012-01-10T12:03:19Z</time>
      </trkpt>
      <trkpt lat="44.58721" lon="0.96079">
        <ele>198</ele>
        <time>2012-01-10T12:03:20Z</time>
      </trkpt>
      <trkpt lat="44.58717" lon="0.96078">
        <ele>198</ele>
        <time>2012-01-10T12:03:21Z</time>
      </trkpt>
      <trkpt lat="44.58702" lon="0.96072">
        <ele>198</ele>
        <time>2012-01-10T12:03:25Z</time>
      </trkpt>
      <trkpt lat="44.58698" lon="0.9607">
        <ele>198</ele>
        <time>2012-01-10T12:03:26Z</time>
      </trkpt>
      <trkpt lat="44.5869" lon="0.96066">
        <ele>198</ele>
        <time>2012-01-10T12:03:30Z</time>
      </trkpt>
      <trkpt lat="44.58678" lon="0.96058">
        <ele>198</ele>
        <time>2012-01-10T12:03:31Z</time>
      </trkpt>
      <trkpt lat="44.58674" lon="0.96056">
        <ele>198</ele>
        <time>2012-01-10T12:03:32Z</time>
      </trkpt>
      <trkpt lat="44.58667" lon="0.96051">
        <ele>198</ele>
        <time>2012-01-10T12:03:36Z</time>
      </trkpt>
      <trkpt lat="44.58655" lon="0.96043">
        <ele>198</ele>
        <time>2012-01-10T12:03:37Z</time>
      </trkpt>
      <trkpt lat="44.58651" lon="0.96042">
        <ele>198</ele>
        <time>2012-01-10T12:03:38Z</time>
      </trkpt>
      <trkpt lat="44.58644" lon="0.96039">
        <ele>198</ele>
        <time>2012-01-10T12:03:42Z</time>
      </trkpt>
      <trkpt lat="44.58632" lon="0.96037">
        <ele>198</ele>
        <time>2012-01-10T12:03:43Z</time>
      </trkpt>
      <trkpt lat="44.58628" lon="0.96037">
        <ele>198</ele>
        <time>2012-01-10T12:03:44Z</time>
      </trkpt>
      <trkpt lat="44.58624" lon="0.96037">
        <ele>198</ele>
        <time>2012-01-10T12:03:45Z</time>
      </trkpt>
      <trkpt lat="44.58617" lon="0.96036">
        <ele>198</ele>
        <time>2012-01-10T12:03:49Z</time>
      </trkpt>
      <trkpt lat="44.58606" lon="0.96036">
        <ele>199</ele>
        <time>2012-01-10T12:03:50Z</time>
      </trkpt>
      <trkpt lat="44.58602" lon="0.96035">
        <ele>199</ele>
        <time>2012-01-10T12:03:51Z</time>
      </trkpt>
      <trkpt lat="44.58594" lon="0.96034">
        <ele>199</ele>
        <time>2012-01-10T12:03:55Z</time>
      </trkpt>
      <trkpt lat="44.58583" lon="0.96033">
        <ele>200</ele>
        <time>2012-01-10T12:03:56Z</time>
      </trkpt>
      <trkpt lat="44.58579" lon="0.96032">
        <ele>200</ele>
        <time>2012-01-10T12:03:57Z</time>
      </trkpt>
      <trkpt lat="44.58571" lon="0.96031">
        <ele>200</ele>
        <time>2012-01-10T12:04:01Z</time>
      </trkpt>
      <trkpt lat="44.58562" lon="0.96029">
        <ele>201</ele>
        <time>2012-01-10T12:04:02Z</time>
      </trkpt>
      <trkpt lat="44.58559" lon="0.96028">
        <ele>201</ele>
        <time>2012-01-10T12:04:03Z</time>
      </trkpt>
      <trkpt lat="44.58554" lon="0.96028">
        <ele>201</ele>
        <time>2012-01-10T12:04:07Z</time>
      </trkpt>
      <trkpt lat="44.58544" lon="0.96028">
        <ele>201</ele>
        <time>2012-01-10T12:04:08Z</time>
      </trkpt>
      <trkpt lat="44.5854" lon="0.96028">
        <ele>202</ele>
        <time>2012-01-10T12:04:09Z</time>
      </trkpt>
      <trkpt lat="44.58535" lon="0.96028">
        <ele>202</ele>
        <time>2012-01-10T12:04:13Z</time>
      </trkpt>
      <trkpt lat="44.58527" lon="0.96034">
        <ele>202</ele>
        <time>2012-01-10T12:04:14Z</time>
      </trkpt>
      <trkpt lat="44.58525" lon="0.96038">
        <ele>202</ele>
        <time>2012-01-10T12:04:15Z</time>
      </trkpt>
      <trkpt lat="44.58523" lon="0.96042">
        <ele>202</ele>
        <time>2012-01-10T12:04:16Z</time>
      </trkpt>
      <trkpt lat="44.58513" lon="0.96059">
        <ele>202</ele>
        <time>2012-01-10T12:04:21Z</time>
      </trkpt>
      <trkpt lat="44.58511" lon="0.96062">
        <ele>203</ele>
        <time>2012-01-10T12:04:22Z</time>
      </trkpt>
      <trkpt lat="44.58506" lon="0.96069">
        <ele>204</ele>
        <time>2012-01-10T12:04:27Z</time>
      </trkpt>
      <trkpt lat="44.58492" lon="0.96086">
        <ele>205</ele>
        <time>2012-01-10T12:04:28Z</time>
      </trkpt>
      <trkpt lat="44.58488" lon="0.96093">
        <ele>206</ele>
        <time>2012-01-10T12:04:29Z</time>
      </trkpt>
      <trkpt lat="44.58477" lon="0.96125">
        <ele>207</ele>
        <time>2012-01-10T12:04:34Z</time>
      </trkpt>
      <trkpt lat="44.58476" lon="0.9613">
        <ele>208</ele>
        <time>2012-01-10T12:04:35Z</time>
      </trkpt>
      <trkpt lat="44.58476" lon="0.96134">
        <ele>209</ele>
        <time>2012-01-10T12:04:36Z</time>
      </trkpt>
      <trkpt lat="44.58474" lon="0.96142">
        <ele>210</ele>
        <time>2012-01-10T12:04:41Z</time>
      </trkpt>
      <trkpt lat="44.58472" lon="0.96156">
        <ele>211</ele>
        <time>2012-01-10T12:04:42Z</time>
      </trkpt>
      <trkpt lat="44.58472" lon="0.9616">
        <ele>212</ele>
        <time>2012-01-10T12:04:43Z</time>
      </trkpt>
      <trkpt lat="44.58464" lon="0.96175">
        <ele>213</ele>
        <time>2012-01-10T12:04:48Z</time>
      </trkpt>
      <trkpt lat="44.58463" lon="0.96178">
        <ele>214</ele>
        <time>2012-01-10T12:04:49Z</time>
      </trkpt>
      <trkpt lat="44.58461" lon="0.9618">
        <ele>214</ele>
        <time>2012-01-10T12:04:50Z</time>
      </trkpt>
      <trkpt lat="44.58457" lon="0.96195">
        <ele>214</ele>
        <time>2012-01-10T12:04:55Z</time>
      </trkpt>
      <trkpt lat="44.58455" lon="0.96197">
        <ele>214</ele>
        <time>2012-01-10T12:04:56Z</time>
      </trkpt>
      <trkpt lat="44.58453" lon="0.962">
        <ele>214</ele>
        <time>2012-01-10T12:05:01Z</time>
      </trkpt>
      <trkpt lat="44.58446" lon="0.96209">
        <ele>214</ele>
        <time>2012-01-10T12:05:02Z</time>
      </trkpt>
      <trkpt lat="44.58443" lon="0.96211">
        <ele>214</ele>
        <time>2012-01-10T12:05:03Z</time>
      </trkpt>
      <trkpt lat="44.58441" lon="0.96213">
        <ele>214</ele>
        <time>2012-01-10T12:05:04Z</time>
      </trkpt>
      <trkpt lat="44.58437" lon="0.96216">
        <ele>214</ele>
        <time>2012-01-10T12:05:09Z</time>
      </trkpt>
      <trkpt lat="44.5843" lon="0.96226">
        <ele>214</ele>
        <time>2012-01-10T12:05:10Z</time>
      </trkpt>
      <trkpt lat="44.58428" lon="0.96229">
        <ele>214</ele>
        <time>2012-01-10T12:05:11Z</time>
      </trkpt>
      <trkpt lat="44.58425" lon="0.96233">
        <ele>214</ele>
        <time>2012-01-10T12:05:12Z</time>
      </trkpt>
      <trkpt lat="44.58423" lon="0.96236">
        <ele>214</ele>
        <time>2012-01-10T12:05:13Z</time>
      </trkpt>
      <trkpt lat="44.58419" lon="0.96243">
        <ele>214</ele>
        <time>2012-01-10T12:05:18Z</time>
      </trkpt>
      <trkpt lat="44.5841" lon="0.96262">
        <ele>214</ele>
        <time>2012-01-10T12:05:19Z</time>
      </trkpt>
      <trkpt lat="44.58407" lon="0.96267">
        <ele>214</ele>
        <time>2012-01-10T12:05:20Z</time>
      </trkpt>
      <trkpt lat="44.584" lon="0.96278">
        <ele>214</ele>
        <time>2012-01-10T12:05:25Z</time>
      </trkpt>
      <trkpt lat="44.58392" lon="0.96299">
        <ele>214</ele>
        <time>2012-01-10T12:05:26Z</time>
      </trkpt>
      <trkpt lat="44.58389" lon="0.96305">
        <ele>214</ele>
        <time>2012-01-10T12:05:27Z</time>
      </trkpt>
      <trkpt lat="44.58385" lon="0.96315">
        <ele>214</ele>
        <time>2012-01-10T12:05:32Z</time>
      </trkpt>
      <trkpt lat="44.58377" lon="0.96332">
        <ele>214</ele>
        <time>2012-01-10T12:05:33Z</time>
      </trkpt>
      <trkpt lat="44.58376" lon="0.96337">
        <ele>213</ele>
        <time>2012-01-10T12:05:34Z</time>
      </trkpt>
      <trkpt lat="44.58373" lon="0.96346">
        <ele>212</ele>
        <time>2012-01-10T12:05:40Z</time>
      </trkpt>
      <trkpt lat="44.5837" lon="0.96367">
        <ele>211</ele>
        <time>2012-01-10T12:05:40Z</time>
      </trkpt>
      <trkpt lat="44.58371" lon="0.96372">
        <ele>210</ele>
        <time>2012-01-10T12:05:41Z</time>
      </trkpt>
      <trkpt lat="44.58373" lon="0.96377">
        <ele>210</ele>
        <time>2012-01-10T12:05:42Z</time>
      </trkpt>
      <trkpt lat="44.58374" lon="0.96382">
        <ele>210</ele>
        <time>2012-01-10T12:05:43Z</time>
      </trkpt>
      <trkpt lat="44.58378" lon="0.96393">
        <ele>210</ele>
        <time>2012-01-10T12:05:47Z</time>
      </trkpt>
      <trkpt lat="44.58383" lon="0.96406">
        <ele>210</ele>
        <time>2012-01-10T12:05:48Z</time>
      </trkpt>
      <trkpt lat="44.58384" lon="0.96409">
        <ele>210</ele>
        <time>2012-01-10T12:05:49Z</time>
      </trkpt>
      <trkpt lat="44.58386" lon="0.96414">
        <ele>210</ele>
        <time>2012-01-10T12:05:53Z</time>
      </trkpt>
      <trkpt lat="44.58389" lon="0.96422">
        <ele>210</ele>
        <time>2012-01-10T12:05:54Z</time>
      </trkpt>
      <trkpt lat="44.58391" lon="0.96425">
        <ele>210</ele>
        <time>2012-01-10T12:05:55Z</time>
      </trkpt>
      <trkpt lat="44.58392" lon="0.96428">
        <ele>210</ele>
        <time>2012-01-10T12:05:56Z</time>
      </trkpt>
      <trkpt lat="44.58395" lon="0.96434">
        <ele>210</ele>
        <time>2012-01-10T12:06:00Z</time>
      </trkpt>
      <trkpt lat="44.58397" lon="0.96442">
        <ele>210</ele>
        <time>2012-01-10T12:06:01Z</time>
      </trkpt>
      <trkpt lat="44.58397" lon="0.96444">
        <ele>210</ele>
        <time>2012-01-10T12:06:02Z</time>
      </trkpt>
      <trkpt lat="44.58397" lon="0.96446">
        <ele>210</ele>
        <time>2012-01-10T12:06:03Z</time>
      </trkpt>
      <trkpt lat="44.58396" lon="0.96454">
        <ele>210</ele>
        <time>2012-01-10T12:06:08Z</time>
      </trkpt>
      <trkpt lat="44.58395" lon="0.96456">
        <ele>211</ele>
        <time>2012-01-10T12:06:11Z</time>
      </trkpt>
      <trkpt lat="44.58394" lon="0.96457">
        <ele>211</ele>
        <time>2012-01-10T12:06:12Z</time>
      </trkpt>
      <trkpt lat="44.58393" lon="0.96461">
        <ele>212</ele>
        <time>2012-01-10T12:06:17Z</time>
      </trkpt>
      <trkpt lat="44.58391" lon="0.96468">
        <ele>213</ele>
        <time>2012-01-10T12:06:18Z</time>
      </trkpt>
      <trkpt lat="44.58391" lon="0.9647">
        <ele>214</ele>
        <time>2012-01-10T12:06:24Z</time>
      </trkpt>
      <trkpt lat="44.58393" lon="0.96473">
        <ele>214</ele>
        <time>2012-01-10T12:06:25Z</time>
      </trkpt>
      <trkpt lat="44.58395" lon="0.96474">
        <ele>214</ele>
        <time>2012-01-10T12:06:32Z</time>
      </trkpt>
      <trkpt lat="44.58396" lon="0.96474">
        <ele>214</ele>
        <time>2012-01-10T12:06:33Z</time>
      </trkpt>
      <trkpt lat="44.58397" lon="0.96474">
        <ele>216</ele>
        <time>2012-01-10T12:06:40Z</time>
      </trkpt>
      <trkpt lat="44.58398" lon="0.96474">
        <ele>218</ele>
        <time>2012-01-10T12:06:43Z</time>
      </trkpt>
      <trkpt lat="44.58399" lon="0.96473">
        <ele>219</ele>
        <time>2012-01-10T12:06:50Z</time>
      </trkpt>
      <trkpt lat="44.584" lon="0.96473">
        <ele>220</ele>
        <time>2012-01-10T12:07:00Z</time>
      </trkpt>
      <trkpt lat="44.58399" lon="0.96475">
        <ele>220</ele>
        <time>2012-01-10T12:07:06Z</time>
      </trkpt>
      <trkpt lat="44.58398" lon="0.96478">
        <ele>220</ele>
        <time>2012-01-10T12:07:07Z</time>
      </trkpt>
      <trkpt lat="44.58397" lon="0.96479">
        <ele>220</ele>
        <time>2012-01-10T12:07:15Z</time>
      </trkpt>
      <trkpt lat="44.58394" lon="0.96483">
        <ele>220</ele>
        <time>2012-01-10T12:07:16Z</time>
      </trkpt>
      <trkpt lat="44.58393" lon="0.96485">
        <ele>220</ele>
        <time>2012-01-10T12:07:17Z</time>
      </trkpt>
      <trkpt lat="44.58392" lon="0.96486">
        <ele>220</ele>
        <time>2012-01-10T12:07:18Z</time>
      </trkpt>
      <trkpt lat="44.58388" lon="0.9649">
        <ele>220</ele>
        <time>2012-01-10T12:07:23Z</time>
      </trkpt>
      <trkpt lat="44.5838" lon="0.965">
        <ele>220</ele>
        <time>2012-01-10T12:07:24Z</time>
      </trkpt>
      <trkpt lat="44.58378" lon="0.96503">
        <ele>220</ele>
        <time>2012-01-10T12:07:25Z</time>
      </trkpt>
      <trkpt lat="44.5837" lon="0.96514">
        <ele>220</ele>
        <time>2012-01-10T12:07:30Z</time>
      </trkpt>
      <trkpt lat="44.58369" lon="0.96516">
        <ele>220</ele>
        <time>2012-01-10T12:07:31Z</time>
      </trkpt>
      <trkpt lat="44.58364" lon="0.96521">
        <ele>220</ele>
        <time>2012-01-10T12:07:36Z</time>
      </trkpt>
      <trkpt lat="44.58352" lon="0.96535">
        <ele>220</ele>
        <time>2012-01-10T12:07:37Z</time>
      </trkpt>
      <trkpt lat="44.58348" lon="0.96539">
        <ele>221</ele>
        <time>2012-01-10T12:07:38Z</time>
      </trkpt>
      <trkpt lat="44.58343" lon="0.96545">
        <ele>221</ele>
        <time>2012-01-10T12:07:43Z</time>
      </trkpt>
      <trkpt lat="44.58335" lon="0.96556">
        <ele>222</ele>
        <time>2012-01-10T12:07:44Z</time>
      </trkpt>
      <trkpt lat="44.58332" lon="0.9656">
        <ele>223</ele>
        <time>2012-01-10T12:07:45Z</time>
      </trkpt>
      <trkpt lat="44.58324" lon="0.96569">
        <ele>223</ele>
        <time>2012-01-10T12:07:49Z</time>
      </trkpt>
      <trkpt lat="44.58309" lon="0.96583">
        <ele>223</ele>
        <time>2012-01-10T12:07:50Z</time>
      </trkpt>
      <trkpt lat="44.58305" lon="0.96588">
        <ele>223</ele>
        <time>2012-01-10T12:07:51Z</time>
      </trkpt>
      <trkpt lat="44.58299" lon="0.96596">
        <ele>223</ele>
        <time>2012-01-10T12:07:56Z</time>
      </trkpt>
      <trkpt lat="44.58295" lon="0.96606">
        <ele>223</ele>
        <time>2012-01-10T12:07:57Z</time>
      </trkpt>
      <trkpt lat="44.58295" lon="0.96609">
        <ele>223</ele>
        <time>2012-01-10T12:07:58Z</time>
      </trkpt>
      <trkpt lat="44.58295" lon="0.96612">
        <ele>222</ele>
        <time>2012-01-10T12:07:59Z</time>
      </trkpt>
      <trkpt lat="44.58294" lon="0.96617">
        <ele>221</ele>
        <time>2012-01-10T12:08:04Z</time>
      </trkpt>
      <trkpt lat="44.58287" lon="0.96623">
        <ele>220</ele>
        <time>2012-01-10T12:08:05Z</time>
      </trkpt>
      <trkpt lat="44.58283" lon="0.96624">
        <ele>219</ele>
        <time>2012-01-10T12:08:06Z</time>
      </trkpt>
      <trkpt lat="44.58281" lon="0.96627">
        <ele>218</ele>
        <time>2012-01-10T12:08:07Z</time>
      </trkpt>
      <trkpt lat="44.58268" lon="0.96633">
        <ele>217</ele>
        <time>2012-01-10T12:08:12Z</time>
      </trkpt>
      <trkpt lat="44.58242" lon="0.96644">
        <ele>216</ele>
        <time>2012-01-10T12:08:13Z</time>
      </trkpt>
      <trkpt lat="44.58238" lon="0.96648">
        <ele>215</ele>
        <time>2012-01-10T12:08:14Z</time>
      </trkpt>
      <trkpt lat="44.58228" lon="0.96651">
        <ele>214</ele>
        <time>2012-01-10T12:08:19Z</time>
      </trkpt>
      <trkpt lat="44.58213" lon="0.96662">
        <ele>212</ele>
        <time>2012-01-10T12:08:20Z</time>
      </trkpt>
      <trkpt lat="44.5821" lon="0.96668">
        <ele>210</ele>
        <time>2012-01-10T12:08:21Z</time>
      </trkpt>
      <trkpt lat="44.58207" lon="0.96672">
        <ele>208</ele>
        <time>2012-01-10T12:08:22Z</time>
      </trkpt>
      <trkpt lat="44.582" lon="0.96683">
        <ele>206</ele>
        <time>2012-01-10T12:08:27Z</time>
      </trkpt>
      <trkpt lat="44.58194" lon="0.96703">
        <ele>204</ele>
        <time>2012-01-10T12:08:28Z</time>
      </trkpt>
      <trkpt lat="44.58193" lon="0.9671">
        <ele>203</ele>
        <time>2012-01-10T12:08:29Z</time>
      </trkpt>
      <trkpt lat="44.58193" lon="0.96714">
        <ele>201</ele>
        <time>2012-01-10T12:08:30Z</time>
      </trkpt>
      <trkpt lat="44.58193" lon="0.9672">
        <ele>200</ele>
        <time>2012-01-10T12:08:35Z</time>
      </trkpt>
      <trkpt lat="44.58198" lon="0.96725">
        <ele>199</ele>
        <time>2012-01-10T12:08:36Z</time>
      </trkpt>
      <trkpt lat="44.58198" lon="0.96727">
        <ele>198</ele>
        <time>2012-01-10T12:08:37Z</time>
      </trkpt>
      <trkpt lat="44.58197" lon="0.96728">
        <ele>197</ele>
        <time>2012-01-10T12:08:38Z</time>
      </trkpt>
      <trkpt lat="44.58202" lon="0.96735">
        <ele>195</ele>
        <time>2012-01-10T12:08:45Z</time>
      </trkpt>
      <trkpt lat="44.58203" lon="0.96737">
        <ele>193</ele>
        <time>2012-01-10T12:08:47Z</time>
      </trkpt>
      <trkpt lat="44.58205" lon="0.96738">
        <ele>192</ele>
        <time>2012-01-10T12:08:53Z</time>
      </trkpt>
      <trkpt lat="44.58213" lon="0.96747">
        <ele>191</ele>
        <time>2012-01-10T12:08:54Z</time>
      </trkpt>
      <trkpt lat="44.58214" lon="0.96748">
        <ele>190</ele>
        <time>2012-01-10T12:08:55Z</time>
      </trkpt>
      <trkpt lat="44.58216" lon="0.96749">
        <ele>189</ele>
        <time>2012-01-10T12:08:56Z</time>
      </trkpt>
      <trkpt lat="44.58222" lon="0.96751">
        <ele>188</ele>
        <time>2012-01-10T12:09:00Z</time>
      </trkpt>
      <trkpt lat="44.58228" lon="0.96753">
        <ele>187</ele>
        <time>2012-01-10T12:09:01Z</time>
      </trkpt>
      <trkpt lat="44.5823" lon="0.96753">
        <ele>186</ele>
        <time>2012-01-10T12:09:02Z</time>
      </trkpt>
      <trkpt lat="44.58232" lon="0.96752">
        <ele>185</ele>
        <time>2012-01-10T12:09:03Z</time>
      </trkpt>
      <trkpt lat="44.58237" lon="0.96751">
        <ele>185</ele>
        <time>2012-01-10T12:09:08Z</time>
      </trkpt>
      <trkpt lat="44.58251" lon="0.96751">
        <ele>185</ele>
        <time>2012-01-10T12:09:09Z</time>
      </trkpt>
      <trkpt lat="44.58252" lon="0.96753">
        <ele>185</ele>
        <time>2012-01-10T12:09:10Z</time>
      </trkpt>
      <trkpt lat="44.58253" lon="0.96755">
        <ele>185</ele>
        <time>2012-01-10T12:09:11Z</time>
      </trkpt>
      <trkpt lat="44.58255" lon="0.96757">
        <ele>185</ele>
        <time>2012-01-10T12:09:16Z</time>
      </trkpt>
      <trkpt lat="44.58256" lon="0.96759">
        <ele>185</ele>
        <time>2012-01-10T12:09:16Z</time>
      </trkpt>
      <trkpt lat="44.58253" lon="0.96762">
        <ele>185</ele>
        <time>2012-01-10T12:09:23Z</time>
      </trkpt>
      <trkpt lat="44.58254" lon="0.96767">
        <ele>184</ele>
        <time>2012-01-10T12:09:24Z</time>
      </trkpt>
      <trkpt lat="44.58255" lon="0.96769">
        <ele>183</ele>
        <time>2012-01-10T12:09:26Z</time>
      </trkpt>
      <trkpt lat="44.58256" lon="0.96771">
        <ele>182</ele>
        <time>2012-01-10T12:09:31Z</time>
      </trkpt>
      <trkpt lat="44.58253" lon="0.96773">
        <ele>181</ele>
        <time>2012-01-10T12:09:32Z</time>
      </trkpt>
      <trkpt lat="44.58254" lon="0.96775">
        <ele>181</ele>
        <time>2012-01-10T12:09:41Z</time>
      </trkpt>
      <trkpt lat="44.58253" lon="0.96777">
        <ele>181</ele>
        <time>2012-01-10T12:09:48Z</time>
      </trkpt>
      <trkpt lat="44.5825" lon="0.96776">
        <ele>181</ele>
        <time>2012-01-10T12:09:56Z</time>
      </trkpt>
      <trkpt lat="44.58249" lon="0.96777">
        <ele>181</ele>
        <time>2012-01-10T12:10:02Z</time>
      </trkpt>
      <trkpt lat="44.58247" lon="0.96776">
        <ele>181</ele>
        <time>2012-01-10T12:10:05Z</time>
      </trkpt>
      <trkpt lat="44.58245" lon="0.96778">
        <ele>181</ele>
        <time>2012-01-10T12:10:11Z</time>
      </trkpt>
      <trkpt lat="44.5824" lon="0.96775">
        <ele>181</ele>
        <time>2012-01-10T12:10:19Z</time>
      </trkpt>
      <trkpt lat="44.58239" lon="0.96773">
        <ele>181</ele>
        <time>2012-01-10T12:10:20Z</time>
      </trkpt>
      <trkpt lat="44.58237" lon="0.96772">
        <ele>181</ele>
        <time>2012-01-10T12:10:24Z</time>
      </trkpt>
      <trkpt lat="44.58234" lon="0.96772">
        <ele>181</ele>
        <time>2012-01-10T12:10:25Z</time>
      </trkpt>
      <trkpt lat="44.58232" lon="0.96772">
        <ele>181</ele>
        <time>2012-01-10T12:10:26Z</time>
      </trkpt>
      <trkpt lat="44.5823" lon="0.96773">
        <ele>181</ele>
        <time>2012-01-10T12:10:31Z</time>
      </trkpt>
      <trkpt lat="44.58226" lon="0.96773">
        <ele>181</ele>
        <time>2012-01-10T12:10:31Z</time>
      </trkpt>
      <trkpt lat="44.58224" lon="0.96774">
        <ele>183</ele>
        <time>2012-01-10T12:10:34Z</time>
      </trkpt>
      <trkpt lat="44.58221" lon="0.96774">
        <ele>183</ele>
        <time>2012-01-10T12:10:38Z</time>
      </trkpt>
      <trkpt lat="44.58218" lon="0.96773">
        <ele>184</ele>
        <time>2012-01-10T12:10:39Z</time>
      </trkpt>
      <trkpt lat="44.58217" lon="0.96771">
        <ele>185</ele>
        <time>2012-01-10T12:10:40Z</time>
      </trkpt>
      <trkpt lat="44.58215" lon="0.96771">
        <ele>185</ele>
        <time>2012-01-10T12:10:41Z</time>
      </trkpt>
      <trkpt lat="44.58214" lon="0.9677">
        <ele>186</ele>
        <time>2012-01-10T12:10:42Z</time>
      </trkpt>
      <trkpt lat="44.58212" lon="0.96768">
        <ele>186</ele>
        <time>2012-01-10T12:10:47Z</time>
      </trkpt>
      <trkpt lat="44.5821" lon="0.96766">
        <ele>186</ele>
        <time>2012-01-10T12:10:48Z</time>
      </trkpt>
      <trkpt lat="44.58208" lon="0.96766">
        <ele>186</ele>
        <time>2012-01-10T12:10:56Z</time>
      </trkpt>
      <trkpt lat="44.58206" lon="0.96767">
        <ele>186</ele>
        <time>2012-01-10T12:10:58Z</time>
      </trkpt>
      <trkpt lat="44.58204" lon="0.96767">
        <ele>186</ele>
        <time>2012-01-10T12:11:03Z</time>
      </trkpt>
      <trkpt lat="44.58199" lon="0.96767">
        <ele>186</ele>
        <time>2012-01-10T12:11:04Z</time>
      </trkpt>
      <trkpt lat="44.58197" lon="0.96766">
        <ele>186</ele>
        <time>2012-01-10T12:11:10Z</time>
      </trkpt>
      <trkpt lat="44.58191" lon="0.96767">
        <ele>186</ele>
        <time>2012-01-10T12:11:11Z</time>
      </trkpt>
      <trkpt lat="44.58184" lon="0.96766">
        <ele>186</ele>
        <time>2012-01-10T12:11:17Z</time>
      </trkpt>
      <trkpt lat="44.58182" lon="0.96764">
        <ele>186</ele>
        <time>2012-01-10T12:11:19Z</time>
      </trkpt>
      <trkpt lat="44.58175" lon="0.96761">
        <ele>186</ele>
        <time>2012-01-10T12:11:24Z</time>
      </trkpt>
      <trkpt lat="44.58174" lon="0.96759">
        <ele>186</ele>
        <time>2012-01-10T12:11:25Z</time>
      </trkpt>
      <trkpt lat="44.58173" lon="0.96757">
        <ele>187</ele>
        <time>2012-01-10T12:11:31Z</time>
      </trkpt>
      <trkpt lat="44.5817" lon="0.96756">
        <ele>187</ele>
        <time>2012-01-10T12:11:32Z</time>
      </trkpt>
      <trkpt lat="44.58165" lon="0.96753">
        <ele>187</ele>
        <time>2012-01-10T12:11:39Z</time>
      </trkpt>
      <trkpt lat="44.58164" lon="0.96752">
        <ele>188</ele>
        <time>2012-01-10T12:11:41Z</time>
      </trkpt>
      <trkpt lat="44.58162" lon="0.96754">
        <ele>188</ele>
        <time>2012-01-10T12:11:49Z</time>
      </trkpt>
      <trkpt lat="44.5816" lon="0.96754">
        <ele>188</ele>
        <time>2012-01-10T12:11:54Z</time>
      </trkpt>
      <trkpt lat="44.58155" lon="0.96754">
        <ele>188</ele>
        <time>2012-01-10T12:11:55Z</time>
      </trkpt>
      <trkpt lat="44.58152" lon="0.96754">
        <ele>188</ele>
        <time>2012-01-10T12:11:56Z</time>
      </trkpt>
      <trkpt lat="44.58149" lon="0.96754">
        <ele>188</ele>
        <time>2012-01-10T12:12:00Z</time>
      </trkpt>
      <trkpt lat="44.58147" lon="0.96752">
        <ele>188</ele>
        <time>2012-01-10T12:12:01Z</time>
      </trkpt>
      <trkpt lat="44.58145" lon="0.96752">
        <ele>188</ele>
        <time>2012-01-10T12:12:02Z</time>
      </trkpt>
      <trkpt lat="44.58143" lon="0.96751">
        <ele>188</ele>
        <time>2012-01-10T12:12:03Z</time>
      </trkpt>
      <trkpt lat="44.58142" lon="0.96751">
        <ele>188</ele>
        <time>2012-01-10T12:12:04Z</time>
      </trkpt>
      <trkpt lat="44.58139" lon="0.96751">
        <ele>188</ele>
        <time>2012-01-10T12:12:09Z</time>
      </trkpt>
      <trkpt lat="44.58131" lon="0.96749">
        <ele>188</ele>
        <time>2012-01-10T12:12:10Z</time>
      </trkpt>
      <trkpt lat="44.58129" lon="0.9675">
        <ele>188</ele>
        <time>2012-01-10T12:12:11Z</time>
      </trkpt>
      <trkpt lat="44.58127" lon="0.9675">
        <ele>188</ele>
        <time>2012-01-10T12:12:12Z</time>
      </trkpt>
      <trkpt lat="44.58123" lon="0.9675">
        <ele>188</ele>
        <time>2012-01-10T12:12:16Z</time>
      </trkpt>
      <trkpt lat="44.58115" lon="0.96748">
        <ele>188</ele>
        <time>2012-01-10T12:12:17Z</time>
      </trkpt>
      <trkpt lat="44.58112" lon="0.96747">
        <ele>188</ele>
        <time>2012-01-10T12:12:17Z</time>
      </trkpt>
      <trkpt lat="44.5811" lon="0.96747">
        <ele>187</ele>
        <time>2012-01-10T12:12:19Z</time>
      </trkpt>
      <trkpt lat="44.58107" lon="0.96746">
        <ele>186</ele>
        <time>2012-01-10T12:12:20Z</time>
      </trkpt>
      <trkpt lat="44.58101" lon="0.96745">
        <ele>185</ele>
        <time>2012-01-10T12:12:24Z</time>
      </trkpt>
      <trkpt lat="44.58093" lon="0.96744">
        <ele>184</ele>
        <time>2012-01-10T12:12:25Z</time>
      </trkpt>
      <trkpt lat="44.58091" lon="0.96743">
        <ele>183</ele>
        <time>2012-01-10T12:12:25Z</time>
      </trkpt>
      <trkpt lat="44.58085" lon="0.96741">
        <ele>182</ele>
        <time>2012-01-10T12:12:31Z</time>
      </trkpt>
      <trkpt lat="44.58074" lon="0.96736">
        <ele>181</ele>
        <time>2012-01-10T12:12:31Z</time>
      </trkpt>
      <trkpt lat="44.58073" lon="0.96735">
        <ele>180</ele>
        <time>2012-01-10T12:12:32Z</time>
      </trkpt>
      <trkpt lat="44.5807" lon="0.96733">
        <ele>180</ele>
        <time>2012-01-10T12:12:34Z</time>
      </trkpt>
      <trkpt lat="44.58066" lon="0.96731">
        <ele>179</ele>
        <time>2012-01-10T12:12:39Z</time>
      </trkpt>
      <trkpt lat="44.58056" lon="0.96733">
        <ele>179</ele>
        <time>2012-01-10T12:12:39Z</time>
      </trkpt>
      <trkpt lat="44.58053" lon="0.96735">
        <ele>178</ele>
        <time>2012-01-10T12:12:40Z</time>
      </trkpt>
      <trkpt lat="44.58049" lon="0.96736">
        <ele>177</ele>
        <time>2012-01-10T12:12:41Z</time>
      </trkpt>
      <trkpt lat="44.58044" lon="0.9674">
        <ele>176</ele>
        <time>2012-01-10T12:12:46Z</time>
      </trkpt>
      <trkpt lat="44.58035" lon="0.96746">
        <ele>175</ele>
        <time>2012-01-10T12:12:47Z</time>
      </trkpt>
      <trkpt lat="44.58033" lon="0.96749">
        <ele>174</ele>
        <time>2012-01-10T12:12:48Z</time>
      </trkpt>
      <trkpt lat="44.58029" lon="0.96751">
        <ele>173</ele>
        <time>2012-01-10T12:12:48Z</time>
      </trkpt>
      <trkpt lat="44.58024" lon="0.96756">
        <ele>172</ele>
        <time>2012-01-10T12:12:53Z</time>
      </trkpt>
      <trkpt lat="44.58014" lon="0.9676">
        <ele>171</ele>
        <time>2012-01-10T12:12:54Z</time>
      </trkpt>
      <trkpt lat="44.5801" lon="0.96762">
        <ele>170</ele>
        <time>2012-01-10T12:12:55Z</time>
      </trkpt>
      <trkpt lat="44.58005" lon="0.96764">
        <ele>169</ele>
        <time>2012-01-10T12:12:56Z</time>
      </trkpt>
      <trkpt lat="44.57995" lon="0.96768">
        <ele>168</ele>
        <time>2012-01-10T12:13:01Z</time>
      </trkpt>
      <trkpt lat="44.57981" lon="0.96775">
        <ele>167</ele>
        <time>2012-01-10T12:13:01Z</time>
      </trkpt>
      <trkpt lat="44.57978" lon="0.96775">
        <ele>166</ele>
        <time>2012-01-10T12:13:02Z</time>
      </trkpt>
      <trkpt lat="44.57966" lon="0.96782">
        <ele>165</ele>
        <time>2012-01-10T12:13:08Z</time>
      </trkpt>
      <trkpt lat="44.57964" lon="0.96786">
        <ele>164</ele>
        <time>2012-01-10T12:13:09Z</time>
      </trkpt>
      <trkpt lat="44.57963" lon="0.9679">
        <ele>163</ele>
        <time>2012-01-10T12:13:10Z</time>
      </trkpt>
      <trkpt lat="44.57962" lon="0.96794">
        <ele>162</ele>
        <time>2012-01-10T12:13:11Z</time>
      </trkpt>
      <trkpt lat="44.57958" lon="0.96802">
        <ele>161</ele>
        <time>2012-01-10T12:13:16Z</time>
      </trkpt>
      <trkpt lat="44.57943" lon="0.96817">
        <ele>160</ele>
        <time>2012-01-10T12:13:17Z</time>
      </trkpt>
      <trkpt lat="44.57939" lon="0.96821">
        <ele>159</ele>
        <time>2012-01-10T12:13:18Z</time>
      </trkpt>
      <trkpt lat="44.57934" lon="0.96825">
        <ele>158</ele>
        <time>2012-01-10T12:13:19Z</time>
      </trkpt>
      <trkpt lat="44.57922" lon="0.96833">
        <ele>157</ele>
        <time>2012-01-10T12:13:24Z</time>
      </trkpt>
      <trkpt lat="44.57899" lon="0.96848">
        <ele>155</ele>
        <time>2012-01-10T12:13:24Z</time>
      </trkpt>
      <trkpt lat="44.57893" lon="0.96851">
        <ele>153</ele>
        <time>2012-01-10T12:13:25Z</time>
      </trkpt>
      <trkpt lat="44.57864" lon="0.96847">
        <ele>151</ele>
        <time>2012-01-10T12:13:31Z</time>
      </trkpt>
      <trkpt lat="44.57859" lon="0.96841">
        <ele>149</ele>
        <time>2012-01-10T12:13:32Z</time>
      </trkpt>
      <trkpt lat="44.57854" lon="0.96834">
        <ele>147</ele>
        <time>2012-01-10T12:13:33Z</time>
      </trkpt>
      <trkpt lat="44.57843" lon="0.96819">
        <ele>144</ele>
        <time>2012-01-10T12:13:38Z</time>
      </trkpt>
      <trkpt lat="44.57825" lon="0.96781">
        <ele>141</ele>
        <time>2012-01-10T12:13:38Z</time>
      </trkpt>
      <trkpt lat="44.5782" lon="0.96771">
        <ele>138</ele>
        <time>2012-01-10T12:13:39Z</time>
      </trkpt>
      <trkpt lat="44.57813" lon="0.9675">
        <ele>136</ele>
        <time>2012-01-10T12:13:45Z</time>
      </trkpt>
      <trkpt lat="44.57799" lon="0.96717">
        <ele>134</ele>
        <time>2012-01-10T12:13:45Z</time>
      </trkpt>
      <trkpt lat="44.57794" lon="0.96712">
        <ele>132</ele>
        <time>2012-01-10T12:13:46Z</time>
      </trkpt>
      <trkpt lat="44.5779" lon="0.96707">
        <ele>130</ele>
        <time>2012-01-10T12:13:48Z</time>
      </trkpt>
      <trkpt lat="44.57782" lon="0.96699">
        <ele>128</ele>
        <time>2012-01-10T12:13:53Z</time>
      </trkpt>
      <trkpt lat="44.57779" lon="0.96683">
        <ele>126</ele>
        <time>2012-01-10T12:13:53Z</time>
      </trkpt>
      <trkpt lat="44.57778" lon="0.96681">
        <ele>124</ele>
        <time>2012-01-10T12:13:55Z</time>
      </trkpt>
      <trkpt lat="44.57777" lon="0.96681">
        <ele>122</ele>
        <time>2012-01-10T12:13:56Z</time>
      </trkpt>
      <trkpt lat="44.57775" lon="0.96683">
        <ele>120</ele>
        <time>2012-01-10T12:13:57Z</time>
      </trkpt>
      <trkpt lat="44.57771" lon="0.96689">
        <ele>119</ele>
        <time>2012-01-10T12:14:03Z</time>
      </trkpt>
      <trkpt lat="44.57756" lon="0.96709">
        <ele>117</ele>
        <time>2012-01-10T12:14:04Z</time>
      </trkpt>
      <trkpt lat="44.57751" lon="0.96711">
        <ele>116</ele>
        <time>2012-01-10T12:14:05Z</time>
      </trkpt>
      <trkpt lat="44.57747" lon="0.96713">
        <ele>115</ele>
        <time>2012-01-10T12:14:06Z</time>
      </trkpt>
      <trkpt lat="44.57741" lon="0.96721">
        <ele>113</ele>
        <time>2012-01-10T12:14:11Z</time>
      </trkpt>
      <trkpt lat="44.57745" lon="0.9675">
        <ele>111</ele>
        <time>2012-01-10T12:14:12Z</time>
      </trkpt>
      <trkpt lat="44.57747" lon="0.96757">
        <ele>110</ele>
        <time>2012-01-10T12:14:13Z</time>
      </trkpt>
      <trkpt lat="44.57749" lon="0.96763">
        <ele>109</ele>
        <time>2012-01-10T12:14:14Z</time>
      </trkpt>
      <trkpt lat="44.57752" lon="0.96776">
        <ele>108</ele>
        <time>2012-01-10T12:14:19Z</time>
      </trkpt>
      <trkpt lat="44.5776" lon="0.96798">
        <ele>107</ele>
        <time>2012-01-10T12:14:20Z</time>
      </trkpt>
      <trkpt lat="44.57763" lon="0.96803">
        <ele>106</ele>
        <time>2012-01-10T12:14:20Z</time>
      </trkpt>
      <trkpt lat="44.57765" lon="0.96808">
        <ele>105</ele>
        <time>2012-01-10T12:14:22Z</time>
      </trkpt>
      <trkpt lat="44.5777" lon="0.96817">
        <ele>105</ele>
        <time>2012-01-10T12:14:26Z</time>
      </trkpt>
      <trkpt lat="44.57778" lon="0.96831">
        <ele>105</ele>
        <time>2012-01-10T12:14:26Z</time>
      </trkpt>
      <trkpt lat="44.5778" lon="0.96836">
        <ele>105</ele>
        <time>2012-01-10T12:14:27Z</time>
      </trkpt>
      <trkpt lat="44.57793" lon="0.96862">
        <ele>105</ele>
        <time>2012-01-10T12:14:32Z</time>
      </trkpt>
      <trkpt lat="44.57796" lon="0.96867">
        <ele>105</ele>
        <time>2012-01-10T12:14:33Z</time>
      </trkpt>
      <trkpt lat="44.57811" lon="0.96889">
        <ele>105</ele>
        <time>2012-01-10T12:14:39Z</time>
      </trkpt>
      <trkpt lat="44.57815" lon="0.96894">
        <ele>105</ele>
        <time>2012-01-10T12:14:39Z</time>
      </trkpt>
      <trkpt lat="44.57819" lon="0.969">
        <ele>104</ele>
        <time>2012-01-10T12:14:40Z</time>
      </trkpt>
      <trkpt lat="44.5783" lon="0.96909">
        <ele>104</ele>
        <time>2012-01-10T12:14:45Z</time>
      </trkpt>
      <trkpt lat="44.57847" lon="0.96919">
        <ele>104</ele>
        <time>2012-01-10T12:14:45Z</time>
      </trkpt>
      <trkpt lat="44.57852" lon="0.96921">
        <ele>103</ele>
        <time>2012-01-10T12:14:47Z</time>
      </trkpt>
      <trkpt lat="44.57856" lon="0.96927">
        <ele>103</ele>
        <time>2012-01-10T12:14:52Z</time>
      </trkpt>
      <trkpt lat="44.57856" lon="0.96925">
        <ele>103</ele>
        <time>2012-01-10T12:15:01Z</time>
      </trkpt>
      <trkpt lat="44.57855" lon="0.96927">
        <ele>103</ele>
        <time>2012-01-10T12:15:08Z</time>
      </trkpt>
      <trkpt lat="44.57856" lon="0.96929">
        <ele>103</ele>
        <time>2012-01-10T12:15:16Z</time>
      </trkpt>
      <trkpt lat="44.57856" lon="0.96931">
        <ele>103</ele>
        <time>2012-01-10T12:15:18Z</time>
      </trkpt>
      <trkpt lat="44.57859" lon="0.96928">
        <ele>103</ele>
        <time>2012-01-10T12:15:33Z</time>
      </trkpt>
      <trkpt lat="44.57861" lon="0.96927">
        <ele>102</ele>
        <time>2012-01-10T12:15:35Z</time>
      </trkpt>
      <trkpt lat="44.57862" lon="0.96928">
        <ele>102</ele>
        <time>2012-01-10T12:15:40Z</time>
      </trkpt>
      <trkpt lat="44.57872" lon="0.96932">
        <ele>102</ele>
        <time>2012-01-10T12:15:40Z</time>
      </trkpt>
      <trkpt lat="44.57877" lon="0.96934">
        <ele>102</ele>
        <time>2012-01-10T12:15:41Z</time>
      </trkpt>
      <trkpt lat="44.57885" lon="0.96937">
        <ele>102</ele>
        <time>2012-01-10T12:15:46Z</time>
      </trkpt>
      <trkpt lat="44.57891" lon="0.96944">
        <ele>102</ele>
        <time>2012-01-10T12:15:46Z</time>
      </trkpt>
      <trkpt lat="44.57893" lon="0.96945">
        <ele>101</ele>
        <time>2012-01-10T12:15:48Z</time>
      </trkpt>
      <trkpt lat="44.57895" lon="0.96947">
        <ele>101</ele>
        <time>2012-01-10T12:15:49Z</time>
      </trkpt>
      <trkpt lat="44.57901" lon="0.96946">
        <ele>101</ele>
        <time>2012-01-10T12:15:54Z</time>
      </trkpt>
      <trkpt lat="44.57914" lon="0.96941">
        <ele>101</ele>
        <time>2012-01-10T12:15:55Z</time>
      </trkpt>
      <trkpt lat="44.57917" lon="0.96941">
        <ele>100</ele>
        <time>2012-01-10T12:15:56Z</time>
      </trkpt>
      <trkpt lat="44.57923" lon="0.96942">
        <ele>100</ele>
        <time>2012-01-10T12:16:00Z</time>
      </trkpt>
      <trkpt lat="44.57931" lon="0.96942">
        <ele>100</ele>
        <time>2012-01-10T12:16:01Z</time>
      </trkpt>
      <trkpt lat="44.57933" lon="0.96943">
        <ele>100</ele>
        <time>2012-01-10T12:16:01Z</time>
      </trkpt>
      <trkpt lat="44.57938" lon="0.96943">
        <ele>100</ele>
        <time>2012-01-10T12:16:07Z</time>
      </trkpt>
      <trkpt lat="44.57947" lon="0.96941">
        <ele>100</ele>
        <time>2012-01-10T12:16:07Z</time>
      </trkpt>
      <trkpt lat="44.57949" lon="0.9694">
        <ele>100</ele>
        <time>2012-01-10T12:16:09Z</time>
      </trkpt>
      <trkpt lat="44.57951" lon="0.96939">
        <ele>100</ele>
        <time>2012-01-10T12:16:15Z</time>
      </trkpt>
      <trkpt lat="44.57949" lon="0.96942">
        <ele>100</ele>
        <time>2012-01-10T12:16:22Z</time>
      </trkpt>
      <trkpt lat="44.5795" lon="0.96949">
        <ele>100</ele>
        <time>2012-01-10T12:16:23Z</time>
      </trkpt>
      <trkpt lat="44.57952" lon="0.96951">
        <ele>100</ele>
        <time>2012-01-10T12:16:25Z</time>
      </trkpt>
      <trkpt lat="44.5795" lon="0.96958">
        <ele>100</ele>
        <time>2012-01-10T12:16:31Z</time>
      </trkpt>
      <trkpt lat="44.57948" lon="0.9696">
        <ele>100</ele>
        <time>2012-01-10T12:16:32Z</time>
      </trkpt>
      <trkpt lat="44.57947" lon="0.96961">
        <ele>99</ele>
        <time>2012-01-10T12:16:33Z</time>
      </trkpt>
      <trkpt lat="44.57942" lon="0.96964">
        <ele>98</ele>
        <time>2012-01-10T12:16:37Z</time>
      </trkpt>
      <trkpt lat="44.57933" lon="0.96964">
        <ele>98</ele>
        <time>2012-01-10T12:16:38Z</time>
      </trkpt>
      <trkpt lat="44.5793" lon="0.96962">
        <ele>98</ele>
        <time>2012-01-10T12:16:39Z</time>
      </trkpt>
      <trkpt lat="44.57927" lon="0.96961">
        <ele>98</ele>
        <time>2012-01-10T12:16:40Z</time>
      </trkpt>
      <trkpt lat="44.5792" lon="0.96959">
        <ele>98</ele>
        <time>2012-01-10T12:16:45Z</time>
      </trkpt>
      <trkpt lat="44.57906" lon="0.96955">
        <ele>98</ele>
        <time>2012-01-10T12:16:45Z</time>
      </trkpt>
      <trkpt lat="44.57902" lon="0.96954">
        <ele>98</ele>
        <time>2012-01-10T12:16:46Z</time>
      </trkpt>
      <trkpt lat="44.57894" lon="0.96952">
        <ele>98</ele>
        <time>2012-01-10T12:16:51Z</time>
      </trkpt>
      <trkpt lat="44.57881" lon="0.96951">
        <ele>98</ele>
        <time>2012-01-10T12:16:51Z</time>
      </trkpt>
      <trkpt lat="44.57877" lon="0.9695">
        <ele>98</ele>
        <time>2012-01-10T12:16:52Z</time>
      </trkpt>
      <trkpt lat="44.57867" lon="0.96947">
        <ele>98</ele>
        <time>2012-01-10T12:16:58Z</time>
      </trkpt>
      <trkpt lat="44.57847" lon="0.96943">
        <ele>98</ele>
        <time>2012-01-10T12:16:58Z</time>
      </trkpt>
      <trkpt lat="44.57842" lon="0.96942">
        <ele>98</ele>
        <time>2012-01-10T12:16:59Z</time>
      </trkpt>
      <trkpt lat="44.57831" lon="0.96942">
        <ele>98</ele>
        <time>2012-01-10T12:17:04Z</time>
      </trkpt>
      <trkpt lat="44.57815" lon="0.96938">
        <ele>98</ele>
        <time>2012-01-10T12:17:04Z</time>
      </trkpt>
      <trkpt lat="44.5781" lon="0.96936">
        <ele>98</ele>
        <time>2012-01-10T12:17:05Z</time>
      </trkpt>
      <trkpt lat="44.578" lon="0.96932">
        <ele>98</ele>
        <time>2012-01-10T12:17:11Z</time>
      </trkpt>
      <trkpt lat="44.5778" lon="0.96924">
        <ele>98</ele>
        <time>2012-01-10T12:17:11Z</time>
      </trkpt>
      <trkpt lat="44.57776" lon="0.96922">
        <ele>98</ele>
        <time>2012-01-10T12:17:12Z</time>
      </trkpt>
      <trkpt lat="44.57766" lon="0.96918">
        <ele>98</ele>
        <time>2012-01-10T12:17:17Z</time>
      </trkpt>
      <trkpt lat="44.57751" lon="0.96912">
        <ele>98</ele>
        <time>2012-01-10T12:17:17Z</time>
      </trkpt>
      <trkpt lat="44.57747" lon="0.9691">
        <ele>98</ele>
        <time>2012-01-10T12:17:18Z</time>
      </trkpt>
      <trkpt lat="44.57738" lon="0.96907">
        <ele>98</ele>
        <time>2012-01-10T12:17:24Z</time>
      </trkpt>
      <trkpt lat="44.57724" lon="0.96904">
        <ele>98</ele>
        <time>2012-01-10T12:17:24Z</time>
      </trkpt>
      <trkpt lat="44.57722" lon="0.96905">
        <ele>98</ele>
        <time>2012-01-10T12:17:26Z</time>
      </trkpt>
      <trkpt lat="44.57719" lon="0.96908">
        <ele>98</ele>
        <time>2012-01-10T12:17:27Z</time>
      </trkpt>
      <trkpt lat="44.57718" lon="0.96917">
        <ele>98</ele>
        <time>2012-01-10T12:17:33Z</time>
      </trkpt>
      <trkpt lat="44.57718" lon="0.96949">
        <ele>98</ele>
        <time>2012-01-10T12:17:34Z</time>
      </trkpt>
      <trkpt lat="44.57719" lon="0.96956">
        <ele>98</ele>
        <time>2012-01-10T12:17:35Z</time>
      </trkpt>
      <trkpt lat="44.57719" lon="0.9697">
        <ele>98</ele>
        <time>2012-01-10T12:17:40Z</time>
      </trkpt>
      <trkpt lat="44.5772" lon="0.96999">
        <ele>98</ele>
        <time>2012-01-10T12:17:40Z</time>
      </trkpt>
      <trkpt lat="44.5772" lon="0.97006">
        <ele>98</ele>
        <time>2012-01-10T12:17:41Z</time>
      </trkpt>
      <trkpt lat="44.5772" lon="0.97021">
        <ele>98</ele>
        <time>2012-01-10T12:17:46Z</time>
      </trkpt>
      <trkpt lat="44.57716" lon="0.97042">
        <ele>98</ele>
        <time>2012-01-10T12:17:47Z</time>
      </trkpt>
      <trkpt lat="44.57714" lon="0.97049">
        <ele>98</ele>
        <time>2012-01-10T12:17:47Z</time>
      </trkpt>
      <trkpt lat="44.57712" lon="0.97056">
        <ele>98</ele>
        <time>2012-01-10T12:17:49Z</time>
      </trkpt>
      <trkpt lat="44.57709" lon="0.9707">
        <ele>98</ele>
        <time>2012-01-10T12:17:54Z</time>
      </trkpt>
      <trkpt lat="44.57704" lon="0.97098">
        <ele>98</ele>
        <time>2012-01-10T12:17:54Z</time>
      </trkpt>
      <trkpt lat="44.57703" lon="0.97105">
        <ele>98</ele>
        <time>2012-01-10T12:17:55Z</time>
      </trkpt>
      <trkpt lat="44.57696" lon="0.97134">
        <ele>98</ele>
        <time>2012-01-10T12:18:01Z</time>
      </trkpt>
      <trkpt lat="44.57692" lon="0.97135">
        <ele>98</ele>
        <time>2012-01-10T12:18:02Z</time>
      </trkpt>
      <trkpt lat="44.57688" lon="0.97132">
        <ele>98</ele>
        <time>2012-01-10T12:18:03Z</time>
      </trkpt>
      <trkpt lat="44.57684" lon="0.9713">
        <ele>98</ele>
        <time>2012-01-10T12:18:04Z</time>
      </trkpt>
      <trkpt lat="44.57656" lon="0.97122">
        <ele>98</ele>
        <time>2012-01-10T12:18:09Z</time>
      </trkpt>
      <trkpt lat="44.57651" lon="0.9712">
        <ele>98</ele>
        <time>2012-01-10T12:18:10Z</time>
      </trkpt>
      <trkpt lat="44.57626" lon="0.97116">
        <ele>98</ele>
        <time>2012-01-10T12:18:16Z</time>
      </trkpt>
      <trkpt lat="44.5762" lon="0.97114">
        <ele>98</ele>
        <time>2012-01-10T12:18:16Z</time>
      </trkpt>
      <trkpt lat="44.57615" lon="0.97113">
        <ele>99</ele>
        <time>2012-01-10T12:18:17Z</time>
      </trkpt>
      <trkpt lat="44.57586" lon="0.97108">
        <ele>99</ele>
        <time>2012-01-10T12:18:23Z</time>
      </trkpt>
      <trkpt lat="44.5758" lon="0.97108">
        <ele>99</ele>
        <time>2012-01-10T12:18:23Z</time>
      </trkpt>
      <trkpt lat="44.57574" lon="0.97109">
        <ele>99</ele>
        <time>2012-01-10T12:18:24Z</time>
      </trkpt>
      <trkpt lat="44.57548" lon="0.97123">
        <ele>99</ele>
        <time>2012-01-10T12:18:30Z</time>
      </trkpt>
      <trkpt lat="44.57543" lon="0.97127">
        <ele>99</ele>
        <time>2012-01-10T12:18:31Z</time>
      </trkpt>
      <trkpt lat="44.57538" lon="0.97133">
        <ele>99</ele>
        <time>2012-01-10T12:18:32Z</time>
      </trkpt>
      <trkpt lat="44.57529" lon="0.97143">
        <ele>99</ele>
        <time>2012-01-10T12:18:37Z</time>
      </trkpt>
      <trkpt lat="44.5751" lon="0.9717">
        <ele>99</ele>
        <time>2012-01-10T12:18:37Z</time>
      </trkpt>
      <trkpt lat="44.57506" lon="0.97176">
        <ele>99</ele>
        <time>2012-01-10T12:18:39Z</time>
      </trkpt>
      <trkpt lat="44.57502" lon="0.97183">
        <ele>99</ele>
        <time>2012-01-10T12:18:40Z</time>
      </trkpt>
      <trkpt lat="44.57494" lon="0.97196">
        <ele>99</ele>
        <time>2012-01-10T12:18:45Z</time>
      </trkpt>
      <trkpt lat="44.5748" lon="0.97221">
        <ele>98</ele>
        <time>2012-01-10T12:18:45Z</time>
      </trkpt>
      <trkpt lat="44.57477" lon="0.97228">
        <ele>97</ele>
        <time>2012-01-10T12:18:46Z</time>
      </trkpt>
      <trkpt lat="44.57471" lon="0.97241">
        <ele>97</ele>
        <time>2012-01-10T12:18:52Z</time>
      </trkpt>
      <trkpt lat="44.57455" lon="0.97262">
        <ele>96</ele>
        <time>2012-01-10T12:18:52Z</time>
      </trkpt>
      <trkpt lat="44.57451" lon="0.97267">
        <ele>96</ele>
        <time>2012-01-10T12:18:53Z</time>
      </trkpt>
      <trkpt lat="44.57443" lon="0.97275">
        <ele>96</ele>
        <time>2012-01-10T12:18:59Z</time>
      </trkpt>
      <trkpt lat="44.57423" lon="0.97282">
        <ele>96</ele>
        <time>2012-01-10T12:18:59Z</time>
      </trkpt>
      <trkpt lat="44.57418" lon="0.97284">
        <ele>96</ele>
        <time>2012-01-10T12:19:01Z</time>
      </trkpt>
      <trkpt lat="44.57414" lon="0.97287">
        <ele>96</ele>
        <time>2012-01-10T12:19:02Z</time>
      </trkpt>
      <trkpt lat="44.57407" lon="0.97327">
        <ele>96</ele>
        <time>2012-01-10T12:19:07Z</time>
      </trkpt>
      <trkpt lat="44.57408" lon="0.97335">
        <ele>96</ele>
        <time>2012-01-10T12:19:09Z</time>
      </trkpt>
      <trkpt lat="44.5741" lon="0.97342">
        <ele>96</ele>
        <time>2012-01-10T12:19:10Z</time>
      </trkpt>
      <trkpt lat="44.57413" lon="0.97355">
        <ele>96</ele>
        <time>2012-01-10T12:19:15Z</time>
      </trkpt>
      <trkpt lat="44.5742" lon="0.97382">
        <ele>96</ele>
        <time>2012-01-10T12:19:15Z</time>
      </trkpt>
      <trkpt lat="44.57422" lon="0.97388">
        <ele>96</ele>
        <time>2012-01-10T12:19:16Z</time>
      </trkpt>
      <trkpt lat="44.57424" lon="0.97401">
        <ele>96</ele>
        <time>2012-01-10T12:19:22Z</time>
      </trkpt>
      <trkpt lat="44.57428" lon="0.97428">
        <ele>96</ele>
        <time>2012-01-10T12:19:22Z</time>
      </trkpt>
      <trkpt lat="44.57429" lon="0.97435">
        <ele>96</ele>
        <time>2012-01-10T12:19:23Z</time>
      </trkpt>
      <trkpt lat="44.57434" lon="0.9747">
        <ele>96</ele>
        <time>2012-01-10T12:19:29Z</time>
      </trkpt>
      <trkpt lat="44.57434" lon="0.97474">
        <ele>96</ele>
        <time>2012-01-10T12:19:30Z</time>
      </trkpt>
      <trkpt lat="44.57438" lon="0.97504">
        <ele>96</ele>
        <time>2012-01-10T12:19:36Z</time>
      </trkpt>
      <trkpt lat="44.57438" lon="0.97509">
        <ele>96</ele>
        <time>2012-01-10T12:19:37Z</time>
      </trkpt>
      <trkpt lat="44.57442" lon="0.97537">
        <ele>97</ele>
        <time>2012-01-10T12:19:44Z</time>
      </trkpt>
      <trkpt lat="44.57442" lon="0.97541">
        <ele>98</ele>
        <time>2012-01-10T12:19:44Z</time>
      </trkpt>
      <trkpt lat="44.57444" lon="0.97547">
        <ele>99</ele>
        <time>2012-01-10T12:19:45Z</time>
      </trkpt>
      <trkpt lat="44.57445" lon="0.97557">
        <ele>100</ele>
        <time>2012-01-10T12:19:51Z</time>
      </trkpt>
      <trkpt lat="44.57446" lon="0.97577">
        <ele>101</ele>
        <time>2012-01-10T12:19:51Z</time>
      </trkpt>
      <trkpt lat="44.57447" lon="0.97581">
        <ele>101</ele>
        <time>2012-01-10T12:19:52Z</time>
      </trkpt>
      <trkpt lat="44.57447" lon="0.9759">
        <ele>101</ele>
        <time>2012-01-10T12:19:58Z</time>
      </trkpt>
      <trkpt lat="44.57445" lon="0.97606">
        <ele>101</ele>
        <time>2012-01-10T12:19:58Z</time>
      </trkpt>
      <trkpt lat="44.57445" lon="0.9761">
        <ele>101</ele>
        <time>2012-01-10T12:20:00Z</time>
      </trkpt>
      <trkpt lat="44.57443" lon="0.97619">
        <ele>101</ele>
        <time>2012-01-10T12:20:05Z</time>
      </trkpt>
      <trkpt lat="44.57441" lon="0.97635">
        <ele>102</ele>
        <time>2012-01-10T12:20:05Z</time>
      </trkpt>
      <trkpt lat="44.57441" lon="0.97638">
        <ele>102</ele>
        <time>2012-01-10T12:20:06Z</time>
      </trkpt>
      <trkpt lat="44.57436" lon="0.97662">
        <ele>102</ele>
        <time>2012-01-10T12:20:13Z</time>
      </trkpt>
      <trkpt lat="44.57435" lon="0.97665">
        <ele>102</ele>
        <time>2012-01-10T12:20:13Z</time>
      </trkpt>
      <trkpt lat="44.57433" lon="0.97671">
        <ele>102</ele>
        <time>2012-01-10T12:20:20Z</time>
      </trkpt>
      <trkpt lat="44.57427" lon="0.97687">
        <ele>102</ele>
        <time>2012-01-10T12:20:21Z</time>
      </trkpt>
      <trkpt lat="44.57426" lon="0.9769">
        <ele>102</ele>
        <time>2012-01-10T12:20:21Z</time>
      </trkpt>
      <trkpt lat="44.57424" lon="0.97696">
        <ele>102</ele>
        <time>2012-01-10T12:20:26Z</time>
      </trkpt>
      <trkpt lat="44.5742" lon="0.97704">
        <ele>102</ele>
        <time>2012-01-10T12:20:26Z</time>
      </trkpt>
      <trkpt lat="44.57418" lon="0.97706">
        <ele>102</ele>
        <time>2012-01-10T12:20:27Z</time>
      </trkpt>
      <trkpt lat="44.57416" lon="0.97712">
        <ele>102</ele>
        <time>2012-01-10T12:20:32Z</time>
      </trkpt>
      <trkpt lat="44.57413" lon="0.97719">
        <ele>103</ele>
        <time>2012-01-10T12:20:32Z</time>
      </trkpt>
      <trkpt lat="44.57412" lon="0.97722">
        <ele>104</ele>
        <time>2012-01-10T12:20:33Z</time>
      </trkpt>
      <trkpt lat="44.5741" lon="0.97727">
        <ele>105</ele>
        <time>2012-01-10T12:20:38Z</time>
      </trkpt>
      <trkpt lat="44.57406" lon="0.97735">
        <ele>105</ele>
        <time>2012-01-10T12:20:38Z</time>
      </trkpt>
      <trkpt lat="44.57405" lon="0.97737">
        <ele>106</ele>
        <time>2012-01-10T12:20:39Z</time>
      </trkpt>
      <trkpt lat="44.57402" lon="0.97743">
        <ele>106</ele>
        <time>2012-01-10T12:20:44Z</time>
      </trkpt>
      <trkpt lat="44.57398" lon="0.97752">
        <ele>106</ele>
        <time>2012-01-10T12:20:44Z</time>
      </trkpt>
      <trkpt lat="44.57397" lon="0.97755">
        <ele>107</ele>
        <time>2012-01-10T12:20:45Z</time>
      </trkpt>
      <trkpt lat="44.57395" lon="0.9776">
        <ele>107</ele>
        <time>2012-01-10T12:20:50Z</time>
      </trkpt>
      <trkpt lat="44.57392" lon="0.9777">
        <ele>108</ele>
        <time>2012-01-10T12:20:50Z</time>
      </trkpt>
      <trkpt lat="44.57391" lon="0.97773">
        <ele>109</ele>
        <time>2012-01-10T12:20:51Z</time>
      </trkpt>
      <trkpt lat="44.57389" lon="0.9778">
        <ele>109</ele>
        <time>2012-01-10T12:20:56Z</time>
      </trkpt>
      <trkpt lat="44.57387" lon="0.9779">
        <ele>109</ele>
        <time>2012-01-10T12:20:56Z</time>
      </trkpt>
      <trkpt lat="44.57386" lon="0.97793">
        <ele>110</ele>
        <time>2012-01-10T12:20:57Z</time>
      </trkpt>
      <trkpt lat="44.57384" lon="0.97801">
        <ele>110</ele>
        <time>2012-01-10T12:21:02Z</time>
      </trkpt>
      <trkpt lat="44.57382" lon="0.97811">
        <ele>111</ele>
        <time>2012-01-10T12:21:02Z</time>
      </trkpt>
      <trkpt lat="44.57382" lon="0.97814">
        <ele>111</ele>
        <time>2012-01-10T12:21:03Z</time>
      </trkpt>
      <trkpt lat="44.57381" lon="0.97827">
        <ele>111</ele>
        <time>2012-01-10T12:21:08Z</time>
      </trkpt>
      <trkpt lat="44.57381" lon="0.9783">
        <ele>112</ele>
        <time>2012-01-10T12:21:09Z</time>
      </trkpt>
      <trkpt lat="44.57382" lon="0.97843">
        <ele>112</ele>
        <time>2012-01-10T12:21:15Z</time>
      </trkpt>
      <trkpt lat="44.57382" lon="0.97846">
        <ele>112</ele>
        <time>2012-01-10T12:21:15Z</time>
      </trkpt>
      <trkpt lat="44.57383" lon="0.97849">
        <ele>112</ele>
        <time>2012-01-10T12:21:16Z</time>
      </trkpt>
      <trkpt lat="44.57383" lon="0.97853">
        <ele>113</ele>
        <time>2012-01-10T12:21:21Z</time>
      </trkpt>
      <trkpt lat="44.57384" lon="0.97861">
        <ele>113</ele>
        <time>2012-01-10T12:21:21Z</time>
      </trkpt>
      <trkpt lat="44.57385" lon="0.97863">
        <ele>114</ele>
        <time>2012-01-10T12:21:22Z</time>
      </trkpt>
      <trkpt lat="44.57386" lon="0.97869">
        <ele>114</ele>
        <time>2012-01-10T12:21:27Z</time>
      </trkpt>
      <trkpt lat="44.57387" lon="0.97878">
        <ele>114</ele>
        <time>2012-01-10T12:21:27Z</time>
      </trkpt>
      <trkpt lat="44.57386" lon="0.97881">
        <ele>114</ele>
        <time>2012-01-10T12:21:29Z</time>
      </trkpt>
      <trkpt lat="44.57384" lon="0.97883">
        <ele>114</ele>
        <time>2012-01-10T12:21:30Z</time>
      </trkpt>
      <trkpt lat="44.57381" lon="0.97884">
        <ele>114</ele>
        <time>2012-01-10T12:21:35Z</time>
      </trkpt>
      <trkpt lat="44.57375" lon="0.97885">
        <ele>114</ele>
        <time>2012-01-10T12:21:35Z</time>
      </trkpt>
      <trkpt lat="44.57373" lon="0.97886">
        <ele>115</ele>
        <time>2012-01-10T12:21:36Z</time>
      </trkpt>
      <trkpt lat="44.57369" lon="0.97887">
        <ele>116</ele>
        <time>2012-01-10T12:21:41Z</time>
      </trkpt>
      <trkpt lat="44.57365" lon="0.97892">
        <ele>117</ele>
        <time>2012-01-10T12:21:41Z</time>
      </trkpt>
      <trkpt lat="44.57363" lon="0.97894">
        <ele>118</ele>
        <time>2012-01-10T12:21:43Z</time>
      </trkpt>
      <trkpt lat="44.57362" lon="0.97896">
        <ele>118</ele>
        <time>2012-01-10T12:21:44Z</time>
      </trkpt>
      <trkpt lat="44.57359" lon="0.97901">
        <ele>118</ele>
        <time>2012-01-10T12:21:48Z</time>
      </trkpt>
      <trkpt lat="44.57356" lon="0.97909">
        <ele>118</ele>
        <time>2012-01-10T12:21:48Z</time>
      </trkpt>
      <trkpt lat="44.57355" lon="0.97912">
        <ele>118</ele>
        <time>2012-01-10T12:21:49Z</time>
      </trkpt>
      <trkpt lat="44.57355" lon="0.97915">
        <ele>118</ele>
        <time>2012-01-10T12:21:50Z</time>
      </trkpt>
      <trkpt lat="44.57354" lon="0.97921">
        <ele>119</ele>
        <time>2012-01-10T12:21:55Z</time>
      </trkpt>
      <trkpt lat="44.57352" lon="0.97929">
        <ele>119</ele>
        <time>2012-01-10T12:21:55Z</time>
      </trkpt>
      <trkpt lat="44.57352" lon="0.97931">
        <ele>120</ele>
        <time>2012-01-10T12:21:56Z</time>
      </trkpt>
      <trkpt lat="44.5735" lon="0.97936">
        <ele>120</ele>
        <time>2012-01-10T12:22:01Z</time>
      </trkpt>
      <trkpt lat="44.57349" lon="0.97944">
        <ele>121</ele>
        <time>2012-01-10T12:22:01Z</time>
      </trkpt>
      <trkpt lat="44.57349" lon="0.97946">
        <ele>121</ele>
        <time>2012-01-10T12:22:02Z</time>
      </trkpt>
      <trkpt lat="44.57348" lon="0.9795">
        <ele>122</ele>
        <time>2012-01-10T12:22:07Z</time>
      </trkpt>
      <trkpt lat="44.57348" lon="0.97957">
        <ele>122</ele>
        <time>2012-01-10T12:22:07Z</time>
      </trkpt>
      <trkpt lat="44.57347" lon="0.97959">
        <ele>123</ele>
        <time>2012-01-10T12:22:08Z</time>
      </trkpt>
      <trkpt lat="44.57344" lon="0.97968">
        <ele>124</ele>
        <time>2012-01-10T12:22:13Z</time>
      </trkpt>
      <trkpt lat="44.57343" lon="0.9797">
        <ele>125</ele>
        <time>2012-01-10T12:22:14Z</time>
      </trkpt>
      <trkpt lat="44.57342" lon="0.97972">
        <ele>126</ele>
        <time>2012-01-10T12:22:16Z</time>
      </trkpt>
      <trkpt lat="44.57341" lon="0.97975">
        <ele>127</ele>
        <time>2012-01-10T12:22:20Z</time>
      </trkpt>
      <trkpt lat="44.57341" lon="0.9798">
        <ele>128</ele>
        <time>2012-01-10T12:22:21Z</time>
      </trkpt>
      <trkpt lat="44.57341" lon="0.97982">
        <ele>129</ele>
        <time>2012-01-10T12:22:22Z</time>
      </trkpt>
      <trkpt lat="44.57341" lon="0.97984">
        <ele>130</ele>
        <time>2012-01-10T12:22:22Z</time>
      </trkpt>
      <trkpt lat="44.57341" lon="0.97988">
        <ele>131</ele>
        <time>2012-01-10T12:22:27Z</time>
      </trkpt>
      <trkpt lat="44.5734" lon="0.97995">
        <ele>131</ele>
        <time>2012-01-10T12:22:27Z</time>
      </trkpt>
      <trkpt lat="44.57339" lon="0.97997">
        <ele>132</ele>
        <time>2012-01-10T12:22:28Z</time>
      </trkpt>
      <trkpt lat="44.57339" lon="0.98001">
        <ele>133</ele>
        <time>2012-01-10T12:22:33Z</time>
      </trkpt>
      <trkpt lat="44.5734" lon="0.98008">
        <ele>133</ele>
        <time>2012-01-10T12:22:34Z</time>
      </trkpt>
      <trkpt lat="44.5734" lon="0.9801">
        <ele>134</ele>
        <time>2012-01-10T12:22:35Z</time>
      </trkpt>
      <trkpt lat="44.57339" lon="0.98014">
        <ele>134</ele>
        <time>2012-01-10T12:22:40Z</time>
      </trkpt>
      <trkpt lat="44.57337" lon="0.98024">
        <ele>135</ele>
        <time>2012-01-10T12:22:40Z</time>
      </trkpt>
      <trkpt lat="44.57337" lon="0.98027">
        <ele>135</ele>
        <time>2012-01-10T12:22:42Z</time>
      </trkpt>
      <trkpt lat="44.57336" lon="0.98031">
        <ele>136</ele>
        <time>2012-01-10T12:22:46Z</time>
      </trkpt>
      <trkpt lat="44.57335" lon="0.98036">
        <ele>136</ele>
        <time>2012-01-10T12:22:47Z</time>
      </trkpt>
      <trkpt lat="44.57335" lon="0.98039">
        <ele>137</ele>
        <time>2012-01-10T12:22:48Z</time>
      </trkpt>
      <trkpt lat="44.57334" lon="0.98041">
        <ele>137</ele>
        <time>2012-01-10T12:22:48Z</time>
      </trkpt>
      <trkpt lat="44.57333" lon="0.98045">
        <ele>137</ele>
        <time>2012-01-10T12:22:53Z</time>
      </trkpt>
      <trkpt lat="44.57333" lon="0.98052">
        <ele>138</ele>
        <time>2012-01-10T12:22:53Z</time>
      </trkpt>
      <trkpt lat="44.57333" lon="0.98053">
        <ele>138</ele>
        <time>2012-01-10T12:22:54Z</time>
      </trkpt>
      <trkpt lat="44.57332" lon="0.98057">
        <ele>138</ele>
        <time>2012-01-10T12:22:59Z</time>
      </trkpt>
      <trkpt lat="44.5733" lon="0.98064">
        <ele>138</ele>
        <time>2012-01-10T12:22:59Z</time>
      </trkpt>
      <trkpt lat="44.57329" lon="0.98066">
        <ele>139</ele>
        <time>2012-01-10T12:23:00Z</time>
      </trkpt>
      <trkpt lat="44.57328" lon="0.98067">
        <ele>139</ele>
        <time>2012-01-10T12:23:01Z</time>
      </trkpt>
      <trkpt lat="44.57327" lon="0.98069">
        <ele>139</ele>
        <time>2012-01-10T12:23:03Z</time>
      </trkpt>
      <trkpt lat="44.57327" lon="0.98072">
        <ele>140</ele>
        <time>2012-01-10T12:23:08Z</time>
      </trkpt>
      <trkpt lat="44.57325" lon="0.98079">
        <ele>140</ele>
        <time>2012-01-10T12:23:08Z</time>
      </trkpt>
      <trkpt lat="44.57324" lon="0.98091">
        <ele>140</ele>
        <time>2012-01-10T12:23:13Z</time>
      </trkpt>
      <trkpt lat="44.57323" lon="0.98093">
        <ele>141</ele>
        <time>2012-01-10T12:23:14Z</time>
      </trkpt>
      <trkpt lat="44.57323" lon="0.98098">
        <ele>142</ele>
        <time>2012-01-10T12:23:20Z</time>
      </trkpt>
      <trkpt lat="44.57322" lon="0.9811">
        <ele>142</ele>
        <time>2012-01-10T12:23:20Z</time>
      </trkpt>
      <trkpt lat="44.57322" lon="0.98112">
        <ele>143</ele>
        <time>2012-01-10T12:23:21Z</time>
      </trkpt>
      <trkpt lat="44.57321" lon="0.98118">
        <ele>143</ele>
        <time>2012-01-10T12:23:26Z</time>
      </trkpt>
      <trkpt lat="44.5732" lon="0.98126">
        <ele>143</ele>
        <time>2012-01-10T12:23:26Z</time>
      </trkpt>
      <trkpt lat="44.5732" lon="0.98129">
        <ele>143</ele>
        <time>2012-01-10T12:23:27Z</time>
      </trkpt>
      <trkpt lat="44.57319" lon="0.98135">
        <ele>143</ele>
        <time>2012-01-10T12:23:32Z</time>
      </trkpt>
      <trkpt lat="44.57317" lon="0.98143">
        <ele>143</ele>
        <time>2012-01-10T12:23:33Z</time>
      </trkpt>
      <trkpt lat="44.57317" lon="0.98146">
        <ele>143</ele>
        <time>2012-01-10T12:23:33Z</time>
      </trkpt>
      <trkpt lat="44.57315" lon="0.98148">
        <ele>143</ele>
        <time>2012-01-10T12:23:34Z</time>
      </trkpt>
      <trkpt lat="44.57313" lon="0.9815">
        <ele>144</ele>
        <time>2012-01-10T12:23:36Z</time>
      </trkpt>
      <trkpt lat="44.57312" lon="0.98156">
        <ele>144</ele>
        <time>2012-01-10T12:23:40Z</time>
      </trkpt>
      <trkpt lat="44.57309" lon="0.98168">
        <ele>144</ele>
        <time>2012-01-10T12:23:41Z</time>
      </trkpt>
      <trkpt lat="44.57309" lon="0.98172">
        <ele>144</ele>
        <time>2012-01-10T12:23:43Z</time>
      </trkpt>
      <trkpt lat="44.57309" lon="0.98175">
        <ele>145</ele>
        <time>2012-01-10T12:23:44Z</time>
      </trkpt>
      <trkpt lat="44.57307" lon="0.9818">
        <ele>145</ele>
        <time>2012-01-10T12:23:48Z</time>
      </trkpt>
      <trkpt lat="44.57303" lon="0.98186">
        <ele>146</ele>
        <time>2012-01-10T12:23:49Z</time>
      </trkpt>
      <trkpt lat="44.57303" lon="0.98189">
        <ele>146</ele>
        <time>2012-01-10T12:23:50Z</time>
      </trkpt>
      <trkpt lat="44.57302" lon="0.98192">
        <ele>146</ele>
        <time>2012-01-10T12:23:50Z</time>
      </trkpt>
      <trkpt lat="44.573" lon="0.98197">
        <ele>147</ele>
        <time>2012-01-10T12:23:55Z</time>
      </trkpt>
      <trkpt lat="44.57296" lon="0.98206">
        <ele>147</ele>
        <time>2012-01-10T12:23:55Z</time>
      </trkpt>
      <trkpt lat="44.57295" lon="0.98209">
        <ele>148</ele>
        <time>2012-01-10T12:23:56Z</time>
      </trkpt>
      <trkpt lat="44.57292" lon="0.98216">
        <ele>149</ele>
        <time>2012-01-10T12:24:01Z</time>
      </trkpt>
      <trkpt lat="44.57291" lon="0.98224">
        <ele>150</ele>
        <time>2012-01-10T12:24:01Z</time>
      </trkpt>
      <trkpt lat="44.5729" lon="0.98226">
        <ele>151</ele>
        <time>2012-01-10T12:24:02Z</time>
      </trkpt>
      <trkpt lat="44.57288" lon="0.98228">
        <ele>152</ele>
        <time>2012-01-10T12:24:05Z</time>
      </trkpt>
      <trkpt lat="44.57285" lon="0.98228">
        <ele>153</ele>
        <time>2012-01-10T12:24:10Z</time>
      </trkpt>
      <trkpt lat="44.57278" lon="0.9823">
        <ele>153</ele>
        <time>2012-01-10T12:24:11Z</time>
      </trkpt>
      <trkpt lat="44.57269" lon="0.98235">
        <ele>153</ele>
        <time>2012-01-10T12:24:16Z</time>
      </trkpt>
      <trkpt lat="44.57267" lon="0.98236">
        <ele>153</ele>
        <time>2012-01-10T12:24:16Z</time>
      </trkpt>
      <trkpt lat="44.57266" lon="0.98237">
        <ele>153</ele>
        <time>2012-01-10T12:24:17Z</time>
      </trkpt>
      <trkpt lat="44.57266" lon="0.9824">
        <ele>153</ele>
        <time>2012-01-10T12:24:23Z</time>
      </trkpt>
      <trkpt lat="44.57265" lon="0.98241">
        <ele>154</ele>
        <time>2012-01-10T12:24:32Z</time>
      </trkpt>
      <trkpt lat="44.57262" lon="0.98241">
        <ele>154</ele>
        <time>2012-01-10T12:24:33Z</time>
      </trkpt>
      <trkpt lat="44.5726" lon="0.98242">
        <ele>154</ele>
        <time>2012-01-10T12:24:35Z</time>
      </trkpt>
      <trkpt lat="44.57259" lon="0.98242">
        <ele>154</ele>
        <time>2012-01-10T12:24:41Z</time>
      </trkpt>
      <trkpt lat="44.57258" lon="0.98245">
        <ele>154</ele>
        <time>2012-01-10T12:24:42Z</time>
      </trkpt>
      <trkpt lat="44.57256" lon="0.9825">
        <ele>154</ele>
        <time>2012-01-10T12:24:48Z</time>
      </trkpt>
      <trkpt lat="44.57249" lon="0.98264">
        <ele>154</ele>
        <time>2012-01-10T12:24:49Z</time>
      </trkpt>
      <trkpt lat="44.57247" lon="0.98269">
        <ele>154</ele>
        <time>2012-01-10T12:24:49Z</time>
      </trkpt>
      <trkpt lat="44.57242" lon="0.98279">
        <ele>154</ele>
        <time>2012-01-10T12:24:55Z</time>
      </trkpt>
      <trkpt lat="44.57232" lon="0.98307">
        <ele>154</ele>
        <time>2012-01-10T12:24:55Z</time>
      </trkpt>
      <trkpt lat="44.57231" lon="0.98314">
        <ele>154</ele>
        <time>2012-01-10T12:24:56Z</time>
      </trkpt>
      <trkpt lat="44.57235" lon="0.98345">
        <ele>154</ele>
        <time>2012-01-10T12:25:02Z</time>
      </trkpt>
      <trkpt lat="44.57235" lon="0.98347">
        <ele>153</ele>
        <time>2012-01-10T12:25:04Z</time>
      </trkpt>
      <trkpt lat="44.57236" lon="0.98349">
        <ele>152</ele>
        <time>2012-01-10T12:25:05Z</time>
      </trkpt>
      <trkpt lat="44.57238" lon="0.98354">
        <ele>152</ele>
        <time>2012-01-10T12:25:10Z</time>
      </trkpt>
      <trkpt lat="44.57238" lon="0.98365">
        <ele>151</ele>
        <time>2012-01-10T12:25:10Z</time>
      </trkpt>
      <trkpt lat="44.57238" lon="0.98367">
        <ele>151</ele>
        <time>2012-01-10T12:25:12Z</time>
      </trkpt>
      <trkpt lat="44.57237" lon="0.98369">
        <ele>151</ele>
        <time>2012-01-10T12:25:13Z</time>
      </trkpt>
      <trkpt lat="44.57236" lon="0.98377">
        <ele>151</ele>
        <time>2012-01-10T12:25:17Z</time>
      </trkpt>
      <trkpt lat="44.57236" lon="0.98379">
        <ele>151</ele>
        <time>2012-01-10T12:25:18Z</time>
      </trkpt>
      <trkpt lat="44.57236" lon="0.98384">
        <ele>151</ele>
        <time>2012-01-10T12:25:24Z</time>
      </trkpt>
      <trkpt lat="44.57234" lon="0.98395">
        <ele>151</ele>
        <time>2012-01-10T12:25:24Z</time>
      </trkpt>
      <trkpt lat="44.57233" lon="0.98398">
        <ele>151</ele>
        <time>2012-01-10T12:25:25Z</time>
      </trkpt>
      <trkpt lat="44.57232" lon="0.98404">
        <ele>151</ele>
        <time>2012-01-10T12:25:30Z</time>
      </trkpt>
      <trkpt lat="44.57231" lon="0.98412">
        <ele>151</ele>
        <time>2012-01-10T12:25:30Z</time>
      </trkpt>
      <trkpt lat="44.5723" lon="0.98414">
        <ele>151</ele>
        <time>2012-01-10T12:25:31Z</time>
      </trkpt>
      <trkpt lat="44.5723" lon="0.9842">
        <ele>152</ele>
        <time>2012-01-10T12:25:37Z</time>
      </trkpt>
      <trkpt lat="44.57228" lon="0.98431">
        <ele>152</ele>
        <time>2012-01-10T12:25:37Z</time>
      </trkpt>
      <trkpt lat="44.57228" lon="0.98433">
        <ele>153</ele>
        <time>2012-01-10T12:25:38Z</time>
      </trkpt>
      <trkpt lat="44.57228" lon="0.98438">
        <ele>153</ele>
        <time>2012-01-10T12:25:43Z</time>
      </trkpt>
      <trkpt lat="44.57227" lon="0.98446">
        <ele>153</ele>
        <time>2012-01-10T12:25:43Z</time>
      </trkpt>
      <trkpt lat="44.57227" lon="0.98448">
        <ele>154</ele>
        <time>2012-01-10T12:25:44Z</time>
      </trkpt>
      <trkpt lat="44.57227" lon="0.98453">
        <ele>154</ele>
        <time>2012-01-10T12:25:50Z</time>
      </trkpt>
      <trkpt lat="44.57225" lon="0.98462">
        <ele>155</ele>
        <time>2012-01-10T12:25:50Z</time>
      </trkpt>
      <trkpt lat="44.57225" lon="0.98464">
        <ele>155</ele>
        <time>2012-01-10T12:25:51Z</time>
      </trkpt>
      <trkpt lat="44.57225" lon="0.98469">
        <ele>156</ele>
        <time>2012-01-10T12:25:56Z</time>
      </trkpt>
      <trkpt lat="44.57224" lon="0.98477">
        <ele>157</ele>
        <time>2012-01-10T12:25:56Z</time>
      </trkpt>
      <trkpt lat="44.57224" lon="0.98479">
        <ele>157</ele>
        <time>2012-01-10T12:25:57Z</time>
      </trkpt>
      <trkpt lat="44.57223" lon="0.98484">
        <ele>157</ele>
        <time>2012-01-10T12:26:03Z</time>
      </trkpt>
      <trkpt lat="44.57222" lon="0.98494">
        <ele>158</ele>
        <time>2012-01-10T12:26:03Z</time>
      </trkpt>
      <trkpt lat="44.57222" lon="0.98497">
        <ele>159</ele>
        <time>2012-01-10T12:26:04Z</time>
      </trkpt>
      <trkpt lat="44.57221" lon="0.98502">
        <ele>159</ele>
        <time>2012-01-10T12:26:09Z</time>
      </trkpt>
      <trkpt lat="44.5722" lon="0.9851">
        <ele>160</ele>
        <time>2012-01-10T12:26:09Z</time>
      </trkpt>
      <trkpt lat="44.5722" lon="0.98512">
        <ele>161</ele>
        <time>2012-01-10T12:26:10Z</time>
      </trkpt>
      <trkpt lat="44.57219" lon="0.98517">
        <ele>161</ele>
        <time>2012-01-10T12:26:16Z</time>
      </trkpt>
      <trkpt lat="44.57219" lon="0.98528">
        <ele>162</ele>
        <time>2012-01-10T12:26:16Z</time>
      </trkpt>
      <trkpt lat="44.57218" lon="0.9853">
        <ele>162</ele>
        <time>2012-01-10T12:26:17Z</time>
      </trkpt>
      <trkpt lat="44.57218" lon="0.98535">
        <ele>162</ele>
        <time>2012-01-10T12:26:22Z</time>
      </trkpt>
      <trkpt lat="44.57218" lon="0.98543">
        <ele>162</ele>
        <time>2012-01-10T12:26:22Z</time>
      </trkpt>
      <trkpt lat="44.57217" lon="0.98546">
        <ele>163</ele>
        <time>2012-01-10T12:26:23Z</time>
      </trkpt>
      <trkpt lat="44.57217" lon="0.98549">
        <ele>163</ele>
        <time>2012-01-10T12:26:24Z</time>
      </trkpt>
      <trkpt lat="44.57217" lon="0.98555">
        <ele>163</ele>
        <time>2012-01-10T12:26:29Z</time>
      </trkpt>
      <trkpt lat="44.57217" lon="0.98563">
        <ele>163</ele>
        <time>2012-01-10T12:26:29Z</time>
      </trkpt>
      <trkpt lat="44.57217" lon="0.98566">
        <ele>163</ele>
        <time>2012-01-10T12:26:30Z</time>
      </trkpt>
      <trkpt lat="44.57217" lon="0.98572">
        <ele>163</ele>
        <time>2012-01-10T12:26:36Z</time>
      </trkpt>
      <trkpt lat="44.57216" lon="0.98583">
        <ele>163</ele>
        <time>2012-01-10T12:26:36Z</time>
      </trkpt>
      <trkpt lat="44.57216" lon="0.98585">
        <ele>163</ele>
        <time>2012-01-10T12:26:37Z</time>
      </trkpt>
      <trkpt lat="44.57216" lon="0.98591">
        <ele>163</ele>
        <time>2012-01-10T12:26:42Z</time>
      </trkpt>
      <trkpt lat="44.57215" lon="0.986">
        <ele>163</ele>
        <time>2012-01-10T12:26:42Z</time>
      </trkpt>
      <trkpt lat="44.57215" lon="0.98603">
        <ele>163</ele>
        <time>2012-01-10T12:26:43Z</time>
      </trkpt>
      <trkpt lat="44.57214" lon="0.98608">
        <ele>163</ele>
        <time>2012-01-10T12:26:49Z</time>
      </trkpt>
      <trkpt lat="44.57211" lon="0.98618">
        <ele>163</ele>
        <time>2012-01-10T12:26:49Z</time>
      </trkpt>
      <trkpt lat="44.57209" lon="0.98619">
        <ele>163</ele>
        <time>2012-01-10T12:26:50Z</time>
      </trkpt>
      <trkpt lat="44.57207" lon="0.98619">
        <ele>163</ele>
        <time>2012-01-10T12:26:52Z</time>
      </trkpt>
      <trkpt lat="44.57205" lon="0.98618">
        <ele>163</ele>
        <time>2012-01-10T12:26:53Z</time>
      </trkpt>
      <trkpt lat="44.57201" lon="0.98616">
        <ele>163</ele>
        <time>2012-01-10T12:26:58Z</time>
      </trkpt>
      <trkpt lat="44.57193" lon="0.98611">
        <ele>163</ele>
        <time>2012-01-10T12:26:58Z</time>
      </trkpt>
      <trkpt lat="44.5719" lon="0.98608">
        <ele>163</ele>
        <time>2012-01-10T12:27:04Z</time>
      </trkpt>
      <trkpt lat="44.57182" lon="0.98603">
        <ele>163</ele>
        <time>2012-01-10T12:27:04Z</time>
      </trkpt>
      <trkpt lat="44.57181" lon="0.98601">
        <ele>163</ele>
        <time>2012-01-10T12:27:05Z</time>
      </trkpt>
      <trkpt lat="44.57172" lon="0.98594">
        <ele>163</ele>
        <time>2012-01-10T12:27:10Z</time>
      </trkpt>
      <trkpt lat="44.5717" lon="0.98592">
        <ele>163</ele>
        <time>2012-01-10T12:27:11Z</time>
      </trkpt>
      <trkpt lat="44.57167" lon="0.98589">
        <ele>163</ele>
        <time>2012-01-10T12:27:17Z</time>
      </trkpt>
      <trkpt lat="44.57158" lon="0.98582">
        <ele>163</ele>
        <time>2012-01-10T12:27:17Z</time>
      </trkpt>
      <trkpt lat="44.57156" lon="0.9858">
        <ele>163</ele>
        <time>2012-01-10T12:27:18Z</time>
      </trkpt>
      <trkpt lat="44.57145" lon="0.98571">
        <ele>163</ele>
        <time>2012-01-10T12:27:24Z</time>
      </trkpt>
      <trkpt lat="44.57143" lon="0.98569">
        <ele>163</ele>
        <time>2012-01-10T12:27:24Z</time>
      </trkpt>
      <trkpt lat="44.57141" lon="0.98567">
        <ele>164</ele>
        <time>2012-01-10T12:27:25Z</time>
      </trkpt>
      <trkpt lat="44.57136" lon="0.98563">
        <ele>164</ele>
        <time>2012-01-10T12:27:30Z</time>
      </trkpt>
      <trkpt lat="44.57128" lon="0.98557">
        <ele>164</ele>
        <time>2012-01-10T12:27:30Z</time>
      </trkpt>
      <trkpt lat="44.57125" lon="0.98554">
        <ele>164</ele>
        <time>2012-01-10T12:27:31Z</time>
      </trkpt>
      <trkpt lat="44.5712" lon="0.9855">
        <ele>164</ele>
        <time>2012-01-10T12:27:37Z</time>
      </trkpt>
      <trkpt lat="44.5711" lon="0.98541">
        <ele>164</ele>
        <time>2012-01-10T12:27:37Z</time>
      </trkpt>
      <trkpt lat="44.57108" lon="0.98538">
        <ele>164</ele>
        <time>2012-01-10T12:27:38Z</time>
      </trkpt>
      <trkpt lat="44.57096" lon="0.98524">
        <ele>165</ele>
        <time>2012-01-10T12:27:43Z</time>
      </trkpt>
      <trkpt lat="44.57094" lon="0.98522">
        <ele>165</ele>
        <time>2012-01-10T12:27:44Z</time>
      </trkpt>
      <trkpt lat="44.5709" lon="0.98516">
        <ele>165</ele>
        <time>2012-01-10T12:27:50Z</time>
      </trkpt>
      <trkpt lat="44.57083" lon="0.98506">
        <ele>166</ele>
        <time>2012-01-10T12:27:50Z</time>
      </trkpt>
      <trkpt lat="44.57082" lon="0.98504">
        <ele>166</ele>
        <time>2012-01-10T12:27:51Z</time>
      </trkpt>
      <trkpt lat="44.57078" lon="0.98498">
        <ele>167</ele>
        <time>2012-01-10T12:27:57Z</time>
      </trkpt>
      <trkpt lat="44.57071" lon="0.98488">
        <ele>168</ele>
        <time>2012-01-10T12:27:57Z</time>
      </trkpt>
      <trkpt lat="44.57069" lon="0.98485">
        <ele>168</ele>
        <time>2012-01-10T12:27:58Z</time>
      </trkpt>
      <trkpt lat="44.57064" lon="0.9848">
        <ele>168</ele>
        <time>2012-01-10T12:28:03Z</time>
      </trkpt>
      <trkpt lat="44.57058" lon="0.98474">
        <ele>169</ele>
        <time>2012-01-10T12:28:03Z</time>
      </trkpt>
      <trkpt lat="44.57056" lon="0.98471">
        <ele>169</ele>
        <time>2012-01-10T12:28:04Z</time>
      </trkpt>
      <trkpt lat="44.57051" lon="0.98467">
        <ele>169</ele>
        <time>2012-01-10T12:28:10Z</time>
      </trkpt>
      <trkpt lat="44.57042" lon="0.98459">
        <ele>170</ele>
        <time>2012-01-10T12:28:10Z</time>
      </trkpt>
      <trkpt lat="44.5704" lon="0.98457">
        <ele>171</ele>
        <time>2012-01-10T12:28:11Z</time>
      </trkpt>
      <trkpt lat="44.57028" lon="0.98448">
        <ele>171</ele>
        <time>2012-01-10T12:28:17Z</time>
      </trkpt>
      <trkpt lat="44.57026" lon="0.98447">
        <ele>172</ele>
        <time>2012-01-10T12:28:17Z</time>
      </trkpt>
      <trkpt lat="44.57023" lon="0.98445">
        <ele>173</ele>
        <time>2012-01-10T12:28:18Z</time>
      </trkpt>
      <trkpt lat="44.5701" lon="0.98438">
        <ele>174</ele>
        <time>2012-01-10T12:28:23Z</time>
      </trkpt>
      <trkpt lat="44.57008" lon="0.98436">
        <ele>175</ele>
        <time>2012-01-10T12:28:24Z</time>
      </trkpt>
      <trkpt lat="44.57002" lon="0.98434">
        <ele>175</ele>
        <time>2012-01-10T12:28:30Z</time>
      </trkpt>
      <trkpt lat="44.56994" lon="0.98428">
        <ele>175</ele>
        <time>2012-01-10T12:28:31Z</time>
      </trkpt>
      <trkpt lat="44.56992" lon="0.98427">
        <ele>176</ele>
        <time>2012-01-10T12:28:31Z</time>
      </trkpt>
      <trkpt lat="44.56986" lon="0.98425">
        <ele>176</ele>
        <time>2012-01-10T12:28:37Z</time>
      </trkpt>
      <trkpt lat="44.56973" lon="0.98421">
        <ele>176</ele>
        <time>2012-01-10T12:28:37Z</time>
      </trkpt>
      <trkpt lat="44.5697" lon="0.98418">
        <ele>176</ele>
        <time>2012-01-10T12:28:38Z</time>
      </trkpt>
      <trkpt lat="44.56968" lon="0.98415">
        <ele>177</ele>
        <time>2012-01-10T12:28:40Z</time>
      </trkpt>
      <trkpt lat="44.56967" lon="0.98409">
        <ele>178</ele>
        <time>2012-01-10T12:28:45Z</time>
      </trkpt>
      <trkpt lat="44.56972" lon="0.98397">
        <ele>178</ele>
        <time>2012-01-10T12:28:46Z</time>
      </trkpt>
      <trkpt lat="44.56974" lon="0.98394">
        <ele>179</ele>
        <time>2012-01-10T12:28:47Z</time>
      </trkpt>
      <trkpt lat="44.56975" lon="0.9839">
        <ele>179</ele>
        <time>2012-01-10T12:28:48Z</time>
      </trkpt>
      <trkpt lat="44.56979" lon="0.98382">
        <ele>179</ele>
        <time>2012-01-10T12:28:53Z</time>
      </trkpt>
      <trkpt lat="44.56988" lon="0.98361">
        <ele>179</ele>
        <time>2012-01-10T12:28:53Z</time>
      </trkpt>
      <trkpt lat="44.56991" lon="0.98355">
        <ele>179</ele>
        <time>2012-01-10T12:28:54Z</time>
      </trkpt>
      <trkpt lat="44.56996" lon="0.98344">
        <ele>179</ele>
        <time>2012-01-10T12:29:00Z</time>
      </trkpt>
      <trkpt lat="44.57007" lon="0.98323">
        <ele>179</ele>
        <time>2012-01-10T12:29:00Z</time>
      </trkpt>
      <trkpt lat="44.57009" lon="0.98319">
        <ele>179</ele>
        <time>2012-01-10T12:29:01Z</time>
      </trkpt>
      <trkpt lat="44.57022" lon="0.98288">
        <ele>179</ele>
        <time>2012-01-10T12:29:06Z</time>
      </trkpt>
      <trkpt lat="44.57024" lon="0.9828">
        <ele>179</ele>
        <time>2012-01-10T12:29:07Z</time>
      </trkpt>
      <trkpt lat="44.57027" lon="0.98272">
        <ele>179</ele>
        <time>2012-01-10T12:29:08Z</time>
      </trkpt>
      <trkpt lat="44.5704" lon="0.98235">
        <ele>179</ele>
        <time>2012-01-10T12:29:13Z</time>
      </trkpt>
      <trkpt lat="44.57042" lon="0.9823">
        <ele>179</ele>
        <time>2012-01-10T12:29:14Z</time>
      </trkpt>
      <trkpt lat="44.57042" lon="0.98218">
        <ele>179</ele>
        <time>2012-01-10T12:29:20Z</time>
      </trkpt>
      <trkpt lat="44.57032" lon="0.98207">
        <ele>178</ele>
        <time>2012-01-10T12:29:21Z</time>
      </trkpt>
      <trkpt lat="44.57029" lon="0.98204">
        <ele>177</ele>
        <time>2012-01-10T12:29:22Z</time>
      </trkpt>
      <trkpt lat="44.57026" lon="0.98202">
        <ele>177</ele>
        <time>2012-01-10T12:29:23Z</time>
      </trkpt>
      <trkpt lat="44.57019" lon="0.98195">
        <ele>176</ele>
        <time>2012-01-10T12:29:28Z</time>
      </trkpt>
      <trkpt lat="44.57007" lon="0.98166">
        <ele>175</ele>
        <time>2012-01-10T12:29:28Z</time>
      </trkpt>
      <trkpt lat="44.57005" lon="0.98154">
        <ele>174</ele>
        <time>2012-01-10T12:29:30Z</time>
      </trkpt>
      <trkpt lat="44.57004" lon="0.98141">
        <ele>173</ele>
        <time>2012-01-10T12:29:31Z</time>
      </trkpt>
      <trkpt lat="44.57001" lon="0.98115">
        <ele>172</ele>
        <time>2012-01-10T12:29:36Z</time>
      </trkpt>
      <trkpt lat="44.56995" lon="0.98059">
        <ele>171</ele>
        <time>2012-01-10T12:29:36Z</time>
      </trkpt>
      <trkpt lat="44.56992" lon="0.98045">
        <ele>170</ele>
        <time>2012-01-10T12:29:37Z</time>
      </trkpt>
      <trkpt lat="44.56984" lon="0.9802">
        <ele>169</ele>
        <time>2012-01-10T12:29:43Z</time>
      </trkpt>
      <trkpt lat="44.56962" lon="0.97984">
        <ele>167</ele>
        <time>2012-01-10T12:29:43Z</time>
      </trkpt>
      <trkpt lat="44.56956" lon="0.97977">
        <ele>165</ele>
        <time>2012-01-10T12:29:45Z</time>
      </trkpt>
      <trkpt lat="44.5695" lon="0.9797">
        <ele>164</ele>
        <time>2012-01-10T12:29:46Z</time>
      </trkpt>
      <trkpt lat="44.56936" lon="0.97956">
        <ele>162</ele>
        <time>2012-01-10T12:29:51Z</time>
      </trkpt>
      <trkpt lat="44.56914" lon="0.97917">
        <ele>161</ele>
        <time>2012-01-10T12:29:51Z</time>
      </trkpt>
      <trkpt lat="44.5691" lon="0.97909">
        <ele>159</ele>
        <time>2012-01-10T12:29:53Z</time>
      </trkpt>
      <trkpt lat="44.56906" lon="0.97901">
        <ele>158</ele>
        <time>2012-01-10T12:29:54Z</time>
      </trkpt>
      <trkpt lat="44.56903" lon="0.97888">
        <ele>157</ele>
        <time>2012-01-10T12:29:59Z</time>
      </trkpt>
      <trkpt lat="44.56894" lon="0.97851">
        <ele>155</ele>
        <time>2012-01-10T12:29:59Z</time>
      </trkpt>
      <trkpt lat="44.56892" lon="0.97839">
        <ele>154</ele>
        <time>2012-01-10T12:30:01Z</time>
      </trkpt>
      <trkpt lat="44.56887" lon="0.97814">
        <ele>152</ele>
        <time>2012-01-10T12:30:06Z</time>
      </trkpt>
      <trkpt lat="44.56877" lon="0.97762">
        <ele>151</ele>
        <time>2012-01-10T12:30:06Z</time>
      </trkpt>
      <trkpt lat="44.56875" lon="0.9775">
        <ele>150</ele>
        <time>2012-01-10T12:30:07Z</time>
      </trkpt>
      <trkpt lat="44.56872" lon="0.97725">
        <ele>149</ele>
        <time>2012-01-10T12:30:13Z</time>
      </trkpt>
      <trkpt lat="44.5687" lon="0.97676">
        <ele>148</ele>
        <time>2012-01-10T12:30:13Z</time>
      </trkpt>
      <trkpt lat="44.56869" lon="0.97666">
        <ele>147</ele>
        <time>2012-01-10T12:30:14Z</time>
      </trkpt>
      <trkpt lat="44.56866" lon="0.97644">
        <ele>146</ele>
        <time>2012-01-10T12:30:20Z</time>
      </trkpt>
      <trkpt lat="44.5685" lon="0.97602">
        <ele>144</ele>
        <time>2012-01-10T12:30:20Z</time>
      </trkpt>
      <trkpt lat="44.56846" lon="0.97591">
        <ele>143</ele>
        <time>2012-01-10T12:30:22Z</time>
      </trkpt>
      <trkpt lat="44.56843" lon="0.97581">
        <ele>142</ele>
        <time>2012-01-10T12:30:23Z</time>
      </trkpt>
      <trkpt lat="44.56839" lon="0.97562">
        <ele>141</ele>
        <time>2012-01-10T12:30:28Z</time>
      </trkpt>
      <trkpt lat="44.56824" lon="0.97525">
        <ele>140</ele>
        <time>2012-01-10T12:30:28Z</time>
      </trkpt>
      <trkpt lat="44.56819" lon="0.97515">
        <ele>139</ele>
        <time>2012-01-10T12:30:30Z</time>
      </trkpt>
      <trkpt lat="44.56816" lon="0.97505">
        <ele>138</ele>
        <time>2012-01-10T12:30:31Z</time>
      </trkpt>
      <trkpt lat="44.56813" lon="0.97485">
        <ele>137</ele>
        <time>2012-01-10T12:30:36Z</time>
      </trkpt>
      <trkpt lat="44.56798" lon="0.97467">
        <ele>136</ele>
        <time>2012-01-10T12:30:36Z</time>
      </trkpt>
      <trkpt lat="44.56794" lon="0.97459">
        <ele>136</ele>
        <time>2012-01-10T12:30:38Z</time>
      </trkpt>
      <trkpt lat="44.56787" lon="0.97441">
        <ele>136</ele>
        <time>2012-01-10T12:30:43Z</time>
      </trkpt>
      <trkpt lat="44.56774" lon="0.97398">
        <ele>136</ele>
        <time>2012-01-10T12:30:43Z</time>
      </trkpt>
      <trkpt lat="44.56772" lon="0.97385">
        <ele>136</ele>
        <time>2012-01-10T12:30:45Z</time>
      </trkpt>
      <trkpt lat="44.56767" lon="0.97362">
        <ele>136</ele>
        <time>2012-01-10T12:30:51Z</time>
      </trkpt>
      <trkpt lat="44.56749" lon="0.97306">
        <ele>135</ele>
        <time>2012-01-10T12:30:51Z</time>
      </trkpt>
      <trkpt lat="44.56746" lon="0.97296">
        <ele>134</ele>
        <time>2012-01-10T12:30:52Z</time>
      </trkpt>
      <trkpt lat="44.56741" lon="0.97279">
        <ele>133</ele>
        <time>2012-01-10T12:30:58Z</time>
      </trkpt>
      <trkpt lat="44.56728" lon="0.9726">
        <ele>132</ele>
        <time>2012-01-10T12:30:58Z</time>
      </trkpt>
      <trkpt lat="44.56724" lon="0.97257">
        <ele>131</ele>
        <time>2012-01-10T12:30:59Z</time>
      </trkpt>
      <trkpt lat="44.56719" lon="0.97252">
        <ele>131</ele>
        <time>2012-01-10T12:31:01Z</time>
      </trkpt>
      <trkpt lat="44.56707" lon="0.97241">
        <ele>131</ele>
        <time>2012-01-10T12:31:06Z</time>
      </trkpt>
      <trkpt lat="44.5669" lon="0.97233">
        <ele>131</ele>
        <time>2012-01-10T12:31:06Z</time>
      </trkpt>
      <trkpt lat="44.56686" lon="0.97234">
        <ele>131</ele>
        <time>2012-01-10T12:31:08Z</time>
      </trkpt>
      <trkpt lat="44.56682" lon="0.97235">
        <ele>131</ele>
        <time>2012-01-10T12:31:09Z</time>
      </trkpt>
      <trkpt lat="44.56677" lon="0.97234">
        <ele>131</ele>
        <time>2012-01-10T12:31:14Z</time>
      </trkpt>
      <trkpt lat="44.56673" lon="0.97225">
        <ele>131</ele>
        <time>2012-01-10T12:31:15Z</time>
      </trkpt>
      <trkpt lat="44.56672" lon="0.97223">
        <ele>130</ele>
        <time>2012-01-10T12:31:16Z</time>
      </trkpt>
      <trkpt lat="44.56671" lon="0.97222">
        <ele>130</ele>
        <time>2012-01-10T12:31:17Z</time>
      </trkpt>
      <trkpt lat="44.56668" lon="0.97217">
        <ele>129</ele>
        <time>2012-01-10T12:31:22Z</time>
      </trkpt>
      <trkpt lat="44.56661" lon="0.97208">
        <ele>128</ele>
        <time>2012-01-10T12:31:23Z</time>
      </trkpt>
      <trkpt lat="44.56659" lon="0.97205">
        <ele>128</ele>
        <time>2012-01-10T12:31:23Z</time>
      </trkpt>
      <trkpt lat="44.56638" lon="0.97183">
        <ele>127</ele>
        <time>2012-01-10T12:31:29Z</time>
      </trkpt>
      <trkpt lat="44.56635" lon="0.9718">
        <ele>126</ele>
        <time>2012-01-10T12:31:30Z</time>
      </trkpt>
      <trkpt lat="44.56633" lon="0.97178">
        <ele>126</ele>
        <time>2012-01-10T12:31:31Z</time>
      </trkpt>
      <trkpt lat="44.56627" lon="0.97171">
        <ele>126</ele>
        <time>2012-01-10T12:31:37Z</time>
      </trkpt>
      <trkpt lat="44.56617" lon="0.97155">
        <ele>126</ele>
        <time>2012-01-10T12:31:37Z</time>
      </trkpt>
      <trkpt lat="44.56614" lon="0.97153">
        <ele>126</ele>
        <time>2012-01-10T12:31:38Z</time>
      </trkpt>
      <trkpt lat="44.56606" lon="0.97144">
        <ele>126</ele>
        <time>2012-01-10T12:31:44Z</time>
      </trkpt>
      <trkpt lat="44.56597" lon="0.97126">
        <ele>126</ele>
        <time>2012-01-10T12:31:44Z</time>
      </trkpt>
      <trkpt lat="44.56596" lon="0.97118">
        <ele>126</ele>
        <time>2012-01-10T12:31:45Z</time>
      </trkpt>
      <trkpt lat="44.56595" lon="0.97109">
        <ele>126</ele>
        <time>2012-01-10T12:31:46Z</time>
      </trkpt>
      <trkpt lat="44.5659" lon="0.97091">
        <ele>125</ele>
        <time>2012-01-10T12:31:52Z</time>
      </trkpt>
      <trkpt lat="44.56586" lon="0.97054">
        <ele>124</ele>
        <time>2012-01-10T12:31:52Z</time>
      </trkpt>
      <trkpt lat="44.56583" lon="0.97044">
        <ele>124</ele>
        <time>2012-01-10T12:31:53Z</time>
      </trkpt>
      <trkpt lat="44.56579" lon="0.97022">
        <ele>124</ele>
        <time>2012-01-10T12:31:59Z</time>
      </trkpt>
      <trkpt lat="44.56575" lon="0.96975">
        <ele>123</ele>
        <time>2012-01-10T12:31:59Z</time>
      </trkpt>
      <trkpt lat="44.56576" lon="0.96965">
        <ele>123</ele>
        <time>2012-01-10T12:32:01Z</time>
      </trkpt>
      <trkpt lat="44.56575" lon="0.96942">
        <ele>122</ele>
        <time>2012-01-10T12:32:05Z</time>
      </trkpt>
      <trkpt lat="44.56575" lon="0.96906">
        <ele>121</ele>
        <time>2012-01-10T12:32:05Z</time>
      </trkpt>
      <trkpt lat="44.56575" lon="0.96895">
        <ele>120</ele>
        <time>2012-01-10T12:32:06Z</time>
      </trkpt>
      <trkpt lat="44.56574" lon="0.96872">
        <ele>119</ele>
        <time>2012-01-10T12:32:11Z</time>
      </trkpt>
      <trkpt lat="44.56582" lon="0.96841">
        <ele>118</ele>
        <time>2012-01-10T12:32:11Z</time>
      </trkpt>
      <trkpt lat="44.56585" lon="0.96829">
        <ele>117</ele>
        <time>2012-01-10T12:32:12Z</time>
      </trkpt>
      <trkpt lat="44.56591" lon="0.96807">
        <ele>116</ele>
        <time>2012-01-10T12:32:17Z</time>
      </trkpt>
      <trkpt lat="44.56604" lon="0.96778">
        <ele>115</ele>
        <time>2012-01-10T12:32:17Z</time>
      </trkpt>
      <trkpt lat="44.56608" lon="0.96769">
        <ele>115</ele>
        <time>2012-01-10T12:32:19Z</time>
      </trkpt>
      <trkpt lat="44.56612" lon="0.9676">
        <ele>115</ele>
        <time>2012-01-10T12:32:20Z</time>
      </trkpt>
      <trkpt lat="44.56617" lon="0.9674">
        <ele>115</ele>
        <time>2012-01-10T12:32:24Z</time>
      </trkpt>
      <trkpt lat="44.56629" lon="0.96713">
        <ele>115</ele>
        <time>2012-01-10T12:32:24Z</time>
      </trkpt>
      <trkpt lat="44.56634" lon="0.96705">
        <ele>116</ele>
        <time>2012-01-10T12:32:25Z</time>
      </trkpt>
      <trkpt lat="44.56641" lon="0.96694">
        <ele>117</ele>
        <time>2012-01-10T12:32:27Z</time>
      </trkpt>
      <trkpt lat="44.56659" lon="0.96668">
        <ele>118</ele>
        <time>2012-01-10T12:32:32Z</time>
      </trkpt>
      <trkpt lat="44.56671" lon="0.96643">
        <ele>119</ele>
        <time>2012-01-10T12:32:32Z</time>
      </trkpt>
      <trkpt lat="44.56674" lon="0.96634">
        <ele>119</ele>
        <time>2012-01-10T12:32:33Z</time>
      </trkpt>
      <trkpt lat="44.56684" lon="0.96618">
        <ele>119</ele>
        <time>2012-01-10T12:32:38Z</time>
      </trkpt>
      <trkpt lat="44.56697" lon="0.96604">
        <ele>119</ele>
        <time>2012-01-10T12:32:38Z</time>
      </trkpt>
      <trkpt lat="44.56702" lon="0.96601">
        <ele>119</ele>
        <time>2012-01-10T12:32:39Z</time>
      </trkpt>
      <trkpt lat="44.56706" lon="0.96597">
        <ele>119</ele>
        <time>2012-01-10T12:32:40Z</time>
      </trkpt>
      <trkpt lat="44.56711" lon="0.96591">
        <ele>118</ele>
        <time>2012-01-10T12:32:45Z</time>
      </trkpt>
      <trkpt lat="44.56715" lon="0.96585">
        <ele>117</ele>
        <time>2012-01-10T12:32:45Z</time>
      </trkpt>
      <trkpt lat="44.56716" lon="0.96584">
        <ele>117</ele>
        <time>2012-01-10T12:32:49Z</time>
      </trkpt>
      <trkpt lat="44.56717" lon="0.96582">
        <ele>116</ele>
        <time>2012-01-10T12:32:56Z</time>
      </trkpt>
      <trkpt lat="44.56717" lon="0.96579">
        <ele>116</ele>
        <time>2012-01-10T12:32:57Z</time>
      </trkpt>
      <trkpt lat="44.56718" lon="0.96577">
        <ele>116</ele>
        <time>2012-01-10T12:32:58Z</time>
      </trkpt>
      <trkpt lat="44.56727" lon="0.96545">
        <ele>116</ele>
        <time>2012-01-10T12:33:03Z</time>
      </trkpt>
      <trkpt lat="44.56727" lon="0.96538">
        <ele>116</ele>
        <time>2012-01-10T12:33:05Z</time>
      </trkpt>
      <trkpt lat="44.56726" lon="0.9653">
        <ele>115</ele>
        <time>2012-01-10T12:33:06Z</time>
      </trkpt>
      <trkpt lat="44.56725" lon="0.96489">
        <ele>114</ele>
        <time>2012-01-10T12:33:11Z</time>
      </trkpt>
      <trkpt lat="44.56726" lon="0.96483">
        <ele>113</ele>
        <time>2012-01-10T12:33:12Z</time>
      </trkpt>
      <trkpt lat="44.56724" lon="0.96472">
        <ele>112</ele>
        <time>2012-01-10T12:33:17Z</time>
      </trkpt>
      <trkpt lat="44.56719" lon="0.96454">
        <ele>111</ele>
        <time>2012-01-10T12:33:17Z</time>
      </trkpt>
      <trkpt lat="44.56718" lon="0.96449">
        <ele>110</ele>
        <time>2012-01-10T12:33:18Z</time>
      </trkpt>
      <trkpt lat="44.56717" lon="0.96444">
        <ele>109</ele>
        <time>2012-01-10T12:33:19Z</time>
      </trkpt>
      <trkpt lat="44.56716" lon="0.96433">
        <ele>109</ele>
        <time>2012-01-10T12:33:24Z</time>
      </trkpt>
      <trkpt lat="44.56716" lon="0.96416">
        <ele>108</ele>
        <time>2012-01-10T12:33:24Z</time>
      </trkpt>
      <trkpt lat="44.56716" lon="0.96411">
        <ele>108</ele>
        <time>2012-01-10T12:33:25Z</time>
      </trkpt>
      <trkpt lat="44.56716" lon="0.964">
        <ele>108</ele>
        <time>2012-01-10T12:33:30Z</time>
      </trkpt>
      <trkpt lat="44.56716" lon="0.96384">
        <ele>107</ele>
        <time>2012-01-10T12:33:30Z</time>
      </trkpt>
      <trkpt lat="44.56716" lon="0.96378">
        <ele>107</ele>
        <time>2012-01-10T12:33:31Z</time>
      </trkpt>
      <trkpt lat="44.56715" lon="0.96368">
        <ele>106</ele>
        <time>2012-01-10T12:33:36Z</time>
      </trkpt>
      <trkpt lat="44.56714" lon="0.96352">
        <ele>106</ele>
        <time>2012-01-10T12:33:36Z</time>
      </trkpt>
      <trkpt lat="44.56714" lon="0.96347">
        <ele>106</ele>
        <time>2012-01-10T12:33:37Z</time>
      </trkpt>
      <trkpt lat="44.56713" lon="0.9632">
        <ele>105</ele>
        <time>2012-01-10T12:33:42Z</time>
      </trkpt>
      <trkpt lat="44.56713" lon="0.96314">
        <ele>105</ele>
        <time>2012-01-10T12:33:43Z</time>
      </trkpt>
      <trkpt lat="44.56712" lon="0.96302">
        <ele>105</ele>
        <time>2012-01-10T12:33:49Z</time>
      </trkpt>
      <trkpt lat="44.56713" lon="0.96277">
        <ele>104</ele>
        <time>2012-01-10T12:33:49Z</time>
      </trkpt>
      <trkpt lat="44.56713" lon="0.96271">
        <ele>104</ele>
        <time>2012-01-10T12:33:50Z</time>
      </trkpt>
      <trkpt lat="44.56714" lon="0.96264">
        <ele>104</ele>
        <time>2012-01-10T12:33:51Z</time>
      </trkpt>
      <trkpt lat="44.56715" lon="0.96253">
        <ele>103</ele>
        <time>2012-01-10T12:33:56Z</time>
      </trkpt>
      <trkpt lat="44.56717" lon="0.96234">
        <ele>103</ele>
        <time>2012-01-10T12:33:56Z</time>
      </trkpt>
      <trkpt lat="44.56718" lon="0.96228">
        <ele>103</ele>
        <time>2012-01-10T12:33:57Z</time>
      </trkpt>
      <trkpt lat="44.56719" lon="0.96216">
        <ele>103</ele>
        <time>2012-01-10T12:34:02Z</time>
      </trkpt>
      <trkpt lat="44.56721" lon="0.962">
        <ele>102</ele>
        <time>2012-01-10T12:34:02Z</time>
      </trkpt>
      <trkpt lat="44.56723" lon="0.96195">
        <ele>102</ele>
        <time>2012-01-10T12:34:03Z</time>
      </trkpt>
      <trkpt lat="44.5673" lon="0.9617">
        <ele>102</ele>
        <time>2012-01-10T12:34:08Z</time>
      </trkpt>
      <trkpt lat="44.56732" lon="0.96166">
        <ele>102</ele>
        <time>2012-01-10T12:34:10Z</time>
      </trkpt>
      <trkpt lat="44.56734" lon="0.96162">
        <ele>102</ele>
        <time>2012-01-10T12:34:11Z</time>
      </trkpt>
      <trkpt lat="44.56741" lon="0.96145">
        <ele>102</ele>
        <time>2012-01-10T12:34:15Z</time>
      </trkpt>
      <trkpt lat="44.56742" lon="0.96143">
        <ele>102</ele>
        <time>2012-01-10T12:34:16Z</time>
      </trkpt>
      <trkpt lat="44.56743" lon="0.9614">
        <ele>102</ele>
        <time>2012-01-10T12:34:17Z</time>
      </trkpt>
      <trkpt lat="44.56745" lon="0.96137">
        <ele>102</ele>
        <time>2012-01-10T12:34:22Z</time>
      </trkpt>
      <trkpt lat="44.56749" lon="0.96133">
        <ele>102</ele>
        <time>2012-01-10T12:34:22Z</time>
      </trkpt>
      <trkpt lat="44.5675" lon="0.96131">
        <ele>101</ele>
        <time>2012-01-10T12:34:23Z</time>
      </trkpt>
      <trkpt lat="44.56755" lon="0.96125">
        <ele>101</ele>
        <time>2012-01-10T12:34:28Z</time>
      </trkpt>
      <trkpt lat="44.56763" lon="0.96115">
        <ele>100</ele>
        <time>2012-01-10T12:34:28Z</time>
      </trkpt>
      <trkpt lat="44.56767" lon="0.96111">
        <ele>100</ele>
        <time>2012-01-10T12:34:29Z</time>
      </trkpt>
      <trkpt lat="44.56784" lon="0.9609">
        <ele>100</ele>
        <time>2012-01-10T12:34:34Z</time>
      </trkpt>
      <trkpt lat="44.56787" lon="0.96086">
        <ele>100</ele>
        <time>2012-01-10T12:34:35Z</time>
      </trkpt>
      <trkpt lat="44.56791" lon="0.96082">
        <ele>100</ele>
        <time>2012-01-10T12:34:36Z</time>
      </trkpt>
      <trkpt lat="44.56799" lon="0.96074">
        <ele>99</ele>
        <time>2012-01-10T12:34:41Z</time>
      </trkpt>
      <trkpt lat="44.56812" lon="0.96063">
        <ele>98</ele>
        <time>2012-01-10T12:34:41Z</time>
      </trkpt>
      <trkpt lat="44.56817" lon="0.9606">
        <ele>97</ele>
        <time>2012-01-10T12:34:42Z</time>
      </trkpt>
      <trkpt lat="44.56825" lon="0.96055">
        <ele>96</ele>
        <time>2012-01-10T12:34:47Z</time>
      </trkpt>
      <trkpt lat="44.56838" lon="0.96048">
        <ele>95</ele>
        <time>2012-01-10T12:34:47Z</time>
      </trkpt>
      <trkpt lat="44.56842" lon="0.96046">
        <ele>94</ele>
        <time>2012-01-10T12:34:48Z</time>
      </trkpt>
      <trkpt lat="44.56859" lon="0.96033">
        <ele>93</ele>
        <time>2012-01-10T12:34:53Z</time>
      </trkpt>
      <trkpt lat="44.56862" lon="0.96028">
        <ele>92</ele>
        <time>2012-01-10T12:34:54Z</time>
      </trkpt>
      <trkpt lat="44.56866" lon="0.96025">
        <ele>92</ele>
        <time>2012-01-10T12:34:55Z</time>
      </trkpt>
      <trkpt lat="44.56873" lon="0.96017">
        <ele>92</ele>
        <time>2012-01-10T12:35:00Z</time>
      </trkpt>
      <trkpt lat="44.56883" lon="0.96002">
        <ele>91</ele>
        <time>2012-01-10T12:35:00Z</time>
      </trkpt>
      <trkpt lat="44.56885" lon="0.95997">
        <ele>91</ele>
        <time>2012-01-10T12:35:01Z</time>
      </trkpt>
      <trkpt lat="44.56888" lon="0.95992">
        <ele>91</ele>
        <time>2012-01-10T12:35:03Z</time>
      </trkpt>
      <trkpt lat="44.56893" lon="0.95981">
        <ele>90</ele>
        <time>2012-01-10T12:35:08Z</time>
      </trkpt>
      <trkpt lat="44.569" lon="0.95959">
        <ele>90</ele>
        <time>2012-01-10T12:35:08Z</time>
      </trkpt>
      <trkpt lat="44.56902" lon="0.95954">
        <ele>90</ele>
        <time>2012-01-10T12:35:09Z</time>
      </trkpt>
      <trkpt lat="44.56907" lon="0.95943">
        <ele>90</ele>
        <time>2012-01-10T12:35:14Z</time>
      </trkpt>
      <trkpt lat="44.56916" lon="0.95931">
        <ele>90</ele>
        <time>2012-01-10T12:35:14Z</time>
      </trkpt>
      <trkpt lat="44.56919" lon="0.95927">
        <ele>90</ele>
        <time>2012-01-10T12:35:15Z</time>
      </trkpt>
      <trkpt lat="44.5692" lon="0.95923">
        <ele>90</ele>
        <time>2012-01-10T12:35:16Z</time>
      </trkpt>
      <trkpt lat="44.5692" lon="0.95919">
        <ele>90</ele>
        <time>2012-01-10T12:35:18Z</time>
      </trkpt>
      <trkpt lat="44.56916" lon="0.95911">
        <ele>90</ele>
        <time>2012-01-10T12:35:23Z</time>
      </trkpt>
      <trkpt lat="44.56915" lon="0.95885">
        <ele>90</ele>
        <time>2012-01-10T12:35:24Z</time>
      </trkpt>
      <trkpt lat="44.56918" lon="0.95877">
        <ele>90</ele>
        <time>2012-01-10T12:35:25Z</time>
      </trkpt>
      <trkpt lat="44.56921" lon="0.9587">
        <ele>90</ele>
        <time>2012-01-10T12:35:26Z</time>
      </trkpt>
      <trkpt lat="44.56927" lon="0.95856">
        <ele>90</ele>
        <time>2012-01-10T12:35:31Z</time>
      </trkpt>
      <trkpt lat="44.56939" lon="0.95829">
        <ele>90</ele>
        <time>2012-01-10T12:35:31Z</time>
      </trkpt>
      <trkpt lat="44.56943" lon="0.95823">
        <ele>90</ele>
        <time>2012-01-10T12:35:32Z</time>
      </trkpt>
      <trkpt lat="44.56949" lon="0.95811">
        <ele>90</ele>
        <time>2012-01-10T12:35:37Z</time>
      </trkpt>
      <trkpt lat="44.56957" lon="0.95793">
        <ele>90</ele>
        <time>2012-01-10T12:35:37Z</time>
      </trkpt>
      <trkpt lat="44.56956" lon="0.95788">
        <ele>90</ele>
        <time>2012-01-10T12:35:38Z</time>
      </trkpt>
      <trkpt lat="44.56954" lon="0.95785">
        <ele>90</ele>
        <time>2012-01-10T12:35:40Z</time>
      </trkpt>
      <trkpt lat="44.56952" lon="0.95783">
        <ele>90</ele>
        <time>2012-01-10T12:35:41Z</time>
      </trkpt>
      <trkpt lat="44.56945" lon="0.95779">
        <ele>90</ele>
        <time>2012-01-10T12:35:46Z</time>
      </trkpt>
      <trkpt lat="44.56929" lon="0.95771">
        <ele>90</ele>
        <time>2012-01-10T12:35:46Z</time>
      </trkpt>
      <trkpt lat="44.56919" lon="0.95766">
        <ele>90</ele>
        <time>2012-01-10T12:35:51Z</time>
      </trkpt>
      <trkpt lat="44.56901" lon="0.95756">
        <ele>90</ele>
        <time>2012-01-10T12:35:52Z</time>
      </trkpt>
      <trkpt lat="44.56896" lon="0.95752">
        <ele>90</ele>
        <time>2012-01-10T12:35:53Z</time>
      </trkpt>
      <trkpt lat="44.56889" lon="0.95745">
        <ele>90</ele>
        <time>2012-01-10T12:35:58Z</time>
      </trkpt>
      <trkpt lat="44.56878" lon="0.95733">
        <ele>90</ele>
        <time>2012-01-10T12:35:58Z</time>
      </trkpt>
      <trkpt lat="44.56874" lon="0.95729">
        <ele>90</ele>
        <time>2012-01-10T12:35:59Z</time>
      </trkpt>
      <trkpt lat="44.5685" lon="0.95712">
        <ele>90</ele>
        <time>2012-01-10T12:36:04Z</time>
      </trkpt>
      <trkpt lat="44.56845" lon="0.95709">
        <ele>91</ele>
        <time>2012-01-10T12:36:05Z</time>
      </trkpt>
      <trkpt lat="44.56834" lon="0.95704">
        <ele>91</ele>
        <time>2012-01-10T12:36:11Z</time>
      </trkpt>
      <trkpt lat="44.56813" lon="0.95693">
        <ele>92</ele>
        <time>2012-01-10T12:36:11Z</time>
      </trkpt>
      <trkpt lat="44.56807" lon="0.95691">
        <ele>92</ele>
        <time>2012-01-10T12:36:12Z</time>
      </trkpt>
      <trkpt lat="44.56797" lon="0.95684">
        <ele>92</ele>
        <time>2012-01-10T12:36:17Z</time>
      </trkpt>
      <trkpt lat="44.56783" lon="0.95675">
        <ele>93</ele>
        <time>2012-01-10T12:36:17Z</time>
      </trkpt>
      <trkpt lat="44.56778" lon="0.95672">
        <ele>93</ele>
        <time>2012-01-10T12:36:18Z</time>
      </trkpt>
      <trkpt lat="44.56768" lon="0.95667">
        <ele>93</ele>
        <time>2012-01-10T12:36:24Z</time>
      </trkpt>
      <trkpt lat="44.56747" lon="0.95657">
        <ele>94</ele>
        <time>2012-01-10T12:36:24Z</time>
      </trkpt>
      <trkpt lat="44.56742" lon="0.95655">
        <ele>94</ele>
        <time>2012-01-10T12:36:25Z</time>
      </trkpt>
      <trkpt lat="44.5673" lon="0.9565">
        <ele>94</ele>
        <time>2012-01-10T12:36:30Z</time>
      </trkpt>
      <trkpt lat="44.56712" lon="0.95643">
        <ele>94</ele>
        <time>2012-01-10T12:36:30Z</time>
      </trkpt>
      <trkpt lat="44.56707" lon="0.95641">
        <ele>94</ele>
        <time>2012-01-10T12:36:31Z</time>
      </trkpt>
      <trkpt lat="44.56678" lon="0.95633">
        <ele>94</ele>
        <time>2012-01-10T12:36:36Z</time>
      </trkpt>
      <trkpt lat="44.56672" lon="0.95632">
        <ele>94</ele>
        <time>2012-01-10T12:36:37Z</time>
      </trkpt>
      <trkpt lat="44.56667" lon="0.95631">
        <ele>94</ele>
        <time>2012-01-10T12:36:38Z</time>
      </trkpt>
      <trkpt lat="44.56655" lon="0.9563">
        <ele>94</ele>
        <time>2012-01-10T12:36:43Z</time>
      </trkpt>
      <trkpt lat="44.56638" lon="0.95628">
        <ele>94</ele>
        <time>2012-01-10T12:36:43Z</time>
      </trkpt>
      <trkpt lat="44.56632" lon="0.95627">
        <ele>94</ele>
        <time>2012-01-10T12:36:44Z</time>
      </trkpt>
      <trkpt lat="44.56621" lon="0.95626">
        <ele>94</ele>
        <time>2012-01-10T12:36:50Z</time>
      </trkpt>
      <trkpt lat="44.566" lon="0.95625">
        <ele>94</ele>
        <time>2012-01-10T12:36:50Z</time>
      </trkpt>
      <trkpt lat="44.56595" lon="0.95626">
        <ele>94</ele>
        <time>2012-01-10T12:36:51Z</time>
      </trkpt>
      <trkpt lat="44.56585" lon="0.95627">
        <ele>94</ele>
        <time>2012-01-10T12:36:56Z</time>
      </trkpt>
      <trkpt lat="44.5657" lon="0.95631">
        <ele>94</ele>
        <time>2012-01-10T12:36:56Z</time>
      </trkpt>
      <trkpt lat="44.56565" lon="0.95634">
        <ele>94</ele>
        <time>2012-01-10T12:36:57Z</time>
      </trkpt>
      <trkpt lat="44.56554" lon="0.95638">
        <ele>94</ele>
        <time>2012-01-10T12:37:03Z</time>
      </trkpt>
      <trkpt lat="44.56533" lon="0.95647">
        <ele>94</ele>
        <time>2012-01-10T12:37:03Z</time>
      </trkpt>
      <trkpt lat="44.56527" lon="0.95648">
        <ele>94</ele>
        <time>2012-01-10T12:37:04Z</time>
      </trkpt>
      <trkpt lat="44.56517" lon="0.95651">
        <ele>94</ele>
        <time>2012-01-10T12:37:09Z</time>
      </trkpt>
      <trkpt lat="44.56502" lon="0.95653">
        <ele>94</ele>
        <time>2012-01-10T12:37:09Z</time>
      </trkpt>
      <trkpt lat="44.56497" lon="0.95654">
        <ele>94</ele>
        <time>2012-01-10T12:37:10Z</time>
      </trkpt>
      <trkpt lat="44.56487" lon="0.95654">
        <ele>94</ele>
        <time>2012-01-10T12:37:16Z</time>
      </trkpt>
      <trkpt lat="44.56467" lon="0.95655">
        <ele>94</ele>
        <time>2012-01-10T12:37:16Z</time>
      </trkpt>
      <trkpt lat="44.56462" lon="0.95655">
        <ele>94</ele>
        <time>2012-01-10T12:37:17Z</time>
      </trkpt>
      <trkpt lat="44.56453" lon="0.95654">
        <ele>94</ele>
        <time>2012-01-10T12:37:22Z</time>
      </trkpt>
      <trkpt lat="44.56438" lon="0.95652">
        <ele>94</ele>
        <time>2012-01-10T12:37:22Z</time>
      </trkpt>
      <trkpt lat="44.56434" lon="0.95651">
        <ele>94</ele>
        <time>2012-01-10T12:37:23Z</time>
      </trkpt>
      <trkpt lat="44.56425" lon="0.9565">
        <ele>94</ele>
        <time>2012-01-10T12:37:29Z</time>
      </trkpt>
      <trkpt lat="44.56407" lon="0.95647">
        <ele>94</ele>
        <time>2012-01-10T12:37:29Z</time>
      </trkpt>
      <trkpt lat="44.56403" lon="0.95646">
        <ele>94</ele>
        <time>2012-01-10T12:37:30Z</time>
      </trkpt>
      <trkpt lat="44.56394" lon="0.95645">
        <ele>94</ele>
        <time>2012-01-10T12:37:35Z</time>
      </trkpt>
      <trkpt lat="44.56381" lon="0.95645">
        <ele>94</ele>
        <time>2012-01-10T12:37:35Z</time>
      </trkpt>
      <trkpt lat="44.56377" lon="0.95645">
        <ele>94</ele>
        <time>2012-01-10T12:37:36Z</time>
      </trkpt>
      <trkpt lat="44.56369" lon="0.95645">
        <ele>94</ele>
        <time>2012-01-10T12:37:42Z</time>
      </trkpt>
      <trkpt lat="44.56353" lon="0.95647">
        <ele>94</ele>
        <time>2012-01-10T12:37:42Z</time>
      </trkpt>
      <trkpt lat="44.56349" lon="0.95647">
        <ele>94</ele>
        <time>2012-01-10T12:37:43Z</time>
      </trkpt>
      <trkpt lat="44.5634" lon="0.95647">
        <ele>94</ele>
        <time>2012-01-10T12:37:48Z</time>
      </trkpt>
      <trkpt lat="44.56329" lon="0.95648">
        <ele>94</ele>
        <time>2012-01-10T12:37:48Z</time>
      </trkpt>
      <trkpt lat="44.56325" lon="0.95648">
        <ele>94</ele>
        <time>2012-01-10T12:37:49Z</time>
      </trkpt>
      <trkpt lat="44.56318" lon="0.95648">
        <ele>94</ele>
        <time>2012-01-10T12:37:55Z</time>
      </trkpt>
      <trkpt lat="44.56303" lon="0.95646">
        <ele>94</ele>
        <time>2012-01-10T12:37:55Z</time>
      </trkpt>
      <trkpt lat="44.56299" lon="0.95645">
        <ele>94</ele>
        <time>2012-01-10T12:37:56Z</time>
      </trkpt>
      <trkpt lat="44.56282" lon="0.95636">
        <ele>94</ele>
        <time>2012-01-10T12:38:01Z</time>
      </trkpt>
      <trkpt lat="44.56279" lon="0.95634">
        <ele>94</ele>
        <time>2012-01-10T12:38:02Z</time>
      </trkpt>
      <trkpt lat="44.56275" lon="0.95632">
        <ele>95</ele>
        <time>2012-01-10T12:38:03Z</time>
      </trkpt>
      <trkpt lat="44.56269" lon="0.95626">
        <ele>95</ele>
        <time>2012-01-10T12:38:08Z</time>
      </trkpt>
      <trkpt lat="44.5626" lon="0.9562">
        <ele>95</ele>
        <time>2012-01-10T12:38:08Z</time>
      </trkpt>
      <trkpt lat="44.56256" lon="0.95618">
        <ele>95</ele>
        <time>2012-01-10T12:38:09Z</time>
      </trkpt>
      <trkpt lat="44.5625" lon="0.95613">
        <ele>95</ele>
        <time>2012-01-10T12:38:15Z</time>
      </trkpt>
      <trkpt lat="44.56237" lon="0.95602">
        <ele>95</ele>
        <time>2012-01-10T12:38:15Z</time>
      </trkpt>
      <trkpt lat="44.56234" lon="0.95599">
        <ele>95</ele>
        <time>2012-01-10T12:38:16Z</time>
      </trkpt>
      <trkpt lat="44.56218" lon="0.95582">
        <ele>95</ele>
        <time>2012-01-10T12:38:21Z</time>
      </trkpt>
      <trkpt lat="44.56214" lon="0.95579">
        <ele>95</ele>
        <time>2012-01-10T12:38:22Z</time>
      </trkpt>
      <trkpt lat="44.56208" lon="0.95574">
        <ele>96</ele>
        <time>2012-01-10T12:38:28Z</time>
      </trkpt>
      <trkpt lat="44.56196" lon="0.95565">
        <ele>97</ele>
        <time>2012-01-10T12:38:28Z</time>
      </trkpt>
      <trkpt lat="44.56193" lon="0.95562">
        <ele>98</ele>
        <time>2012-01-10T12:38:29Z</time>
      </trkpt>
      <trkpt lat="44.56185" lon="0.95558">
        <ele>99</ele>
        <time>2012-01-10T12:38:35Z</time>
      </trkpt>
      <trkpt lat="44.56171" lon="0.95552">
        <ele>100</ele>
        <time>2012-01-10T12:38:35Z</time>
      </trkpt>
      <trkpt lat="44.56168" lon="0.95554">
        <ele>100</ele>
        <time>2012-01-10T12:38:37Z</time>
      </trkpt>
      <trkpt lat="44.56166" lon="0.95557">
        <ele>100</ele>
        <time>2012-01-10T12:38:38Z</time>
      </trkpt>
      <trkpt lat="44.56159" lon="0.95577">
        <ele>100</ele>
        <time>2012-01-10T12:38:43Z</time>
      </trkpt>
      <trkpt lat="44.56157" lon="0.9558">
        <ele>101</ele>
        <time>2012-01-10T12:38:45Z</time>
      </trkpt>
      <trkpt lat="44.56155" lon="0.95587">
        <ele>101</ele>
        <time>2012-01-10T12:38:50Z</time>
      </trkpt>
      <trkpt lat="44.56149" lon="0.95599">
        <ele>101</ele>
        <time>2012-01-10T12:38:50Z</time>
      </trkpt>
      <trkpt lat="44.56148" lon="0.95603">
        <ele>101</ele>
        <time>2012-01-10T12:38:51Z</time>
      </trkpt>
      <trkpt lat="44.56145" lon="0.95609">
        <ele>102</ele>
        <time>2012-01-10T12:38:57Z</time>
      </trkpt>
      <trkpt lat="44.5614" lon="0.95623">
        <ele>102</ele>
        <time>2012-01-10T12:38:57Z</time>
      </trkpt>
      <trkpt lat="44.56138" lon="0.95627">
        <ele>102</ele>
        <time>2012-01-10T12:38:58Z</time>
      </trkpt>
      <trkpt lat="44.56136" lon="0.95634">
        <ele>102</ele>
        <time>2012-01-10T12:39:03Z</time>
      </trkpt>
      <trkpt lat="44.56131" lon="0.95644">
        <ele>102</ele>
        <time>2012-01-10T12:39:03Z</time>
      </trkpt>
      <trkpt lat="44.5613" lon="0.95648">
        <ele>102</ele>
        <time>2012-01-10T12:39:04Z</time>
      </trkpt>
      <trkpt lat="44.56128" lon="0.95656">
        <ele>102</ele>
        <time>2012-01-10T12:39:10Z</time>
      </trkpt>
      <trkpt lat="44.56122" lon="0.9567">
        <ele>102</ele>
        <time>2012-01-10T12:39:10Z</time>
      </trkpt>
      <trkpt lat="44.56121" lon="0.95673">
        <ele>102</ele>
        <time>2012-01-10T12:39:11Z</time>
      </trkpt>
      <trkpt lat="44.56119" lon="0.95679">
        <ele>103</ele>
        <time>2012-01-10T12:39:17Z</time>
      </trkpt>
      <trkpt lat="44.56115" lon="0.95689">
        <ele>103</ele>
        <time>2012-01-10T12:39:17Z</time>
      </trkpt>
      <trkpt lat="44.56114" lon="0.95692">
        <ele>103</ele>
        <time>2012-01-10T12:39:18Z</time>
      </trkpt>
      <trkpt lat="44.5611" lon="0.95703">
        <ele>104</ele>
        <time>2012-01-10T12:39:23Z</time>
      </trkpt>
      <trkpt lat="44.56109" lon="0.95705">
        <ele>104</ele>
        <time>2012-01-10T12:39:24Z</time>
      </trkpt>
      <trkpt lat="44.56107" lon="0.9571">
        <ele>104</ele>
        <time>2012-01-10T12:39:30Z</time>
      </trkpt>
      <trkpt lat="44.56104" lon="0.9572">
        <ele>104</ele>
        <time>2012-01-10T12:39:30Z</time>
      </trkpt>
      <trkpt lat="44.56103" lon="0.95722">
        <ele>105</ele>
        <time>2012-01-10T12:39:31Z</time>
      </trkpt>
      <trkpt lat="44.56101" lon="0.95727">
        <ele>105</ele>
        <time>2012-01-10T12:39:37Z</time>
      </trkpt>
      <trkpt lat="44.56097" lon="0.95736">
        <ele>105</ele>
        <time>2012-01-10T12:39:37Z</time>
      </trkpt>
      <trkpt lat="44.56097" lon="0.95738">
        <ele>105</ele>
        <time>2012-01-10T12:39:38Z</time>
      </trkpt>
      <trkpt lat="44.56092" lon="0.9575">
        <ele>106</ele>
        <time>2012-01-10T12:39:43Z</time>
      </trkpt>
      <trkpt lat="44.56091" lon="0.95752">
        <ele>107</ele>
        <time>2012-01-10T12:39:44Z</time>
      </trkpt>
      <trkpt lat="44.56089" lon="0.95756">
        <ele>107</ele>
        <time>2012-01-10T12:39:50Z</time>
      </trkpt>
      <trkpt lat="44.56085" lon="0.95763">
        <ele>108</ele>
        <time>2012-01-10T12:39:50Z</time>
      </trkpt>
      <trkpt lat="44.56084" lon="0.95765">
        <ele>108</ele>
        <time>2012-01-10T12:39:51Z</time>
      </trkpt>
      <trkpt lat="44.56082" lon="0.95768">
        <ele>109</ele>
        <time>2012-01-10T12:39:57Z</time>
      </trkpt>
      <trkpt lat="44.56076" lon="0.95774">
        <ele>110</ele>
        <time>2012-01-10T12:39:57Z</time>
      </trkpt>
      <trkpt lat="44.56075" lon="0.95775">
        <ele>110</ele>
        <time>2012-01-10T12:39:58Z</time>
      </trkpt>
      <trkpt lat="44.56074" lon="0.95776">
        <ele>111</ele>
        <time>2012-01-10T12:39:59Z</time>
      </trkpt>
      <trkpt lat="44.56068" lon="0.95784">
        <ele>112</ele>
        <time>2012-01-10T12:40:04Z</time>
      </trkpt>
      <trkpt lat="44.56067" lon="0.95785">
        <ele>112</ele>
        <time>2012-01-10T12:40:05Z</time>
      </trkpt>
      <trkpt lat="44.56065" lon="0.95788">
        <ele>112</ele>
        <time>2012-01-10T12:40:11Z</time>
      </trkpt>
      <trkpt lat="44.56063" lon="0.9579">
        <ele>113</ele>
        <time>2012-01-10T12:40:12Z</time>
      </trkpt>
      <trkpt lat="44.56061" lon="0.95788">
        <ele>114</ele>
        <time>2012-01-10T12:40:22Z</time>
      </trkpt>
      <trkpt lat="44.5606" lon="0.95787">
        <ele>116</ele>
        <time>2012-01-10T12:40:32Z</time>
      </trkpt>
      <trkpt lat="44.56059" lon="0.95789">
        <ele>117</ele>
        <time>2012-01-10T12:40:48Z</time>
      </trkpt>
      <trkpt lat="44.56056" lon="0.95793">
        <ele>118</ele>
        <time>2012-01-10T12:40:56Z</time>
      </trkpt>
      <trkpt lat="44.56049" lon="0.95803">
        <ele>119</ele>
        <time>2012-01-10T12:40:57Z</time>
      </trkpt>
      <trkpt lat="44.56047" lon="0.95807">
        <ele>119</ele>
        <time>2012-01-10T12:41:02Z</time>
      </trkpt>
      <trkpt lat="44.56041" lon="0.95816">
        <ele>120</ele>
        <time>2012-01-10T12:41:02Z</time>
      </trkpt>
      <trkpt lat="44.56039" lon="0.95818">
        <ele>121</ele>
        <time>2012-01-10T12:41:03Z</time>
      </trkpt>
      <trkpt lat="44.56036" lon="0.95823">
        <ele>121</ele>
        <time>2012-01-10T12:41:09Z</time>
      </trkpt>
      <trkpt lat="44.56029" lon="0.95833">
        <ele>121</ele>
        <time>2012-01-10T12:41:09Z</time>
      </trkpt>
      <trkpt lat="44.56027" lon="0.95836">
        <ele>122</ele>
        <time>2012-01-10T12:41:10Z</time>
      </trkpt>
      <trkpt lat="44.5602" lon="0.95848">
        <ele>122</ele>
        <time>2012-01-10T12:41:15Z</time>
      </trkpt>
      <trkpt lat="44.56018" lon="0.9585">
        <ele>122</ele>
        <time>2012-01-10T12:41:16Z</time>
      </trkpt>
      <trkpt lat="44.56014" lon="0.95855">
        <ele>122</ele>
        <time>2012-01-10T12:41:22Z</time>
      </trkpt>
      <trkpt lat="44.56005" lon="0.95862">
        <ele>123</ele>
        <time>2012-01-10T12:41:22Z</time>
      </trkpt>
      <trkpt lat="44.56003" lon="0.95863">
        <ele>123</ele>
        <time>2012-01-10T12:41:24Z</time>
      </trkpt>
      <trkpt lat="44.56" lon="0.95864">
        <ele>124</ele>
        <time>2012-01-10T12:41:25Z</time>
      </trkpt>
      <trkpt lat="44.55996" lon="0.95866">
        <ele>124</ele>
        <time>2012-01-10T12:41:29Z</time>
      </trkpt>
      <trkpt lat="44.55986" lon="0.95871">
        <ele>125</ele>
        <time>2012-01-10T12:41:30Z</time>
      </trkpt>
      <trkpt lat="44.55984" lon="0.95872">
        <ele>126</ele>
        <time>2012-01-10T12:41:31Z</time>
      </trkpt>
      <trkpt lat="44.55971" lon="0.95876">
        <ele>126</ele>
        <time>2012-01-10T12:41:36Z</time>
      </trkpt>
      <trkpt lat="44.55969" lon="0.95877">
        <ele>127</ele>
        <time>2012-01-10T12:41:37Z</time>
      </trkpt>
      <trkpt lat="44.55963" lon="0.95878">
        <ele>127</ele>
        <time>2012-01-10T12:41:43Z</time>
      </trkpt>
      <trkpt lat="44.55951" lon="0.95881">
        <ele>127</ele>
        <time>2012-01-10T12:41:43Z</time>
      </trkpt>
      <trkpt lat="44.55947" lon="0.95881">
        <ele>128</ele>
        <time>2012-01-10T12:41:44Z</time>
      </trkpt>
      <trkpt lat="44.55941" lon="0.95883">
        <ele>128</ele>
        <time>2012-01-10T12:41:50Z</time>
      </trkpt>
      <trkpt lat="44.55927" lon="0.95889">
        <ele>128</ele>
        <time>2012-01-10T12:41:50Z</time>
      </trkpt>
      <trkpt lat="44.55923" lon="0.95891">
        <ele>128</ele>
        <time>2012-01-10T12:41:51Z</time>
      </trkpt>
      <trkpt lat="44.55916" lon="0.95894">
        <ele>128</ele>
        <time>2012-01-10T12:41:57Z</time>
      </trkpt>
      <trkpt lat="44.55904" lon="0.95903">
        <ele>129</ele>
        <time>2012-01-10T12:41:57Z</time>
      </trkpt>
      <trkpt lat="44.559" lon="0.95904">
        <ele>130</ele>
        <time>2012-01-10T12:41:58Z</time>
      </trkpt>
      <trkpt lat="44.55885" lon="0.95912">
        <ele>130</ele>
        <time>2012-01-10T12:42:03Z</time>
      </trkpt>
      <trkpt lat="44.55883" lon="0.95914">
        <ele>131</ele>
        <time>2012-01-10T12:42:04Z</time>
      </trkpt>
      <trkpt lat="44.55878" lon="0.95917">
        <ele>131</ele>
        <time>2012-01-10T12:42:10Z</time>
      </trkpt>
      <trkpt lat="44.55872" lon="0.95928">
        <ele>132</ele>
        <time>2012-01-10T12:42:10Z</time>
      </trkpt>
      <trkpt lat="44.5587" lon="0.9593">
        <ele>133</ele>
        <time>2012-01-10T12:42:12Z</time>
      </trkpt>
      <trkpt lat="44.55869" lon="0.95932">
        <ele>134</ele>
        <time>2012-01-10T12:42:13Z</time>
      </trkpt>
      <trkpt lat="44.55867" lon="0.95935">
        <ele>135</ele>
        <time>2012-01-10T12:42:18Z</time>
      </trkpt>
      <trkpt lat="44.55862" lon="0.95942">
        <ele>136</ele>
        <time>2012-01-10T12:42:18Z</time>
      </trkpt>
      <trkpt lat="44.5586" lon="0.95943">
        <ele>137</ele>
        <time>2012-01-10T12:42:20Z</time>
      </trkpt>
      <trkpt lat="44.55859" lon="0.95945">
        <ele>137</ele>
        <time>2012-01-10T12:42:21Z</time>
      </trkpt>
      <trkpt lat="44.55856" lon="0.95948">
        <ele>138</ele>
        <time>2012-01-10T12:42:26Z</time>
      </trkpt>
      <trkpt lat="44.55851" lon="0.95955">
        <ele>138</ele>
        <time>2012-01-10T12:42:26Z</time>
      </trkpt>
      <trkpt lat="44.55849" lon="0.95957">
        <ele>139</ele>
        <time>2012-01-10T12:42:27Z</time>
      </trkpt>
      <trkpt lat="44.55847" lon="0.9596">
        <ele>139</ele>
        <time>2012-01-10T12:42:33Z</time>
      </trkpt>
      <trkpt lat="44.55843" lon="0.95968">
        <ele>139</ele>
        <time>2012-01-10T12:42:33Z</time>
      </trkpt>
      <trkpt lat="44.55842" lon="0.9597">
        <ele>140</ele>
        <time>2012-01-10T12:42:35Z</time>
      </trkpt>
      <trkpt lat="44.55841" lon="0.95972">
        <ele>141</ele>
        <time>2012-01-10T12:42:35Z</time>
      </trkpt>
      <trkpt lat="44.5584" lon="0.95984">
        <ele>141</ele>
        <time>2012-01-10T12:42:40Z</time>
      </trkpt>
      <trkpt lat="44.5584" lon="0.95986">
        <ele>142</ele>
        <time>2012-01-10T12:42:42Z</time>
      </trkpt>
      <trkpt lat="44.55839" lon="0.95988">
        <ele>143</ele>
        <time>2012-01-10T12:42:42Z</time>
      </trkpt>
      <trkpt lat="44.55839" lon="0.95994">
        <ele>143</ele>
        <time>2012-01-10T12:42:48Z</time>
      </trkpt>
      <trkpt lat="44.55836" lon="0.96004">
        <ele>144</ele>
        <time>2012-01-10T12:42:48Z</time>
      </trkpt>
      <trkpt lat="44.55835" lon="0.96007">
        <ele>145</ele>
        <time>2012-01-10T12:42:49Z</time>
      </trkpt>
      <trkpt lat="44.55833" lon="0.9602">
        <ele>146</ele>
        <time>2012-01-10T12:42:54Z</time>
      </trkpt>
      <trkpt lat="44.55833" lon="0.96022">
        <ele>147</ele>
        <time>2012-01-10T12:42:55Z</time>
      </trkpt>
      <trkpt lat="44.55832" lon="0.96025">
        <ele>148</ele>
        <time>2012-01-10T12:42:56Z</time>
      </trkpt>
      <trkpt lat="44.55832" lon="0.96038">
        <ele>149</ele>
        <time>2012-01-10T12:43:01Z</time>
      </trkpt>
      <trkpt lat="44.55832" lon="0.96041">
        <ele>150</ele>
        <time>2012-01-10T12:43:02Z</time>
      </trkpt>
      <trkpt lat="44.55831" lon="0.96043">
        <ele>151</ele>
        <time>2012-01-10T12:43:03Z</time>
      </trkpt>
      <trkpt lat="44.5583" lon="0.96057">
        <ele>152</ele>
        <time>2012-01-10T12:43:08Z</time>
      </trkpt>
      <trkpt lat="44.5583" lon="0.9606">
        <ele>153</ele>
        <time>2012-01-10T12:43:09Z</time>
      </trkpt>
      <trkpt lat="44.5583" lon="0.96062">
        <ele>153</ele>
        <time>2012-01-10T12:43:10Z</time>
      </trkpt>
      <trkpt lat="44.55828" lon="0.96074">
        <ele>153</ele>
        <time>2012-01-10T12:43:15Z</time>
      </trkpt>
      <trkpt lat="44.55827" lon="0.96077">
        <ele>153</ele>
        <time>2012-01-10T12:43:16Z</time>
      </trkpt>
      <trkpt lat="44.55826" lon="0.9608">
        <ele>153</ele>
        <time>2012-01-10T12:43:17Z</time>
      </trkpt>
      <trkpt lat="44.55821" lon="0.96092">
        <ele>153</ele>
        <time>2012-01-10T12:43:22Z</time>
      </trkpt>
      <trkpt lat="44.5582" lon="0.96093">
        <ele>153</ele>
        <time>2012-01-10T12:43:24Z</time>
      </trkpt>
      <trkpt lat="44.55819" lon="0.96096">
        <ele>153</ele>
        <time>2012-01-10T12:43:24Z</time>
      </trkpt>
      <trkpt lat="44.55816" lon="0.96099">
        <ele>153</ele>
        <time>2012-01-10T12:43:30Z</time>
      </trkpt>
      <trkpt lat="44.5581" lon="0.96105">
        <ele>153</ele>
        <time>2012-01-10T12:43:30Z</time>
      </trkpt>
      <trkpt lat="44.55809" lon="0.96107">
        <ele>153</ele>
        <time>2012-01-10T12:43:31Z</time>
      </trkpt>
      <trkpt lat="44.55805" lon="0.9611">
        <ele>153</ele>
        <time>2012-01-10T12:43:36Z</time>
      </trkpt>
      <trkpt lat="44.55797" lon="0.96117">
        <ele>153</ele>
        <time>2012-01-10T12:43:37Z</time>
      </trkpt>
      <trkpt lat="44.55796" lon="0.96118">
        <ele>153</ele>
        <time>2012-01-10T12:43:38Z</time>
      </trkpt>
      <trkpt lat="44.55788" lon="0.96129">
        <ele>153</ele>
        <time>2012-01-10T12:43:43Z</time>
      </trkpt>
      <trkpt lat="44.55787" lon="0.96131">
        <ele>153</ele>
        <time>2012-01-10T12:43:44Z</time>
      </trkpt>
      <trkpt lat="44.55785" lon="0.96133">
        <ele>153</ele>
        <time>2012-01-10T12:43:45Z</time>
      </trkpt>
      <trkpt lat="44.55782" lon="0.96137">
        <ele>153</ele>
        <time>2012-01-10T12:43:50Z</time>
      </trkpt>
      <trkpt lat="44.55777" lon="0.96146">
        <ele>153</ele>
        <time>2012-01-10T12:43:51Z</time>
      </trkpt>
      <trkpt lat="44.55775" lon="0.96149">
        <ele>153</ele>
        <time>2012-01-10T12:43:52Z</time>
      </trkpt>
      <trkpt lat="44.55771" lon="0.96165">
        <ele>153</ele>
        <time>2012-01-10T12:43:58Z</time>
      </trkpt>
      <trkpt lat="44.5577" lon="0.96168">
        <ele>154</ele>
        <time>2012-01-10T12:43:59Z</time>
      </trkpt>
      <trkpt lat="44.55768" lon="0.96172">
        <ele>154</ele>
        <time>2012-01-10T12:44:05Z</time>
      </trkpt>
      <trkpt lat="44.55764" lon="0.9618">
        <ele>154</ele>
        <time>2012-01-10T12:44:05Z</time>
      </trkpt>
      <trkpt lat="44.55763" lon="0.96182">
        <ele>155</ele>
        <time>2012-01-10T12:44:06Z</time>
      </trkpt>
      <trkpt lat="44.55761" lon="0.96186">
        <ele>155</ele>
        <time>2012-01-10T12:44:12Z</time>
      </trkpt>
      <trkpt lat="44.55758" lon="0.96195">
        <ele>155</ele>
        <time>2012-01-10T12:44:12Z</time>
      </trkpt>
      <trkpt lat="44.55757" lon="0.96197">
        <ele>156</ele>
        <time>2012-01-10T12:44:13Z</time>
      </trkpt>
      <trkpt lat="44.55755" lon="0.96201">
        <ele>156</ele>
        <time>2012-01-10T12:44:19Z</time>
      </trkpt>
      <trkpt lat="44.55753" lon="0.9621">
        <ele>156</ele>
        <time>2012-01-10T12:44:19Z</time>
      </trkpt>
      <trkpt lat="44.55752" lon="0.96213">
        <ele>156</ele>
        <time>2012-01-10T12:44:21Z</time>
      </trkpt>
      <trkpt lat="44.55751" lon="0.96215">
        <ele>157</ele>
        <time>2012-01-10T12:44:22Z</time>
      </trkpt>
      <trkpt lat="44.55751" lon="0.96219">
        <ele>158</ele>
        <time>2012-01-10T12:44:27Z</time>
      </trkpt>
      <trkpt lat="44.55751" lon="0.96228">
        <ele>159</ele>
        <time>2012-01-10T12:44:27Z</time>
      </trkpt>
      <trkpt lat="44.55751" lon="0.9623">
        <ele>160</ele>
        <time>2012-01-10T12:44:28Z</time>
      </trkpt>
      <trkpt lat="44.55751" lon="0.96234">
        <ele>161</ele>
        <time>2012-01-10T12:44:34Z</time>
      </trkpt>
      <trkpt lat="44.55751" lon="0.96243">
        <ele>162</ele>
        <time>2012-01-10T12:44:34Z</time>
      </trkpt>
      <trkpt lat="44.55751" lon="0.96245">
        <ele>163</ele>
        <time>2012-01-10T12:44:35Z</time>
      </trkpt>
      <trkpt lat="44.55751" lon="0.96248">
        <ele>164</ele>
        <time>2012-01-10T12:44:37Z</time>
      </trkpt>
      <trkpt lat="44.55749" lon="0.96252">
        <ele>165</ele>
        <time>2012-01-10T12:44:42Z</time>
      </trkpt>
      <trkpt lat="44.55746" lon="0.9626">
        <ele>166</ele>
        <time>2012-01-10T12:44:42Z</time>
      </trkpt>
      <trkpt lat="44.55745" lon="0.96263">
        <ele>166</ele>
        <time>2012-01-10T12:44:44Z</time>
      </trkpt>
      <trkpt lat="44.55743" lon="0.96267">
        <ele>166</ele>
        <time>2012-01-10T12:44:49Z</time>
      </trkpt>
      <trkpt lat="44.5574" lon="0.96275">
        <ele>166</ele>
        <time>2012-01-10T12:44:49Z</time>
      </trkpt>
      <trkpt lat="44.55739" lon="0.96278">
        <ele>167</ele>
        <time>2012-01-10T12:44:50Z</time>
      </trkpt>
      <trkpt lat="44.55739" lon="0.9628">
        <ele>167</ele>
        <time>2012-01-10T12:44:52Z</time>
      </trkpt>
      <trkpt lat="44.55737" lon="0.96285">
        <ele>167</ele>
        <time>2012-01-10T12:44:57Z</time>
      </trkpt>
      <trkpt lat="44.55734" lon="0.96294">
        <ele>167</ele>
        <time>2012-01-10T12:44:57Z</time>
      </trkpt>
      <trkpt lat="44.55733" lon="0.96297">
        <ele>167</ele>
        <time>2012-01-10T12:44:58Z</time>
      </trkpt>
      <trkpt lat="44.5573" lon="0.96301">
        <ele>167</ele>
        <time>2012-01-10T12:45:04Z</time>
      </trkpt>
      <trkpt lat="44.55727" lon="0.9631">
        <ele>167</ele>
        <time>2012-01-10T12:45:04Z</time>
      </trkpt>
      <trkpt lat="44.55725" lon="0.96312">
        <ele>167</ele>
        <time>2012-01-10T12:45:05Z</time>
      </trkpt>
      <trkpt lat="44.55722" lon="0.96315">
        <ele>167</ele>
        <time>2012-01-10T12:45:11Z</time>
      </trkpt>
      <trkpt lat="44.55714" lon="0.96313">
        <ele>167</ele>
        <time>2012-01-10T12:45:11Z</time>
      </trkpt>
      <trkpt lat="44.55712" lon="0.96313">
        <ele>167</ele>
        <time>2012-01-10T12:45:13Z</time>
      </trkpt>
      <trkpt lat="44.55709" lon="0.96313">
        <ele>167</ele>
        <time>2012-01-10T12:45:14Z</time>
      </trkpt>
      <trkpt lat="44.55704" lon="0.96311">
        <ele>167</ele>
        <time>2012-01-10T12:45:19Z</time>
      </trkpt>
      <trkpt lat="44.55696" lon="0.96309">
        <ele>167</ele>
        <time>2012-01-10T12:45:19Z</time>
      </trkpt>
      <trkpt lat="44.55693" lon="0.96309">
        <ele>167</ele>
        <time>2012-01-10T12:45:20Z</time>
      </trkpt>
      <trkpt lat="44.55689" lon="0.96308">
        <ele>167</ele>
        <time>2012-01-10T12:45:26Z</time>
      </trkpt>
      <trkpt lat="44.5568" lon="0.96304">
        <ele>167</ele>
        <time>2012-01-10T12:45:26Z</time>
      </trkpt>
      <trkpt lat="44.55678" lon="0.96303">
        <ele>167</ele>
        <time>2012-01-10T12:45:27Z</time>
      </trkpt>
      <trkpt lat="44.55673" lon="0.96301">
        <ele>167</ele>
        <time>2012-01-10T12:45:33Z</time>
      </trkpt>
      <trkpt lat="44.55661" lon="0.96297">
        <ele>168</ele>
        <time>2012-01-10T12:45:33Z</time>
      </trkpt>
      <trkpt lat="44.55658" lon="0.96296">
        <ele>168</ele>
        <time>2012-01-10T12:45:34Z</time>
      </trkpt>
      <trkpt lat="44.55651" lon="0.96294">
        <ele>168</ele>
        <time>2012-01-10T12:45:39Z</time>
      </trkpt>
      <trkpt lat="44.55634" lon="0.96293">
        <ele>168</ele>
        <time>2012-01-10T12:45:40Z</time>
      </trkpt>
      <trkpt lat="44.55629" lon="0.96292">
        <ele>168</ele>
        <time>2012-01-10T12:45:41Z</time>
      </trkpt>
      <trkpt lat="44.5562" lon="0.96291">
        <ele>168</ele>
        <time>2012-01-10T12:45:47Z</time>
      </trkpt>
      <trkpt lat="44.55601" lon="0.96289">
        <ele>168</ele>
        <time>2012-01-10T12:45:47Z</time>
      </trkpt>
      <trkpt lat="44.55597" lon="0.96289">
        <ele>168</ele>
        <time>2012-01-10T12:45:48Z</time>
      </trkpt>
      <trkpt lat="44.55588" lon="0.96288">
        <ele>168</ele>
        <time>2012-01-10T12:45:53Z</time>
      </trkpt>
      <trkpt lat="44.55574" lon="0.9628">
        <ele>168</ele>
        <time>2012-01-10T12:45:54Z</time>
      </trkpt>
      <trkpt lat="44.55571" lon="0.96276">
        <ele>168</ele>
        <time>2012-01-10T12:45:55Z</time>
      </trkpt>
      <trkpt lat="44.55568" lon="0.96273">
        <ele>168</ele>
        <time>2012-01-10T12:45:56Z</time>
      </trkpt>
      <trkpt lat="44.55564" lon="0.96266">
        <ele>168</ele>
        <time>2012-01-10T12:46:01Z</time>
      </trkpt>
      <trkpt lat="44.55554" lon="0.96251">
        <ele>168</ele>
        <time>2012-01-10T12:46:02Z</time>
      </trkpt>
      <trkpt lat="44.55552" lon="0.96247">
        <ele>168</ele>
        <time>2012-01-10T12:46:03Z</time>
      </trkpt>
      <trkpt lat="44.55546" lon="0.96239">
        <ele>168</ele>
        <time>2012-01-10T12:46:09Z</time>
      </trkpt>
      <trkpt lat="44.55532" lon="0.96227">
        <ele>167</ele>
        <time>2012-01-10T12:46:09Z</time>
      </trkpt>
      <trkpt lat="44.55528" lon="0.96228">
        <ele>166</ele>
        <time>2012-01-10T12:46:11Z</time>
      </trkpt>
      <trkpt lat="44.55524" lon="0.96232">
        <ele>165</ele>
        <time>2012-01-10T12:46:12Z</time>
      </trkpt>
      <trkpt lat="44.55519" lon="0.9624">
        <ele>165</ele>
        <time>2012-01-10T12:46:17Z</time>
      </trkpt>
      <trkpt lat="44.55502" lon="0.96262">
        <ele>164</ele>
        <time>2012-01-10T12:46:19Z</time>
      </trkpt>
      <trkpt lat="44.55494" lon="0.96271">
        <ele>164</ele>
        <time>2012-01-10T12:46:24Z</time>
      </trkpt>
      <trkpt lat="44.55476" lon="0.96293">
        <ele>163</ele>
        <time>2012-01-10T12:46:24Z</time>
      </trkpt>
      <trkpt lat="44.55471" lon="0.963">
        <ele>162</ele>
        <time>2012-01-10T12:46:25Z</time>
      </trkpt>
      <trkpt lat="44.55467" lon="0.96318">
        <ele>161</ele>
        <time>2012-01-10T12:46:31Z</time>
      </trkpt>
      <trkpt lat="44.55466" lon="0.96363">
        <ele>160</ele>
        <time>2012-01-10T12:46:32Z</time>
      </trkpt>
      <trkpt lat="44.55467" lon="0.96372">
        <ele>159</ele>
        <time>2012-01-10T12:46:33Z</time>
      </trkpt>
      <trkpt lat="44.5547" lon="0.9638">
        <ele>158</ele>
        <time>2012-01-10T12:46:34Z</time>
      </trkpt>
      <trkpt lat="44.55476" lon="0.96398">
        <ele>157</ele>
        <time>2012-01-10T12:46:39Z</time>
      </trkpt>
      <trkpt lat="44.55477" lon="0.96424">
        <ele>156</ele>
        <time>2012-01-10T12:46:41Z</time>
      </trkpt>
      <trkpt lat="44.55472" lon="0.96427">
        <ele>155</ele>
        <time>2012-01-10T12:46:42Z</time>
      </trkpt>
      <trkpt lat="44.55468" lon="0.96431">
        <ele>154</ele>
        <time>2012-01-10T12:46:43Z</time>
      </trkpt>
      <trkpt lat="44.55462" lon="0.96441">
        <ele>153</ele>
        <time>2012-01-10T12:46:48Z</time>
      </trkpt>
      <trkpt lat="44.5545" lon="0.96462">
        <ele>152</ele>
        <time>2012-01-10T12:46:48Z</time>
      </trkpt>
      <trkpt lat="44.55446" lon="0.96467">
        <ele>151</ele>
        <time>2012-01-10T12:46:49Z</time>
      </trkpt>
      <trkpt lat="44.55439" lon="0.96473">
        <ele>150</ele>
        <time>2012-01-10T12:46:55Z</time>
      </trkpt>
      <trkpt lat="44.55426" lon="0.96485">
        <ele>149</ele>
        <time>2012-01-10T12:46:55Z</time>
      </trkpt>
      <trkpt lat="44.55424" lon="0.96488">
        <ele>148</ele>
        <time>2012-01-10T12:46:57Z</time>
      </trkpt>
      <trkpt lat="44.55422" lon="0.96493">
        <ele>148</ele>
        <time>2012-01-10T12:46:58Z</time>
      </trkpt>
      <trkpt lat="44.55421" lon="0.96502">
        <ele>148</ele>
        <time>2012-01-10T12:47:04Z</time>
      </trkpt>
      <trkpt lat="44.55421" lon="0.96519">
        <ele>148</ele>
        <time>2012-01-10T12:47:05Z</time>
      </trkpt>
      <trkpt lat="44.55421" lon="0.96524">
        <ele>148</ele>
        <time>2012-01-10T12:47:05Z</time>
      </trkpt>
      <trkpt lat="44.55421" lon="0.96536">
        <ele>148</ele>
        <time>2012-01-10T12:47:11Z</time>
      </trkpt>
      <trkpt lat="44.5542" lon="0.96557">
        <ele>148</ele>
        <time>2012-01-10T12:47:11Z</time>
      </trkpt>
      <trkpt lat="44.5542" lon="0.96562">
        <ele>148</ele>
        <time>2012-01-10T12:47:12Z</time>
      </trkpt>
      <trkpt lat="44.5542" lon="0.96572">
        <ele>148</ele>
        <time>2012-01-10T12:47:18Z</time>
      </trkpt>
      <trkpt lat="44.55426" lon="0.96597">
        <ele>148</ele>
        <time>2012-01-10T12:47:18Z</time>
      </trkpt>
      <trkpt lat="44.5543" lon="0.96602">
        <ele>147</ele>
        <time>2012-01-10T12:47:19Z</time>
      </trkpt>
      <trkpt lat="44.55434" lon="0.96607">
        <ele>146</ele>
        <time>2012-01-10T12:47:21Z</time>
      </trkpt>
      <trkpt lat="44.55443" lon="0.96617">
        <ele>145</ele>
        <time>2012-01-10T12:47:27Z</time>
      </trkpt>
      <trkpt lat="44.5546" lon="0.96645">
        <ele>144</ele>
        <time>2012-01-10T12:47:27Z</time>
      </trkpt>
      <trkpt lat="44.55468" lon="0.96652">
        <ele>143</ele>
        <time>2012-01-10T12:47:33Z</time>
      </trkpt>
      <trkpt lat="44.55487" lon="0.96657">
        <ele>142</ele>
        <time>2012-01-10T12:47:33Z</time>
      </trkpt>
      <trkpt lat="44.5549" lon="0.96657">
        <ele>142</ele>
        <time>2012-01-10T12:47:34Z</time>
      </trkpt>
      <trkpt lat="44.55492" lon="0.96658">
        <ele>141</ele>
        <time>2012-01-10T12:47:36Z</time>
      </trkpt>
      <trkpt lat="44.55492" lon="0.96659">
        <ele>141</ele>
        <time>2012-01-10T12:47:37Z</time>
      </trkpt>
      <trkpt lat="44.55491" lon="0.96661">
        <ele>141</ele>
        <time>2012-01-10T12:47:43Z</time>
      </trkpt>
      <trkpt lat="44.55478" lon="0.96663">
        <ele>141</ele>
        <time>2012-01-10T12:47:44Z</time>
      </trkpt>
      <trkpt lat="44.55475" lon="0.96664">
        <ele>141</ele>
        <time>2012-01-10T12:47:44Z</time>
      </trkpt>
      <trkpt lat="44.55472" lon="0.96665">
        <ele>141</ele>
        <time>2012-01-10T12:47:45Z</time>
      </trkpt>
      <trkpt lat="44.55466" lon="0.96667">
        <ele>141</ele>
        <time>2012-01-10T12:47:51Z</time>
      </trkpt>
      <trkpt lat="44.55448" lon="0.96662">
        <ele>141</ele>
        <time>2012-01-10T12:47:51Z</time>
      </trkpt>
      <trkpt lat="44.55444" lon="0.96662">
        <ele>141</ele>
        <time>2012-01-10T12:47:53Z</time>
      </trkpt>
      <trkpt lat="44.55441" lon="0.96662">
        <ele>141</ele>
        <time>2012-01-10T12:47:54Z</time>
      </trkpt>
      <trkpt lat="44.55434" lon="0.96663">
        <ele>141</ele>
        <time>2012-01-10T12:48:00Z</time>
      </trkpt>
      <trkpt lat="44.55412" lon="0.96667">
        <ele>140</ele>
        <time>2012-01-10T12:48:00Z</time>
      </trkpt>
      <trkpt lat="44.55407" lon="0.96668">
        <ele>140</ele>
        <time>2012-01-10T12:48:01Z</time>
      </trkpt>
      <trkpt lat="44.55397" lon="0.96671">
        <ele>139</ele>
        <time>2012-01-10T12:48:07Z</time>
      </trkpt>
      <trkpt lat="44.55378" lon="0.96679">
        <ele>138</ele>
        <time>2012-01-10T12:48:07Z</time>
      </trkpt>
      <trkpt lat="44.55373" lon="0.96681">
        <ele>137</ele>
        <time>2012-01-10T12:48:08Z</time>
      </trkpt>
      <trkpt lat="44.55362" lon="0.96686">
        <ele>136</ele>
        <time>2012-01-10T12:48:14Z</time>
      </trkpt>
      <trkpt lat="44.55341" lon="0.96695">
        <ele>135</ele>
        <time>2012-01-10T12:48:14Z</time>
      </trkpt>
      <trkpt lat="44.55337" lon="0.96695">
        <ele>134</ele>
        <time>2012-01-10T12:48:15Z</time>
      </trkpt>
      <trkpt lat="44.55334" lon="0.96699">
        <ele>133</ele>
        <time>2012-01-10T12:48:21Z</time>
      </trkpt>
      <trkpt lat="44.55337" lon="0.96708">
        <ele>133</ele>
        <time>2012-01-10T12:48:22Z</time>
      </trkpt>
      <trkpt lat="44.5534" lon="0.9671">
        <ele>133</ele>
        <time>2012-01-10T12:48:23Z</time>
      </trkpt>
      <trkpt lat="44.55342" lon="0.96713">
        <ele>133</ele>
        <time>2012-01-10T12:48:24Z</time>
      </trkpt>
      <trkpt lat="44.55345" lon="0.96718">
        <ele>133</ele>
        <time>2012-01-10T12:48:29Z</time>
      </trkpt>
      <trkpt lat="44.5534" lon="0.96729">
        <ele>132</ele>
        <time>2012-01-10T12:48:29Z</time>
      </trkpt>
      <trkpt lat="44.55337" lon="0.96731">
        <ele>131</ele>
        <time>2012-01-10T12:48:31Z</time>
      </trkpt>
      <trkpt lat="44.55334" lon="0.96733">
        <ele>130</ele>
        <time>2012-01-10T12:48:32Z</time>
      </trkpt>
      <trkpt lat="44.55315" lon="0.9675">
        <ele>129</ele>
        <time>2012-01-10T12:48:37Z</time>
      </trkpt>
      <trkpt lat="44.55313" lon="0.96752">
        <ele>129</ele>
        <time>2012-01-10T12:48:38Z</time>
      </trkpt>
      <trkpt lat="44.55312" lon="0.96756">
        <ele>129</ele>
        <time>2012-01-10T12:48:39Z</time>
      </trkpt>
      <trkpt lat="44.55309" lon="0.96766">
        <ele>129</ele>
        <time>2012-01-10T12:48:46Z</time>
      </trkpt>
      <trkpt lat="44.55299" lon="0.96792">
        <ele>129</ele>
        <time>2012-01-10T12:48:47Z</time>
      </trkpt>
      <trkpt lat="44.55292" lon="0.9682">
        <ele>129</ele>
        <time>2012-01-10T12:48:52Z</time>
      </trkpt>
      <trkpt lat="44.5529" lon="0.96823">
        <ele>129</ele>
        <time>2012-01-10T12:48:54Z</time>
      </trkpt>
      <trkpt lat="44.55288" lon="0.96826">
        <ele>129</ele>
        <time>2012-01-10T12:48:55Z</time>
      </trkpt>
      <trkpt lat="44.55271" lon="0.96845">
        <ele>130</ele>
        <time>2012-01-10T12:49:00Z</time>
      </trkpt>
      <trkpt lat="44.55267" lon="0.96847">
        <ele>130</ele>
        <time>2012-01-10T12:49:02Z</time>
      </trkpt>
      <trkpt lat="44.55263" lon="0.96851">
        <ele>131</ele>
        <time>2012-01-10T12:49:03Z</time>
      </trkpt>
      <trkpt lat="44.5526" lon="0.96855">
        <ele>131</ele>
        <time>2012-01-10T12:49:03Z</time>
      </trkpt>
      <trkpt lat="44.55254" lon="0.96863">
        <ele>132</ele>
        <time>2012-01-10T12:49:09Z</time>
      </trkpt>
      <trkpt lat="44.55243" lon="0.96877">
        <ele>133</ele>
        <time>2012-01-10T12:49:09Z</time>
      </trkpt>
      <trkpt lat="44.5524" lon="0.96878">
        <ele>133</ele>
        <time>2012-01-10T12:49:10Z</time>
      </trkpt>
      <trkpt lat="44.55235" lon="0.96885">
        <ele>134</ele>
        <time>2012-01-10T12:49:16Z</time>
      </trkpt>
      <trkpt lat="44.55224" lon="0.96899">
        <ele>134</ele>
        <time>2012-01-10T12:49:16Z</time>
      </trkpt>
      <trkpt lat="44.55221" lon="0.96902">
        <ele>134</ele>
        <time>2012-01-10T12:49:17Z</time>
      </trkpt>
      <trkpt lat="44.55208" lon="0.96927">
        <ele>134</ele>
        <time>2012-01-10T12:49:23Z</time>
      </trkpt>
      <trkpt lat="44.55207" lon="0.96931">
        <ele>134</ele>
        <time>2012-01-10T12:49:25Z</time>
      </trkpt>
      <trkpt lat="44.55204" lon="0.96936">
        <ele>134</ele>
        <time>2012-01-10T12:49:26Z</time>
      </trkpt>
      <trkpt lat="44.55201" lon="0.96947">
        <ele>134</ele>
        <time>2012-01-10T12:49:31Z</time>
      </trkpt>
      <trkpt lat="44.55203" lon="0.9697">
        <ele>134</ele>
        <time>2012-01-10T12:49:31Z</time>
      </trkpt>
      <trkpt lat="44.55202" lon="0.96974">
        <ele>134</ele>
        <time>2012-01-10T12:49:32Z</time>
      </trkpt>
      <trkpt lat="44.55203" lon="0.97001">
        <ele>134</ele>
        <time>2012-01-10T12:49:38Z</time>
      </trkpt>
      <trkpt lat="44.55203" lon="0.97006">
        <ele>134</ele>
        <time>2012-01-10T12:49:39Z</time>
      </trkpt>
      <trkpt lat="44.55203" lon="0.97011">
        <ele>134</ele>
        <time>2012-01-10T12:49:40Z</time>
      </trkpt>
      <trkpt lat="44.55204" lon="0.97019">
        <ele>134</ele>
        <time>2012-01-10T12:49:46Z</time>
      </trkpt>
      <trkpt lat="44.55207" lon="0.97034">
        <ele>134</ele>
        <time>2012-01-10T12:49:46Z</time>
      </trkpt>
      <trkpt lat="44.55209" lon="0.97038">
        <ele>134</ele>
        <time>2012-01-10T12:49:48Z</time>
      </trkpt>
      <trkpt lat="44.5521" lon="0.97041">
        <ele>134</ele>
        <time>2012-01-10T12:49:49Z</time>
      </trkpt>
      <trkpt lat="44.55222" lon="0.97069">
        <ele>134</ele>
        <time>2012-01-10T12:49:54Z</time>
      </trkpt>
      <trkpt lat="44.55221" lon="0.97072">
        <ele>134</ele>
        <time>2012-01-10T12:49:56Z</time>
      </trkpt>
      <trkpt lat="44.55221" lon="0.97075">
        <ele>133</ele>
        <time>2012-01-10T12:49:56Z</time>
      </trkpt>
      <trkpt lat="44.55219" lon="0.97078">
        <ele>132</ele>
        <time>2012-01-10T12:49:57Z</time>
      </trkpt>
      <trkpt lat="44.55214" lon="0.97083">
        <ele>131</ele>
        <time>2012-01-10T12:50:04Z</time>
      </trkpt>
      <trkpt lat="44.55201" lon="0.97091">
        <ele>130</ele>
        <time>2012-01-10T12:50:04Z</time>
      </trkpt>
      <trkpt lat="44.55197" lon="0.97093">
        <ele>129</ele>
        <time>2012-01-10T12:50:05Z</time>
      </trkpt>
      <trkpt lat="44.55182" lon="0.97106">
        <ele>128</ele>
        <time>2012-01-10T12:50:11Z</time>
      </trkpt>
      <trkpt lat="44.5518" lon="0.9711">
        <ele>127</ele>
        <time>2012-01-10T12:50:12Z</time>
      </trkpt>
      <trkpt lat="44.55178" lon="0.97113">
        <ele>126</ele>
        <time>2012-01-10T12:50:13Z</time>
      </trkpt>
      <trkpt lat="44.55174" lon="0.97121">
        <ele>126</ele>
        <time>2012-01-10T12:50:19Z</time>
      </trkpt>
      <trkpt lat="44.55168" lon="0.9714">
        <ele>126</ele>
        <time>2012-01-10T12:50:19Z</time>
      </trkpt>
      <trkpt lat="44.55166" lon="0.97145">
        <ele>126</ele>
        <time>2012-01-10T12:50:20Z</time>
      </trkpt>
      <trkpt lat="44.55164" lon="0.97152">
        <ele>126</ele>
        <time>2012-01-10T12:50:26Z</time>
      </trkpt>
      <trkpt lat="44.55159" lon="0.97167">
        <ele>126</ele>
        <time>2012-01-10T12:50:26Z</time>
      </trkpt>
      <trkpt lat="44.55158" lon="0.9717">
        <ele>126</ele>
        <time>2012-01-10T12:50:28Z</time>
      </trkpt>
      <trkpt lat="44.55156" lon="0.97178">
        <ele>126</ele>
        <time>2012-01-10T12:50:32Z</time>
      </trkpt>
      <trkpt lat="44.55154" lon="0.97189">
        <ele>126</ele>
        <time>2012-01-10T12:50:32Z</time>
      </trkpt>
      <trkpt lat="44.55154" lon="0.97192">
        <ele>127</ele>
        <time>2012-01-10T12:50:33Z</time>
      </trkpt>
      <trkpt lat="44.55152" lon="0.97197">
        <ele>128</ele>
        <time>2012-01-10T12:50:38Z</time>
      </trkpt>
      <trkpt lat="44.55151" lon="0.97207">
        <ele>129</ele>
        <time>2012-01-10T12:50:38Z</time>
      </trkpt>
      <trkpt lat="44.55151" lon="0.9721">
        <ele>130</ele>
        <time>2012-01-10T12:50:39Z</time>
      </trkpt>
      <trkpt lat="44.5515" lon="0.97214">
        <ele>131</ele>
        <time>2012-01-10T12:50:44Z</time>
      </trkpt>
      <trkpt lat="44.55149" lon="0.97223">
        <ele>132</ele>
        <time>2012-01-10T12:50:44Z</time>
      </trkpt>
      <trkpt lat="44.55149" lon="0.97226">
        <ele>133</ele>
        <time>2012-01-10T12:50:45Z</time>
      </trkpt>
      <trkpt lat="44.55149" lon="0.97232">
        <ele>134</ele>
        <time>2012-01-10T12:50:50Z</time>
      </trkpt>
      <trkpt lat="44.55148" lon="0.97241">
        <ele>135</ele>
        <time>2012-01-10T12:50:50Z</time>
      </trkpt>
      <trkpt lat="44.55148" lon="0.97245">
        <ele>136</ele>
        <time>2012-01-10T12:50:52Z</time>
      </trkpt>
      <trkpt lat="44.55148" lon="0.97252">
        <ele>137</ele>
        <time>2012-01-10T12:50:56Z</time>
      </trkpt>
      <trkpt lat="44.55149" lon="0.97258">
        <ele>138</ele>
        <time>2012-01-10T12:50:57Z</time>
      </trkpt>
      <trkpt lat="44.55149" lon="0.9726">
        <ele>139</ele>
        <time>2012-01-10T12:50:57Z</time>
      </trkpt>
      <trkpt lat="44.5515" lon="0.97264">
        <ele>141</ele>
        <time>2012-01-10T12:51:00Z</time>
      </trkpt>
      <trkpt lat="44.55151" lon="0.97273">
        <ele>141</ele>
        <time>2012-01-10T12:51:04Z</time>
      </trkpt>
      <trkpt lat="44.55151" lon="0.97275">
        <ele>142</ele>
        <time>2012-01-10T12:51:05Z</time>
      </trkpt>
      <trkpt lat="44.55152" lon="0.97278">
        <ele>142</ele>
        <time>2012-01-10T12:51:07Z</time>
      </trkpt>
      <trkpt lat="44.55151" lon="0.97281">
        <ele>142</ele>
        <time>2012-01-10T12:51:11Z</time>
      </trkpt>
      <trkpt lat="44.5515" lon="0.97288">
        <ele>143</ele>
        <time>2012-01-10T12:51:12Z</time>
      </trkpt>
      <trkpt lat="44.55149" lon="0.97293">
        <ele>144</ele>
        <time>2012-01-10T12:51:19Z</time>
      </trkpt>
      <trkpt lat="44.55151" lon="0.97302">
        <ele>144</ele>
        <time>2012-01-10T12:51:20Z</time>
      </trkpt>
      <trkpt lat="44.55152" lon="0.97304">
        <ele>144</ele>
        <time>2012-01-10T12:51:21Z</time>
      </trkpt>
      <trkpt lat="44.55154" lon="0.97306">
        <ele>144</ele>
        <time>2012-01-10T12:51:22Z</time>
      </trkpt>
      <trkpt lat="44.55154" lon="0.97311">
        <ele>144</ele>
        <time>2012-01-10T12:51:26Z</time>
      </trkpt>
      <trkpt lat="44.55156" lon="0.97318">
        <ele>143</ele>
        <time>2012-01-10T12:51:27Z</time>
      </trkpt>
      <trkpt lat="44.55156" lon="0.97321">
        <ele>142</ele>
        <time>2012-01-10T12:51:27Z</time>
      </trkpt>
      <trkpt lat="44.55155" lon="0.97324">
        <ele>141</ele>
        <time>2012-01-10T12:51:29Z</time>
      </trkpt>
      <trkpt lat="44.55156" lon="0.9733">
        <ele>140</ele>
        <time>2012-01-10T12:51:33Z</time>
      </trkpt>
      <trkpt lat="44.55154" lon="0.97335">
        <ele>140</ele>
        <time>2012-01-10T12:51:33Z</time>
      </trkpt>
      <trkpt lat="44.55154" lon="0.97337">
        <ele>140</ele>
        <time>2012-01-10T12:51:34Z</time>
      </trkpt>
      <trkpt lat="44.55155" lon="0.97342">
        <ele>140</ele>
        <time>2012-01-10T12:51:39Z</time>
      </trkpt>
      <trkpt lat="44.55154" lon="0.97348">
        <ele>140</ele>
        <time>2012-01-10T12:51:40Z</time>
      </trkpt>
      <trkpt lat="44.55154" lon="0.97351">
        <ele>140</ele>
        <time>2012-01-10T12:51:40Z</time>
      </trkpt>
      <trkpt lat="44.55154" lon="0.97355">
        <ele>140</ele>
        <time>2012-01-10T12:51:42Z</time>
      </trkpt>
      <trkpt lat="44.55156" lon="0.97362">
        <ele>139</ele>
        <time>2012-01-10T12:51:46Z</time>
      </trkpt>
      <trkpt lat="44.55154" lon="0.97369">
        <ele>139</ele>
        <time>2012-01-10T12:51:47Z</time>
      </trkpt>
      <trkpt lat="44.55153" lon="0.97371">
        <ele>138</ele>
        <time>2012-01-10T12:51:47Z</time>
      </trkpt>
      <trkpt lat="44.55151" lon="0.97376">
        <ele>136</ele>
        <time>2012-01-10T12:51:54Z</time>
      </trkpt>
      <trkpt lat="44.55146" lon="0.97386">
        <ele>135</ele>
        <time>2012-01-10T12:51:54Z</time>
      </trkpt>
      <trkpt lat="44.55147" lon="0.97388">
        <ele>135</ele>
        <time>2012-01-10T12:51:55Z</time>
      </trkpt>
      <trkpt lat="44.55148" lon="0.97394">
        <ele>135</ele>
        <time>2012-01-10T12:52:02Z</time>
      </trkpt>
      <trkpt lat="44.55146" lon="0.97401">
        <ele>135</ele>
        <time>2012-01-10T12:52:03Z</time>
      </trkpt>
      <trkpt lat="44.55146" lon="0.97403">
        <ele>135</ele>
        <time>2012-01-10T12:52:04Z</time>
      </trkpt>
      <trkpt lat="44.55146" lon="0.97405">
        <ele>135</ele>
        <time>2012-01-10T12:52:04Z</time>
      </trkpt>
      <trkpt lat="44.55141" lon="0.97407">
        <ele>135</ele>
        <time>2012-01-10T12:52:09Z</time>
      </trkpt>
      <trkpt lat="44.5514" lon="0.97406">
        <ele>136</ele>
        <time>2012-01-10T12:52:11Z</time>
      </trkpt>
      <trkpt lat="44.55138" lon="0.97405">
        <ele>137</ele>
        <time>2012-01-10T12:52:11Z</time>
      </trkpt>
      <trkpt lat="44.55137" lon="0.97405">
        <ele>140</ele>
        <time>2012-01-10T12:52:18Z</time>
      </trkpt>
      <trkpt lat="44.55138" lon="0.97411">
        <ele>142</ele>
        <time>2012-01-10T12:52:18Z</time>
      </trkpt>
      <trkpt lat="44.55138" lon="0.97414">
        <ele>144</ele>
        <time>2012-01-10T12:52:20Z</time>
      </trkpt>
      <trkpt lat="44.55138" lon="0.97419">
        <ele>146</ele>
        <time>2012-01-10T12:52:24Z</time>
      </trkpt>
      <trkpt lat="44.55137" lon="0.97426">
        <ele>148</ele>
        <time>2012-01-10T12:52:24Z</time>
      </trkpt>
      <trkpt lat="44.55138" lon="0.97429">
        <ele>150</ele>
        <time>2012-01-10T12:52:26Z</time>
      </trkpt>
      <trkpt lat="44.55137" lon="0.97432">
        <ele>152</ele>
        <time>2012-01-10T12:52:26Z</time>
      </trkpt>
      <trkpt lat="44.55137" lon="0.97436">
        <ele>153</ele>
        <time>2012-01-10T12:52:31Z</time>
      </trkpt>
      <trkpt lat="44.55137" lon="0.97442">
        <ele>154</ele>
        <time>2012-01-10T12:52:31Z</time>
      </trkpt>
      <trkpt lat="44.55136" lon="0.97446">
        <ele>156</ele>
        <time>2012-01-10T12:52:37Z</time>
      </trkpt>
      <trkpt lat="44.55134" lon="0.9745">
        <ele>157</ele>
        <time>2012-01-10T12:52:37Z</time>
      </trkpt>
      <trkpt lat="44.55133" lon="0.97452">
        <ele>159</ele>
        <time>2012-01-10T12:52:39Z</time>
      </trkpt>
      <trkpt lat="44.55133" lon="0.97455">
        <ele>160</ele>
        <time>2012-01-10T12:52:44Z</time>
      </trkpt>
      <trkpt lat="44.55132" lon="0.97465">
        <ele>160</ele>
        <time>2012-01-10T12:52:45Z</time>
      </trkpt>
      <trkpt lat="44.55131" lon="0.97468">
        <ele>160</ele>
        <time>2012-01-10T12:52:46Z</time>
      </trkpt>
      <trkpt lat="44.55129" lon="0.97474">
        <ele>160</ele>
        <time>2012-01-10T12:52:51Z</time>
      </trkpt>
      <trkpt lat="44.55127" lon="0.9748">
        <ele>160</ele>
        <time>2012-01-10T12:52:51Z</time>
      </trkpt>
      <trkpt lat="44.55127" lon="0.97482">
        <ele>160</ele>
        <time>2012-01-10T12:52:53Z</time>
      </trkpt>
      <trkpt lat="44.55127" lon="0.97486">
        <ele>160</ele>
        <time>2012-01-10T12:52:57Z</time>
      </trkpt>
      <trkpt lat="44.5513" lon="0.97494">
        <ele>160</ele>
        <time>2012-01-10T12:52:58Z</time>
      </trkpt>
      <trkpt lat="44.55131" lon="0.97496">
        <ele>160</ele>
        <time>2012-01-10T12:52:59Z</time>
      </trkpt>
      <trkpt lat="44.55132" lon="0.97499">
        <ele>160</ele>
        <time>2012-01-10T12:53:00Z</time>
      </trkpt>
      <trkpt lat="44.55135" lon="0.97503">
        <ele>160</ele>
        <time>2012-01-10T12:53:04Z</time>
      </trkpt>
      <trkpt lat="44.55142" lon="0.97509">
        <ele>160</ele>
        <time>2012-01-10T12:53:05Z</time>
      </trkpt>
      <trkpt lat="44.55144" lon="0.97511">
        <ele>160</ele>
        <time>2012-01-10T12:53:05Z</time>
      </trkpt>
      <trkpt lat="44.55146" lon="0.97516">
        <ele>159</ele>
        <time>2012-01-10T12:53:10Z</time>
      </trkpt>
      <trkpt lat="44.5515" lon="0.97523">
        <ele>158</ele>
        <time>2012-01-10T12:53:11Z</time>
      </trkpt>
      <trkpt lat="44.55151" lon="0.97527">
        <ele>157</ele>
        <time>2012-01-10T12:53:12Z</time>
      </trkpt>
      <trkpt lat="44.55155" lon="0.97541">
        <ele>156</ele>
        <time>2012-01-10T12:53:16Z</time>
      </trkpt>
      <trkpt lat="44.55156" lon="0.97544">
        <ele>155</ele>
        <time>2012-01-10T12:53:17Z</time>
      </trkpt>
      <trkpt lat="44.55157" lon="0.97547">
        <ele>153</ele>
        <time>2012-01-10T12:53:18Z</time>
      </trkpt>
      <trkpt lat="44.55159" lon="0.9755">
        <ele>151</ele>
        <time>2012-01-10T12:53:20Z</time>
      </trkpt>
      <trkpt lat="44.55159" lon="0.97553">
        <ele>149</ele>
        <time>2012-01-10T12:53:25Z</time>
      </trkpt>
      <trkpt lat="44.55159" lon="0.97561">
        <ele>147</ele>
        <time>2012-01-10T12:53:25Z</time>
      </trkpt>
      <trkpt lat="44.55158" lon="0.97568">
        <ele>141</ele>
        <time>2012-01-10T12:53:34Z</time>
      </trkpt>
      <trkpt lat="44.55158" lon="0.9757">
        <ele>140</ele>
        <time>2012-01-10T12:53:35Z</time>
      </trkpt>
      <trkpt lat="44.55157" lon="0.97575">
        <ele>139</ele>
        <time>2012-01-10T12:53:39Z</time>
      </trkpt>
      <trkpt lat="44.55159" lon="0.97581">
        <ele>139</ele>
        <time>2012-01-10T12:53:39Z</time>
      </trkpt>
      <trkpt lat="44.55158" lon="0.97583">
        <ele>139</ele>
        <time>2012-01-10T12:53:40Z</time>
      </trkpt>
      <trkpt lat="44.55157" lon="0.97589">
        <ele>139</ele>
        <time>2012-01-10T12:53:45Z</time>
      </trkpt>
      <trkpt lat="44.55155" lon="0.97594">
        <ele>139</ele>
        <time>2012-01-10T12:53:45Z</time>
      </trkpt>
      <trkpt lat="44.55154" lon="0.97596">
        <ele>139</ele>
        <time>2012-01-10T12:53:47Z</time>
      </trkpt>
      <trkpt lat="44.55153" lon="0.976">
        <ele>140</ele>
        <time>2012-01-10T12:53:51Z</time>
      </trkpt>
      <trkpt lat="44.55156" lon="0.9761">
        <ele>141</ele>
        <time>2012-01-10T12:53:52Z</time>
      </trkpt>
      <trkpt lat="44.55156" lon="0.97612">
        <ele>142</ele>
        <time>2012-01-10T12:53:53Z</time>
      </trkpt>
      <trkpt lat="44.55156" lon="0.97613">
        <ele>143</ele>
        <time>2012-01-10T12:53:54Z</time>
      </trkpt>
      <trkpt lat="44.55156" lon="0.97618">
        <ele>144</ele>
        <time>2012-01-10T12:53:59Z</time>
      </trkpt>
      <trkpt lat="44.55158" lon="0.97625">
        <ele>145</ele>
        <time>2012-01-10T12:53:59Z</time>
      </trkpt>
      <trkpt lat="44.55159" lon="0.97627">
        <ele>146</ele>
        <time>2012-01-10T12:54:00Z</time>
      </trkpt>
      <trkpt lat="44.5516" lon="0.97632">
        <ele>147</ele>
        <time>2012-01-10T12:54:05Z</time>
      </trkpt>
      <trkpt lat="44.55161" lon="0.97641">
        <ele>148</ele>
        <time>2012-01-10T12:54:05Z</time>
      </trkpt>
      <trkpt lat="44.55161" lon="0.97643">
        <ele>149</ele>
        <time>2012-01-10T12:54:06Z</time>
      </trkpt>
      <trkpt lat="44.55161" lon="0.97649">
        <ele>150</ele>
        <time>2012-01-10T12:54:11Z</time>
      </trkpt>
      <trkpt lat="44.55162" lon="0.97655">
        <ele>151</ele>
        <time>2012-01-10T12:54:11Z</time>
      </trkpt>
      <trkpt lat="44.55163" lon="0.97657">
        <ele>152</ele>
        <time>2012-01-10T12:54:12Z</time>
      </trkpt>
      <trkpt lat="44.55163" lon="0.97659">
        <ele>153</ele>
        <time>2012-01-10T12:54:14Z</time>
      </trkpt>
      <trkpt lat="44.55163" lon="0.97664">
        <ele>154</ele>
        <time>2012-01-10T12:54:18Z</time>
      </trkpt>
      <trkpt lat="44.55165" lon="0.97671">
        <ele>155</ele>
        <time>2012-01-10T12:54:18Z</time>
      </trkpt>
      <trkpt lat="44.55166" lon="0.97673">
        <ele>156</ele>
        <time>2012-01-10T12:54:19Z</time>
      </trkpt>
      <trkpt lat="44.55167" lon="0.97676">
        <ele>157</ele>
        <time>2012-01-10T12:54:21Z</time>
      </trkpt>
      <trkpt lat="44.5517" lon="0.97689">
        <ele>158</ele>
        <time>2012-01-10T12:54:25Z</time>
      </trkpt>
      <trkpt lat="44.55171" lon="0.97691">
        <ele>159</ele>
        <time>2012-01-10T12:54:26Z</time>
      </trkpt>
      <trkpt lat="44.55172" lon="0.97694">
        <ele>160</ele>
        <time>2012-01-10T12:54:27Z</time>
      </trkpt>
      <trkpt lat="44.55174" lon="0.977">
        <ele>161</ele>
        <time>2012-01-10T12:54:32Z</time>
      </trkpt>
      <trkpt lat="44.5518" lon="0.97712">
        <ele>162</ele>
        <time>2012-01-10T12:54:32Z</time>
      </trkpt>
      <trkpt lat="44.55182" lon="0.97716">
        <ele>163</ele>
        <time>2012-01-10T12:54:33Z</time>
      </trkpt>
      <trkpt lat="44.55185" lon="0.97718">
        <ele>163</ele>
        <time>2012-01-10T12:54:35Z</time>
      </trkpt>
      <trkpt lat="44.55188" lon="0.9772">
        <ele>163</ele>
        <time>2012-01-10T12:54:36Z</time>
      </trkpt>
      <trkpt lat="44.55207" lon="0.97734">
        <ele>163</ele>
        <time>2012-01-10T12:54:41Z</time>
      </trkpt>
      <trkpt lat="44.55209" lon="0.97737">
        <ele>163</ele>
        <time>2012-01-10T12:54:42Z</time>
      </trkpt>
      <trkpt lat="44.55214" lon="0.97741">
        <ele>163</ele>
        <time>2012-01-10T12:54:47Z</time>
      </trkpt>
      <trkpt lat="44.55224" lon="0.97749">
        <ele>162</ele>
        <time>2012-01-10T12:54:47Z</time>
      </trkpt>
      <trkpt lat="44.55226" lon="0.9775">
        <ele>161</ele>
        <time>2012-01-10T12:54:48Z</time>
      </trkpt>
      <trkpt lat="44.55232" lon="0.97754">
        <ele>160</ele>
        <time>2012-01-10T12:54:53Z</time>
      </trkpt>
      <trkpt lat="44.55241" lon="0.97761">
        <ele>158</ele>
        <time>2012-01-10T12:54:53Z</time>
      </trkpt>
      <trkpt lat="44.55243" lon="0.97763">
        <ele>156</ele>
        <time>2012-01-10T12:54:54Z</time>
      </trkpt>
      <trkpt lat="44.55247" lon="0.97768">
        <ele>154</ele>
        <time>2012-01-10T12:54:59Z</time>
      </trkpt>
      <trkpt lat="44.55253" lon="0.97774">
        <ele>153</ele>
        <time>2012-01-10T12:54:59Z</time>
      </trkpt>
      <trkpt lat="44.55254" lon="0.97777">
        <ele>152</ele>
        <time>2012-01-10T12:55:00Z</time>
      </trkpt>
      <trkpt lat="44.55257" lon="0.97781">
        <ele>151</ele>
        <time>2012-01-10T12:55:05Z</time>
      </trkpt>
      <trkpt lat="44.55262" lon="0.97789">
        <ele>150</ele>
        <time>2012-01-10T12:55:05Z</time>
      </trkpt>
      <trkpt lat="44.55264" lon="0.97791">
        <ele>149</ele>
        <time>2012-01-10T12:55:06Z</time>
      </trkpt>
      <trkpt lat="44.55268" lon="0.97795">
        <ele>149</ele>
        <time>2012-01-10T12:55:11Z</time>
      </trkpt>
      <trkpt lat="44.55273" lon="0.97803">
        <ele>149</ele>
        <time>2012-01-10T12:55:11Z</time>
      </trkpt>
      <trkpt lat="44.55275" lon="0.97806">
        <ele>149</ele>
        <time>2012-01-10T12:55:12Z</time>
      </trkpt>
      <trkpt lat="44.55276" lon="0.97808">
        <ele>149</ele>
        <time>2012-01-10T12:55:13Z</time>
      </trkpt>
      <trkpt lat="44.55277" lon="0.9781">
        <ele>149</ele>
        <time>2012-01-10T12:55:14Z</time>
      </trkpt>
      <trkpt lat="44.55282" lon="0.97816">
        <ele>150</ele>
        <time>2012-01-10T12:55:20Z</time>
      </trkpt>
      <trkpt lat="44.55286" lon="0.97825">
        <ele>151</ele>
        <time>2012-01-10T12:55:20Z</time>
      </trkpt>
      <trkpt lat="44.55288" lon="0.9783">
        <ele>152</ele>
        <time>2012-01-10T12:55:25Z</time>
      </trkpt>
      <trkpt lat="44.55292" lon="0.97839">
        <ele>153</ele>
        <time>2012-01-10T12:55:25Z</time>
      </trkpt>
      <trkpt lat="44.55293" lon="0.97841">
        <ele>154</ele>
        <time>2012-01-10T12:55:26Z</time>
      </trkpt>
      <trkpt lat="44.55294" lon="0.97843">
        <ele>155</ele>
        <time>2012-01-10T12:55:27Z</time>
      </trkpt>
      <trkpt lat="44.55295" lon="0.97849">
        <ele>156</ele>
        <time>2012-01-10T12:55:32Z</time>
      </trkpt>
      <trkpt lat="44.55295" lon="0.97856">
        <ele>157</ele>
        <time>2012-01-10T12:55:33Z</time>
      </trkpt>
      <trkpt lat="44.55295" lon="0.9786">
        <ele>158</ele>
        <time>2012-01-10T12:55:34Z</time>
      </trkpt>
      <trkpt lat="44.55294" lon="0.97863">
        <ele>159</ele>
        <time>2012-01-10T12:55:35Z</time>
      </trkpt>
      <trkpt lat="44.55294" lon="0.97869">
        <ele>160</ele>
        <time>2012-01-10T12:55:39Z</time>
      </trkpt>
      <trkpt lat="44.55293" lon="0.97877">
        <ele>160</ele>
        <time>2012-01-10T12:55:40Z</time>
      </trkpt>
      <trkpt lat="44.55293" lon="0.97881">
        <ele>161</ele>
        <time>2012-01-10T12:55:40Z</time>
      </trkpt>
      <trkpt lat="44.55292" lon="0.97884">
        <ele>161</ele>
        <time>2012-01-10T12:55:41Z</time>
      </trkpt>
      <trkpt lat="44.55291" lon="0.97892">
        <ele>162</ele>
        <time>2012-01-10T12:55:46Z</time>
      </trkpt>
      <trkpt lat="44.55289" lon="0.97904">
        <ele>163</ele>
        <time>2012-01-10T12:55:46Z</time>
      </trkpt>
      <trkpt lat="44.55289" lon="0.97909">
        <ele>164</ele>
        <time>2012-01-10T12:55:47Z</time>
      </trkpt>
      <trkpt lat="44.55289" lon="0.97921">
        <ele>165</ele>
        <time>2012-01-10T12:55:52Z</time>
      </trkpt>
      <trkpt lat="44.55286" lon="0.97943">
        <ele>166</ele>
        <time>2012-01-10T12:55:52Z</time>
      </trkpt>
      <trkpt lat="44.55286" lon="0.97949">
        <ele>167</ele>
        <time>2012-01-10T12:55:53Z</time>
      </trkpt>
      <trkpt lat="44.55283" lon="0.97961">
        <ele>168</ele>
        <time>2012-01-10T12:55:58Z</time>
      </trkpt>
      <trkpt lat="44.55282" lon="0.97976">
        <ele>169</ele>
        <time>2012-01-10T12:55:58Z</time>
      </trkpt>
      <trkpt lat="44.55283" lon="0.97982">
        <ele>170</ele>
        <time>2012-01-10T12:56:00Z</time>
      </trkpt>
      <trkpt lat="44.55282" lon="0.97987">
        <ele>171</ele>
        <time>2012-01-10T12:56:01Z</time>
      </trkpt>
      <trkpt lat="44.55276" lon="0.98008">
        <ele>172</ele>
        <time>2012-01-10T12:56:05Z</time>
      </trkpt>
      <trkpt lat="44.55275" lon="0.98012">
        <ele>173</ele>
        <time>2012-01-10T12:56:07Z</time>
      </trkpt>
      <trkpt lat="44.55274" lon="0.98015">
        <ele>174</ele>
        <time>2012-01-10T12:56:08Z</time>
      </trkpt>
      <trkpt lat="44.55273" lon="0.98019">
        <ele>175</ele>
        <time>2012-01-10T12:56:09Z</time>
      </trkpt>
      <trkpt lat="44.55272" lon="0.98029">
        <ele>176</ele>
        <time>2012-01-10T12:56:15Z</time>
      </trkpt>
      <trkpt lat="44.5527" lon="0.98029">
        <ele>177</ele>
        <time>2012-01-10T12:56:15Z</time>
      </trkpt>
      <trkpt lat="44.5527" lon="0.98031">
        <ele>179</ele>
        <time>2012-01-10T12:56:22Z</time>
      </trkpt>
      <trkpt lat="44.5527" lon="0.98035">
        <ele>180</ele>
        <time>2012-01-10T12:56:23Z</time>
      </trkpt>
      <trkpt lat="44.55269" lon="0.98033">
        <ele>180</ele>
        <time>2012-01-10T12:56:24Z</time>
      </trkpt>
      <trkpt lat="44.5527" lon="0.98035">
        <ele>180</ele>
        <time>2012-01-10T12:56:30Z</time>
      </trkpt>
      <trkpt lat="44.55266" lon="0.98038">
        <ele>180</ele>
        <time>2012-01-10T12:56:31Z</time>
      </trkpt>
      <trkpt lat="44.55265" lon="0.98039">
        <ele>180</ele>
        <time>2012-01-10T12:56:33Z</time>
      </trkpt>
      <trkpt lat="44.55262" lon="0.98042">
        <ele>179</ele>
        <time>2012-01-10T12:56:38Z</time>
      </trkpt>
      <trkpt lat="44.55257" lon="0.98049">
        <ele>178</ele>
        <time>2012-01-10T12:56:38Z</time>
      </trkpt>
      <trkpt lat="44.55249" lon="0.98055">
        <ele>177</ele>
        <time>2012-01-10T12:56:43Z</time>
      </trkpt>
      <trkpt lat="44.55247" lon="0.98058">
        <ele>176</ele>
        <time>2012-01-10T12:56:44Z</time>
      </trkpt>
      <trkpt lat="44.55245" lon="0.98059">
        <ele>175</ele>
        <time>2012-01-10T12:56:46Z</time>
      </trkpt>
      <trkpt lat="44.55243" lon="0.98061">
        <ele>174</ele>
        <time>2012-01-10T12:56:47Z</time>
      </trkpt>
      <trkpt lat="44.55235" lon="0.98072">
        <ele>173</ele>
        <time>2012-01-10T12:56:51Z</time>
      </trkpt>
      <trkpt lat="44.55233" lon="0.98073">
        <ele>172</ele>
        <time>2012-01-10T12:56:52Z</time>
      </trkpt>
      <trkpt lat="44.55229" lon="0.98076">
        <ele>171</ele>
        <time>2012-01-10T12:56:57Z</time>
      </trkpt>
      <trkpt lat="44.55222" lon="0.9808">
        <ele>170</ele>
        <time>2012-01-10T12:56:58Z</time>
      </trkpt>
      <trkpt lat="44.5522" lon="0.98083">
        <ele>168</ele>
        <time>2012-01-10T12:57:00Z</time>
      </trkpt>
      <trkpt lat="44.55217" lon="0.98084">
        <ele>167</ele>
        <time>2012-01-10T12:57:05Z</time>
      </trkpt>
      <trkpt lat="44.55214" lon="0.98088">
        <ele>166</ele>
        <time>2012-01-10T12:57:06Z</time>
      </trkpt>
      <trkpt lat="44.55213" lon="0.9809">
        <ele>166</ele>
        <time>2012-01-10T12:57:07Z</time>
      </trkpt>
      <trkpt lat="44.5521" lon="0.98093">
        <ele>166</ele>
        <time>2012-01-10T12:57:11Z</time>
      </trkpt>
      <trkpt lat="44.55206" lon="0.98095">
        <ele>166</ele>
        <time>2012-01-10T12:57:11Z</time>
      </trkpt>
      <trkpt lat="44.55204" lon="0.98096">
        <ele>166</ele>
        <time>2012-01-10T12:57:12Z</time>
      </trkpt>
      <trkpt lat="44.55203" lon="0.98097">
        <ele>166</ele>
        <time>2012-01-10T12:57:14Z</time>
      </trkpt>
      <trkpt lat="44.55201" lon="0.98098">
        <ele>167</ele>
        <time>2012-01-10T12:57:14Z</time>
      </trkpt>
      <trkpt lat="44.55198" lon="0.98101">
        <ele>167</ele>
        <time>2012-01-10T12:57:20Z</time>
      </trkpt>
      <trkpt lat="44.5519" lon="0.98105">
        <ele>168</ele>
        <time>2012-01-10T12:57:21Z</time>
      </trkpt>
      <trkpt lat="44.55189" lon="0.98108">
        <ele>170</ele>
        <time>2012-01-10T12:57:23Z</time>
      </trkpt>
      <trkpt lat="44.55187" lon="0.98109">
        <ele>171</ele>
        <time>2012-01-10T12:57:28Z</time>
      </trkpt>
      <trkpt lat="44.55185" lon="0.98116">
        <ele>173</ele>
        <time>2012-01-10T12:57:28Z</time>
      </trkpt>
      <trkpt lat="44.55184" lon="0.98119">
        <ele>175</ele>
        <time>2012-01-10T12:57:33Z</time>
      </trkpt>
      <trkpt lat="44.55185" lon="0.98125">
        <ele>177</ele>
        <time>2012-01-10T12:57:34Z</time>
      </trkpt>
      <trkpt lat="44.55186" lon="0.98128">
        <ele>181</ele>
        <time>2012-01-10T12:57:36Z</time>
      </trkpt>
      <trkpt lat="44.55186" lon="0.98132">
        <ele>182</ele>
        <time>2012-01-10T12:57:42Z</time>
      </trkpt>
      <trkpt lat="44.55184" lon="0.98138">
        <ele>183</ele>
        <time>2012-01-10T12:57:42Z</time>
      </trkpt>
      <trkpt lat="44.55183" lon="0.9814">
        <ele>184</ele>
        <time>2012-01-10T12:57:43Z</time>
      </trkpt>
      <trkpt lat="44.55183" lon="0.98143">
        <ele>185</ele>
        <time>2012-01-10T12:57:48Z</time>
      </trkpt>
      <trkpt lat="44.55183" lon="0.98146">
        <ele>186</ele>
        <time>2012-01-10T12:57:49Z</time>
      </trkpt>
      <trkpt lat="44.55182" lon="0.98148">
        <ele>188</ele>
        <time>2012-01-10T12:57:51Z</time>
      </trkpt>
      <trkpt lat="44.55178" lon="0.98153">
        <ele>188</ele>
        <time>2012-01-10T12:57:58Z</time>
      </trkpt>
      <trkpt lat="44.55177" lon="0.98154">
        <ele>188</ele>
        <time>2012-01-10T12:57:59Z</time>
      </trkpt>
      <trkpt lat="44.55176" lon="0.98154">
        <ele>188</ele>
        <time>2012-01-10T12:58:00Z</time>
      </trkpt>
      <trkpt lat="44.55172" lon="0.98155">
        <ele>188</ele>
        <time>2012-01-10T12:58:04Z</time>
      </trkpt>
      <trkpt lat="44.55172" lon="0.98153">
        <ele>187</ele>
        <time>2012-01-10T12:58:05Z</time>
      </trkpt>
      <trkpt lat="44.55172" lon="0.98151">
        <ele>187</ele>
        <time>2012-01-10T12:58:06Z</time>
      </trkpt>
      <trkpt lat="44.5517" lon="0.98149">
        <ele>187</ele>
        <time>2012-01-10T12:58:12Z</time>
      </trkpt>
      <trkpt lat="44.55166" lon="0.98151">
        <ele>187</ele>
        <time>2012-01-10T12:58:13Z</time>
      </trkpt>
      <trkpt lat="44.55161" lon="0.98154">
        <ele>187</ele>
        <time>2012-01-10T12:58:18Z</time>
      </trkpt>
      <trkpt lat="44.55158" lon="0.98153">
        <ele>187</ele>
        <time>2012-01-10T12:58:20Z</time>
      </trkpt>
      <trkpt lat="44.55156" lon="0.98153">
        <ele>187</ele>
        <time>2012-01-10T12:58:26Z</time>
      </trkpt>
      <trkpt lat="44.55152" lon="0.98154">
        <ele>187</ele>
        <time>2012-01-10T12:58:27Z</time>
      </trkpt>
      <trkpt lat="44.5515" lon="0.98154">
        <ele>187</ele>
        <time>2012-01-10T12:58:33Z</time>
      </trkpt>
      <trkpt lat="44.55147" lon="0.98155">
        <ele>187</ele>
        <time>2012-01-10T12:58:34Z</time>
      </trkpt>
      <trkpt lat="44.55146" lon="0.98155">
        <ele>187</ele>
        <time>2012-01-10T12:58:35Z</time>
      </trkpt>
      <trkpt lat="44.55144" lon="0.98155">
        <ele>187</ele>
        <time>2012-01-10T12:58:36Z</time>
      </trkpt>
      <trkpt lat="44.55142" lon="0.98158">
        <ele>187</ele>
        <time>2012-01-10T12:58:41Z</time>
      </trkpt>
      <trkpt lat="44.55138" lon="0.98161">
        <ele>187</ele>
        <time>2012-01-10T12:58:42Z</time>
      </trkpt>
      <trkpt lat="44.55137" lon="0.98162">
        <ele>187</ele>
        <time>2012-01-10T12:58:43Z</time>
      </trkpt>
      <trkpt lat="44.55134" lon="0.98163">
        <ele>187</ele>
        <time>2012-01-10T12:58:47Z</time>
      </trkpt>
      <trkpt lat="44.5513" lon="0.98164">
        <ele>186</ele>
        <time>2012-01-10T12:58:48Z</time>
      </trkpt>
      <trkpt lat="44.55129" lon="0.98164">
        <ele>186</ele>
        <time>2012-01-10T12:58:49Z</time>
      </trkpt>
      <trkpt lat="44.55128" lon="0.98164">
        <ele>186</ele>
        <time>2012-01-10T12:58:49Z</time>
      </trkpt>
      <trkpt lat="44.55124" lon="0.98166">
        <ele>186</ele>
        <time>2012-01-10T12:58:54Z</time>
      </trkpt>
      <trkpt lat="44.55122" lon="0.98167">
        <ele>186</ele>
        <time>2012-01-10T12:58:55Z</time>
      </trkpt>
      <trkpt lat="44.55119" lon="0.98168">
        <ele>186</ele>
        <time>2012-01-10T12:59:00Z</time>
      </trkpt>
      <trkpt lat="44.55114" lon="0.98171">
        <ele>186</ele>
        <time>2012-01-10T12:59:01Z</time>
      </trkpt>
      <trkpt lat="44.55112" lon="0.98171">
        <ele>186</ele>
        <time>2012-01-10T12:59:02Z</time>
      </trkpt>
      <trkpt lat="44.55108" lon="0.98173">
        <ele>186</ele>
        <time>2012-01-10T12:59:07Z</time>
      </trkpt>
      <trkpt lat="44.55103" lon="0.98174">
        <ele>186</ele>
        <time>2012-01-10T12:59:07Z</time>
      </trkpt>
      <trkpt lat="44.55102" lon="0.98173">
        <ele>186</ele>
        <time>2012-01-10T12:59:08Z</time>
      </trkpt>
      <trkpt lat="44.551" lon="0.98173">
        <ele>186</ele>
        <time>2012-01-10T12:59:10Z</time>
      </trkpt>
      <trkpt lat="44.55096" lon="0.98173">
        <ele>186</ele>
        <time>2012-01-10T12:59:15Z</time>
      </trkpt>
      <trkpt lat="44.55091" lon="0.98173">
        <ele>186</ele>
        <time>2012-01-10T12:59:15Z</time>
      </trkpt>
      <trkpt lat="44.5509" lon="0.98173">
        <ele>186</ele>
        <time>2012-01-10T12:59:16Z</time>
      </trkpt>
      <trkpt lat="44.55086" lon="0.98173">
        <ele>186</ele>
        <time>2012-01-10T12:59:22Z</time>
      </trkpt>
      <trkpt lat="44.55079" lon="0.98171">
        <ele>186</ele>
        <time>2012-01-10T12:59:23Z</time>
      </trkpt>
      <trkpt lat="44.55077" lon="0.9817">
        <ele>186</ele>
        <time>2012-01-10T12:59:24Z</time>
      </trkpt>
      <trkpt lat="44.55067" lon="0.98167">
        <ele>186</ele>
        <time>2012-01-10T12:59:28Z</time>
      </trkpt>
      <trkpt lat="44.55066" lon="0.98166">
        <ele>186</ele>
        <time>2012-01-10T12:59:29Z</time>
      </trkpt>
      <trkpt lat="44.5506" lon="0.98165">
        <ele>186</ele>
        <time>2012-01-10T12:59:34Z</time>
      </trkpt>
      <trkpt lat="44.55053" lon="0.98164">
        <ele>187</ele>
        <time>2012-01-10T12:59:35Z</time>
      </trkpt>
      <trkpt lat="44.55051" lon="0.98164">
        <ele>188</ele>
        <time>2012-01-10T12:59:36Z</time>
      </trkpt>
      <trkpt lat="44.55048" lon="0.98163">
        <ele>189</ele>
        <time>2012-01-10T12:59:41Z</time>
      </trkpt>
      <trkpt lat="44.55044" lon="0.98161">
        <ele>190</ele>
        <time>2012-01-10T12:59:41Z</time>
      </trkpt>
      <trkpt lat="44.55042" lon="0.9816">
        <ele>190</ele>
        <time>2012-01-10T12:59:43Z</time>
      </trkpt>
      <trkpt lat="44.55041" lon="0.98159">
        <ele>191</ele>
        <time>2012-01-10T12:59:44Z</time>
      </trkpt>
      <trkpt lat="44.5504" lon="0.98159">
        <ele>191</ele>
        <time>2012-01-10T12:59:45Z</time>
      </trkpt>
      <trkpt lat="44.55035" lon="0.98158">
        <ele>192</ele>
        <time>2012-01-10T12:59:50Z</time>
      </trkpt>
      <trkpt lat="44.55027" lon="0.98156">
        <ele>193</ele>
        <time>2012-01-10T12:59:51Z</time>
      </trkpt>
      <trkpt lat="44.55017" lon="0.98155">
        <ele>194</ele>
        <time>2012-01-10T12:59:55Z</time>
      </trkpt>
      <trkpt lat="44.55015" lon="0.98154">
        <ele>195</ele>
        <time>2012-01-10T12:59:56Z</time>
      </trkpt>
      <trkpt lat="44.55013" lon="0.98153">
        <ele>196</ele>
        <time>2012-01-10T12:59:58Z</time>
      </trkpt>
      <trkpt lat="44.55012" lon="0.98153">
        <ele>196</ele>
        <time>2012-01-10T12:59:59Z</time>
      </trkpt>
      <trkpt lat="44.55008" lon="0.98153">
        <ele>197</ele>
        <time>2012-01-10T13:00:04Z</time>
      </trkpt>
      <trkpt lat="44.55002" lon="0.98151">
        <ele>197</ele>
        <time>2012-01-10T13:00:04Z</time>
      </trkpt>
      <trkpt lat="44.55001" lon="0.98151">
        <ele>197</ele>
        <time>2012-01-10T13:00:09Z</time>
      </trkpt>
      <trkpt lat="44.54996" lon="0.9815">
        <ele>197</ele>
        <time>2012-01-10T13:00:10Z</time>
      </trkpt>
      <trkpt lat="44.54994" lon="0.9815">
        <ele>197</ele>
        <time>2012-01-10T13:00:11Z</time>
      </trkpt>
      <trkpt lat="44.54992" lon="0.98149">
        <ele>197</ele>
        <time>2012-01-10T13:00:16Z</time>
      </trkpt>
      <trkpt lat="44.54987" lon="0.98147">
        <ele>197</ele>
        <time>2012-01-10T13:00:17Z</time>
      </trkpt>
      <trkpt lat="44.54986" lon="0.98146">
        <ele>197</ele>
        <time>2012-01-10T13:00:17Z</time>
      </trkpt>
      <trkpt lat="44.54985" lon="0.98145">
        <ele>196</ele>
        <time>2012-01-10T13:00:18Z</time>
      </trkpt>
      <trkpt lat="44.54983" lon="0.98143">
        <ele>195</ele>
        <time>2012-01-10T13:00:19Z</time>
      </trkpt>
      <trkpt lat="44.54979" lon="0.98141">
        <ele>194</ele>
        <time>2012-01-10T13:00:25Z</time>
      </trkpt>
      <trkpt lat="44.54974" lon="0.98137">
        <ele>193</ele>
        <time>2012-01-10T13:00:26Z</time>
      </trkpt>
      <trkpt lat="44.54964" lon="0.98132">
        <ele>192</ele>
        <time>2012-01-10T13:00:30Z</time>
      </trkpt>
      <trkpt lat="44.54962" lon="0.98131">
        <ele>191</ele>
        <time>2012-01-10T13:00:31Z</time>
      </trkpt>
      <trkpt lat="44.54958" lon="0.98128">
        <ele>190</ele>
        <time>2012-01-10T13:00:36Z</time>
      </trkpt>
      <trkpt lat="44.54949" lon="0.98122">
        <ele>189</ele>
        <time>2012-01-10T13:00:38Z</time>
      </trkpt>
      <trkpt lat="44.54947" lon="0.98121">
        <ele>188</ele>
        <time>2012-01-10T13:00:38Z</time>
      </trkpt>
      <trkpt lat="44.54943" lon="0.9812">
        <ele>187</ele>
        <time>2012-01-10T13:00:39Z</time>
      </trkpt>
      <trkpt lat="44.54937" lon="0.98117">
        <ele>186</ele>
        <time>2012-01-10T13:00:44Z</time>
      </trkpt>
      <trkpt lat="44.54926" lon="0.98111">
        <ele>184</ele>
        <time>2012-01-10T13:00:45Z</time>
      </trkpt>
      <trkpt lat="44.54922" lon="0.98109">
        <ele>182</ele>
        <time>2012-01-10T13:00:45Z</time>
      </trkpt>
      <trkpt lat="44.54916" lon="0.98104">
        <ele>181</ele>
        <time>2012-01-10T13:00:46Z</time>
      </trkpt>
      <trkpt lat="44.54912" lon="0.981">
        <ele>180</ele>
        <time>2012-01-10T13:00:47Z</time>
      </trkpt>
      <trkpt lat="44.54901" lon="0.9809">
        <ele>179</ele>
        <time>2012-01-10T13:00:52Z</time>
      </trkpt>
      <trkpt lat="44.54882" lon="0.98072">
        <ele>177</ele>
        <time>2012-01-10T13:00:52Z</time>
      </trkpt>
      <trkpt lat="44.54876" lon="0.98067">
        <ele>175</ele>
        <time>2012-01-10T13:00:53Z</time>
      </trkpt>
      <trkpt lat="44.54863" lon="0.98057">
        <ele>173</ele>
        <time>2012-01-10T13:00:58Z</time>
      </trkpt>
      <trkpt lat="44.54842" lon="0.9804">
        <ele>171</ele>
        <time>2012-01-10T13:00:58Z</time>
      </trkpt>
      <trkpt lat="44.54835" lon="0.98035">
        <ele>169</ele>
        <time>2012-01-10T13:00:59Z</time>
      </trkpt>
      <trkpt lat="44.5479" lon="0.98011">
        <ele>167</ele>
        <time>2012-01-10T13:01:04Z</time>
      </trkpt>
      <trkpt lat="44.54779" lon="0.98007">
        <ele>165</ele>
        <time>2012-01-10T13:01:06Z</time>
      </trkpt>
      <trkpt lat="44.54769" lon="0.98005">
        <ele>163</ele>
        <time>2012-01-10T13:01:06Z</time>
      </trkpt>
      <trkpt lat="44.5475" lon="0.97991">
        <ele>161</ele>
        <time>2012-01-10T13:01:11Z</time>
      </trkpt>
      <trkpt lat="44.54729" lon="0.97971">
        <ele>160</ele>
        <time>2012-01-10T13:01:11Z</time>
      </trkpt>
      <trkpt lat="44.54723" lon="0.97964">
        <ele>159</ele>
        <time>2012-01-10T13:01:13Z</time>
      </trkpt>
      <trkpt lat="44.54715" lon="0.97956">
        <ele>159</ele>
        <time>2012-01-10T13:01:14Z</time>
      </trkpt>
      <trkpt lat="44.54687" lon="0.97923">
        <ele>159</ele>
        <time>2012-01-10T13:01:18Z</time>
      </trkpt>
      <trkpt lat="44.54683" lon="0.97917">
        <ele>159</ele>
        <time>2012-01-10T13:01:19Z</time>
      </trkpt>
      <trkpt lat="44.54678" lon="0.97912">
        <ele>160</ele>
        <time>2012-01-10T13:01:20Z</time>
      </trkpt>
      <trkpt lat="44.54675" lon="0.97909">
        <ele>161</ele>
        <time>2012-01-10T13:01:21Z</time>
      </trkpt>
      <trkpt lat="44.54668" lon="0.97902">
        <ele>162</ele>
        <time>2012-01-10T13:01:26Z</time>
      </trkpt>
      <trkpt lat="44.54659" lon="0.97894">
        <ele>163</ele>
        <time>2012-01-10T13:01:26Z</time>
      </trkpt>
      <trkpt lat="44.54657" lon="0.97892">
        <ele>164</ele>
        <time>2012-01-10T13:01:27Z</time>
      </trkpt>
      <trkpt lat="44.54652" lon="0.97888">
        <ele>165</ele>
        <time>2012-01-10T13:01:32Z</time>
      </trkpt>
      <trkpt lat="44.54645" lon="0.97882">
        <ele>166</ele>
        <time>2012-01-10T13:01:32Z</time>
      </trkpt>
      <trkpt lat="44.54641" lon="0.97881">
        <ele>168</ele>
        <time>2012-01-10T13:01:33Z</time>
      </trkpt>
      <trkpt lat="44.54633" lon="0.97874">
        <ele>169</ele>
        <time>2012-01-10T13:01:38Z</time>
      </trkpt>
      <trkpt lat="44.54631" lon="0.97873">
        <ele>171</ele>
        <time>2012-01-10T13:01:40Z</time>
      </trkpt>
      <trkpt lat="44.54628" lon="0.97871">
        <ele>174</ele>
        <time>2012-01-10T13:01:48Z</time>
      </trkpt>
      <trkpt lat="44.54626" lon="0.97869">
        <ele>174</ele>
        <time>2012-01-10T13:01:50Z</time>
      </trkpt>
      <trkpt lat="44.54625" lon="0.97868">
        <ele>175</ele>
        <time>2012-01-10T13:01:57Z</time>
      </trkpt>
      <trkpt lat="44.54617" lon="0.97864">
        <ele>176</ele>
        <time>2012-01-10T13:02:06Z</time>
      </trkpt>
      <trkpt lat="44.54616" lon="0.97863">
        <ele>176</ele>
        <time>2012-01-10T13:02:07Z</time>
      </trkpt>
      <trkpt lat="44.54613" lon="0.9786">
        <ele>176</ele>
        <time>2012-01-10T13:02:13Z</time>
      </trkpt>
      <trkpt lat="44.54602" lon="0.97852">
        <ele>176</ele>
        <time>2012-01-10T13:02:13Z</time>
      </trkpt>
      <trkpt lat="44.54596" lon="0.97848">
        <ele>176</ele>
        <time>2012-01-10T13:02:18Z</time>
      </trkpt>
      <trkpt lat="44.54585" lon="0.9784">
        <ele>176</ele>
        <time>2012-01-10T13:02:20Z</time>
      </trkpt>
      <trkpt lat="44.54583" lon="0.97838">
        <ele>176</ele>
        <time>2012-01-10T13:02:21Z</time>
      </trkpt>
      <trkpt lat="44.54581" lon="0.97835">
        <ele>176</ele>
        <time>2012-01-10T13:02:22Z</time>
      </trkpt>
      <trkpt lat="44.54575" lon="0.97829">
        <ele>176</ele>
        <time>2012-01-10T13:02:26Z</time>
      </trkpt>
      <trkpt lat="44.54566" lon="0.9782">
        <ele>176</ele>
        <time>2012-01-10T13:02:26Z</time>
      </trkpt>
      <trkpt lat="44.54561" lon="0.97817">
        <ele>176</ele>
        <time>2012-01-10T13:02:27Z</time>
      </trkpt>
      <trkpt lat="44.54543" lon="0.978">
        <ele>176</ele>
        <time>2012-01-10T13:02:32Z</time>
      </trkpt>
      <trkpt lat="44.54538" lon="0.97796">
        <ele>176</ele>
        <time>2012-01-10T13:02:33Z</time>
      </trkpt>
      <trkpt lat="44.54535" lon="0.97791">
        <ele>176</ele>
        <time>2012-01-10T13:02:34Z</time>
      </trkpt>
      <trkpt lat="44.54531" lon="0.97781">
        <ele>176</ele>
        <time>2012-01-10T13:02:39Z</time>
      </trkpt>
      <trkpt lat="44.54533" lon="0.97764">
        <ele>176</ele>
        <time>2012-01-10T13:02:40Z</time>
      </trkpt>
      <trkpt lat="44.54532" lon="0.97759">
        <ele>176</ele>
        <time>2012-01-10T13:02:41Z</time>
      </trkpt>
      <trkpt lat="44.54532" lon="0.97754">
        <ele>175</ele>
        <time>2012-01-10T13:02:41Z</time>
      </trkpt>
      <trkpt lat="44.54531" lon="0.97743">
        <ele>175</ele>
        <time>2012-01-10T13:02:46Z</time>
      </trkpt>
      <trkpt lat="44.54528" lon="0.9773">
        <ele>174</ele>
        <time>2012-01-10T13:02:46Z</time>
      </trkpt>
      <trkpt lat="44.54527" lon="0.97726">
        <ele>173</ele>
        <time>2012-01-10T13:02:47Z</time>
      </trkpt>
      <trkpt lat="44.54526" lon="0.97722">
        <ele>173</ele>
        <time>2012-01-10T13:02:48Z</time>
      </trkpt>
      <trkpt lat="44.54524" lon="0.97715">
        <ele>172</ele>
        <time>2012-01-10T13:02:53Z</time>
      </trkpt>
      <trkpt lat="44.54518" lon="0.97705">
        <ele>172</ele>
        <time>2012-01-10T13:02:53Z</time>
      </trkpt>
      <trkpt lat="44.54517" lon="0.97701">
        <ele>171</ele>
        <time>2012-01-10T13:02:54Z</time>
      </trkpt>
      <trkpt lat="44.54516" lon="0.97695">
        <ele>171</ele>
        <time>2012-01-10T13:02:55Z</time>
      </trkpt>
      <trkpt lat="44.54515" lon="0.97689">
        <ele>170</ele>
        <time>2012-01-10T13:02:56Z</time>
      </trkpt>
      <trkpt lat="44.54513" lon="0.97677">
        <ele>169</ele>
        <time>2012-01-10T13:03:01Z</time>
      </trkpt>
      <trkpt lat="44.54512" lon="0.97662">
        <ele>168</ele>
        <time>2012-01-10T13:03:01Z</time>
      </trkpt>
      <trkpt lat="44.54511" lon="0.97657">
        <ele>167</ele>
        <time>2012-01-10T13:03:02Z</time>
      </trkpt>
      <trkpt lat="44.54509" lon="0.97649">
        <ele>166</ele>
        <time>2012-01-10T13:03:07Z</time>
      </trkpt>
      <trkpt lat="44.54508" lon="0.97637">
        <ele>165</ele>
        <time>2012-01-10T13:03:07Z</time>
      </trkpt>
      <trkpt lat="44.54507" lon="0.97632">
        <ele>164</ele>
        <time>2012-01-10T13:03:09Z</time>
      </trkpt>
      <trkpt lat="44.54507" lon="0.97628">
        <ele>163</ele>
        <time>2012-01-10T13:03:10Z</time>
      </trkpt>
      <trkpt lat="44.54506" lon="0.97616">
        <ele>162</ele>
        <time>2012-01-10T13:03:14Z</time>
      </trkpt>
      <trkpt lat="44.54506" lon="0.97595">
        <ele>161</ele>
        <time>2012-01-10T13:03:15Z</time>
      </trkpt>
      <trkpt lat="44.54506" lon="0.97588">
        <ele>160</ele>
        <time>2012-01-10T13:03:16Z</time>
      </trkpt>
      <trkpt lat="44.54507" lon="0.97578">
        <ele>159</ele>
        <time>2012-01-10T13:03:21Z</time>
      </trkpt>
      <trkpt lat="44.54509" lon="0.97565">
        <ele>158</ele>
        <time>2012-01-10T13:03:21Z</time>
      </trkpt>
      <trkpt lat="44.54509" lon="0.97562">
        <ele>158</ele>
        <time>2012-01-10T13:03:22Z</time>
      </trkpt>
      <trkpt lat="44.54508" lon="0.97553">
        <ele>158</ele>
        <time>2012-01-10T13:03:27Z</time>
      </trkpt>
      <trkpt lat="44.54508" lon="0.97534">
        <ele>158</ele>
        <time>2012-01-10T13:03:28Z</time>
      </trkpt>
      <trkpt lat="44.54508" lon="0.97529">
        <ele>158</ele>
        <time>2012-01-10T13:03:29Z</time>
      </trkpt>
      <trkpt lat="44.54509" lon="0.97519">
        <ele>158</ele>
        <time>2012-01-10T13:03:34Z</time>
      </trkpt>
      <trkpt lat="44.54509" lon="0.97502">
        <ele>158</ele>
        <time>2012-01-10T13:03:34Z</time>
      </trkpt>
      <trkpt lat="44.54509" lon="0.97497">
        <ele>158</ele>
        <time>2012-01-10T13:03:35Z</time>
      </trkpt>
      <trkpt lat="44.54509" lon="0.97492">
        <ele>158</ele>
        <time>2012-01-10T13:03:36Z</time>
      </trkpt>
      <trkpt lat="44.54508" lon="0.97482">
        <ele>158</ele>
        <time>2012-01-10T13:03:41Z</time>
      </trkpt>
      <trkpt lat="44.54507" lon="0.97465">
        <ele>158</ele>
        <time>2012-01-10T13:03:41Z</time>
      </trkpt>
      <trkpt lat="44.54507" lon="0.9746">
        <ele>158</ele>
        <time>2012-01-10T13:03:42Z</time>
      </trkpt>
      <trkpt lat="44.54504" lon="0.97448">
        <ele>158</ele>
        <time>2012-01-10T13:03:47Z</time>
      </trkpt>
      <trkpt lat="44.54502" lon="0.97434">
        <ele>158</ele>
        <time>2012-01-10T13:03:47Z</time>
      </trkpt>
      <trkpt lat="44.54502" lon="0.97429">
        <ele>158</ele>
        <time>2012-01-10T13:03:48Z</time>
      </trkpt>
      <trkpt lat="44.54501" lon="0.97421">
        <ele>158</ele>
        <time>2012-01-10T13:03:53Z</time>
      </trkpt>
      <trkpt lat="44.54496" lon="0.974">
        <ele>158</ele>
        <time>2012-01-10T13:03:54Z</time>
      </trkpt>
      <trkpt lat="44.54496" lon="0.97395">
        <ele>158</ele>
        <time>2012-01-10T13:03:55Z</time>
      </trkpt>
      <trkpt lat="44.54494" lon="0.97384">
        <ele>158</ele>
        <time>2012-01-10T13:04:00Z</time>
      </trkpt>
      <trkpt lat="44.54493" lon="0.97368">
        <ele>159</ele>
        <time>2012-01-10T13:04:00Z</time>
      </trkpt>
      <trkpt lat="44.54492" lon="0.97362">
        <ele>160</ele>
        <time>2012-01-10T13:04:01Z</time>
      </trkpt>
      <trkpt lat="44.54493" lon="0.97352">
        <ele>161</ele>
        <time>2012-01-10T13:04:06Z</time>
      </trkpt>
      <trkpt lat="44.54492" lon="0.97337">
        <ele>161</ele>
        <time>2012-01-10T13:04:06Z</time>
      </trkpt>
      <trkpt lat="44.54491" lon="0.97331">
        <ele>161</ele>
        <time>2012-01-10T13:04:07Z</time>
      </trkpt>
      <trkpt lat="44.5449" lon="0.9732">
        <ele>161</ele>
        <time>2012-01-10T13:04:12Z</time>
      </trkpt>
      <trkpt lat="44.54487" lon="0.97295">
        <ele>162</ele>
        <time>2012-01-10T13:04:13Z</time>
      </trkpt>
      <trkpt lat="44.54486" lon="0.97288">
        <ele>162</ele>
        <time>2012-01-10T13:04:14Z</time>
      </trkpt>
      <trkpt lat="44.54486" lon="0.97276">
        <ele>163</ele>
        <time>2012-01-10T13:04:19Z</time>
      </trkpt>
      <trkpt lat="44.54486" lon="0.97258">
        <ele>163</ele>
        <time>2012-01-10T13:04:19Z</time>
      </trkpt>
      <trkpt lat="44.54487" lon="0.9725">
        <ele>163</ele>
        <time>2012-01-10T13:04:20Z</time>
      </trkpt>
      <trkpt lat="44.54485" lon="0.97217">
        <ele>163</ele>
        <time>2012-01-10T13:04:25Z</time>
      </trkpt>
      <trkpt lat="44.54485" lon="0.97211">
        <ele>163</ele>
        <time>2012-01-10T13:04:26Z</time>
      </trkpt>
      <trkpt lat="44.54484" lon="0.972">
        <ele>163</ele>
        <time>2012-01-10T13:04:31Z</time>
      </trkpt>
      <trkpt lat="44.54478" lon="0.97184">
        <ele>164</ele>
        <time>2012-01-10T13:04:32Z</time>
      </trkpt>
      <trkpt lat="44.54476" lon="0.97181">
        <ele>165</ele>
        <time>2012-01-10T13:04:33Z</time>
      </trkpt>
      <trkpt lat="44.54475" lon="0.9718">
        <ele>166</ele>
        <time>2012-01-10T13:04:35Z</time>
      </trkpt>
      <trkpt lat="44.54469" lon="0.97175">
        <ele>168</ele>
        <time>2012-01-10T13:04:41Z</time>
      </trkpt>
      <trkpt lat="44.54467" lon="0.97173">
        <ele>170</ele>
        <time>2012-01-10T13:04:43Z</time>
      </trkpt>
      <trkpt lat="44.54465" lon="0.97172">
        <ele>171</ele>
        <time>2012-01-10T13:04:49Z</time>
      </trkpt>
      <trkpt lat="44.54464" lon="0.9717">
        <ele>172</ele>
        <time>2012-01-10T13:04:50Z</time>
      </trkpt>
      <trkpt lat="44.54461" lon="0.97169">
        <ele>175</ele>
        <time>2012-01-10T13:04:57Z</time>
      </trkpt>
      <trkpt lat="44.5446" lon="0.97168">
        <ele>181</ele>
        <time>2012-01-10T13:05:04Z</time>
      </trkpt>
      <trkpt lat="44.54462" lon="0.97169">
        <ele>187</ele>
        <time>2012-01-10T13:05:07Z</time>
      </trkpt>
      <trkpt lat="44.54463" lon="0.97171">
        <ele>189</ele>
        <time>2012-01-10T13:05:12Z</time>
      </trkpt>
      <trkpt lat="44.54469" lon="0.97175">
        <ele>191</ele>
        <time>2012-01-10T13:05:13Z</time>
      </trkpt>
      <trkpt lat="44.5447" lon="0.97177">
        <ele>192</ele>
        <time>2012-01-10T13:05:14Z</time>
      </trkpt>
      <trkpt lat="44.54472" lon="0.97178">
        <ele>193</ele>
        <time>2012-01-10T13:05:15Z</time>
      </trkpt>
      <trkpt lat="44.54475" lon="0.97181">
        <ele>193</ele>
        <time>2012-01-10T13:05:20Z</time>
      </trkpt>
      <trkpt lat="44.54479" lon="0.97184">
        <ele>192</ele>
        <time>2012-01-10T13:05:21Z</time>
      </trkpt>
      <trkpt lat="44.5448" lon="0.97185">
        <ele>187</ele>
        <time>2012-01-10T13:05:29Z</time>
      </trkpt>
      <trkpt lat="44.54479" lon="0.97183">
        <ele>183</ele>
        <time>2012-01-10T13:05:31Z</time>
      </trkpt>
      <trkpt lat="44.5448" lon="0.97184">
        <ele>181</ele>
        <time>2012-01-10T13:05:37Z</time>
      </trkpt>
      <trkpt lat="44.54479" lon="0.97183">
        <ele>180</ele>
        <time>2012-01-10T13:05:38Z</time>
      </trkpt>
      <trkpt lat="44.54478" lon="0.9718">
        <ele>177</ele>
        <time>2012-01-10T13:05:46Z</time>
      </trkpt>
      <trkpt lat="44.54479" lon="0.97167">
        <ele>176</ele>
        <time>2012-01-10T13:05:48Z</time>
      </trkpt>
      <trkpt lat="44.54479" lon="0.97164">
        <ele>176</ele>
        <time>2012-01-10T13:05:49Z</time>
      </trkpt>
      <trkpt lat="44.54486" lon="0.97146">
        <ele>176</ele>
        <time>2012-01-10T13:05:54Z</time>
      </trkpt>
      <trkpt lat="44.54487" lon="0.97142">
        <ele>176</ele>
        <time>2012-01-10T13:05:55Z</time>
      </trkpt>
      <trkpt lat="44.54488" lon="0.97134">
        <ele>176</ele>
        <time>2012-01-10T13:06:00Z</time>
      </trkpt>
      <trkpt lat="44.54492" lon="0.97124">
        <ele>176</ele>
        <time>2012-01-10T13:06:00Z</time>
      </trkpt>
      <trkpt lat="44.54493" lon="0.97122">
        <ele>175</ele>
        <time>2012-01-10T13:06:01Z</time>
      </trkpt>
      <trkpt lat="44.54496" lon="0.97105">
        <ele>174</ele>
        <time>2012-01-10T13:06:06Z</time>
      </trkpt>
      <trkpt lat="44.54497" lon="0.97102">
        <ele>173</ele>
        <time>2012-01-10T13:06:07Z</time>
      </trkpt>
      <trkpt lat="44.54499" lon="0.97095">
        <ele>173</ele>
        <time>2012-01-10T13:06:13Z</time>
      </trkpt>
      <trkpt lat="44.54504" lon="0.97079">
        <ele>173</ele>
        <time>2012-01-10T13:06:13Z</time>
      </trkpt>
      <trkpt lat="44.54505" lon="0.97075">
        <ele>173</ele>
        <time>2012-01-10T13:06:14Z</time>
      </trkpt>
      <trkpt lat="44.54507" lon="0.97067">
        <ele>173</ele>
        <time>2012-01-10T13:06:19Z</time>
      </trkpt>
      <trkpt lat="44.54511" lon="0.97055">
        <ele>173</ele>
        <time>2012-01-10T13:06:19Z</time>
      </trkpt>
      <trkpt lat="44.54514" lon="0.9705">
        <ele>173</ele>
        <time>2012-01-10T13:06:20Z</time>
      </trkpt>
      <trkpt lat="44.54521" lon="0.97028">
        <ele>173</ele>
        <time>2012-01-10T13:06:25Z</time>
      </trkpt>
      <trkpt lat="44.54522" lon="0.97023">
        <ele>173</ele>
        <time>2012-01-10T13:06:26Z</time>
      </trkpt>
      <trkpt lat="44.54523" lon="0.97019">
        <ele>173</ele>
        <time>2012-01-10T13:06:27Z</time>
      </trkpt>
      <trkpt lat="44.54526" lon="0.9701">
        <ele>173</ele>
        <time>2012-01-10T13:06:32Z</time>
      </trkpt>
      <trkpt lat="44.5453" lon="0.96994">
        <ele>173</ele>
        <time>2012-01-10T13:06:32Z</time>
      </trkpt>
      <trkpt lat="44.54531" lon="0.96989">
        <ele>173</ele>
        <time>2012-01-10T13:06:33Z</time>
      </trkpt>
      <trkpt lat="44.54537" lon="0.96966">
        <ele>173</ele>
        <time>2012-01-10T13:06:38Z</time>
      </trkpt>
      <trkpt lat="44.54538" lon="0.96962">
        <ele>173</ele>
        <time>2012-01-10T13:06:39Z</time>
      </trkpt>
      <trkpt lat="44.5454" lon="0.96954">
        <ele>173</ele>
        <time>2012-01-10T13:06:45Z</time>
      </trkpt>
      <trkpt lat="44.54545" lon="0.96937">
        <ele>173</ele>
        <time>2012-01-10T13:06:45Z</time>
      </trkpt>
      <trkpt lat="44.54546" lon="0.96932">
        <ele>173</ele>
        <time>2012-01-10T13:06:46Z</time>
      </trkpt>
      <trkpt lat="44.54547" lon="0.96923">
        <ele>173</ele>
        <time>2012-01-10T13:06:51Z</time>
      </trkpt>
      <trkpt lat="44.5455" lon="0.96911">
        <ele>173</ele>
        <time>2012-01-10T13:06:51Z</time>
      </trkpt>
      <trkpt lat="44.54551" lon="0.96908">
        <ele>174</ele>
        <time>2012-01-10T13:06:52Z</time>
      </trkpt>
      <trkpt lat="44.54552" lon="0.969">
        <ele>174</ele>
        <time>2012-01-10T13:06:57Z</time>
      </trkpt>
      <trkpt lat="44.54555" lon="0.96883">
        <ele>175</ele>
        <time>2012-01-10T13:06:58Z</time>
      </trkpt>
      <trkpt lat="44.54556" lon="0.96879">
        <ele>176</ele>
        <time>2012-01-10T13:06:59Z</time>
      </trkpt>
      <trkpt lat="44.54557" lon="0.96872">
        <ele>177</ele>
        <time>2012-01-10T13:07:04Z</time>
      </trkpt>
      <trkpt lat="44.54559" lon="0.96865">
        <ele>178</ele>
        <time>2012-01-10T13:07:04Z</time>
      </trkpt>
      <trkpt lat="44.5456" lon="0.96862">
        <ele>179</ele>
        <time>2012-01-10T13:07:05Z</time>
      </trkpt>
      <trkpt lat="44.54562" lon="0.96847">
        <ele>180</ele>
        <time>2012-01-10T13:07:10Z</time>
      </trkpt>
      <trkpt lat="44.54562" lon="0.96844">
        <ele>181</ele>
        <time>2012-01-10T13:07:12Z</time>
      </trkpt>
      <trkpt lat="44.54562" lon="0.9684">
        <ele>182</ele>
        <time>2012-01-10T13:07:12Z</time>
      </trkpt>
      <trkpt lat="44.54564" lon="0.9683">
        <ele>183</ele>
        <time>2012-01-10T13:07:17Z</time>
      </trkpt>
      <trkpt lat="44.54568" lon="0.96812">
        <ele>183</ele>
        <time>2012-01-10T13:07:18Z</time>
      </trkpt>
      <trkpt lat="44.54569" lon="0.96804">
        <ele>183</ele>
        <time>2012-01-10T13:07:19Z</time>
      </trkpt>
      <trkpt lat="44.5457" lon="0.96798">
        <ele>183</ele>
        <time>2012-01-10T13:07:19Z</time>
      </trkpt>
      <trkpt lat="44.54573" lon="0.96785">
        <ele>183</ele>
        <time>2012-01-10T13:07:24Z</time>
      </trkpt>
      <trkpt lat="44.54577" lon="0.96764">
        <ele>182</ele>
        <time>2012-01-10T13:07:24Z</time>
      </trkpt>
      <trkpt lat="44.54579" lon="0.96759">
        <ele>181</ele>
        <time>2012-01-10T13:07:25Z</time>
      </trkpt>
      <trkpt lat="44.54586" lon="0.9673">
        <ele>180</ele>
        <time>2012-01-10T13:07:30Z</time>
      </trkpt>
      <trkpt lat="44.54587" lon="0.96724">
        <ele>179</ele>
        <time>2012-01-10T13:07:31Z</time>
      </trkpt>
      <trkpt lat="44.54588" lon="0.96719">
        <ele>178</ele>
        <time>2012-01-10T13:07:32Z</time>
      </trkpt>
      <trkpt lat="44.5459" lon="0.96709">
        <ele>177</ele>
        <time>2012-01-10T13:07:37Z</time>
      </trkpt>
      <trkpt lat="44.54592" lon="0.96694">
        <ele>177</ele>
        <time>2012-01-10T13:07:37Z</time>
      </trkpt>
      <trkpt lat="44.54593" lon="0.96689">
        <ele>177</ele>
        <time>2012-01-10T13:07:38Z</time>
      </trkpt>
      <trkpt lat="44.54594" lon="0.96665">
        <ele>177</ele>
        <time>2012-01-10T13:07:43Z</time>
      </trkpt>
      <trkpt lat="44.54593" lon="0.9666">
        <ele>177</ele>
        <time>2012-01-10T13:07:44Z</time>
      </trkpt>
      <trkpt lat="44.54593" lon="0.96655">
        <ele>177</ele>
        <time>2012-01-10T13:07:45Z</time>
      </trkpt>
      <trkpt lat="44.54592" lon="0.96645">
        <ele>177</ele>
        <time>2012-01-10T13:07:50Z</time>
      </trkpt>
      <trkpt lat="44.54591" lon="0.96628">
        <ele>177</ele>
        <time>2012-01-10T13:07:50Z</time>
      </trkpt>
      <trkpt lat="44.5459" lon="0.96623">
        <ele>177</ele>
        <time>2012-01-10T13:07:51Z</time>
      </trkpt>
      <trkpt lat="44.54589" lon="0.9661">
        <ele>177</ele>
        <time>2012-01-10T13:07:56Z</time>
      </trkpt>
      <trkpt lat="44.54587" lon="0.96584">
        <ele>177</ele>
        <time>2012-01-10T13:07:57Z</time>
      </trkpt>
      <trkpt lat="44.54586" lon="0.96578">
        <ele>177</ele>
        <time>2012-01-10T13:07:58Z</time>
      </trkpt>
      <trkpt lat="44.54591" lon="0.96567">
        <ele>177</ele>
        <time>2012-01-10T13:08:03Z</time>
      </trkpt>
      <trkpt lat="44.54606" lon="0.96569">
        <ele>177</ele>
        <time>2012-01-10T13:08:04Z</time>
      </trkpt>
      <trkpt lat="44.54613" lon="0.96573">
        <ele>176</ele>
        <time>2012-01-10T13:08:05Z</time>
      </trkpt>
      <trkpt lat="44.5462" lon="0.96573">
        <ele>176</ele>
        <time>2012-01-10T13:08:06Z</time>
      </trkpt>
      <trkpt lat="44.54625" lon="0.96575">
        <ele>175</ele>
        <time>2012-01-10T13:08:06Z</time>
      </trkpt>
      <trkpt lat="44.54639" lon="0.96579">
        <ele>174</ele>
        <time>2012-01-10T13:08:11Z</time>
      </trkpt>
      <trkpt lat="44.54655" lon="0.96581">
        <ele>173</ele>
        <time>2012-01-10T13:08:11Z</time>
      </trkpt>
      <trkpt lat="44.5466" lon="0.9658">
        <ele>173</ele>
        <time>2012-01-10T13:08:12Z</time>
      </trkpt>
      <trkpt lat="44.54664" lon="0.96576">
        <ele>173</ele>
        <time>2012-01-10T13:08:13Z</time>
      </trkpt>
      <trkpt lat="44.54668" lon="0.96571">
        <ele>173</ele>
        <time>2012-01-10T13:08:14Z</time>
      </trkpt>
      <trkpt lat="44.54675" lon="0.96561">
        <ele>173</ele>
        <time>2012-01-10T13:08:20Z</time>
      </trkpt>
      <trkpt lat="44.54693" lon="0.96536">
        <ele>173</ele>
        <time>2012-01-10T13:08:20Z</time>
      </trkpt>
      <trkpt lat="44.547" lon="0.96522">
        <ele>173</ele>
        <time>2012-01-10T13:08:26Z</time>
      </trkpt>
      <trkpt lat="44.54712" lon="0.96494">
        <ele>173</ele>
        <time>2012-01-10T13:08:26Z</time>
      </trkpt>
      <trkpt lat="44.54715" lon="0.96487">
        <ele>172</ele>
        <time>2012-01-10T13:08:28Z</time>
      </trkpt>
      <trkpt lat="44.54719" lon="0.96471">
        <ele>172</ele>
        <time>2012-01-10T13:08:33Z</time>
      </trkpt>
      <trkpt lat="44.54709" lon="0.96439">
        <ele>171</ele>
        <time>2012-01-10T13:08:33Z</time>
      </trkpt>
      <trkpt lat="44.54705" lon="0.9643">
        <ele>171</ele>
        <time>2012-01-10T13:08:35Z</time>
      </trkpt>
      <trkpt lat="44.54702" lon="0.96422">
        <ele>171</ele>
        <time>2012-01-10T13:08:36Z</time>
      </trkpt>
      <trkpt lat="44.54677" lon="0.9638">
        <ele>170</ele>
        <time>2012-01-10T13:08:40Z</time>
      </trkpt>
      <trkpt lat="44.54672" lon="0.96369">
        <ele>169</ele>
        <time>2012-01-10T13:08:41Z</time>
      </trkpt>
      <trkpt lat="44.54668" lon="0.96358">
        <ele>168</ele>
        <time>2012-01-10T13:08:42Z</time>
      </trkpt>
      <trkpt lat="44.54662" lon="0.96337">
        <ele>167</ele>
        <time>2012-01-10T13:08:47Z</time>
      </trkpt>
      <trkpt lat="44.54649" lon="0.96307">
        <ele>166</ele>
        <time>2012-01-10T13:08:47Z</time>
      </trkpt>
      <trkpt lat="44.54644" lon="0.96299">
        <ele>165</ele>
        <time>2012-01-10T13:08:48Z</time>
      </trkpt>
      <trkpt lat="44.54637" lon="0.96293">
        <ele>164</ele>
        <time>2012-01-10T13:08:49Z</time>
      </trkpt>
      <trkpt lat="44.54625" lon="0.96283">
        <ele>163</ele>
        <time>2012-01-10T13:08:56Z</time>
      </trkpt>
      <trkpt lat="44.54614" lon="0.96242">
        <ele>162</ele>
        <time>2012-01-10T13:08:56Z</time>
      </trkpt>
      <trkpt lat="44.54613" lon="0.96235">
        <ele>162</ele>
        <time>2012-01-10T13:08:57Z</time>
      </trkpt>
      <trkpt lat="44.54611" lon="0.96226">
        <ele>162</ele>
        <time>2012-01-10T13:08:58Z</time>
      </trkpt>
      <trkpt lat="44.54609" lon="0.9621">
        <ele>162</ele>
        <time>2012-01-10T13:09:03Z</time>
      </trkpt>
      <trkpt lat="44.54603" lon="0.96185">
        <ele>162</ele>
        <time>2012-01-10T13:09:03Z</time>
      </trkpt>
      <trkpt lat="44.54602" lon="0.96178">
        <ele>162</ele>
        <time>2012-01-10T13:09:04Z</time>
      </trkpt>
      <trkpt lat="44.54601" lon="0.96166">
        <ele>162</ele>
        <time>2012-01-10T13:09:09Z</time>
      </trkpt>
      <trkpt lat="44.54599" lon="0.96147">
        <ele>162</ele>
        <time>2012-01-10T13:09:10Z</time>
      </trkpt>
      <trkpt lat="44.546" lon="0.96143">
        <ele>163</ele>
        <time>2012-01-10T13:09:11Z</time>
      </trkpt>
      <trkpt lat="44.54602" lon="0.9614">
        <ele>164</ele>
        <time>2012-01-10T13:09:12Z</time>
      </trkpt>
      <trkpt lat="44.54603" lon="0.9613">
        <ele>165</ele>
        <time>2012-01-10T13:09:18Z</time>
      </trkpt>
      <trkpt lat="44.54594" lon="0.96107">
        <ele>166</ele>
        <time>2012-01-10T13:09:20Z</time>
      </trkpt>
      <trkpt lat="44.54591" lon="0.96102">
        <ele>167</ele>
        <time>2012-01-10T13:09:21Z</time>
      </trkpt>
      <trkpt lat="44.54586" lon="0.96092">
        <ele>168</ele>
        <time>2012-01-10T13:09:27Z</time>
      </trkpt>
      <trkpt lat="44.54582" lon="0.96064">
        <ele>169</ele>
        <time>2012-01-10T13:09:27Z</time>
      </trkpt>
      <trkpt lat="44.54582" lon="0.96059">
        <ele>169</ele>
        <time>2012-01-10T13:09:28Z</time>
      </trkpt>
      <trkpt lat="44.54581" lon="0.96047">
        <ele>169</ele>
        <time>2012-01-10T13:09:33Z</time>
      </trkpt>
      <trkpt lat="44.54579" lon="0.9603">
        <ele>169</ele>
        <time>2012-01-10T13:09:33Z</time>
      </trkpt>
      <trkpt lat="44.54577" lon="0.96025">
        <ele>169</ele>
        <time>2012-01-10T13:09:34Z</time>
      </trkpt>
      <trkpt lat="44.54576" lon="0.96021">
        <ele>169</ele>
        <time>2012-01-10T13:09:35Z</time>
      </trkpt>
      <trkpt lat="44.54574" lon="0.96008">
        <ele>169</ele>
        <time>2012-01-10T13:09:40Z</time>
      </trkpt>
      <trkpt lat="44.54574" lon="0.96007">
        <ele>169</ele>
        <time>2012-01-10T13:09:41Z</time>
      </trkpt>
      <trkpt lat="44.54573" lon="0.96002">
        <ele>169</ele>
        <time>2012-01-10T13:09:47Z</time>
      </trkpt>
      <trkpt lat="44.54574" lon="0.95997">
        <ele>169</ele>
        <time>2012-01-10T13:09:47Z</time>
      </trkpt>
      <trkpt lat="44.54574" lon="0.95995">
        <ele>169</ele>
        <time>2012-01-10T13:09:49Z</time>
      </trkpt>
      <trkpt lat="44.54573" lon="0.95994">
        <ele>169</ele>
        <time>2012-01-10T13:09:57Z</time>
      </trkpt>
      <trkpt lat="44.54572" lon="0.95992">
        <ele>169</ele>
        <time>2012-01-10T13:09:59Z</time>
      </trkpt>
      <trkpt lat="44.54571" lon="0.95982">
        <ele>169</ele>
        <time>2012-01-10T13:10:05Z</time>
      </trkpt>
      <trkpt lat="44.54569" lon="0.95962">
        <ele>169</ele>
        <time>2012-01-10T13:10:06Z</time>
      </trkpt>
      <trkpt lat="44.54571" lon="0.95947">
        <ele>169</ele>
        <time>2012-01-10T13:10:10Z</time>
      </trkpt>
      <trkpt lat="44.54576" lon="0.95913">
        <ele>169</ele>
        <time>2012-01-10T13:10:11Z</time>
      </trkpt>
      <trkpt lat="44.54578" lon="0.95904">
        <ele>169</ele>
        <time>2012-01-10T13:10:12Z</time>
      </trkpt>
      <trkpt lat="44.5458" lon="0.95896">
        <ele>169</ele>
        <time>2012-01-10T13:10:13Z</time>
      </trkpt>
      <trkpt lat="44.54585" lon="0.9588">
        <ele>169</ele>
        <time>2012-01-10T13:10:18Z</time>
      </trkpt>
      <trkpt lat="44.54592" lon="0.95865">
        <ele>169</ele>
        <time>2012-01-10T13:10:18Z</time>
      </trkpt>
      <trkpt lat="44.54594" lon="0.9586">
        <ele>169</ele>
        <time>2012-01-10T13:10:19Z</time>
      </trkpt>
      <trkpt lat="44.54597" lon="0.95855">
        <ele>169</ele>
        <time>2012-01-10T13:10:21Z</time>
      </trkpt>
      <trkpt lat="44.546" lon="0.9585">
        <ele>168</ele>
        <time>2012-01-10T13:10:21Z</time>
      </trkpt>
      <trkpt lat="44.54605" lon="0.95837">
        <ele>167</ele>
        <time>2012-01-10T13:10:26Z</time>
      </trkpt>
      <trkpt lat="44.54609" lon="0.95823">
        <ele>166</ele>
        <time>2012-01-10T13:10:26Z</time>
      </trkpt>
      <trkpt lat="44.54611" lon="0.95819">
        <ele>165</ele>
        <time>2012-01-10T13:10:27Z</time>
      </trkpt>
      <trkpt lat="44.54616" lon="0.95809">
        <ele>164</ele>
        <time>2012-01-10T13:10:32Z</time>
      </trkpt>
      <trkpt lat="44.54626" lon="0.95786">
        <ele>163</ele>
        <time>2012-01-10T13:10:33Z</time>
      </trkpt>
      <trkpt lat="44.54627" lon="0.95781">
        <ele>162</ele>
        <time>2012-01-10T13:10:34Z</time>
      </trkpt>
      <trkpt lat="44.54627" lon="0.95776">
        <ele>161</ele>
        <time>2012-01-10T13:10:35Z</time>
      </trkpt>
      <trkpt lat="44.54627" lon="0.95772">
        <ele>160</ele>
        <time>2012-01-10T13:10:36Z</time>
      </trkpt>
      <trkpt lat="44.54627" lon="0.95766">
        <ele>160</ele>
        <time>2012-01-10T13:10:42Z</time>
      </trkpt>
      <trkpt lat="44.54629" lon="0.95755">
        <ele>160</ele>
        <time>2012-01-10T13:10:42Z</time>
      </trkpt>
      <trkpt lat="44.54631" lon="0.95753">
        <ele>160</ele>
        <time>2012-01-10T13:10:44Z</time>
      </trkpt>
      <trkpt lat="44.54632" lon="0.95749">
        <ele>160</ele>
        <time>2012-01-10T13:10:45Z</time>
      </trkpt>
      <trkpt lat="44.54634" lon="0.95742">
        <ele>160</ele>
        <time>2012-01-10T13:10:49Z</time>
      </trkpt>
      <trkpt lat="44.54642" lon="0.95724">
        <ele>160</ele>
        <time>2012-01-10T13:10:50Z</time>
      </trkpt>
      <trkpt lat="44.54644" lon="0.95717">
        <ele>160</ele>
        <time>2012-01-10T13:10:51Z</time>
      </trkpt>
      <trkpt lat="44.5465" lon="0.95701">
        <ele>160</ele>
        <time>2012-01-10T13:10:56Z</time>
      </trkpt>
      <trkpt lat="44.54662" lon="0.95675">
        <ele>160</ele>
        <time>2012-01-10T13:10:57Z</time>
      </trkpt>
      <trkpt lat="44.54666" lon="0.95665">
        <ele>160</ele>
        <time>2012-01-10T13:10:57Z</time>
      </trkpt>
      <trkpt lat="44.54674" lon="0.95648">
        <ele>160</ele>
        <time>2012-01-10T13:11:03Z</time>
      </trkpt>
      <trkpt lat="44.54691" lon="0.95607">
        <ele>160</ele>
        <time>2012-01-10T13:11:03Z</time>
      </trkpt>
      <trkpt lat="44.54694" lon="0.95599">
        <ele>159</ele>
        <time>2012-01-10T13:11:04Z</time>
      </trkpt>
      <trkpt lat="44.547" lon="0.95582">
        <ele>158</ele>
        <time>2012-01-10T13:11:09Z</time>
      </trkpt>
      <trkpt lat="44.54713" lon="0.95542">
        <ele>157</ele>
        <time>2012-01-10T13:11:10Z</time>
      </trkpt>
      <trkpt lat="44.54715" lon="0.95532">
        <ele>156</ele>
        <time>2012-01-10T13:11:11Z</time>
      </trkpt>
      <trkpt lat="44.54718" lon="0.95509">
        <ele>155</ele>
        <time>2012-01-10T13:11:16Z</time>
      </trkpt>
      <trkpt lat="44.54721" lon="0.95478">
        <ele>154</ele>
        <time>2012-01-10T13:11:16Z</time>
      </trkpt>
      <trkpt lat="44.5472" lon="0.95467">
        <ele>153</ele>
        <time>2012-01-10T13:11:17Z</time>
      </trkpt>
      <trkpt lat="44.5472" lon="0.95444">
        <ele>153</ele>
        <time>2012-01-10T13:11:23Z</time>
      </trkpt>
      <trkpt lat="44.54722" lon="0.95396">
        <ele>153</ele>
        <time>2012-01-10T13:11:23Z</time>
      </trkpt>
      <trkpt lat="44.54723" lon="0.95385">
        <ele>153</ele>
        <time>2012-01-10T13:11:24Z</time>
      </trkpt>
      <trkpt lat="44.54725" lon="0.95331">
        <ele>153</ele>
        <time>2012-01-10T13:11:29Z</time>
      </trkpt>
      <trkpt lat="44.54727" lon="0.9532">
        <ele>153</ele>
        <time>2012-01-10T13:11:30Z</time>
      </trkpt>
      <trkpt lat="44.54734" lon="0.95303">
        <ele>153</ele>
        <time>2012-01-10T13:11:36Z</time>
      </trkpt>
      <trkpt lat="44.54747" lon="0.95266">
        <ele>153</ele>
        <time>2012-01-10T13:11:37Z</time>
      </trkpt>
      <trkpt lat="44.54749" lon="0.95256">
        <ele>153</ele>
        <time>2012-01-10T13:11:37Z</time>
      </trkpt>
      <trkpt lat="44.54753" lon="0.95236">
        <ele>152</ele>
        <time>2012-01-10T13:11:43Z</time>
      </trkpt>
      <trkpt lat="44.54752" lon="0.95208">
        <ele>152</ele>
        <time>2012-01-10T13:11:43Z</time>
      </trkpt>
      <trkpt lat="44.54749" lon="0.95205">
        <ele>151</ele>
        <time>2012-01-10T13:11:45Z</time>
      </trkpt>
      <trkpt lat="44.54746" lon="0.95202">
        <ele>150</ele>
        <time>2012-01-10T13:11:46Z</time>
      </trkpt>
      <trkpt lat="44.54743" lon="0.952">
        <ele>149</ele>
        <time>2012-01-10T13:11:47Z</time>
      </trkpt>
      <trkpt lat="44.54739" lon="0.95196">
        <ele>148</ele>
        <time>2012-01-10T13:11:52Z</time>
      </trkpt>
      <trkpt lat="44.54738" lon="0.95194">
        <ele>147</ele>
        <time>2012-01-10T13:11:52Z</time>
      </trkpt>
      <trkpt lat="44.54739" lon="0.95194">
        <ele>147</ele>
        <time>2012-01-10T13:11:55Z</time>
      </trkpt>
      <trkpt lat="44.54739" lon="0.95193">
        <ele>147</ele>
        <time>2012-01-10T13:12:03Z</time>
      </trkpt>
      <trkpt lat="44.54741" lon="0.95194">
        <ele>148</ele>
        <time>2012-01-10T13:12:11Z</time>
      </trkpt>
      <trkpt lat="44.54736" lon="0.95187">
        <ele>148</ele>
        <time>2012-01-10T13:12:18Z</time>
      </trkpt>
      <trkpt lat="44.54735" lon="0.95184">
        <ele>148</ele>
        <time>2012-01-10T13:12:19Z</time>
      </trkpt>
      <trkpt lat="44.54732" lon="0.95173">
        <ele>148</ele>
        <time>2012-01-10T13:12:25Z</time>
      </trkpt>
      <trkpt lat="44.54727" lon="0.95152">
        <ele>148</ele>
        <time>2012-01-10T13:12:26Z</time>
      </trkpt>
      <trkpt lat="44.54725" lon="0.95145">
        <ele>148</ele>
        <time>2012-01-10T13:12:31Z</time>
      </trkpt>
      <trkpt lat="44.54729" lon="0.95131">
        <ele>147</ele>
        <time>2012-01-10T13:12:31Z</time>
      </trkpt>
      <trkpt lat="44.54731" lon="0.95128">
        <ele>146</ele>
        <time>2012-01-10T13:12:32Z</time>
      </trkpt>
      <trkpt lat="44.54732" lon="0.95125">
        <ele>145</ele>
        <time>2012-01-10T13:12:34Z</time>
      </trkpt>
      <trkpt lat="44.54737" lon="0.95124">
        <ele>144</ele>
        <time>2012-01-10T13:12:39Z</time>
      </trkpt>
      <trkpt lat="44.54752" lon="0.95122">
        <ele>143</ele>
        <time>2012-01-10T13:12:40Z</time>
      </trkpt>
      <trkpt lat="44.54756" lon="0.95122">
        <ele>142</ele>
        <time>2012-01-10T13:12:41Z</time>
      </trkpt>
      <trkpt lat="44.54765" lon="0.95121">
        <ele>141</ele>
        <time>2012-01-10T13:12:46Z</time>
      </trkpt>
      <trkpt lat="44.54787" lon="0.95121">
        <ele>140</ele>
        <time>2012-01-10T13:12:46Z</time>
      </trkpt>
      <trkpt lat="44.54794" lon="0.9512">
        <ele>139</ele>
        <time>2012-01-10T13:12:47Z</time>
      </trkpt>
      <trkpt lat="44.54807" lon="0.95118">
        <ele>137</ele>
        <time>2012-01-10T13:12:52Z</time>
      </trkpt>
      <trkpt lat="44.54834" lon="0.95112">
        <ele>136</ele>
        <time>2012-01-10T13:12:53Z</time>
      </trkpt>
      <trkpt lat="44.5484" lon="0.95109">
        <ele>134</ele>
        <time>2012-01-10T13:12:54Z</time>
      </trkpt>
      <trkpt lat="44.54853" lon="0.95103">
        <ele>133</ele>
        <time>2012-01-10T13:12:59Z</time>
      </trkpt>
      <trkpt lat="44.54872" lon="0.95094">
        <ele>132</ele>
        <time>2012-01-10T13:12:59Z</time>
      </trkpt>
      <trkpt lat="44.54879" lon="0.95091">
        <ele>131</ele>
        <time>2012-01-10T13:13:00Z</time>
      </trkpt>
      <trkpt lat="44.54894" lon="0.95084">
        <ele>130</ele>
        <time>2012-01-10T13:13:06Z</time>
      </trkpt>
      <trkpt lat="44.5492" lon="0.9507">
        <ele>129</ele>
        <time>2012-01-10T13:13:06Z</time>
      </trkpt>
      <trkpt lat="44.54926" lon="0.95067">
        <ele>128</ele>
        <time>2012-01-10T13:13:07Z</time>
      </trkpt>
      <trkpt lat="44.54939" lon="0.95061">
        <ele>127</ele>
        <time>2012-01-10T13:13:12Z</time>
      </trkpt>
      <trkpt lat="44.54962" lon="0.9505">
        <ele>126</ele>
        <time>2012-01-10T13:13:13Z</time>
      </trkpt>
      <trkpt lat="44.54966" lon="0.95049">
        <ele>125</ele>
        <time>2012-01-10T13:13:14Z</time>
      </trkpt>
      <trkpt lat="44.54971" lon="0.95048">
        <ele>124</ele>
        <time>2012-01-10T13:13:19Z</time>
      </trkpt>
      <trkpt lat="44.54972" lon="0.95046">
        <ele>123</ele>
        <time>2012-01-10T13:13:19Z</time>
      </trkpt>
      <trkpt lat="44.54973" lon="0.95044">
        <ele>121</ele>
        <time>2012-01-10T13:13:21Z</time>
      </trkpt>
      <trkpt lat="44.54973" lon="0.95042">
        <ele>120</ele>
        <time>2012-01-10T13:13:23Z</time>
      </trkpt>
      <trkpt lat="44.5497" lon="0.95036">
        <ele>119</ele>
        <time>2012-01-10T13:13:28Z</time>
      </trkpt>
      <trkpt lat="44.54953" lon="0.95031">
        <ele>118</ele>
        <time>2012-01-10T13:13:29Z</time>
      </trkpt>
      <trkpt lat="44.54949" lon="0.9503">
        <ele>117</ele>
        <time>2012-01-10T13:13:30Z</time>
      </trkpt>
      <trkpt lat="44.54945" lon="0.95029">
        <ele>116</ele>
        <time>2012-01-10T13:13:31Z</time>
      </trkpt>
      <trkpt lat="44.54922" lon="0.95019">
        <ele>115</ele>
        <time>2012-01-10T13:13:36Z</time>
      </trkpt>
      <trkpt lat="44.54916" lon="0.95015">
        <ele>114</ele>
        <time>2012-01-10T13:13:37Z</time>
      </trkpt>
      <trkpt lat="44.54911" lon="0.95011">
        <ele>113</ele>
        <time>2012-01-10T13:13:38Z</time>
      </trkpt>
      <trkpt lat="44.54874" lon="0.94992">
        <ele>112</ele>
        <time>2012-01-10T13:13:43Z</time>
      </trkpt>
      <trkpt lat="44.5487" lon="0.9499">
        <ele>112</ele>
        <time>2012-01-10T13:13:44Z</time>
      </trkpt>
      <trkpt lat="44.54866" lon="0.94989">
        <ele>112</ele>
        <time>2012-01-10T13:13:45Z</time>
      </trkpt>
      <trkpt lat="44.54861" lon="0.94987">
        <ele>112</ele>
        <time>2012-01-10T13:13:50Z</time>
      </trkpt>
      <trkpt lat="44.54849" lon="0.9498">
        <ele>112</ele>
        <time>2012-01-10T13:13:51Z</time>
      </trkpt>
      <trkpt lat="44.54844" lon="0.9498">
        <ele>112</ele>
        <time>2012-01-10T13:13:52Z</time>
      </trkpt>
      <trkpt lat="44.54818" lon="0.94978">
        <ele>111</ele>
        <time>2012-01-10T13:13:57Z</time>
      </trkpt>
      <trkpt lat="44.54813" lon="0.94977">
        <ele>110</ele>
        <time>2012-01-10T13:13:58Z</time>
      </trkpt>
      <trkpt lat="44.54801" lon="0.94976">
        <ele>109</ele>
        <time>2012-01-10T13:14:04Z</time>
      </trkpt>
      <trkpt lat="44.5478" lon="0.94971">
        <ele>108</ele>
        <time>2012-01-10T13:14:04Z</time>
      </trkpt>
      <trkpt lat="44.54774" lon="0.94972">
        <ele>107</ele>
        <time>2012-01-10T13:14:05Z</time>
      </trkpt>
      <trkpt lat="44.5476" lon="0.94976">
        <ele>106</ele>
        <time>2012-01-10T13:14:10Z</time>
      </trkpt>
      <trkpt lat="44.54731" lon="0.9499">
        <ele>105</ele>
        <time>2012-01-10T13:14:11Z</time>
      </trkpt>
      <trkpt lat="44.54724" lon="0.94993">
        <ele>104</ele>
        <time>2012-01-10T13:14:12Z</time>
      </trkpt>
      <trkpt lat="44.54718" lon="0.94995">
        <ele>103</ele>
        <time>2012-01-10T13:14:13Z</time>
      </trkpt>
      <trkpt lat="44.54712" lon="0.94995">
        <ele>102</ele>
        <time>2012-01-10T13:14:15Z</time>
      </trkpt>
      <trkpt lat="44.547" lon="0.94995">
        <ele>100</ele>
        <time>2012-01-10T13:14:20Z</time>
      </trkpt>
      <trkpt lat="44.54671" lon="0.94996">
        <ele>98</ele>
        <time>2012-01-10T13:14:21Z</time>
      </trkpt>
      <trkpt lat="44.5466" lon="0.94994">
        <ele>96</ele>
        <time>2012-01-10T13:14:26Z</time>
      </trkpt>
      <trkpt lat="44.54648" lon="0.94986">
        <ele>94</ele>
        <time>2012-01-10T13:14:27Z</time>
      </trkpt>
      <trkpt lat="44.54645" lon="0.94981">
        <ele>92</ele>
        <time>2012-01-10T13:14:29Z</time>
      </trkpt>
      <trkpt lat="44.54642" lon="0.94978">
        <ele>91</ele>
        <time>2012-01-10T13:14:30Z</time>
      </trkpt>
      <trkpt lat="44.54639" lon="0.94975">
        <ele>90</ele>
        <time>2012-01-10T13:14:30Z</time>
      </trkpt>
      <trkpt lat="44.54616" lon="0.94967">
        <ele>89</ele>
        <time>2012-01-10T13:14:36Z</time>
      </trkpt>
      <trkpt lat="44.54612" lon="0.94967">
        <ele>88</ele>
        <time>2012-01-10T13:14:37Z</time>
      </trkpt>
      <trkpt lat="44.54609" lon="0.94967">
        <ele>87</ele>
        <time>2012-01-10T13:14:38Z</time>
      </trkpt>
      <trkpt lat="44.54601" lon="0.94966">
        <ele>86</ele>
        <time>2012-01-10T13:14:43Z</time>
      </trkpt>
      <trkpt lat="44.54592" lon="0.94964">
        <ele>86</ele>
        <time>2012-01-10T13:14:44Z</time>
      </trkpt>
      <trkpt lat="44.5459" lon="0.94963">
        <ele>85</ele>
        <time>2012-01-10T13:14:54Z</time>
      </trkpt>
      <trkpt lat="44.54589" lon="0.94962">
        <ele>84</ele>
        <time>2012-01-10T13:14:55Z</time>
      </trkpt>
      <trkpt lat="44.54588" lon="0.94958">
        <ele>81</ele>
        <time>2012-01-10T13:15:04Z</time>
      </trkpt>
      <trkpt lat="44.54586" lon="0.94955">
        <ele>80</ele>
        <time>2012-01-10T13:15:11Z</time>
      </trkpt>
      <trkpt lat="44.54585" lon="0.94953">
        <ele>80</ele>
        <time>2012-01-10T13:15:21Z</time>
      </trkpt>
      <trkpt lat="44.54584" lon="0.94952">
        <ele>81</ele>
        <time>2012-01-10T13:15:30Z</time>
      </trkpt>
      <trkpt lat="44.54583" lon="0.9495">
        <ele>83</ele>
        <time>2012-01-10T13:15:47Z</time>
      </trkpt>
      <trkpt lat="44.54582" lon="0.94947">
        <ele>83</ele>
        <time>2012-01-10T13:15:52Z</time>
      </trkpt>
      <trkpt lat="44.54572" lon="0.9494">
        <ele>83</ele>
        <time>2012-01-10T13:15:53Z</time>
      </trkpt>
      <trkpt lat="44.5457" lon="0.94939">
        <ele>83</ele>
        <time>2012-01-10T13:15:54Z</time>
      </trkpt>
      <trkpt lat="44.54566" lon="0.94937">
        <ele>83</ele>
        <time>2012-01-10T13:16:00Z</time>
      </trkpt>
      <trkpt lat="44.54557" lon="0.94935">
        <ele>83</ele>
        <time>2012-01-10T13:16:01Z</time>
      </trkpt>
      <trkpt lat="44.54551" lon="0.94934">
        <ele>83</ele>
        <time>2012-01-10T13:16:07Z</time>
      </trkpt>
      <trkpt lat="44.54539" lon="0.9493">
        <ele>83</ele>
        <time>2012-01-10T13:16:07Z</time>
      </trkpt>
      <trkpt lat="44.54537" lon="0.9493">
        <ele>83</ele>
        <time>2012-01-10T13:16:08Z</time>
      </trkpt>
      <trkpt lat="44.54532" lon="0.94925">
        <ele>83</ele>
        <time>2012-01-10T13:16:13Z</time>
      </trkpt>
      <trkpt lat="44.54533" lon="0.94911">
        <ele>83</ele>
        <time>2012-01-10T13:16:14Z</time>
      </trkpt>
      <trkpt lat="44.54536" lon="0.94907">
        <ele>83</ele>
        <time>2012-01-10T13:16:15Z</time>
      </trkpt>
      <trkpt lat="44.54538" lon="0.94904">
        <ele>83</ele>
        <time>2012-01-10T13:16:17Z</time>
      </trkpt>
      <trkpt lat="44.54543" lon="0.94897">
        <ele>83</ele>
        <time>2012-01-10T13:16:22Z</time>
      </trkpt>
      <trkpt lat="44.54551" lon="0.94884">
        <ele>83</ele>
        <time>2012-01-10T13:16:22Z</time>
      </trkpt>
      <trkpt lat="44.54552" lon="0.94881">
        <ele>83</ele>
        <time>2012-01-10T13:16:23Z</time>
      </trkpt>
      <trkpt lat="44.54553" lon="0.94878">
        <ele>83</ele>
        <time>2012-01-10T13:16:25Z</time>
      </trkpt>
      <trkpt lat="44.54544" lon="0.9485">
        <ele>83</ele>
        <time>2012-01-10T13:16:30Z</time>
      </trkpt>
      <trkpt lat="44.54545" lon="0.94847">
        <ele>83</ele>
        <time>2012-01-10T13:16:31Z</time>
      </trkpt>
      <trkpt lat="44.54546" lon="0.94843">
        <ele>83</ele>
        <time>2012-01-10T13:16:32Z</time>
      </trkpt>
      <trkpt lat="44.54549" lon="0.94836">
        <ele>83</ele>
        <time>2012-01-10T13:16:37Z</time>
      </trkpt>
      <trkpt lat="44.54555" lon="0.94823">
        <ele>83</ele>
        <time>2012-01-10T13:16:42Z</time>
      </trkpt>
      <trkpt lat="44.5456" lon="0.94808">
        <ele>83</ele>
        <time>2012-01-10T13:16:42Z</time>
      </trkpt>
      <trkpt lat="44.54567" lon="0.94793">
        <ele>83</ele>
        <time>2012-01-10T13:16:47Z</time>
      </trkpt>
      <trkpt lat="44.54568" lon="0.9479">
        <ele>83</ele>
        <time>2012-01-10T13:16:48Z</time>
      </trkpt>
      <trkpt lat="44.5457" lon="0.94784">
        <ele>83</ele>
        <time>2012-01-10T13:16:54Z</time>
      </trkpt>
      <trkpt lat="44.54576" lon="0.9477">
        <ele>83</ele>
        <time>2012-01-10T13:16:54Z</time>
      </trkpt>
      <trkpt lat="44.54578" lon="0.94767">
        <ele>83</ele>
        <time>2012-01-10T13:16:55Z</time>
      </trkpt>
      <trkpt lat="44.5458" lon="0.94762">
        <ele>84</ele>
        <time>2012-01-10T13:17:01Z</time>
      </trkpt>
      <trkpt lat="44.54585" lon="0.9475">
        <ele>84</ele>
        <time>2012-01-10T13:17:01Z</time>
      </trkpt>
      <trkpt lat="44.54586" lon="0.94748">
        <ele>85</ele>
        <time>2012-01-10T13:17:02Z</time>
      </trkpt>
      <trkpt lat="44.54587" lon="0.94744">
        <ele>85</ele>
        <time>2012-01-10T13:17:07Z</time>
      </trkpt>
      <trkpt lat="44.54591" lon="0.94737">
        <ele>86</ele>
        <time>2012-01-10T13:17:08Z</time>
      </trkpt>
      <trkpt lat="44.54592" lon="0.94735">
        <ele>87</ele>
        <time>2012-01-10T13:17:09Z</time>
      </trkpt>
      <trkpt lat="44.54596" lon="0.94723">
        <ele>87</ele>
        <time>2012-01-10T13:17:14Z</time>
      </trkpt>
      <trkpt lat="44.54598" lon="0.94719">
        <ele>88</ele>
        <time>2012-01-10T13:17:16Z</time>
      </trkpt>
      <trkpt lat="44.54602" lon="0.94709">
        <ele>89</ele>
        <time>2012-01-10T13:17:21Z</time>
      </trkpt>
      <trkpt lat="44.54604" lon="0.94707">
        <ele>89</ele>
        <time>2012-01-10T13:17:22Z</time>
      </trkpt>
      <trkpt lat="44.54605" lon="0.94704">
        <ele>90</ele>
        <time>2012-01-10T13:17:23Z</time>
      </trkpt>
      <trkpt lat="44.5461" lon="0.94691">
        <ele>91</ele>
        <time>2012-01-10T13:17:28Z</time>
      </trkpt>
      <trkpt lat="44.54611" lon="0.94689">
        <ele>92</ele>
        <time>2012-01-10T13:17:29Z</time>
      </trkpt>
      <trkpt lat="44.54612" lon="0.94687">
        <ele>93</ele>
        <time>2012-01-10T13:17:30Z</time>
      </trkpt>
      <trkpt lat="44.54617" lon="0.94676">
        <ele>94</ele>
        <time>2012-01-10T13:17:35Z</time>
      </trkpt>
      <trkpt lat="44.54618" lon="0.94674">
        <ele>95</ele>
        <time>2012-01-10T13:17:36Z</time>
      </trkpt>
      <trkpt lat="44.5462" lon="0.94671">
        <ele>96</ele>
        <time>2012-01-10T13:17:37Z</time>
      </trkpt>
      <trkpt lat="44.54626" lon="0.94661">
        <ele>96</ele>
        <time>2012-01-10T13:17:42Z</time>
      </trkpt>
      <trkpt lat="44.54628" lon="0.94657">
        <ele>96</ele>
        <time>2012-01-10T13:17:43Z</time>
      </trkpt>
      <trkpt lat="44.5463" lon="0.94655">
        <ele>96</ele>
        <time>2012-01-10T13:17:44Z</time>
      </trkpt>
      <trkpt lat="44.54633" lon="0.94651">
        <ele>96</ele>
        <time>2012-01-10T13:17:51Z</time>
      </trkpt>
      <trkpt lat="44.54641" lon="0.9464">
        <ele>96</ele>
        <time>2012-01-10T13:17:51Z</time>
      </trkpt>
      <trkpt lat="44.54644" lon="0.94635">
        <ele>96</ele>
        <time>2012-01-10T13:17:57Z</time>
      </trkpt>
      <trkpt lat="44.54649" lon="0.94627">
        <ele>96</ele>
        <time>2012-01-10T13:17:57Z</time>
      </trkpt>
      <trkpt lat="44.5465" lon="0.94624">
        <ele>97</ele>
        <time>2012-01-10T13:17:58Z</time>
      </trkpt>
      <trkpt lat="44.54652" lon="0.9462">
        <ele>97</ele>
        <time>2012-01-10T13:18:03Z</time>
      </trkpt>
      <trkpt lat="44.54657" lon="0.9461">
        <ele>97</ele>
        <time>2012-01-10T13:18:04Z</time>
      </trkpt>
      <trkpt lat="44.54658" lon="0.94606">
        <ele>97</ele>
        <time>2012-01-10T13:18:05Z</time>
      </trkpt>
      <trkpt lat="44.54661" lon="0.94593">
        <ele>97</ele>
        <time>2012-01-10T13:18:10Z</time>
      </trkpt>
      <trkpt lat="44.54662" lon="0.9459">
        <ele>97</ele>
        <time>2012-01-10T13:18:11Z</time>
      </trkpt>
      <trkpt lat="44.5467" lon="0.94577">
        <ele>97</ele>
        <time>2012-01-10T13:18:17Z</time>
      </trkpt>
      <trkpt lat="44.54671" lon="0.94575">
        <ele>97</ele>
        <time>2012-01-10T13:18:18Z</time>
      </trkpt>
      <trkpt lat="44.54672" lon="0.9457">
        <ele>97</ele>
        <time>2012-01-10T13:18:24Z</time>
      </trkpt>
      <trkpt lat="44.54676" lon="0.9456">
        <ele>97</ele>
        <time>2012-01-10T13:18:24Z</time>
      </trkpt>
      <trkpt lat="44.54676" lon="0.94557">
        <ele>97</ele>
        <time>2012-01-10T13:18:25Z</time>
      </trkpt>
      <trkpt lat="44.54677" lon="0.94555">
        <ele>97</ele>
        <time>2012-01-10T13:18:26Z</time>
      </trkpt>
      <trkpt lat="44.54679" lon="0.94549">
        <ele>97</ele>
        <time>2012-01-10T13:18:31Z</time>
      </trkpt>
      <trkpt lat="44.54684" lon="0.94538">
        <ele>98</ele>
        <time>2012-01-10T13:18:32Z</time>
      </trkpt>
      <trkpt lat="44.54685" lon="0.94536">
        <ele>99</ele>
        <time>2012-01-10T13:18:34Z</time>
      </trkpt>
      <trkpt lat="44.54687" lon="0.9453">
        <ele>100</ele>
        <time>2012-01-10T13:18:39Z</time>
      </trkpt>
      <trkpt lat="44.54691" lon="0.94524">
        <ele>101</ele>
        <time>2012-01-10T13:18:39Z</time>
      </trkpt>
      <trkpt lat="44.54693" lon="0.94522">
        <ele>103</ele>
        <time>2012-01-10T13:18:42Z</time>
      </trkpt>
      <trkpt lat="44.54696" lon="0.94516">
        <ele>104</ele>
        <time>2012-01-10T13:18:47Z</time>
      </trkpt>
      <trkpt lat="44.54701" lon="0.9451">
        <ele>105</ele>
        <time>2012-01-10T13:18:47Z</time>
      </trkpt>
      <trkpt lat="44.54702" lon="0.94509">
        <ele>106</ele>
        <time>2012-01-10T13:18:48Z</time>
      </trkpt>
      <trkpt lat="44.54704" lon="0.94507">
        <ele>107</ele>
        <time>2012-01-10T13:18:50Z</time>
      </trkpt>
      <trkpt lat="44.54704" lon="0.94504">
        <ele>108</ele>
        <time>2012-01-10T13:18:50Z</time>
      </trkpt>
      <trkpt lat="44.54705" lon="0.94501">
        <ele>109</ele>
        <time>2012-01-10T13:18:56Z</time>
      </trkpt>
      <trkpt lat="44.54707" lon="0.94494">
        <ele>110</ele>
        <time>2012-01-10T13:18:56Z</time>
      </trkpt>
      <trkpt lat="44.54707" lon="0.94492">
        <ele>111</ele>
        <time>2012-01-10T13:18:57Z</time>
      </trkpt>
      <trkpt lat="44.54708" lon="0.94489">
        <ele>112</ele>
        <time>2012-01-10T13:19:02Z</time>
      </trkpt>
      <trkpt lat="44.54709" lon="0.94488">
        <ele>113</ele>
        <time>2012-01-10T13:19:05Z</time>
      </trkpt>
      <trkpt lat="44.5471" lon="0.94487">
        <ele>113</ele>
        <time>2012-01-10T13:19:11Z</time>
      </trkpt>
      <trkpt lat="44.5471" lon="0.94484">
        <ele>113</ele>
        <time>2012-01-10T13:19:12Z</time>
      </trkpt>
      <trkpt lat="44.54712" lon="0.94482">
        <ele>116</ele>
        <time>2012-01-10T13:19:14Z</time>
      </trkpt>
      <trkpt lat="44.54712" lon="0.9448">
        <ele>117</ele>
        <time>2012-01-10T13:19:20Z</time>
      </trkpt>
      <trkpt lat="44.54714" lon="0.94477">
        <ele>118</ele>
        <time>2012-01-10T13:19:21Z</time>
      </trkpt>
      <trkpt lat="44.54715" lon="0.94475">
        <ele>119</ele>
        <time>2012-01-10T13:19:21Z</time>
      </trkpt>
      <trkpt lat="44.54717" lon="0.9447">
        <ele>121</ele>
        <time>2012-01-10T13:19:28Z</time>
      </trkpt>
      <trkpt lat="44.5472" lon="0.94468">
        <ele>122</ele>
        <time>2012-01-10T13:19:28Z</time>
      </trkpt>
      <trkpt lat="44.54719" lon="0.94466">
        <ele>123</ele>
        <time>2012-01-10T13:19:30Z</time>
      </trkpt>
      <trkpt lat="44.54721" lon="0.94466">
        <ele>125</ele>
        <time>2012-01-10T13:19:31Z</time>
      </trkpt>
      <trkpt lat="44.54723" lon="0.94464">
        <ele>126</ele>
        <time>2012-01-10T13:19:37Z</time>
      </trkpt>
      <trkpt lat="44.54725" lon="0.94464">
        <ele>127</ele>
        <time>2012-01-10T13:19:37Z</time>
      </trkpt>
      <trkpt lat="44.54726" lon="0.94466">
        <ele>129</ele>
        <time>2012-01-10T13:19:45Z</time>
      </trkpt>
      <trkpt lat="44.54727" lon="0.94467">
        <ele>129</ele>
        <time>2012-01-10T13:19:45Z</time>
      </trkpt>
      <trkpt lat="44.54729" lon="0.94468">
        <ele>129</ele>
        <time>2012-01-10T13:19:54Z</time>
      </trkpt>
      <trkpt lat="44.54728" lon="0.94468">
        <ele>126</ele>
        <time>2012-01-10T13:20:10Z</time>
      </trkpt>
      <trkpt lat="44.54729" lon="0.94468">
        <ele>120</ele>
        <time>2012-01-10T13:20:27Z</time>
      </trkpt>
      <trkpt lat="44.54729" lon="0.94466">
        <ele>119</ele>
        <time>2012-01-10T13:20:27Z</time>
      </trkpt>
      <trkpt lat="44.5473" lon="0.94465">
        <ele>118</ele>
        <time>2012-01-10T13:20:28Z</time>
      </trkpt>
      <trkpt lat="44.5473" lon="0.94463">
        <ele>117</ele>
        <time>2012-01-10T13:20:30Z</time>
      </trkpt>
      <trkpt lat="44.54733" lon="0.94453">
        <ele>117</ele>
        <time>2012-01-10T13:20:35Z</time>
      </trkpt>
      <trkpt lat="44.54735" lon="0.94449">
        <ele>117</ele>
        <time>2012-01-10T13:20:42Z</time>
      </trkpt>
      <trkpt lat="44.54738" lon="0.94442">
        <ele>117</ele>
        <time>2012-01-10T13:20:43Z</time>
      </trkpt>
      <trkpt lat="44.54738" lon="0.9444">
        <ele>118</ele>
        <time>2012-01-10T13:20:44Z</time>
      </trkpt>
      <trkpt lat="44.54739" lon="0.94438">
        <ele>118</ele>
        <time>2012-01-10T13:20:50Z</time>
      </trkpt>
      <trkpt lat="44.54743" lon="0.94431">
        <ele>118</ele>
        <time>2012-01-10T13:20:51Z</time>
      </trkpt>
      <trkpt lat="44.54745" lon="0.94428">
        <ele>118</ele>
        <time>2012-01-10T13:20:57Z</time>
      </trkpt>
      <trkpt lat="44.54748" lon="0.94422">
        <ele>118</ele>
        <time>2012-01-10T13:20:57Z</time>
      </trkpt>
      <trkpt lat="44.54749" lon="0.94419">
        <ele>118</ele>
        <time>2012-01-10T13:21:04Z</time>
      </trkpt>
      <trkpt lat="44.5475" lon="0.94412">
        <ele>118</ele>
        <time>2012-01-10T13:21:04Z</time>
      </trkpt>
      <trkpt lat="44.5475" lon="0.9441">
        <ele>119</ele>
        <time>2012-01-10T13:21:07Z</time>
      </trkpt>
      <trkpt lat="44.54752" lon="0.94407">
        <ele>120</ele>
        <time>2012-01-10T13:21:13Z</time>
      </trkpt>
      <trkpt lat="44.54753" lon="0.94402">
        <ele>122</ele>
        <time>2012-01-10T13:21:14Z</time>
      </trkpt>
      <trkpt lat="44.54755" lon="0.944">
        <ele>126</ele>
        <time>2012-01-10T13:21:15Z</time>
      </trkpt>
      <trkpt lat="44.54756" lon="0.94397">
        <ele>130</ele>
        <time>2012-01-10T13:21:22Z</time>
      </trkpt>
      <trkpt lat="44.54757" lon="0.94395">
        <ele>132</ele>
        <time>2012-01-10T13:21:25Z</time>
      </trkpt>
      <trkpt lat="44.54757" lon="0.94393">
        <ele>133</ele>
        <time>2012-01-10T13:21:30Z</time>
      </trkpt>
      <trkpt lat="44.5476" lon="0.94391">
        <ele>134</ele>
        <time>2012-01-10T13:21:31Z</time>
      </trkpt>
      <trkpt lat="44.54761" lon="0.9439">
        <ele>135</ele>
        <time>2012-01-10T13:21:38Z</time>
      </trkpt>
      <trkpt lat="44.54763" lon="0.94389">
        <ele>135</ele>
        <time>2012-01-10T13:21:39Z</time>
      </trkpt>
      <trkpt lat="44.54765" lon="0.94388">
        <ele>135</ele>
        <time>2012-01-10T13:21:40Z</time>
      </trkpt>
      <trkpt lat="44.5477" lon="0.94381">
        <ele>134</ele>
        <time>2012-01-10T13:21:47Z</time>
      </trkpt>
      <trkpt lat="44.54771" lon="0.94379">
        <ele>133</ele>
        <time>2012-01-10T13:21:48Z</time>
      </trkpt>
      <trkpt lat="44.54771" lon="0.94376">
        <ele>132</ele>
        <time>2012-01-10T13:21:54Z</time>
      </trkpt>
      <trkpt lat="44.54772" lon="0.94371">
        <ele>132</ele>
        <time>2012-01-10T13:21:54Z</time>
      </trkpt>
      <trkpt lat="44.54772" lon="0.94369">
        <ele>132</ele>
        <time>2012-01-10T13:21:57Z</time>
      </trkpt>
      <trkpt lat="44.54772" lon="0.94363">
        <ele>130</ele>
        <time>2012-01-10T13:22:03Z</time>
      </trkpt>
      <trkpt lat="44.54771" lon="0.94365">
        <ele>129</ele>
        <time>2012-01-10T13:22:12Z</time>
      </trkpt>
      <trkpt lat="44.54773" lon="0.94361">
        <ele>129</ele>
        <time>2012-01-10T13:22:12Z</time>
      </trkpt>
      <trkpt lat="44.54774" lon="0.94359">
        <ele>129</ele>
        <time>2012-01-10T13:22:14Z</time>
      </trkpt>
      <trkpt lat="44.54777" lon="0.9435">
        <ele>129</ele>
        <time>2012-01-10T13:22:20Z</time>
      </trkpt>
      <trkpt lat="44.54779" lon="0.94347">
        <ele>130</ele>
        <time>2012-01-10T13:22:26Z</time>
      </trkpt>
      <trkpt lat="44.54782" lon="0.94343">
        <ele>130</ele>
        <time>2012-01-10T13:22:27Z</time>
      </trkpt>
      <trkpt lat="44.54783" lon="0.94341">
        <ele>130</ele>
        <time>2012-01-10T13:22:28Z</time>
      </trkpt>
      <trkpt lat="44.54786" lon="0.94337">
        <ele>130</ele>
        <time>2012-01-10T13:22:33Z</time>
      </trkpt>
      <trkpt lat="44.54787" lon="0.94336">
        <ele>131</ele>
        <time>2012-01-10T13:22:35Z</time>
      </trkpt>
      <trkpt lat="44.54788" lon="0.94334">
        <ele>132</ele>
        <time>2012-01-10T13:22:40Z</time>
      </trkpt>
      <trkpt lat="44.54789" lon="0.9433">
        <ele>133</ele>
        <time>2012-01-10T13:22:41Z</time>
      </trkpt>
      <trkpt lat="44.54789" lon="0.94327">
        <ele>134</ele>
        <time>2012-01-10T13:22:43Z</time>
      </trkpt>
      <trkpt lat="44.54793" lon="0.94324">
        <ele>136</ele>
        <time>2012-01-10T13:22:51Z</time>
      </trkpt>
      <trkpt lat="44.54794" lon="0.94322">
        <ele>137</ele>
        <time>2012-01-10T13:22:52Z</time>
      </trkpt>
      <trkpt lat="44.54798" lon="0.94315">
        <ele>138</ele>
        <time>2012-01-10T13:22:59Z</time>
      </trkpt>
      <trkpt lat="44.54801" lon="0.94314">
        <ele>138</ele>
        <time>2012-01-10T13:23:08Z</time>
      </trkpt>
      <trkpt lat="44.548" lon="0.94311">
        <ele>138</ele>
        <time>2012-01-10T13:23:08Z</time>
      </trkpt>
      <trkpt lat="44.54801" lon="0.94309">
        <ele>139</ele>
        <time>2012-01-10T13:23:11Z</time>
      </trkpt>
      <trkpt lat="44.54802" lon="0.94306">
        <ele>139</ele>
        <time>2012-01-10T13:23:17Z</time>
      </trkpt>
      <trkpt lat="44.54806" lon="0.94301">
        <ele>139</ele>
        <time>2012-01-10T13:23:18Z</time>
      </trkpt>
      <trkpt lat="44.54808" lon="0.94297">
        <ele>139</ele>
        <time>2012-01-10T13:23:23Z</time>
      </trkpt>
      <trkpt lat="44.54813" lon="0.94291">
        <ele>139</ele>
        <time>2012-01-10T13:23:23Z</time>
      </trkpt>
      <trkpt lat="44.54815" lon="0.94289">
        <ele>139</ele>
        <time>2012-01-10T13:23:25Z</time>
      </trkpt>
      <trkpt lat="44.54816" lon="0.94287">
        <ele>139</ele>
        <time>2012-01-10T13:23:25Z</time>
      </trkpt>
      <trkpt lat="44.54817" lon="0.94286">
        <ele>139</ele>
        <time>2012-01-10T13:23:26Z</time>
      </trkpt>
      <trkpt lat="44.5482" lon="0.9428">
        <ele>139</ele>
        <time>2012-01-10T13:23:31Z</time>
      </trkpt>
      <trkpt lat="44.54826" lon="0.94273">
        <ele>139</ele>
        <time>2012-01-10T13:23:32Z</time>
      </trkpt>
      <trkpt lat="44.54828" lon="0.9427">
        <ele>138</ele>
        <time>2012-01-10T13:23:35Z</time>
      </trkpt>
      <trkpt lat="44.54831" lon="0.94266">
        <ele>137</ele>
        <time>2012-01-10T13:23:40Z</time>
      </trkpt>
      <trkpt lat="44.54836" lon="0.94259">
        <ele>137</ele>
        <time>2012-01-10T13:23:40Z</time>
      </trkpt>
      <trkpt lat="44.54839" lon="0.94256">
        <ele>137</ele>
        <time>2012-01-10T13:23:47Z</time>
      </trkpt>
      <trkpt lat="44.54845" lon="0.94248">
        <ele>137</ele>
        <time>2012-01-10T13:23:48Z</time>
      </trkpt>
      <trkpt lat="44.54846" lon="0.94246">
        <ele>137</ele>
        <time>2012-01-10T13:23:49Z</time>
      </trkpt>
      <trkpt lat="44.54848" lon="0.94243">
        <ele>138</ele>
        <time>2012-01-10T13:23:54Z</time>
      </trkpt>
      <trkpt lat="44.54854" lon="0.94235">
        <ele>138</ele>
        <time>2012-01-10T13:23:55Z</time>
      </trkpt>
      <trkpt lat="44.54855" lon="0.94234">
        <ele>138</ele>
        <time>2012-01-10T13:23:56Z</time>
      </trkpt>
      <trkpt lat="44.54858" lon="0.9423">
        <ele>139</ele>
        <time>2012-01-10T13:24:03Z</time>
      </trkpt>
      <trkpt lat="44.54862" lon="0.94224">
        <ele>140</ele>
        <time>2012-01-10T13:24:04Z</time>
      </trkpt>
      <trkpt lat="44.54862" lon="0.94222">
        <ele>141</ele>
        <time>2012-01-10T13:24:05Z</time>
      </trkpt>
      <trkpt lat="44.54864" lon="0.94217">
        <ele>144</ele>
        <time>2012-01-10T13:24:13Z</time>
      </trkpt>
      <trkpt lat="44.54864" lon="0.94214">
        <ele>147</ele>
        <time>2012-01-10T13:24:20Z</time>
      </trkpt>
      <trkpt lat="44.54864" lon="0.94213">
        <ele>148</ele>
        <time>2012-01-10T13:24:21Z</time>
      </trkpt>
      <trkpt lat="44.54865" lon="0.94211">
        <ele>151</ele>
        <time>2012-01-10T13:24:29Z</time>
      </trkpt>
      <trkpt lat="44.54863" lon="0.94212">
        <ele>156</ele>
        <time>2012-01-10T13:24:39Z</time>
      </trkpt>
      <trkpt lat="44.54863" lon="0.94213">
        <ele>158</ele>
        <time>2012-01-10T13:24:41Z</time>
      </trkpt>
      <trkpt lat="44.54862" lon="0.94215">
        <ele>159</ele>
        <time>2012-01-10T13:24:47Z</time>
      </trkpt>
      <trkpt lat="44.54863" lon="0.94215">
        <ele>163</ele>
        <time>2012-01-10T13:25:05Z</time>
      </trkpt>
      <trkpt lat="44.54864" lon="0.94218">
        <ele>163</ele>
        <time>2012-01-10T13:25:13Z</time>
      </trkpt>
      <trkpt lat="44.54867" lon="0.94216">
        <ele>163</ele>
        <time>2012-01-10T13:25:21Z</time>
      </trkpt>
      <trkpt lat="44.5487" lon="0.94212">
        <ele>163</ele>
        <time>2012-01-10T13:25:21Z</time>
      </trkpt>
      <trkpt lat="44.54868" lon="0.9421">
        <ele>166</ele>
        <time>2012-01-10T13:25:29Z</time>
      </trkpt>
      <trkpt lat="44.54866" lon="0.94209">
        <ele>167</ele>
        <time>2012-01-10T13:25:29Z</time>
      </trkpt>
      <trkpt lat="44.54865" lon="0.94209">
        <ele>170</ele>
        <time>2012-01-10T13:25:37Z</time>
      </trkpt>
      <trkpt lat="44.54865" lon="0.94207">
        <ele>172</ele>
        <time>2012-01-10T13:25:38Z</time>
      </trkpt>
      <trkpt lat="44.54865" lon="0.94205">
        <ele>173</ele>
        <time>2012-01-10T13:25:44Z</time>
      </trkpt>
      <trkpt lat="44.54866" lon="0.94203">
        <ele>173</ele>
        <time>2012-01-10T13:25:45Z</time>
      </trkpt>
      <trkpt lat="44.54866" lon="0.94205">
        <ele>173</ele>
        <time>2012-01-10T13:25:47Z</time>
      </trkpt>
      <trkpt lat="44.54865" lon="0.94207">
        <ele>173</ele>
        <time>2012-01-10T13:25:53Z</time>
      </trkpt>
      <trkpt lat="44.54864" lon="0.9421">
        <ele>173</ele>
        <time>2012-01-10T13:25:53Z</time>
      </trkpt>
      <trkpt lat="44.54863" lon="0.94212">
        <ele>173</ele>
        <time>2012-01-10T13:25:54Z</time>
      </trkpt>
      <trkpt lat="44.54865" lon="0.9421">
        <ele>171</ele>
        <time>2012-01-10T13:26:01Z</time>
      </trkpt>
      <trkpt lat="44.54866" lon="0.94212">
        <ele>164</ele>
        <time>2012-01-10T13:26:17Z</time>
      </trkpt>
      <trkpt lat="44.54867" lon="0.94215">
        <ele>164</ele>
        <time>2012-01-10T13:26:25Z</time>
      </trkpt>
      <trkpt lat="44.54868" lon="0.94218">
        <ele>165</ele>
        <time>2012-01-10T13:26:32Z</time>
      </trkpt>
      <trkpt lat="44.54868" lon="0.94217">
        <ele>170</ele>
        <time>2012-01-10T13:26:43Z</time>
      </trkpt>
      <trkpt lat="44.54868" lon="0.94215">
        <ele>170</ele>
        <time>2012-01-10T13:26:50Z</time>
      </trkpt>
      <trkpt lat="44.54868" lon="0.94213">
        <ele>170</ele>
        <time>2012-01-10T13:26:58Z</time>
      </trkpt>
      <trkpt lat="44.5487" lon="0.94211">
        <ele>170</ele>
        <time>2012-01-10T13:27:05Z</time>
      </trkpt>
      <trkpt lat="44.54871" lon="0.94209">
        <ele>172</ele>
        <time>2012-01-10T13:27:14Z</time>
      </trkpt>
      <trkpt lat="44.54872" lon="0.94206">
        <ele>175</ele>
        <time>2012-01-10T13:27:21Z</time>
      </trkpt>
      <trkpt lat="44.54873" lon="0.94204">
        <ele>176</ele>
        <time>2012-01-10T13:27:22Z</time>
      </trkpt>
      <trkpt lat="44.54871" lon="0.94204">
        <ele>180</ele>
        <time>2012-01-10T13:27:29Z</time>
      </trkpt>
      <trkpt lat="44.5487" lon="0.94207">
        <ele>181</ele>
        <time>2012-01-10T13:27:37Z</time>
      </trkpt>
      <trkpt lat="44.54867" lon="0.94212">
        <ele>180</ele>
        <time>2012-01-10T13:27:45Z</time>
      </trkpt>
      <trkpt lat="44.54866" lon="0.94214">
        <ele>177</ele>
        <time>2012-01-10T13:27:52Z</time>
      </trkpt>
      <trkpt lat="44.54866" lon="0.94217">
        <ele>175</ele>
        <time>2012-01-10T13:27:53Z</time>
      </trkpt>
      <trkpt lat="44.54865" lon="0.9422">
        <ele>169</ele>
        <time>2012-01-10T13:28:01Z</time>
      </trkpt>
      <trkpt lat="44.54862" lon="0.94221">
        <ele>165</ele>
        <time>2012-01-10T13:28:08Z</time>
      </trkpt>
      <trkpt lat="44.54861" lon="0.94222">
        <ele>161</ele>
        <time>2012-01-10T13:28:17Z</time>
      </trkpt>
      <trkpt lat="44.54861" lon="0.9422">
        <ele>160</ele>
        <time>2012-01-10T13:28:17Z</time>
      </trkpt>
      <trkpt lat="44.54859" lon="0.94222">
        <ele>160</ele>
        <time>2012-01-10T13:28:25Z</time>
      </trkpt>
      <trkpt lat="44.54857" lon="0.94223">
        <ele>160</ele>
        <time>2012-01-10T13:28:33Z</time>
      </trkpt>
      <trkpt lat="44.54856" lon="0.94225">
        <ele>156</ele>
        <time>2012-01-10T13:28:41Z</time>
      </trkpt>
      <trkpt lat="44.54855" lon="0.94225">
        <ele>149</ele>
        <time>2012-01-10T13:28:57Z</time>
      </trkpt>
      <trkpt lat="44.54854" lon="0.94224">
        <ele>142</ele>
        <time>2012-01-10T13:29:13Z</time>
      </trkpt>
      <trkpt lat="44.54856" lon="0.94224">
        <ele>136</ele>
        <time>2012-01-10T13:29:22Z</time>
      </trkpt>
      <trkpt lat="44.54858" lon="0.94224">
        <ele>134</ele>
        <time>2012-01-10T13:29:24Z</time>
      </trkpt>
      <trkpt lat="44.54859" lon="0.94225">
        <ele>134</ele>
        <time>2012-01-10T13:29:30Z</time>
      </trkpt>
      <trkpt lat="44.54861" lon="0.94228">
        <ele>134</ele>
        <time>2012-01-10T13:29:30Z</time>
      </trkpt>
      <trkpt lat="44.54861" lon="0.94229">
        <ele>135</ele>
        <time>2012-01-10T13:29:32Z</time>
      </trkpt>
      <trkpt lat="44.5486" lon="0.94231">
        <ele>135</ele>
        <time>2012-01-10T13:29:38Z</time>
      </trkpt>
      <trkpt lat="44.54863" lon="0.94229">
        <ele>136</ele>
        <time>2012-01-10T13:29:39Z</time>
      </trkpt>
      <trkpt lat="44.54864" lon="0.94227">
        <ele>138</ele>
        <time>2012-01-10T13:29:41Z</time>
      </trkpt>
      <trkpt lat="44.54865" lon="0.94226">
        <ele>139</ele>
        <time>2012-01-10T13:29:46Z</time>
      </trkpt>
      <trkpt lat="44.54868" lon="0.94222">
        <ele>140</ele>
        <time>2012-01-10T13:29:47Z</time>
      </trkpt>
      <trkpt lat="44.54869" lon="0.9422">
        <ele>144</ele>
        <time>2012-01-10T13:29:54Z</time>
      </trkpt>
      <trkpt lat="44.54871" lon="0.94218">
        <ele>146</ele>
        <time>2012-01-10T13:29:55Z</time>
      </trkpt>
      <trkpt lat="44.5487" lon="0.94219">
        <ele>152</ele>
        <time>2012-01-10T13:30:03Z</time>
      </trkpt>
      <trkpt lat="44.54871" lon="0.9422">
        <ele>156</ele>
        <time>2012-01-10T13:30:20Z</time>
      </trkpt>
      <trkpt lat="44.54872" lon="0.94218">
        <ele>153</ele>
        <time>2012-01-10T13:30:37Z</time>
      </trkpt>
      <trkpt lat="44.54871" lon="0.94216">
        <ele>153</ele>
        <time>2012-01-10T13:30:54Z</time>
      </trkpt>
      <trkpt lat="44.54872" lon="0.94213">
        <ele>153</ele>
        <time>2012-01-10T13:30:57Z</time>
      </trkpt>
      <trkpt lat="44.54873" lon="0.94211">
        <ele>153</ele>
        <time>2012-01-10T13:30:57Z</time>
      </trkpt>
      <trkpt lat="44.54862" lon="0.9419">
        <ele>153</ele>
        <time>2012-01-10T13:31:03Z</time>
      </trkpt>
      <trkpt lat="44.54857" lon="0.94187">
        <ele>153</ele>
        <time>2012-01-10T13:31:04Z</time>
      </trkpt>
      <trkpt lat="44.54852" lon="0.94185">
        <ele>152</ele>
        <time>2012-01-10T13:31:05Z</time>
      </trkpt>
      <trkpt lat="44.54841" lon="0.9418">
        <ele>151</ele>
        <time>2012-01-10T13:31:10Z</time>
      </trkpt>
      <trkpt lat="44.54836" lon="0.94158">
        <ele>150</ele>
        <time>2012-01-10T13:31:11Z</time>
      </trkpt>
      <trkpt lat="44.54839" lon="0.94151">
        <ele>149</ele>
        <time>2012-01-10T13:31:12Z</time>
      </trkpt>
      <trkpt lat="44.54842" lon="0.94143">
        <ele>148</ele>
        <time>2012-01-10T13:31:13Z</time>
      </trkpt>
      <trkpt lat="44.54848" lon="0.94126">
        <ele>147</ele>
        <time>2012-01-10T13:31:18Z</time>
      </trkpt>
      <trkpt lat="44.54841" lon="0.94093">
        <ele>146</ele>
        <time>2012-01-10T13:31:19Z</time>
      </trkpt>
      <trkpt lat="44.54836" lon="0.94087">
        <ele>145</ele>
        <time>2012-01-10T13:31:20Z</time>
      </trkpt>
      <trkpt lat="44.54824" lon="0.94077">
        <ele>143</ele>
        <time>2012-01-10T13:31:27Z</time>
      </trkpt>
      <trkpt lat="44.54805" lon="0.94063">
        <ele>141</ele>
        <time>2012-01-10T13:31:27Z</time>
      </trkpt>
      <trkpt lat="44.54802" lon="0.94059">
        <ele>140</ele>
        <time>2012-01-10T13:31:33Z</time>
      </trkpt>
      <trkpt lat="44.54794" lon="0.94056">
        <ele>138</ele>
        <time>2012-01-10T13:31:38Z</time>
      </trkpt>
      <trkpt lat="44.54786" lon="0.94054">
        <ele>137</ele>
        <time>2012-01-10T13:31:39Z</time>
      </trkpt>
      <trkpt lat="44.54784" lon="0.94053">
        <ele>136</ele>
        <time>2012-01-10T13:31:40Z</time>
      </trkpt>
      <trkpt lat="44.54771" lon="0.94052">
        <ele>135</ele>
        <time>2012-01-10T13:31:45Z</time>
      </trkpt>
      <trkpt lat="44.54769" lon="0.94053">
        <ele>134</ele>
        <time>2012-01-10T13:31:46Z</time>
      </trkpt>
      <trkpt lat="44.54767" lon="0.94053">
        <ele>133</ele>
        <time>2012-01-10T13:31:48Z</time>
      </trkpt>
      <trkpt lat="44.54765" lon="0.94053">
        <ele>132</ele>
        <time>2012-01-10T13:31:49Z</time>
      </trkpt>
      <trkpt lat="44.54762" lon="0.94053">
        <ele>131</ele>
        <time>2012-01-10T13:31:54Z</time>
      </trkpt>
      <trkpt lat="44.54755" lon="0.94054">
        <ele>130</ele>
        <time>2012-01-10T13:31:54Z</time>
      </trkpt>
      <trkpt lat="44.54753" lon="0.94054">
        <ele>129</ele>
        <time>2012-01-10T13:31:56Z</time>
      </trkpt>
      <trkpt lat="44.54749" lon="0.94055">
        <ele>129</ele>
        <time>2012-01-10T13:32:01Z</time>
      </trkpt>
      <trkpt lat="44.54741" lon="0.94056">
        <ele>129</ele>
        <time>2012-01-10T13:32:01Z</time>
      </trkpt>
      <trkpt lat="44.54739" lon="0.94057">
        <ele>129</ele>
        <time>2012-01-10T13:32:02Z</time>
      </trkpt>
      <trkpt lat="44.54733" lon="0.94058">
        <ele>129</ele>
        <time>2012-01-10T13:32:08Z</time>
      </trkpt>
      <trkpt lat="44.54724" lon="0.94059">
        <ele>129</ele>
        <time>2012-01-10T13:32:08Z</time>
      </trkpt>
      <trkpt lat="44.54722" lon="0.94058">
        <ele>129</ele>
        <time>2012-01-10T13:32:09Z</time>
      </trkpt>
      <trkpt lat="44.5472" lon="0.94058">
        <ele>129</ele>
        <time>2012-01-10T13:32:10Z</time>
      </trkpt>
      <trkpt lat="44.54718" lon="0.94054">
        <ele>129</ele>
        <time>2012-01-10T13:32:16Z</time>
      </trkpt>
      <trkpt lat="44.54712" lon="0.94042">
        <ele>129</ele>
        <time>2012-01-10T13:32:17Z</time>
      </trkpt>
      <trkpt lat="44.5471" lon="0.94039">
        <ele>129</ele>
        <time>2012-01-10T13:32:21Z</time>
      </trkpt>
      <trkpt lat="44.5471" lon="0.94042">
        <ele>129</ele>
        <time>2012-01-10T13:32:27Z</time>
      </trkpt>
      <trkpt lat="44.54709" lon="0.94045">
        <ele>129</ele>
        <time>2012-01-10T13:32:36Z</time>
      </trkpt>
      <trkpt lat="44.54707" lon="0.94045">
        <ele>129</ele>
        <time>2012-01-10T13:32:36Z</time>
      </trkpt>
      <trkpt lat="44.54705" lon="0.94044">
        <ele>129</ele>
        <time>2012-01-10T13:32:44Z</time>
      </trkpt>
      <trkpt lat="44.54707" lon="0.94048">
        <ele>131</ele>
        <time>2012-01-10T13:32:52Z</time>
      </trkpt>
      <trkpt lat="44.54717" lon="0.9406">
        <ele>132</ele>
        <time>2012-01-10T13:32:52Z</time>
      </trkpt>
      <trkpt lat="44.5472" lon="0.9406">
        <ele>133</ele>
        <time>2012-01-10T13:32:53Z</time>
      </trkpt>
      <trkpt lat="44.54723" lon="0.94059">
        <ele>134</ele>
        <time>2012-01-10T13:32:54Z</time>
      </trkpt>
      <trkpt lat="44.54729" lon="0.94058">
        <ele>134</ele>
        <time>2012-01-10T13:33:00Z</time>
      </trkpt>
      <trkpt lat="44.5475" lon="0.94054">
        <ele>135</ele>
        <time>2012-01-10T13:33:00Z</time>
      </trkpt>
      <trkpt lat="44.54756" lon="0.94053">
        <ele>135</ele>
        <time>2012-01-10T13:33:01Z</time>
      </trkpt>
      <trkpt lat="44.54772" lon="0.94052">
        <ele>135</ele>
        <time>2012-01-10T13:33:06Z</time>
      </trkpt>
      <trkpt lat="44.54801" lon="0.94062">
        <ele>135</ele>
        <time>2012-01-10T13:33:07Z</time>
      </trkpt>
      <trkpt lat="44.54807" lon="0.94066">
        <ele>135</ele>
        <time>2012-01-10T13:33:08Z</time>
      </trkpt>
      <trkpt lat="44.54813" lon="0.9407">
        <ele>135</ele>
        <time>2012-01-10T13:33:09Z</time>
      </trkpt>
      <trkpt lat="44.54823" lon="0.94076">
        <ele>135</ele>
        <time>2012-01-10T13:33:14Z</time>
      </trkpt>
      <trkpt lat="44.54838" lon="0.94088">
        <ele>134</ele>
        <time>2012-01-10T13:33:15Z</time>
      </trkpt>
      <trkpt lat="44.5484" lon="0.94091">
        <ele>134</ele>
        <time>2012-01-10T13:33:16Z</time>
      </trkpt>
      <trkpt lat="44.54842" lon="0.94094">
        <ele>134</ele>
        <time>2012-01-10T13:33:17Z</time>
      </trkpt>
      <trkpt lat="44.54846" lon="0.94102">
        <ele>134</ele>
        <time>2012-01-10T13:33:22Z</time>
      </trkpt>
      <trkpt lat="44.54847" lon="0.94121">
        <ele>134</ele>
        <time>2012-01-10T13:33:23Z</time>
      </trkpt>
      <trkpt lat="44.54846" lon="0.94124">
        <ele>134</ele>
        <time>2012-01-10T13:33:24Z</time>
      </trkpt>
      <trkpt lat="44.54845" lon="0.94127">
        <ele>134</ele>
        <time>2012-01-10T13:33:25Z</time>
      </trkpt>
      <trkpt lat="44.54843" lon="0.94132">
        <ele>134</ele>
        <time>2012-01-10T13:33:30Z</time>
      </trkpt>
      <trkpt lat="44.54839" lon="0.9414">
        <ele>134</ele>
        <time>2012-01-10T13:33:31Z</time>
      </trkpt>
      <trkpt lat="44.54838" lon="0.94143">
        <ele>134</ele>
        <time>2012-01-10T13:33:32Z</time>
      </trkpt>
      <trkpt lat="44.54836" lon="0.94147">
        <ele>134</ele>
        <time>2012-01-10T13:33:37Z</time>
      </trkpt>
      <trkpt lat="44.54833" lon="0.94158">
        <ele>134</ele>
        <time>2012-01-10T13:33:38Z</time>
      </trkpt>
      <trkpt lat="44.54833" lon="0.94161">
        <ele>134</ele>
        <time>2012-01-10T13:33:39Z</time>
      </trkpt>
      <trkpt lat="44.54833" lon="0.94164">
        <ele>134</ele>
        <time>2012-01-10T13:33:40Z</time>
      </trkpt>
      <trkpt lat="44.54834" lon="0.94166">
        <ele>134</ele>
        <time>2012-01-10T13:33:41Z</time>
      </trkpt>
      <trkpt lat="44.54835" lon="0.94171">
        <ele>134</ele>
        <time>2012-01-10T13:33:46Z</time>
      </trkpt>
      <trkpt lat="44.5484" lon="0.94177">
        <ele>134</ele>
        <time>2012-01-10T13:33:47Z</time>
      </trkpt>
      <trkpt lat="44.54842" lon="0.94178">
        <ele>135</ele>
        <time>2012-01-10T13:33:49Z</time>
      </trkpt>
      <trkpt lat="44.54844" lon="0.94177">
        <ele>136</ele>
        <time>2012-01-10T13:33:55Z</time>
      </trkpt>
      <trkpt lat="44.54845" lon="0.94174">
        <ele>137</ele>
        <time>2012-01-10T13:33:58Z</time>
      </trkpt>
      <trkpt lat="44.54844" lon="0.94173">
        <ele>137</ele>
        <time>2012-01-10T13:34:04Z</time>
      </trkpt>
      <trkpt lat="44.54844" lon="0.94171">
        <ele>137</ele>
        <time>2012-01-10T13:34:06Z</time>
      </trkpt>
      <trkpt lat="44.54846" lon="0.9417">
        <ele>137</ele>
        <time>2012-01-10T13:34:13Z</time>
      </trkpt>
      <trkpt lat="44.54848" lon="0.94168">
        <ele>137</ele>
        <time>2012-01-10T13:34:13Z</time>
      </trkpt>
      <trkpt lat="44.54852" lon="0.94167">
        <ele>137</ele>
        <time>2012-01-10T13:34:22Z</time>
      </trkpt>
      <trkpt lat="44.54853" lon="0.94166">
        <ele>137</ele>
        <time>2012-01-10T13:34:23Z</time>
      </trkpt>
      <trkpt lat="44.54855" lon="0.94165">
        <ele>137</ele>
        <time>2012-01-10T13:34:30Z</time>
      </trkpt>
      <trkpt lat="44.54858" lon="0.94163">
        <ele>137</ele>
        <time>2012-01-10T13:34:31Z</time>
      </trkpt>
      <trkpt lat="44.5486" lon="0.94162">
        <ele>137</ele>
        <time>2012-01-10T13:34:37Z</time>
      </trkpt>
      <trkpt lat="44.54864" lon="0.94159">
        <ele>137</ele>
        <time>2012-01-10T13:34:43Z</time>
      </trkpt>
      <trkpt lat="44.54865" lon="0.94157">
        <ele>139</ele>
        <time>2012-01-10T13:34:46Z</time>
      </trkpt>
      <trkpt lat="44.54867" lon="0.94155">
        <ele>139</ele>
        <time>2012-01-10T13:34:51Z</time>
      </trkpt>
      <trkpt lat="44.5487" lon="0.94151">
        <ele>140</ele>
        <time>2012-01-10T13:34:52Z</time>
      </trkpt>
      <trkpt lat="44.54873" lon="0.94147">
        <ele>140</ele>
        <time>2012-01-10T13:34:58Z</time>
      </trkpt>
      <trkpt lat="44.54875" lon="0.94143">
        <ele>140</ele>
        <time>2012-01-10T13:34:59Z</time>
      </trkpt>
      <trkpt lat="44.54876" lon="0.94142">
        <ele>140</ele>
        <time>2012-01-10T13:35:00Z</time>
      </trkpt>
      <trkpt lat="44.54876" lon="0.9414">
        <ele>140</ele>
        <time>2012-01-10T13:35:01Z</time>
      </trkpt>
      <trkpt lat="44.54877" lon="0.94138">
        <ele>140</ele>
        <time>2012-01-10T13:35:07Z</time>
      </trkpt>
      <trkpt lat="44.54879" lon="0.94135">
        <ele>140</ele>
        <time>2012-01-10T13:35:07Z</time>
      </trkpt>
      <trkpt lat="44.54881" lon="0.94134">
        <ele>140</ele>
        <time>2012-01-10T13:35:09Z</time>
      </trkpt>
      <trkpt lat="44.54882" lon="0.94132">
        <ele>140</ele>
        <time>2012-01-10T13:35:15Z</time>
      </trkpt>
      <trkpt lat="44.54884" lon="0.94129">
        <ele>140</ele>
        <time>2012-01-10T13:35:15Z</time>
      </trkpt>
      <trkpt lat="44.54886" lon="0.94127">
        <ele>140</ele>
        <time>2012-01-10T13:35:22Z</time>
      </trkpt>
      <trkpt lat="44.54889" lon="0.94124">
        <ele>140</ele>
        <time>2012-01-10T13:35:23Z</time>
      </trkpt>
      <trkpt lat="44.5489" lon="0.94124">
        <ele>140</ele>
        <time>2012-01-10T13:35:24Z</time>
      </trkpt>
      <trkpt lat="44.54892" lon="0.94121">
        <ele>140</ele>
        <time>2012-01-10T13:35:31Z</time>
      </trkpt>
      <trkpt lat="44.54893" lon="0.94119">
        <ele>140</ele>
        <time>2012-01-10T13:35:31Z</time>
      </trkpt>
      <trkpt lat="44.54894" lon="0.94117">
        <ele>140</ele>
        <time>2012-01-10T13:35:39Z</time>
      </trkpt>
      <trkpt lat="44.54895" lon="0.94114">
        <ele>140</ele>
        <time>2012-01-10T13:35:40Z</time>
      </trkpt>
      <trkpt lat="44.54898" lon="0.94113">
        <ele>140</ele>
        <time>2012-01-10T13:35:47Z</time>
      </trkpt>
      <trkpt lat="44.549" lon="0.94111">
        <ele>140</ele>
        <time>2012-01-10T13:35:55Z</time>
      </trkpt>
      <trkpt lat="44.54901" lon="0.9411">
        <ele>140</ele>
        <time>2012-01-10T13:35:56Z</time>
      </trkpt>
      <trkpt lat="44.54903" lon="0.94106">
        <ele>140</ele>
        <time>2012-01-10T13:36:05Z</time>
      </trkpt>
      <trkpt lat="44.54904" lon="0.94105">
        <ele>143</ele>
        <time>2012-01-10T13:36:13Z</time>
      </trkpt>
      <trkpt lat="44.54905" lon="0.94105">
        <ele>144</ele>
        <time>2012-01-10T13:36:15Z</time>
      </trkpt>
      <trkpt lat="44.54906" lon="0.94103">
        <ele>144</ele>
        <time>2012-01-10T13:36:22Z</time>
      </trkpt>
      <trkpt lat="44.54907" lon="0.94097">
        <ele>145</ele>
        <time>2012-01-10T13:36:23Z</time>
      </trkpt>
      <trkpt lat="44.54908" lon="0.94095">
        <ele>145</ele>
        <time>2012-01-10T13:36:24Z</time>
      </trkpt>
      <trkpt lat="44.54908" lon="0.94093">
        <ele>145</ele>
        <time>2012-01-10T13:36:31Z</time>
      </trkpt>
      <trkpt lat="44.54906" lon="0.94092">
        <ele>146</ele>
        <time>2012-01-10T13:36:33Z</time>
      </trkpt>
      <trkpt lat="44.54903" lon="0.94084">
        <ele>146</ele>
        <time>2012-01-10T13:36:41Z</time>
      </trkpt>
      <trkpt lat="44.54902" lon="0.94081">
        <ele>146</ele>
        <time>2012-01-10T13:36:48Z</time>
      </trkpt>
      <trkpt lat="44.54902" lon="0.94078">
        <ele>146</ele>
        <time>2012-01-10T13:36:49Z</time>
      </trkpt>
      <trkpt lat="44.54898" lon="0.94074">
        <ele>146</ele>
        <time>2012-01-10T13:36:58Z</time>
      </trkpt>
      <trkpt lat="44.54898" lon="0.94073">
        <ele>146</ele>
        <time>2012-01-10T13:36:59Z</time>
      </trkpt>
      <trkpt lat="44.54896" lon="0.9407">
        <ele>146</ele>
        <time>2012-01-10T13:37:00Z</time>
      </trkpt>
      <trkpt lat="44.54895" lon="0.94067">
        <ele>146</ele>
        <time>2012-01-10T13:37:06Z</time>
      </trkpt>
      <trkpt lat="44.54895" lon="0.94061">
        <ele>146</ele>
        <time>2012-01-10T13:37:07Z</time>
      </trkpt>
      <trkpt lat="44.54894" lon="0.94058">
        <ele>146</ele>
        <time>2012-01-10T13:37:12Z</time>
      </trkpt>
      <trkpt lat="44.54894" lon="0.94053">
        <ele>146</ele>
        <time>2012-01-10T13:37:13Z</time>
      </trkpt>
      <trkpt lat="44.54895" lon="0.94051">
        <ele>146</ele>
        <time>2012-01-10T13:37:15Z</time>
      </trkpt>
      <trkpt lat="44.54897" lon="0.94048">
        <ele>146</ele>
        <time>2012-01-10T13:37:21Z</time>
      </trkpt>
      <trkpt lat="44.54899" lon="0.94045">
        <ele>146</ele>
        <time>2012-01-10T13:37:22Z</time>
      </trkpt>
      <trkpt lat="44.549" lon="0.94042">
        <ele>146</ele>
        <time>2012-01-10T13:37:24Z</time>
      </trkpt>
      <trkpt lat="44.54902" lon="0.94039">
        <ele>145</ele>
        <time>2012-01-10T13:37:31Z</time>
      </trkpt>
      <trkpt lat="44.54902" lon="0.94037">
        <ele>145</ele>
        <time>2012-01-10T13:37:33Z</time>
      </trkpt>
      <trkpt lat="44.54903" lon="0.94034">
        <ele>145</ele>
        <time>2012-01-10T13:37:40Z</time>
      </trkpt>
      <trkpt lat="44.54903" lon="0.94032">
        <ele>145</ele>
        <time>2012-01-10T13:37:42Z</time>
      </trkpt>
      <trkpt lat="44.54904" lon="0.94034">
        <ele>145</ele>
        <time>2012-01-10T13:37:49Z</time>
      </trkpt>
      <trkpt lat="44.54905" lon="0.94034">
        <ele>145</ele>
        <time>2012-01-10T13:37:50Z</time>
      </trkpt>
      <trkpt lat="44.54906" lon="0.94032">
        <ele>145</ele>
        <time>2012-01-10T13:37:59Z</time>
      </trkpt>
      <trkpt lat="44.54906" lon="0.94029">
        <ele>145</ele>
        <time>2012-01-10T13:38:00Z</time>
      </trkpt>
      <trkpt lat="44.54908" lon="0.94027">
        <ele>145</ele>
        <time>2012-01-10T13:38:07Z</time>
      </trkpt>
      <trkpt lat="44.54911" lon="0.94024">
        <ele>145</ele>
        <time>2012-01-10T13:38:08Z</time>
      </trkpt>
      <trkpt lat="44.54912" lon="0.9402">
        <ele>145</ele>
        <time>2012-01-10T13:38:15Z</time>
      </trkpt>
      <trkpt lat="44.54913" lon="0.94014">
        <ele>145</ele>
        <time>2012-01-10T13:38:16Z</time>
      </trkpt>
      <trkpt lat="44.54914" lon="0.94012">
        <ele>146</ele>
        <time>2012-01-10T13:38:19Z</time>
      </trkpt>
      <trkpt lat="44.54916" lon="0.9401">
        <ele>146</ele>
        <time>2012-01-10T13:38:24Z</time>
      </trkpt>
      <trkpt lat="44.54918" lon="0.94004">
        <ele>146</ele>
        <time>2012-01-10T13:38:25Z</time>
      </trkpt>
      <trkpt lat="44.54919" lon="0.94002">
        <ele>146</ele>
        <time>2012-01-10T13:38:31Z</time>
      </trkpt>
      <trkpt lat="44.5492" lon="0.94">
        <ele>146</ele>
        <time>2012-01-10T13:38:32Z</time>
      </trkpt>
      <trkpt lat="44.54922" lon="0.94">
        <ele>146</ele>
        <time>2012-01-10T13:38:42Z</time>
      </trkpt>
      <trkpt lat="44.54922" lon="0.93994">
        <ele>146</ele>
        <time>2012-01-10T13:38:43Z</time>
      </trkpt>
      <trkpt lat="44.54922" lon="0.93992">
        <ele>146</ele>
        <time>2012-01-10T13:38:45Z</time>
      </trkpt>
      <trkpt lat="44.54922" lon="0.9399">
        <ele>146</ele>
        <time>2012-01-10T13:38:50Z</time>
      </trkpt>
      <trkpt lat="44.54922" lon="0.93984">
        <ele>146</ele>
        <time>2012-01-10T13:38:51Z</time>
      </trkpt>
      <trkpt lat="44.54922" lon="0.93982">
        <ele>147</ele>
        <time>2012-01-10T13:38:53Z</time>
      </trkpt>
      <trkpt lat="44.54923" lon="0.9398">
        <ele>147</ele>
        <time>2012-01-10T13:38:59Z</time>
      </trkpt>
      <trkpt lat="44.54924" lon="0.93977">
        <ele>147</ele>
        <time>2012-01-10T13:39:00Z</time>
      </trkpt>
      <trkpt lat="44.54925" lon="0.93975">
        <ele>147</ele>
        <time>2012-01-10T13:39:08Z</time>
      </trkpt>
      <trkpt lat="44.54926" lon="0.93971">
        <ele>147</ele>
        <time>2012-01-10T13:39:09Z</time>
      </trkpt>
      <trkpt lat="44.54926" lon="0.93968">
        <ele>147</ele>
        <time>2012-01-10T13:39:17Z</time>
      </trkpt>
      <trkpt lat="44.54926" lon="0.93963">
        <ele>147</ele>
        <time>2012-01-10T13:39:18Z</time>
      </trkpt>
      <trkpt lat="44.54926" lon="0.93961">
        <ele>147</ele>
        <time>2012-01-10T13:39:20Z</time>
      </trkpt>
      <trkpt lat="44.54925" lon="0.93958">
        <ele>147</ele>
        <time>2012-01-10T13:39:27Z</time>
      </trkpt>
      <trkpt lat="44.54924" lon="0.93954">
        <ele>148</ele>
        <time>2012-01-10T13:39:27Z</time>
      </trkpt>
      <trkpt lat="44.54924" lon="0.93953">
        <ele>148</ele>
        <time>2012-01-10T13:39:29Z</time>
      </trkpt>
      <trkpt lat="44.54923" lon="0.93951">
        <ele>148</ele>
        <time>2012-01-10T13:39:35Z</time>
      </trkpt>
      <trkpt lat="44.54924" lon="0.93949">
        <ele>148</ele>
        <time>2012-01-10T13:39:36Z</time>
      </trkpt>
      <trkpt lat="44.54922" lon="0.93945">
        <ele>148</ele>
        <time>2012-01-10T13:39:43Z</time>
      </trkpt>
      <trkpt lat="44.54922" lon="0.93941">
        <ele>148</ele>
        <time>2012-01-10T13:39:45Z</time>
      </trkpt>
      <trkpt lat="44.54924" lon="0.93938">
        <ele>149</ele>
        <time>2012-01-10T13:39:52Z</time>
      </trkpt>
      <trkpt lat="44.54923" lon="0.93934">
        <ele>150</ele>
        <time>2012-01-10T13:39:53Z</time>
      </trkpt>
      <trkpt lat="44.54923" lon="0.93932">
        <ele>151</ele>
        <time>2012-01-10T13:39:54Z</time>
      </trkpt>
      <trkpt lat="44.54922" lon="0.9393">
        <ele>152</ele>
        <time>2012-01-10T13:39:56Z</time>
      </trkpt>
      <trkpt lat="44.54921" lon="0.93932">
        <ele>152</ele>
        <time>2012-01-10T13:40:03Z</time>
      </trkpt>
      <trkpt lat="44.54922" lon="0.93925">
        <ele>152</ele>
        <time>2012-01-10T13:40:10Z</time>
      </trkpt>
      <trkpt lat="44.54922" lon="0.93923">
        <ele>152</ele>
        <time>2012-01-10T13:40:12Z</time>
      </trkpt>
      <trkpt lat="44.54923" lon="0.93921">
        <ele>152</ele>
        <time>2012-01-10T13:40:19Z</time>
      </trkpt>
      <trkpt lat="44.54926" lon="0.93919">
        <ele>152</ele>
        <time>2012-01-10T13:40:20Z</time>
      </trkpt>
      <trkpt lat="44.54927" lon="0.93918">
        <ele>152</ele>
        <time>2012-01-10T13:40:27Z</time>
      </trkpt>
      <trkpt lat="44.5493" lon="0.93916">
        <ele>152</ele>
        <time>2012-01-10T13:40:28Z</time>
      </trkpt>
      <trkpt lat="44.54932" lon="0.93915">
        <ele>152</ele>
        <time>2012-01-10T13:40:45Z</time>
      </trkpt>
      <trkpt lat="44.54932" lon="0.93914">
        <ele>152</ele>
        <time>2012-01-10T13:40:47Z</time>
      </trkpt>
      <trkpt lat="44.54932" lon="0.93912">
        <ele>152</ele>
        <time>2012-01-10T13:40:54Z</time>
      </trkpt>
      <trkpt lat="44.54929" lon="0.93908">
        <ele>152</ele>
        <time>2012-01-10T13:40:55Z</time>
      </trkpt>
      <trkpt lat="44.54928" lon="0.93906">
        <ele>152</ele>
        <time>2012-01-10T13:40:57Z</time>
      </trkpt>
      <trkpt lat="44.54927" lon="0.93904">
        <ele>152</ele>
        <time>2012-01-10T13:41:03Z</time>
      </trkpt>
      <trkpt lat="44.54929" lon="0.93898">
        <ele>152</ele>
        <time>2012-01-10T13:41:04Z</time>
      </trkpt>
      <trkpt lat="44.54931" lon="0.93896">
        <ele>152</ele>
        <time>2012-01-10T13:41:05Z</time>
      </trkpt>
      <trkpt lat="44.54933" lon="0.93889">
        <ele>153</ele>
        <time>2012-01-10T13:41:12Z</time>
      </trkpt>
      <trkpt lat="44.54934" lon="0.93887">
        <ele>154</ele>
        <time>2012-01-10T13:41:14Z</time>
      </trkpt>
      <trkpt lat="44.54937" lon="0.93881">
        <ele>154</ele>
        <time>2012-01-10T13:41:21Z</time>
      </trkpt>
      <trkpt lat="44.54939" lon="0.9388">
        <ele>154</ele>
        <time>2012-01-10T13:41:23Z</time>
      </trkpt>
      <trkpt lat="44.54943" lon="0.93878">
        <ele>154</ele>
        <time>2012-01-10T13:41:29Z</time>
      </trkpt>
      <trkpt lat="44.54944" lon="0.93878">
        <ele>154</ele>
        <time>2012-01-10T13:41:31Z</time>
      </trkpt>
      <trkpt lat="44.54945" lon="0.93876">
        <ele>154</ele>
        <time>2012-01-10T13:41:37Z</time>
      </trkpt>
      <trkpt lat="44.54946" lon="0.93874">
        <ele>154</ele>
        <time>2012-01-10T13:41:39Z</time>
      </trkpt>
      <trkpt lat="44.54948" lon="0.93872">
        <ele>155</ele>
        <time>2012-01-10T13:41:45Z</time>
      </trkpt>
      <trkpt lat="44.5495" lon="0.93867">
        <ele>155</ele>
        <time>2012-01-10T13:41:45Z</time>
      </trkpt>
      <trkpt lat="44.54952" lon="0.93867">
        <ele>155</ele>
        <time>2012-01-10T13:41:47Z</time>
      </trkpt>
      <trkpt lat="44.54954" lon="0.93866">
        <ele>155</ele>
        <time>2012-01-10T13:41:52Z</time>
      </trkpt>
      <trkpt lat="44.54958" lon="0.93863">
        <ele>155</ele>
        <time>2012-01-10T13:41:53Z</time>
      </trkpt>
      <trkpt lat="44.54959" lon="0.93861">
        <ele>155</ele>
        <time>2012-01-10T13:41:54Z</time>
      </trkpt>
      <trkpt lat="44.54963" lon="0.93852">
        <ele>155</ele>
        <time>2012-01-10T13:42:02Z</time>
      </trkpt>
      <trkpt lat="44.54964" lon="0.9385">
        <ele>155</ele>
        <time>2012-01-10T13:42:03Z</time>
      </trkpt>
      <trkpt lat="44.54966" lon="0.93847">
        <ele>155</ele>
        <time>2012-01-10T13:42:09Z</time>
      </trkpt>
      <trkpt lat="44.54968" lon="0.93846">
        <ele>155</ele>
        <time>2012-01-10T13:42:10Z</time>
      </trkpt>
      <trkpt lat="44.54969" lon="0.93845">
        <ele>155</ele>
        <time>2012-01-10T13:42:22Z</time>
      </trkpt>
      <trkpt lat="44.54972" lon="0.93845">
        <ele>155</ele>
        <time>2012-01-10T13:42:27Z</time>
      </trkpt>
      <trkpt lat="44.54982" lon="0.93848">
        <ele>155</ele>
        <time>2012-01-10T13:42:28Z</time>
      </trkpt>
      <trkpt lat="44.54984" lon="0.93849">
        <ele>155</ele>
        <time>2012-01-10T13:42:29Z</time>
      </trkpt>
      <trkpt lat="44.54988" lon="0.9385">
        <ele>155</ele>
        <time>2012-01-10T13:42:35Z</time>
      </trkpt>
      <trkpt lat="44.54996" lon="0.93851">
        <ele>155</ele>
        <time>2012-01-10T13:42:35Z</time>
      </trkpt>
      <trkpt lat="44.54998" lon="0.93852">
        <ele>155</ele>
        <time>2012-01-10T13:42:36Z</time>
      </trkpt>
      <trkpt lat="44.55003" lon="0.93854">
        <ele>155</ele>
        <time>2012-01-10T13:42:42Z</time>
      </trkpt>
      <trkpt lat="44.55011" lon="0.93856">
        <ele>155</ele>
        <time>2012-01-10T13:42:42Z</time>
      </trkpt>
      <trkpt lat="44.55013" lon="0.93858">
        <ele>155</ele>
        <time>2012-01-10T13:42:43Z</time>
      </trkpt>
      <trkpt lat="44.55018" lon="0.9386">
        <ele>155</ele>
        <time>2012-01-10T13:42:49Z</time>
      </trkpt>
      <trkpt lat="44.55028" lon="0.93865">
        <ele>155</ele>
        <time>2012-01-10T13:42:49Z</time>
      </trkpt>
      <trkpt lat="44.5503" lon="0.93866">
        <ele>155</ele>
        <time>2012-01-10T13:42:50Z</time>
      </trkpt>
      <trkpt lat="44.55036" lon="0.93868">
        <ele>155</ele>
        <time>2012-01-10T13:42:56Z</time>
      </trkpt>
      <trkpt lat="44.55049" lon="0.93874">
        <ele>155</ele>
        <time>2012-01-10T13:42:56Z</time>
      </trkpt>
      <trkpt lat="44.55052" lon="0.93876">
        <ele>155</ele>
        <time>2012-01-10T13:42:57Z</time>
      </trkpt>
      <trkpt lat="44.55059" lon="0.93879">
        <ele>155</ele>
        <time>2012-01-10T13:43:03Z</time>
      </trkpt>
      <trkpt lat="44.55074" lon="0.93887">
        <ele>155</ele>
        <time>2012-01-10T13:43:03Z</time>
      </trkpt>
      <trkpt lat="44.55077" lon="0.93889">
        <ele>155</ele>
        <time>2012-01-10T13:43:04Z</time>
      </trkpt>
      <trkpt lat="44.55085" lon="0.93892">
        <ele>155</ele>
        <time>2012-01-10T13:43:10Z</time>
      </trkpt>
      <trkpt lat="44.55099" lon="0.93897">
        <ele>155</ele>
        <time>2012-01-10T13:43:10Z</time>
      </trkpt>
      <trkpt lat="44.55102" lon="0.93898">
        <ele>155</ele>
        <time>2012-01-10T13:43:11Z</time>
      </trkpt>
      <trkpt lat="44.55125" lon="0.93906">
        <ele>155</ele>
        <time>2012-01-10T13:43:17Z</time>
      </trkpt>
      <trkpt lat="44.55128" lon="0.93908">
        <ele>155</ele>
        <time>2012-01-10T13:43:18Z</time>
      </trkpt>
      <trkpt lat="44.55149" lon="0.93917">
        <ele>155</ele>
        <time>2012-01-10T13:43:24Z</time>
      </trkpt>
      <trkpt lat="44.55153" lon="0.93919">
        <ele>155</ele>
        <time>2012-01-10T13:43:25Z</time>
      </trkpt>
      <trkpt lat="44.55178" lon="0.93924">
        <ele>155</ele>
        <time>2012-01-10T13:43:31Z</time>
      </trkpt>
      <trkpt lat="44.55183" lon="0.93925">
        <ele>155</ele>
        <time>2012-01-10T13:43:32Z</time>
      </trkpt>
      <trkpt lat="44.55188" lon="0.93924">
        <ele>155</ele>
        <time>2012-01-10T13:43:33Z</time>
      </trkpt>
      <trkpt lat="44.55198" lon="0.93921">
        <ele>155</ele>
        <time>2012-01-10T13:43:38Z</time>
      </trkpt>
      <trkpt lat="44.55219" lon="0.93914">
        <ele>155</ele>
        <time>2012-01-10T13:43:39Z</time>
      </trkpt>
      <trkpt lat="44.55224" lon="0.93912">
        <ele>155</ele>
        <time>2012-01-10T13:43:40Z</time>
      </trkpt>
      <trkpt lat="44.55235" lon="0.9391">
        <ele>155</ele>
        <time>2012-01-10T13:43:45Z</time>
      </trkpt>
      <trkpt lat="44.55254" lon="0.93911">
        <ele>155</ele>
        <time>2012-01-10T13:43:46Z</time>
      </trkpt>
      <trkpt lat="44.55259" lon="0.93912">
        <ele>155</ele>
        <time>2012-01-10T13:43:47Z</time>
      </trkpt>
      <trkpt lat="44.55269" lon="0.93913">
        <ele>155</ele>
        <time>2012-01-10T13:43:52Z</time>
      </trkpt>
      <trkpt lat="44.55283" lon="0.93925">
        <ele>155</ele>
        <time>2012-01-10T13:43:53Z</time>
      </trkpt>
      <trkpt lat="44.55286" lon="0.93929">
        <ele>155</ele>
        <time>2012-01-10T13:43:54Z</time>
      </trkpt>
      <trkpt lat="44.55288" lon="0.93933">
        <ele>155</ele>
        <time>2012-01-10T13:43:56Z</time>
      </trkpt>
      <trkpt lat="44.55302" lon="0.93959">
        <ele>156</ele>
        <time>2012-01-10T13:44:01Z</time>
      </trkpt>
      <trkpt lat="44.55304" lon="0.93963">
        <ele>157</ele>
        <time>2012-01-10T13:44:02Z</time>
      </trkpt>
      <trkpt lat="44.5532" lon="0.93977">
        <ele>158</ele>
        <time>2012-01-10T13:44:08Z</time>
      </trkpt>
      <trkpt lat="44.55324" lon="0.93977">
        <ele>159</ele>
        <time>2012-01-10T13:44:09Z</time>
      </trkpt>
      <trkpt lat="44.55327" lon="0.93977">
        <ele>160</ele>
        <time>2012-01-10T13:44:10Z</time>
      </trkpt>
      <trkpt lat="44.55334" lon="0.93976">
        <ele>161</ele>
        <time>2012-01-10T13:44:17Z</time>
      </trkpt>
      <trkpt lat="44.5535" lon="0.93968">
        <ele>162</ele>
        <time>2012-01-10T13:44:17Z</time>
      </trkpt>
      <trkpt lat="44.55353" lon="0.93966">
        <ele>162</ele>
        <time>2012-01-10T13:44:18Z</time>
      </trkpt>
      <trkpt lat="44.55359" lon="0.93962">
        <ele>163</ele>
        <time>2012-01-10T13:44:24Z</time>
      </trkpt>
      <trkpt lat="44.55371" lon="0.93953">
        <ele>164</ele>
        <time>2012-01-10T13:44:24Z</time>
      </trkpt>
      <trkpt lat="44.55375" lon="0.93951">
        <ele>164</ele>
        <time>2012-01-10T13:44:25Z</time>
      </trkpt>
      <trkpt lat="44.55381" lon="0.93946">
        <ele>164</ele>
        <time>2012-01-10T13:44:31Z</time>
      </trkpt>
      <trkpt lat="44.55394" lon="0.93937">
        <ele>165</ele>
        <time>2012-01-10T13:44:31Z</time>
      </trkpt>
      <trkpt lat="44.55397" lon="0.93935">
        <ele>166</ele>
        <time>2012-01-10T13:44:32Z</time>
      </trkpt>
      <trkpt lat="44.55402" lon="0.9393">
        <ele>167</ele>
        <time>2012-01-10T13:44:38Z</time>
      </trkpt>
      <trkpt lat="44.55412" lon="0.93921">
        <ele>168</ele>
        <time>2012-01-10T13:44:38Z</time>
      </trkpt>
      <trkpt lat="44.55414" lon="0.93918">
        <ele>169</ele>
        <time>2012-01-10T13:44:39Z</time>
      </trkpt>
      <trkpt lat="44.55416" lon="0.93916">
        <ele>170</ele>
        <time>2012-01-10T13:44:41Z</time>
      </trkpt>
      <trkpt lat="44.55423" lon="0.93907">
        <ele>171</ele>
        <time>2012-01-10T13:44:46Z</time>
      </trkpt>
      <trkpt lat="44.55431" lon="0.93894">
        <ele>172</ele>
        <time>2012-01-10T13:44:47Z</time>
      </trkpt>
      <trkpt lat="44.55436" lon="0.93888">
        <ele>173</ele>
        <time>2012-01-10T13:44:52Z</time>
      </trkpt>
      <trkpt lat="44.55443" lon="0.93878">
        <ele>174</ele>
        <time>2012-01-10T13:44:53Z</time>
      </trkpt>
      <trkpt lat="44.55445" lon="0.93875">
        <ele>175</ele>
        <time>2012-01-10T13:44:54Z</time>
      </trkpt>
      <trkpt lat="44.55449" lon="0.9387">
        <ele>175</ele>
        <time>2012-01-10T13:44:59Z</time>
      </trkpt>
      <trkpt lat="44.55454" lon="0.93861">
        <ele>175</ele>
        <time>2012-01-10T13:45:00Z</time>
      </trkpt>
      <trkpt lat="44.55456" lon="0.93858">
        <ele>175</ele>
        <time>2012-01-10T13:45:01Z</time>
      </trkpt>
      <trkpt lat="44.55459" lon="0.93853">
        <ele>175</ele>
        <time>2012-01-10T13:45:07Z</time>
      </trkpt>
      <trkpt lat="44.55466" lon="0.93842">
        <ele>175</ele>
        <time>2012-01-10T13:45:07Z</time>
      </trkpt>
      <trkpt lat="44.55468" lon="0.93839">
        <ele>175</ele>
        <time>2012-01-10T13:45:08Z</time>
      </trkpt>
      <trkpt lat="44.5547" lon="0.93834">
        <ele>175</ele>
        <time>2012-01-10T13:45:14Z</time>
      </trkpt>
      <trkpt lat="44.55476" lon="0.93827">
        <ele>175</ele>
        <time>2012-01-10T13:45:14Z</time>
      </trkpt>
      <trkpt lat="44.55477" lon="0.93825">
        <ele>175</ele>
        <time>2012-01-10T13:45:15Z</time>
      </trkpt>
      <trkpt lat="44.55479" lon="0.93824">
        <ele>175</ele>
        <time>2012-01-10T13:45:16Z</time>
      </trkpt>
      <trkpt lat="44.5548" lon="0.93821">
        <ele>175</ele>
        <time>2012-01-10T13:45:22Z</time>
      </trkpt>
      <trkpt lat="44.55482" lon="0.93819">
        <ele>176</ele>
        <time>2012-01-10T13:45:22Z</time>
      </trkpt>
      <trkpt lat="44.55484" lon="0.93819">
        <ele>179</ele>
        <time>2012-01-10T13:45:31Z</time>
      </trkpt>
      <trkpt lat="44.55484" lon="0.9382">
        <ele>183</ele>
        <time>2012-01-10T13:45:49Z</time>
      </trkpt>
      <trkpt lat="44.55483" lon="0.93823">
        <ele>182</ele>
        <time>2012-01-10T13:45:57Z</time>
      </trkpt>
      <trkpt lat="44.55484" lon="0.93824">
        <ele>180</ele>
        <time>2012-01-10T13:46:15Z</time>
      </trkpt>
      <trkpt lat="44.55486" lon="0.93826">
        <ele>180</ele>
        <time>2012-01-10T13:46:26Z</time>
      </trkpt>
      <trkpt lat="44.55486" lon="0.93827">
        <ele>180</ele>
        <time>2012-01-10T13:46:32Z</time>
      </trkpt>
      <trkpt lat="44.55487" lon="0.9383">
        <ele>180</ele>
        <time>2012-01-10T13:46:33Z</time>
      </trkpt>
      <trkpt lat="44.55488" lon="0.93831">
        <ele>181</ele>
        <time>2012-01-10T13:46:41Z</time>
      </trkpt>
      <trkpt lat="44.55487" lon="0.93829">
        <ele>184</ele>
        <time>2012-01-10T13:47:08Z</time>
      </trkpt>
      <trkpt lat="44.55486" lon="0.93831">
        <ele>184</ele>
        <time>2012-01-10T13:47:17Z</time>
      </trkpt>
      <trkpt lat="44.55486" lon="0.9383">
        <ele>185</ele>
        <time>2012-01-10T13:47:34Z</time>
      </trkpt>
      <trkpt lat="44.55487" lon="0.93828">
        <ele>185</ele>
        <time>2012-01-10T13:47:36Z</time>
      </trkpt>
      <trkpt lat="44.55497" lon="0.93811">
        <ele>185</ele>
        <time>2012-01-10T13:47:42Z</time>
      </trkpt>
      <trkpt lat="44.555" lon="0.93807">
        <ele>185</ele>
        <time>2012-01-10T13:47:43Z</time>
      </trkpt>
      <trkpt lat="44.55505" lon="0.938">
        <ele>185</ele>
        <time>2012-01-10T13:47:49Z</time>
      </trkpt>
      <trkpt lat="44.55514" lon="0.93785">
        <ele>185</ele>
        <time>2012-01-10T13:47:49Z</time>
      </trkpt>
      <trkpt lat="44.55516" lon="0.9378">
        <ele>185</ele>
        <time>2012-01-10T13:47:50Z</time>
      </trkpt>
      <trkpt lat="44.5552" lon="0.9377">
        <ele>185</ele>
        <time>2012-01-10T13:47:57Z</time>
      </trkpt>
      <trkpt lat="44.55528" lon="0.93743">
        <ele>185</ele>
        <time>2012-01-10T13:47:57Z</time>
      </trkpt>
      <trkpt lat="44.5553" lon="0.93738">
        <ele>185</ele>
        <time>2012-01-10T13:47:59Z</time>
      </trkpt>
      <trkpt lat="44.55539" lon="0.93696">
        <ele>185</ele>
        <time>2012-01-10T13:48:04Z</time>
      </trkpt>
      <trkpt lat="44.55542" lon="0.93688">
        <ele>184</ele>
        <time>2012-01-10T13:48:05Z</time>
      </trkpt>
      <trkpt lat="44.55562" lon="0.93643">
        <ele>183</ele>
        <time>2012-01-10T13:48:11Z</time>
      </trkpt>
      <trkpt lat="44.55566" lon="0.93639">
        <ele>182</ele>
        <time>2012-01-10T13:48:12Z</time>
      </trkpt>
      <trkpt lat="44.55569" lon="0.93635">
        <ele>181</ele>
        <time>2012-01-10T13:48:14Z</time>
      </trkpt>
      <trkpt lat="44.55585" lon="0.93619">
        <ele>180</ele>
        <time>2012-01-10T13:48:19Z</time>
      </trkpt>
      <trkpt lat="44.55587" lon="0.93617">
        <ele>180</ele>
        <time>2012-01-10T13:48:20Z</time>
      </trkpt>
      <trkpt lat="44.5559" lon="0.93615">
        <ele>180</ele>
        <time>2012-01-10T13:48:26Z</time>
      </trkpt>
      <trkpt lat="44.55597" lon="0.93612">
        <ele>180</ele>
        <time>2012-01-10T13:48:27Z</time>
      </trkpt>
      <trkpt lat="44.55598" lon="0.93612">
        <ele>180</ele>
        <time>2012-01-10T13:48:28Z</time>
      </trkpt>
      <trkpt lat="44.556" lon="0.93611">
        <ele>181</ele>
        <time>2012-01-10T13:48:29Z</time>
      </trkpt>
      <trkpt lat="44.55602" lon="0.93609">
        <ele>182</ele>
        <time>2012-01-10T13:48:35Z</time>
      </trkpt>
      <trkpt lat="44.55607" lon="0.93609">
        <ele>183</ele>
        <time>2012-01-10T13:48:36Z</time>
      </trkpt>
      <trkpt lat="44.5561" lon="0.93609">
        <ele>185</ele>
        <time>2012-01-10T13:48:43Z</time>
      </trkpt>
      <trkpt lat="44.55616" lon="0.93609">
        <ele>186</ele>
        <time>2012-01-10T13:48:44Z</time>
      </trkpt>
      <trkpt lat="44.55619" lon="0.93608">
        <ele>188</ele>
        <time>2012-01-10T13:48:46Z</time>
      </trkpt>
      <trkpt lat="44.5562" lon="0.93606">
        <ele>189</ele>
        <time>2012-01-10T13:48:52Z</time>
      </trkpt>
      <trkpt lat="44.55623" lon="0.93602">
        <ele>189</ele>
        <time>2012-01-10T13:48:53Z</time>
      </trkpt>
      <trkpt lat="44.55625" lon="0.936">
        <ele>190</ele>
        <time>2012-01-10T13:48:59Z</time>
      </trkpt>
      <trkpt lat="44.55631" lon="0.93594">
        <ele>190</ele>
        <time>2012-01-10T13:49:00Z</time>
      </trkpt>
      <trkpt lat="44.55632" lon="0.93593">
        <ele>191</ele>
        <time>2012-01-10T13:49:01Z</time>
      </trkpt>
      <trkpt lat="44.55634" lon="0.93589">
        <ele>191</ele>
        <time>2012-01-10T13:49:06Z</time>
      </trkpt>
      <trkpt lat="44.55637" lon="0.93584">
        <ele>191</ele>
        <time>2012-01-10T13:49:07Z</time>
      </trkpt>
      <trkpt lat="44.55637" lon="0.93582">
        <ele>191</ele>
        <time>2012-01-10T13:49:09Z</time>
      </trkpt>
      <trkpt lat="44.55638" lon="0.93581">
        <ele>191</ele>
        <time>2012-01-10T13:49:09Z</time>
      </trkpt>
      <trkpt lat="44.5564" lon="0.93577">
        <ele>191</ele>
        <time>2012-01-10T13:49:15Z</time>
      </trkpt>
      <trkpt lat="44.55643" lon="0.93572">
        <ele>192</ele>
        <time>2012-01-10T13:49:16Z</time>
      </trkpt>
      <trkpt lat="44.55647" lon="0.93561">
        <ele>194</ele>
        <time>2012-01-10T13:49:22Z</time>
      </trkpt>
      <trkpt lat="44.55652" lon="0.93552">
        <ele>195</ele>
        <time>2012-01-10T13:49:29Z</time>
      </trkpt>
      <trkpt lat="44.55653" lon="0.9355">
        <ele>196</ele>
        <time>2012-01-10T13:49:31Z</time>
      </trkpt>
      <trkpt lat="44.55655" lon="0.93546">
        <ele>196</ele>
        <time>2012-01-10T13:49:38Z</time>
      </trkpt>
      <trkpt lat="44.55657" lon="0.93537">
        <ele>196</ele>
        <time>2012-01-10T13:49:39Z</time>
      </trkpt>
      <trkpt lat="44.55658" lon="0.93535">
        <ele>196</ele>
        <time>2012-01-10T13:49:40Z</time>
      </trkpt>
      <trkpt lat="44.55659" lon="0.93532">
        <ele>196</ele>
        <time>2012-01-10T13:49:47Z</time>
      </trkpt>
      <trkpt lat="44.55664" lon="0.93524">
        <ele>196</ele>
        <time>2012-01-10T13:49:48Z</time>
      </trkpt>
      <trkpt lat="44.55665" lon="0.93521">
        <ele>196</ele>
        <time>2012-01-10T13:49:54Z</time>
      </trkpt>
      <trkpt lat="44.55667" lon="0.93515">
        <ele>196</ele>
        <time>2012-01-10T13:49:55Z</time>
      </trkpt>
      <trkpt lat="44.55668" lon="0.93513">
        <ele>196</ele>
        <time>2012-01-10T13:49:56Z</time>
      </trkpt>
      <trkpt lat="44.55669" lon="0.9351">
        <ele>197</ele>
        <time>2012-01-10T13:49:57Z</time>
      </trkpt>
      <trkpt lat="44.55669" lon="0.93507">
        <ele>198</ele>
        <time>2012-01-10T13:50:03Z</time>
      </trkpt>
      <trkpt lat="44.55671" lon="0.93507">
        <ele>201</ele>
        <time>2012-01-10T13:50:12Z</time>
      </trkpt>
      <trkpt lat="44.55672" lon="0.93506">
        <ele>201</ele>
        <time>2012-01-10T13:50:21Z</time>
      </trkpt>
      <trkpt lat="44.55674" lon="0.93506">
        <ele>201</ele>
        <time>2012-01-10T13:50:22Z</time>
      </trkpt>
      <trkpt lat="44.55676" lon="0.93507">
        <ele>200</ele>
        <time>2012-01-10T13:50:39Z</time>
      </trkpt>
      <trkpt lat="44.55677" lon="0.93506">
        <ele>200</ele>
        <time>2012-01-10T13:50:48Z</time>
      </trkpt>
      <trkpt lat="44.55679" lon="0.93506">
        <ele>200</ele>
        <time>2012-01-10T13:50:49Z</time>
      </trkpt>
      <trkpt lat="44.55679" lon="0.93498">
        <ele>200</ele>
        <time>2012-01-10T13:50:56Z</time>
      </trkpt>
      <trkpt lat="44.55679" lon="0.93496">
        <ele>200</ele>
        <time>2012-01-10T13:50:57Z</time>
      </trkpt>
      <trkpt lat="44.55679" lon="0.93494">
        <ele>200</ele>
        <time>2012-01-10T13:50:58Z</time>
      </trkpt>
      <trkpt lat="44.5568" lon="0.93492">
        <ele>200</ele>
        <time>2012-01-10T13:51:03Z</time>
      </trkpt>
      <trkpt lat="44.55682" lon="0.93485">
        <ele>200</ele>
        <time>2012-01-10T13:51:04Z</time>
      </trkpt>
      <trkpt lat="44.55682" lon="0.93483">
        <ele>200</ele>
        <time>2012-01-10T13:51:05Z</time>
      </trkpt>
      <trkpt lat="44.55683" lon="0.93481">
        <ele>200</ele>
        <time>2012-01-10T13:51:06Z</time>
      </trkpt>
      <trkpt lat="44.55684" lon="0.93478">
        <ele>200</ele>
        <time>2012-01-10T13:51:12Z</time>
      </trkpt>
      <trkpt lat="44.55687" lon="0.93468">
        <ele>201</ele>
        <time>2012-01-10T13:51:12Z</time>
      </trkpt>
      <trkpt lat="44.55688" lon="0.93467">
        <ele>202</ele>
        <time>2012-01-10T13:51:14Z</time>
      </trkpt>
      <trkpt lat="44.55689" lon="0.93464">
        <ele>202</ele>
        <time>2012-01-10T13:51:15Z</time>
      </trkpt>
      <trkpt lat="44.5569" lon="0.93463">
        <ele>203</ele>
        <time>2012-01-10T13:51:15Z</time>
      </trkpt>
      <trkpt lat="44.55692" lon="0.9346">
        <ele>204</ele>
        <time>2012-01-10T13:51:21Z</time>
      </trkpt>
      <trkpt lat="44.55694" lon="0.93453">
        <ele>205</ele>
        <time>2012-01-10T13:51:21Z</time>
      </trkpt>
      <trkpt lat="44.55695" lon="0.93451">
        <ele>206</ele>
        <time>2012-01-10T13:51:22Z</time>
      </trkpt>
      <trkpt lat="44.55696" lon="0.93448">
        <ele>207</ele>
        <time>2012-01-10T13:51:23Z</time>
      </trkpt>
      <trkpt lat="44.55698" lon="0.93443">
        <ele>207</ele>
        <time>2012-01-10T13:51:28Z</time>
      </trkpt>
      <trkpt lat="44.55702" lon="0.93436">
        <ele>208</ele>
        <time>2012-01-10T13:51:29Z</time>
      </trkpt>
      <trkpt lat="44.55704" lon="0.93434">
        <ele>209</ele>
        <time>2012-01-10T13:51:31Z</time>
      </trkpt>
      <trkpt lat="44.55706" lon="0.9343">
        <ele>209</ele>
        <time>2012-01-10T13:51:37Z</time>
      </trkpt>
      <trkpt lat="44.55708" lon="0.93425">
        <ele>209</ele>
        <time>2012-01-10T13:51:37Z</time>
      </trkpt>
      <trkpt lat="44.55709" lon="0.93423">
        <ele>209</ele>
        <time>2012-01-10T13:51:40Z</time>
      </trkpt>
      <trkpt lat="44.55711" lon="0.93419">
        <ele>209</ele>
        <time>2012-01-10T13:51:46Z</time>
      </trkpt>
      <trkpt lat="44.55717" lon="0.93401">
        <ele>209</ele>
        <time>2012-01-10T13:51:47Z</time>
      </trkpt>
      <trkpt lat="44.55721" lon="0.93392">
        <ele>209</ele>
        <time>2012-01-10T13:51:53Z</time>
      </trkpt>
      <trkpt lat="44.5573" lon="0.93361">
        <ele>208</ele>
        <time>2012-01-10T13:51:53Z</time>
      </trkpt>
      <trkpt lat="44.55733" lon="0.9335">
        <ele>207</ele>
        <time>2012-01-10T13:51:54Z</time>
      </trkpt>
      <trkpt lat="44.55734" lon="0.93294">
        <ele>206</ele>
        <time>2012-01-10T13:52:00Z</time>
      </trkpt>
      <trkpt lat="44.55732" lon="0.93286">
        <ele>205</ele>
        <time>2012-01-10T13:52:01Z</time>
      </trkpt>
      <trkpt lat="44.5573" lon="0.93278">
        <ele>204</ele>
        <time>2012-01-10T13:52:02Z</time>
      </trkpt>
      <trkpt lat="44.5573" lon="0.93261">
        <ele>202</ele>
        <time>2012-01-10T13:52:08Z</time>
      </trkpt>
      <trkpt lat="44.55733" lon="0.93225">
        <ele>200</ele>
        <time>2012-01-10T13:52:08Z</time>
      </trkpt>
      <trkpt lat="44.55734" lon="0.93217">
        <ele>198</ele>
        <time>2012-01-10T13:52:09Z</time>
      </trkpt>
      <trkpt lat="44.55735" lon="0.93208">
        <ele>196</ele>
        <time>2012-01-10T13:52:10Z</time>
      </trkpt>
      <trkpt lat="44.55739" lon="0.93192">
        <ele>194</ele>
        <time>2012-01-10T13:52:15Z</time>
      </trkpt>
      <trkpt lat="44.55746" lon="0.93169">
        <ele>192</ele>
        <time>2012-01-10T13:52:16Z</time>
      </trkpt>
      <trkpt lat="44.55747" lon="0.93165">
        <ele>191</ele>
        <time>2012-01-10T13:52:17Z</time>
      </trkpt>
      <trkpt lat="44.55749" lon="0.9316">
        <ele>190</ele>
        <time>2012-01-10T13:52:23Z</time>
      </trkpt>
      <trkpt lat="44.55754" lon="0.93148">
        <ele>190</ele>
        <time>2012-01-10T13:52:23Z</time>
      </trkpt>
      <trkpt lat="44.55756" lon="0.93145">
        <ele>190</ele>
        <time>2012-01-10T13:52:24Z</time>
      </trkpt>
      <trkpt lat="44.55759" lon="0.93139">
        <ele>190</ele>
        <time>2012-01-10T13:52:30Z</time>
      </trkpt>
      <trkpt lat="44.55763" lon="0.93129">
        <ele>190</ele>
        <time>2012-01-10T13:52:31Z</time>
      </trkpt>
      <trkpt lat="44.55764" lon="0.93127">
        <ele>190</ele>
        <time>2012-01-10T13:52:33Z</time>
      </trkpt>
      <trkpt lat="44.55765" lon="0.93125">
        <ele>191</ele>
        <time>2012-01-10T13:52:33Z</time>
      </trkpt>
      <trkpt lat="44.55766" lon="0.9312">
        <ele>191</ele>
        <time>2012-01-10T13:52:39Z</time>
      </trkpt>
      <trkpt lat="44.5577" lon="0.9311">
        <ele>192</ele>
        <time>2012-01-10T13:52:40Z</time>
      </trkpt>
      <trkpt lat="44.55777" lon="0.93097">
        <ele>193</ele>
        <time>2012-01-10T13:52:46Z</time>
      </trkpt>
      <trkpt lat="44.55778" lon="0.93094">
        <ele>193</ele>
        <time>2012-01-10T13:52:47Z</time>
      </trkpt>
      <trkpt lat="44.55779" lon="0.93092">
        <ele>193</ele>
        <time>2012-01-10T13:52:48Z</time>
      </trkpt>
      <trkpt lat="44.55781" lon="0.93086">
        <ele>194</ele>
        <time>2012-01-10T13:52:54Z</time>
      </trkpt>
      <trkpt lat="44.55786" lon="0.93077">
        <ele>194</ele>
        <time>2012-01-10T13:52:54Z</time>
      </trkpt>
      <trkpt lat="44.55786" lon="0.93076">
        <ele>194</ele>
        <time>2012-01-10T13:52:55Z</time>
      </trkpt>
      <trkpt lat="44.55786" lon="0.93074">
        <ele>194</ele>
        <time>2012-01-10T13:52:56Z</time>
      </trkpt>
      <trkpt lat="44.55786" lon="0.9307">
        <ele>195</ele>
        <time>2012-01-10T13:53:02Z</time>
      </trkpt>
      <trkpt lat="44.55785" lon="0.9306">
        <ele>195</ele>
        <time>2012-01-10T13:53:02Z</time>
      </trkpt>
      <trkpt lat="44.55785" lon="0.93059">
        <ele>195</ele>
        <time>2012-01-10T13:53:03Z</time>
      </trkpt>
      <trkpt lat="44.55785" lon="0.93056">
        <ele>195</ele>
        <time>2012-01-10T13:53:04Z</time>
      </trkpt>
      <trkpt lat="44.55785" lon="0.93053">
        <ele>195</ele>
        <time>2012-01-10T13:53:05Z</time>
      </trkpt>
      <trkpt lat="44.55785" lon="0.93046">
        <ele>195</ele>
        <time>2012-01-10T13:53:11Z</time>
      </trkpt>
      <trkpt lat="44.55787" lon="0.93037">
        <ele>195</ele>
        <time>2012-01-10T13:53:11Z</time>
      </trkpt>
      <trkpt lat="44.55787" lon="0.93036">
        <ele>195</ele>
        <time>2012-01-10T13:53:20Z</time>
      </trkpt>
      <trkpt lat="44.55789" lon="0.93032">
        <ele>195</ele>
        <time>2012-01-10T13:53:21Z</time>
      </trkpt>
      <trkpt lat="44.55791" lon="0.93032">
        <ele>195</ele>
        <time>2012-01-10T13:53:23Z</time>
      </trkpt>
      <trkpt lat="44.55791" lon="0.93029">
        <ele>195</ele>
        <time>2012-01-10T13:53:30Z</time>
      </trkpt>
      <trkpt lat="44.55792" lon="0.93028">
        <ele>195</ele>
        <time>2012-01-10T13:53:32Z</time>
      </trkpt>
      <trkpt lat="44.55793" lon="0.93026">
        <ele>195</ele>
        <time>2012-01-10T13:53:32Z</time>
      </trkpt>
      <trkpt lat="44.55793" lon="0.93024">
        <ele>194</ele>
        <time>2012-01-10T13:53:38Z</time>
      </trkpt>
      <trkpt lat="44.55799" lon="0.93008">
        <ele>194</ele>
        <time>2012-01-10T13:53:39Z</time>
      </trkpt>
      <trkpt lat="44.558" lon="0.93005">
        <ele>194</ele>
        <time>2012-01-10T13:53:40Z</time>
      </trkpt>
      <trkpt lat="44.558" lon="0.93002">
        <ele>194</ele>
        <time>2012-01-10T13:53:46Z</time>
      </trkpt>
      <trkpt lat="44.55799" lon="0.93001">
        <ele>194</ele>
        <time>2012-01-10T13:53:46Z</time>
      </trkpt>
      <trkpt lat="44.55798" lon="0.92999">
        <ele>194</ele>
        <time>2012-01-10T13:53:55Z</time>
      </trkpt>
      <trkpt lat="44.55798" lon="0.92997">
        <ele>195</ele>
        <time>2012-01-10T13:54:04Z</time>
      </trkpt>
      <trkpt lat="44.55797" lon="0.92996">
        <ele>197</ele>
        <time>2012-01-10T13:54:12Z</time>
      </trkpt>
      <trkpt lat="44.55795" lon="0.92994">
        <ele>197</ele>
        <time>2012-01-10T13:54:15Z</time>
      </trkpt>
      <trkpt lat="44.55793" lon="0.92997">
        <ele>198</ele>
        <time>2012-01-10T13:54:22Z</time>
      </trkpt>
      <trkpt lat="44.55793" lon="0.92999">
        <ele>198</ele>
        <time>2012-01-10T13:54:30Z</time>
      </trkpt>
      <trkpt lat="44.55793" lon="0.93">
        <ele>198</ele>
        <time>2012-01-10T13:54:31Z</time>
      </trkpt>
      <trkpt lat="44.55792" lon="0.93001">
        <ele>198</ele>
        <time>2012-01-10T13:54:41Z</time>
      </trkpt>
      <trkpt lat="44.55791" lon="0.93003">
        <ele>198</ele>
        <time>2012-01-10T13:54:48Z</time>
      </trkpt>
      <trkpt lat="44.55796" lon="0.93003">
        <ele>199</ele>
        <time>2012-01-10T13:54:57Z</time>
      </trkpt>
      <trkpt lat="44.55797" lon="0.93001">
        <ele>200</ele>
        <time>2012-01-10T13:55:05Z</time>
      </trkpt>
      <trkpt lat="44.55799" lon="0.92999">
        <ele>201</ele>
        <time>2012-01-10T13:55:07Z</time>
      </trkpt>
      <trkpt lat="44.558" lon="0.92997">
        <ele>205</ele>
        <time>2012-01-10T13:55:16Z</time>
      </trkpt>
      <trkpt lat="44.55799" lon="0.92992">
        <ele>208</ele>
        <time>2012-01-10T13:55:34Z</time>
      </trkpt>
      <trkpt lat="44.558" lon="0.9299">
        <ele>208</ele>
        <time>2012-01-10T13:55:34Z</time>
      </trkpt>
      <trkpt lat="44.55805" lon="0.92974">
        <ele>208</ele>
        <time>2012-01-10T13:55:40Z</time>
      </trkpt>
      <trkpt lat="44.55806" lon="0.92969">
        <ele>207</ele>
        <time>2012-01-10T13:55:41Z</time>
      </trkpt>
      <trkpt lat="44.55807" lon="0.92959">
        <ele>206</ele>
        <time>2012-01-10T13:55:47Z</time>
      </trkpt>
      <trkpt lat="44.55811" lon="0.92929">
        <ele>205</ele>
        <time>2012-01-10T13:55:48Z</time>
      </trkpt>
      <trkpt lat="44.55811" lon="0.92924">
        <ele>204</ele>
        <time>2012-01-10T13:55:49Z</time>
      </trkpt>
      <trkpt lat="44.55811" lon="0.92909">
        <ele>203</ele>
        <time>2012-01-10T13:55:54Z</time>
      </trkpt>
      <trkpt lat="44.55811" lon="0.92886">
        <ele>202</ele>
        <time>2012-01-10T13:55:55Z</time>
      </trkpt>
      <trkpt lat="44.55811" lon="0.92879">
        <ele>201</ele>
        <time>2012-01-10T13:55:56Z</time>
      </trkpt>
      <trkpt lat="44.55811" lon="0.92866">
        <ele>200</ele>
        <time>2012-01-10T13:56:02Z</time>
      </trkpt>
      <trkpt lat="44.55813" lon="0.9284">
        <ele>199</ele>
        <time>2012-01-10T13:56:02Z</time>
      </trkpt>
      <trkpt lat="44.55813" lon="0.92833">
        <ele>198</ele>
        <time>2012-01-10T13:56:03Z</time>
      </trkpt>
      <trkpt lat="44.5582" lon="0.92799">
        <ele>197</ele>
        <time>2012-01-10T13:56:09Z</time>
      </trkpt>
      <trkpt lat="44.55822" lon="0.92795">
        <ele>196</ele>
        <time>2012-01-10T13:56:10Z</time>
      </trkpt>
      <trkpt lat="44.55825" lon="0.92791">
        <ele>195</ele>
        <time>2012-01-10T13:56:11Z</time>
      </trkpt>
      <trkpt lat="44.55829" lon="0.92782">
        <ele>194</ele>
        <time>2012-01-10T13:56:16Z</time>
      </trkpt>
      <trkpt lat="44.55835" lon="0.92771">
        <ele>193</ele>
        <time>2012-01-10T13:56:16Z</time>
      </trkpt>
      <trkpt lat="44.55838" lon="0.92766">
        <ele>193</ele>
        <time>2012-01-10T13:56:17Z</time>
      </trkpt>
      <trkpt lat="44.55843" lon="0.92758">
        <ele>193</ele>
        <time>2012-01-10T13:56:22Z</time>
      </trkpt>
      <trkpt lat="44.55849" lon="0.92747">
        <ele>193</ele>
        <time>2012-01-10T13:56:22Z</time>
      </trkpt>
      <trkpt lat="44.55851" lon="0.92743">
        <ele>193</ele>
        <time>2012-01-10T13:56:23Z</time>
      </trkpt>
      <trkpt lat="44.55855" lon="0.92738">
        <ele>193</ele>
        <time>2012-01-10T13:56:28Z</time>
      </trkpt>
      <trkpt lat="44.55861" lon="0.92727">
        <ele>193</ele>
        <time>2012-01-10T13:56:28Z</time>
      </trkpt>
      <trkpt lat="44.55864" lon="0.92725">
        <ele>193</ele>
        <time>2012-01-10T13:56:29Z</time>
      </trkpt>
      <trkpt lat="44.55867" lon="0.92718">
        <ele>193</ele>
        <time>2012-01-10T13:56:34Z</time>
      </trkpt>
      <trkpt lat="44.55872" lon="0.92709">
        <ele>193</ele>
        <time>2012-01-10T13:56:35Z</time>
      </trkpt>
      <trkpt lat="44.55874" lon="0.92707">
        <ele>194</ele>
        <time>2012-01-10T13:56:35Z</time>
      </trkpt>
      <trkpt lat="44.55876" lon="0.92704">
        <ele>194</ele>
        <time>2012-01-10T13:56:36Z</time>
      </trkpt>
      <trkpt lat="44.55879" lon="0.927">
        <ele>195</ele>
        <time>2012-01-10T13:56:40Z</time>
      </trkpt>
      <trkpt lat="44.55884" lon="0.92693">
        <ele>196</ele>
        <time>2012-01-10T13:56:41Z</time>
      </trkpt>
      <trkpt lat="44.55886" lon="0.9269">
        <ele>196</ele>
        <time>2012-01-10T13:56:42Z</time>
      </trkpt>
      <trkpt lat="44.55888" lon="0.92685">
        <ele>197</ele>
        <time>2012-01-10T13:56:46Z</time>
      </trkpt>
      <trkpt lat="44.55892" lon="0.92676">
        <ele>198</ele>
        <time>2012-01-10T13:56:47Z</time>
      </trkpt>
      <trkpt lat="44.55893" lon="0.92672">
        <ele>199</ele>
        <time>2012-01-10T13:56:48Z</time>
      </trkpt>
      <trkpt lat="44.55896" lon="0.92667">
        <ele>199</ele>
        <time>2012-01-10T13:56:52Z</time>
      </trkpt>
      <trkpt lat="44.559" lon="0.92657">
        <ele>200</ele>
        <time>2012-01-10T13:56:53Z</time>
      </trkpt>
      <trkpt lat="44.55901" lon="0.92653">
        <ele>200</ele>
        <time>2012-01-10T13:56:54Z</time>
      </trkpt>
      <trkpt lat="44.55903" lon="0.92646">
        <ele>200</ele>
        <time>2012-01-10T13:56:59Z</time>
      </trkpt>
      <trkpt lat="44.55905" lon="0.92638">
        <ele>200</ele>
        <time>2012-01-10T13:56:59Z</time>
      </trkpt>
      <trkpt lat="44.55905" lon="0.92635">
        <ele>200</ele>
        <time>2012-01-10T13:57:00Z</time>
      </trkpt>
      <trkpt lat="44.55907" lon="0.92628">
        <ele>200</ele>
        <time>2012-01-10T13:57:05Z</time>
      </trkpt>
      <trkpt lat="44.5591" lon="0.92615">
        <ele>200</ele>
        <time>2012-01-10T13:57:05Z</time>
      </trkpt>
      <trkpt lat="44.55912" lon="0.92611">
        <ele>200</ele>
        <time>2012-01-10T13:57:06Z</time>
      </trkpt>
      <trkpt lat="44.55914" lon="0.92603">
        <ele>200</ele>
        <time>2012-01-10T13:57:11Z</time>
      </trkpt>
      <trkpt lat="44.55917" lon="0.92594">
        <ele>200</ele>
        <time>2012-01-10T13:57:11Z</time>
      </trkpt>
      <trkpt lat="44.55917" lon="0.92592">
        <ele>200</ele>
        <time>2012-01-10T13:57:12Z</time>
      </trkpt>
      <trkpt lat="44.55918" lon="0.92585">
        <ele>201</ele>
        <time>2012-01-10T13:57:17Z</time>
      </trkpt>
      <trkpt lat="44.5592" lon="0.92577">
        <ele>202</ele>
        <time>2012-01-10T13:57:17Z</time>
      </trkpt>
      <trkpt lat="44.55921" lon="0.92573">
        <ele>203</ele>
        <time>2012-01-10T13:57:18Z</time>
      </trkpt>
      <trkpt lat="44.55923" lon="0.92564">
        <ele>204</ele>
        <time>2012-01-10T13:57:23Z</time>
      </trkpt>
      <trkpt lat="44.55926" lon="0.92552">
        <ele>204</ele>
        <time>2012-01-10T13:57:23Z</time>
      </trkpt>
      <trkpt lat="44.55927" lon="0.92549">
        <ele>204</ele>
        <time>2012-01-10T13:57:24Z</time>
      </trkpt>
      <trkpt lat="44.55928" lon="0.92546">
        <ele>204</ele>
        <time>2012-01-10T13:57:25Z</time>
      </trkpt>
      <trkpt lat="44.55929" lon="0.92542">
        <ele>204</ele>
        <time>2012-01-10T13:57:29Z</time>
      </trkpt>
      <trkpt lat="44.5593" lon="0.92534">
        <ele>204</ele>
        <time>2012-01-10T13:57:30Z</time>
      </trkpt>
      <trkpt lat="44.55931" lon="0.92531">
        <ele>204</ele>
        <time>2012-01-10T13:57:31Z</time>
      </trkpt>
      <trkpt lat="44.55933" lon="0.92526">
        <ele>203</ele>
        <time>2012-01-10T13:57:35Z</time>
      </trkpt>
      <trkpt lat="44.55935" lon="0.92518">
        <ele>202</ele>
        <time>2012-01-10T13:57:36Z</time>
      </trkpt>
      <trkpt lat="44.55935" lon="0.92515">
        <ele>201</ele>
        <time>2012-01-10T13:57:37Z</time>
      </trkpt>
      <trkpt lat="44.55937" lon="0.92507">
        <ele>201</ele>
        <time>2012-01-10T13:57:41Z</time>
      </trkpt>
      <trkpt lat="44.55941" lon="0.92493">
        <ele>200</ele>
        <time>2012-01-10T13:57:42Z</time>
      </trkpt>
      <trkpt lat="44.55943" lon="0.92489">
        <ele>200</ele>
        <time>2012-01-10T13:57:43Z</time>
      </trkpt>
      <trkpt lat="44.55946" lon="0.92479">
        <ele>200</ele>
        <time>2012-01-10T13:57:47Z</time>
      </trkpt>
      <trkpt lat="44.55951" lon="0.92466">
        <ele>200</ele>
        <time>2012-01-10T13:57:48Z</time>
      </trkpt>
      <trkpt lat="44.55954" lon="0.92463">
        <ele>200</ele>
        <time>2012-01-10T13:57:49Z</time>
      </trkpt>
      <trkpt lat="44.55958" lon="0.92454">
        <ele>200</ele>
        <time>2012-01-10T13:57:54Z</time>
      </trkpt>
      <trkpt lat="44.55964" lon="0.92442">
        <ele>200</ele>
        <time>2012-01-10T13:57:54Z</time>
      </trkpt>
      <trkpt lat="44.55966" lon="0.92437">
        <ele>200</ele>
        <time>2012-01-10T13:57:55Z</time>
      </trkpt>
      <trkpt lat="44.5597" lon="0.92428">
        <ele>200</ele>
        <time>2012-01-10T13:58:00Z</time>
      </trkpt>
      <trkpt lat="44.55976" lon="0.92414">
        <ele>200</ele>
        <time>2012-01-10T13:58:00Z</time>
      </trkpt>
      <trkpt lat="44.55977" lon="0.92409">
        <ele>200</ele>
        <time>2012-01-10T13:58:01Z</time>
      </trkpt>
      <trkpt lat="44.55986" lon="0.92386">
        <ele>200</ele>
        <time>2012-01-10T13:58:06Z</time>
      </trkpt>
      <trkpt lat="44.55989" lon="0.92381">
        <ele>200</ele>
        <time>2012-01-10T13:58:07Z</time>
      </trkpt>
      <trkpt lat="44.55992" lon="0.92377">
        <ele>200</ele>
        <time>2012-01-10T13:58:09Z</time>
      </trkpt>
      <trkpt lat="44.55999" lon="0.92355">
        <ele>200</ele>
        <time>2012-01-10T13:58:13Z</time>
      </trkpt>
      <trkpt lat="44.56" lon="0.9235">
        <ele>200</ele>
        <time>2012-01-10T13:58:15Z</time>
      </trkpt>
      <trkpt lat="44.56001" lon="0.92346">
        <ele>200</ele>
        <time>2012-01-10T13:58:16Z</time>
      </trkpt>
      <trkpt lat="44.56002" lon="0.9234">
        <ele>200</ele>
        <time>2012-01-10T13:58:16Z</time>
      </trkpt>
      <trkpt lat="44.56005" lon="0.92328">
        <ele>200</ele>
        <time>2012-01-10T13:58:21Z</time>
      </trkpt>
      <trkpt lat="44.5601" lon="0.92307">
        <ele>200</ele>
        <time>2012-01-10T13:58:21Z</time>
      </trkpt>
      <trkpt lat="44.56011" lon="0.92298">
        <ele>200</ele>
        <time>2012-01-10T13:58:22Z</time>
      </trkpt>
      <trkpt lat="44.56013" lon="0.9228">
        <ele>200</ele>
        <time>2012-01-10T13:58:27Z</time>
      </trkpt>
      <trkpt lat="44.56018" lon="0.92252">
        <ele>200</ele>
        <time>2012-01-10T13:58:27Z</time>
      </trkpt>
      <trkpt lat="44.5602" lon="0.92242">
        <ele>199</ele>
        <time>2012-01-10T13:58:28Z</time>
      </trkpt>
      <trkpt lat="44.56025" lon="0.92223">
        <ele>198</ele>
        <time>2012-01-10T13:58:33Z</time>
      </trkpt>
      <trkpt lat="44.56035" lon="0.92198">
        <ele>197</ele>
        <time>2012-01-10T13:58:33Z</time>
      </trkpt>
      <trkpt lat="44.56039" lon="0.92191">
        <ele>196</ele>
        <time>2012-01-10T13:58:34Z</time>
      </trkpt>
      <trkpt lat="44.56045" lon="0.92176">
        <ele>195</ele>
        <time>2012-01-10T13:58:39Z</time>
      </trkpt>
      <trkpt lat="44.56052" lon="0.92155">
        <ele>194</ele>
        <time>2012-01-10T13:58:39Z</time>
      </trkpt>
      <trkpt lat="44.56054" lon="0.92149">
        <ele>194</ele>
        <time>2012-01-10T13:58:40Z</time>
      </trkpt>
      <trkpt lat="44.56057" lon="0.92136">
        <ele>194</ele>
        <time>2012-01-10T13:58:45Z</time>
      </trkpt>
      <trkpt lat="44.56061" lon="0.92117">
        <ele>194</ele>
        <time>2012-01-10T13:58:45Z</time>
      </trkpt>
      <trkpt lat="44.56062" lon="0.92113">
        <ele>194</ele>
        <time>2012-01-10T13:58:46Z</time>
      </trkpt>
      <trkpt lat="44.56064" lon="0.92103">
        <ele>194</ele>
        <time>2012-01-10T13:58:51Z</time>
      </trkpt>
      <trkpt lat="44.56066" lon="0.92089">
        <ele>194</ele>
        <time>2012-01-10T13:58:51Z</time>
      </trkpt>
      <trkpt lat="44.56066" lon="0.92084">
        <ele>194</ele>
        <time>2012-01-10T13:58:52Z</time>
      </trkpt>
      <trkpt lat="44.56069" lon="0.92075">
        <ele>194</ele>
        <time>2012-01-10T13:58:57Z</time>
      </trkpt>
      <trkpt lat="44.56071" lon="0.92063">
        <ele>194</ele>
        <time>2012-01-10T13:58:58Z</time>
      </trkpt>
      <trkpt lat="44.56073" lon="0.92059">
        <ele>194</ele>
        <time>2012-01-10T13:58:58Z</time>
      </trkpt>
      <trkpt lat="44.56079" lon="0.92038">
        <ele>194</ele>
        <time>2012-01-10T13:59:03Z</time>
      </trkpt>
      <trkpt lat="44.56081" lon="0.92036">
        <ele>194</ele>
        <time>2012-01-10T13:59:04Z</time>
      </trkpt>
      <trkpt lat="44.56083" lon="0.92033">
        <ele>194</ele>
        <time>2012-01-10T13:59:06Z</time>
      </trkpt>
      <trkpt lat="44.56086" lon="0.9203">
        <ele>195</ele>
        <time>2012-01-10T13:59:10Z</time>
      </trkpt>
      <trkpt lat="44.56093" lon="0.92027">
        <ele>196</ele>
        <time>2012-01-10T13:59:10Z</time>
      </trkpt>
      <trkpt lat="44.56095" lon="0.92026">
        <ele>197</ele>
        <time>2012-01-10T13:59:11Z</time>
      </trkpt>
      <trkpt lat="44.56098" lon="0.92026">
        <ele>198</ele>
        <time>2012-01-10T13:59:12Z</time>
      </trkpt>
      <trkpt lat="44.56102" lon="0.92024">
        <ele>199</ele>
        <time>2012-01-10T13:59:16Z</time>
      </trkpt>
      <trkpt lat="44.56107" lon="0.92019">
        <ele>200</ele>
        <time>2012-01-10T13:59:17Z</time>
      </trkpt>
      <trkpt lat="44.56108" lon="0.92019">
        <ele>201</ele>
        <time>2012-01-10T13:59:18Z</time>
      </trkpt>
      <trkpt lat="44.5611" lon="0.92019">
        <ele>202</ele>
        <time>2012-01-10T13:59:20Z</time>
      </trkpt>
      <trkpt lat="44.56113" lon="0.92019">
        <ele>203</ele>
        <time>2012-01-10T13:59:24Z</time>
      </trkpt>
      <trkpt lat="44.56119" lon="0.92015">
        <ele>204</ele>
        <time>2012-01-10T13:59:25Z</time>
      </trkpt>
      <trkpt lat="44.5612" lon="0.92015">
        <ele>205</ele>
        <time>2012-01-10T13:59:26Z</time>
      </trkpt>
      <trkpt lat="44.56121" lon="0.92011">
        <ele>206</ele>
        <time>2012-01-10T13:59:30Z</time>
      </trkpt>
      <trkpt lat="44.56122" lon="0.9201">
        <ele>207</ele>
        <time>2012-01-10T13:59:31Z</time>
      </trkpt>
      <trkpt lat="44.56123" lon="0.92008">
        <ele>209</ele>
        <time>2012-01-10T13:59:33Z</time>
      </trkpt>
      <trkpt lat="44.56128" lon="0.92007">
        <ele>211</ele>
        <time>2012-01-10T13:59:39Z</time>
      </trkpt>
      <trkpt lat="44.5613" lon="0.92008">
        <ele>213</ele>
        <time>2012-01-10T13:59:41Z</time>
      </trkpt>
      <trkpt lat="44.56131" lon="0.92007">
        <ele>214</ele>
        <time>2012-01-10T13:59:46Z</time>
      </trkpt>
      <trkpt lat="44.56134" lon="0.92005">
        <ele>215</ele>
        <time>2012-01-10T13:59:46Z</time>
      </trkpt>
      <trkpt lat="44.56137" lon="0.92005">
        <ele>217</ele>
        <time>2012-01-10T13:59:52Z</time>
      </trkpt>
      <trkpt lat="44.56141" lon="0.92005">
        <ele>217</ele>
        <time>2012-01-10T13:59:52Z</time>
      </trkpt>
      <trkpt lat="44.56144" lon="0.92005">
        <ele>217</ele>
        <time>2012-01-10T13:59:54Z</time>
      </trkpt>
      <trkpt lat="44.56147" lon="0.92004">
        <ele>217</ele>
        <time>2012-01-10T13:59:59Z</time>
      </trkpt>
      <trkpt lat="44.56155" lon="0.91999">
        <ele>217</ele>
        <time>2012-01-10T14:00:00Z</time>
      </trkpt>
      <trkpt lat="44.56158" lon="0.91998">
        <ele>217</ele>
        <time>2012-01-10T14:00:02Z</time>
      </trkpt>
      <trkpt lat="44.56161" lon="0.91997">
        <ele>218</ele>
        <time>2012-01-10T14:00:06Z</time>
      </trkpt>
      <trkpt lat="44.56166" lon="0.91997">
        <ele>218</ele>
        <time>2012-01-10T14:00:06Z</time>
      </trkpt>
      <trkpt lat="44.56167" lon="0.91997">
        <ele>218</ele>
        <time>2012-01-10T14:00:07Z</time>
      </trkpt>
      <trkpt lat="44.56171" lon="0.91997">
        <ele>219</ele>
        <time>2012-01-10T14:00:12Z</time>
      </trkpt>
      <trkpt lat="44.56174" lon="0.91997">
        <ele>219</ele>
        <time>2012-01-10T14:00:12Z</time>
      </trkpt>
      <trkpt lat="44.56176" lon="0.91997">
        <ele>219</ele>
        <time>2012-01-10T14:00:15Z</time>
      </trkpt>
      <trkpt lat="44.5618" lon="0.91996">
        <ele>219</ele>
        <time>2012-01-10T14:00:19Z</time>
      </trkpt>
      <trkpt lat="44.56185" lon="0.91994">
        <ele>219</ele>
        <time>2012-01-10T14:00:20Z</time>
      </trkpt>
      <trkpt lat="44.56187" lon="0.91994">
        <ele>219</ele>
        <time>2012-01-10T14:00:20Z</time>
      </trkpt>
      <trkpt lat="44.56189" lon="0.91994">
        <ele>219</ele>
        <time>2012-01-10T14:00:21Z</time>
      </trkpt>
      <trkpt lat="44.56191" lon="0.91994">
        <ele>219</ele>
        <time>2012-01-10T14:00:22Z</time>
      </trkpt>
      <trkpt lat="44.56197" lon="0.91993">
        <ele>219</ele>
        <time>2012-01-10T14:00:26Z</time>
      </trkpt>
      <trkpt lat="44.56207" lon="0.91992">
        <ele>219</ele>
        <time>2012-01-10T14:00:27Z</time>
      </trkpt>
      <trkpt lat="44.56211" lon="0.91991">
        <ele>219</ele>
        <time>2012-01-10T14:00:28Z</time>
      </trkpt>
      <trkpt lat="44.5622" lon="0.91991">
        <ele>219</ele>
        <time>2012-01-10T14:00:32Z</time>
      </trkpt>
      <trkpt lat="44.56234" lon="0.91989">
        <ele>219</ele>
        <time>2012-01-10T14:00:33Z</time>
      </trkpt>
      <trkpt lat="44.56239" lon="0.91989">
        <ele>219</ele>
        <time>2012-01-10T14:00:34Z</time>
      </trkpt>
      <trkpt lat="44.56248" lon="0.91987">
        <ele>219</ele>
        <time>2012-01-10T14:00:38Z</time>
      </trkpt>
      <trkpt lat="44.56261" lon="0.91985">
        <ele>219</ele>
        <time>2012-01-10T14:00:39Z</time>
      </trkpt>
      <trkpt lat="44.56265" lon="0.91985">
        <ele>219</ele>
        <time>2012-01-10T14:00:40Z</time>
      </trkpt>
      <trkpt lat="44.56273" lon="0.91984">
        <ele>219</ele>
        <time>2012-01-10T14:00:45Z</time>
      </trkpt>
      <trkpt lat="44.56285" lon="0.9198">
        <ele>219</ele>
        <time>2012-01-10T14:00:45Z</time>
      </trkpt>
      <trkpt lat="44.56289" lon="0.91979">
        <ele>219</ele>
        <time>2012-01-10T14:00:46Z</time>
      </trkpt>
      <trkpt lat="44.56298" lon="0.91973">
        <ele>219</ele>
        <time>2012-01-10T14:00:51Z</time>
      </trkpt>
      <trkpt lat="44.56314" lon="0.91964">
        <ele>219</ele>
        <time>2012-01-10T14:00:51Z</time>
      </trkpt>
      <trkpt lat="44.5632" lon="0.91961">
        <ele>219</ele>
        <time>2012-01-10T14:00:52Z</time>
      </trkpt>
      <trkpt lat="44.56352" lon="0.91945">
        <ele>219</ele>
        <time>2012-01-10T14:00:57Z</time>
      </trkpt>
      <trkpt lat="44.56359" lon="0.91941">
        <ele>219</ele>
        <time>2012-01-10T14:00:58Z</time>
      </trkpt>
      <trkpt lat="44.56389" lon="0.9192">
        <ele>218</ele>
        <time>2012-01-10T14:01:03Z</time>
      </trkpt>
      <trkpt lat="44.56395" lon="0.91917">
        <ele>217</ele>
        <time>2012-01-10T14:01:04Z</time>
      </trkpt>
      <trkpt lat="44.56405" lon="0.9191">
        <ele>216</ele>
        <time>2012-01-10T14:01:09Z</time>
      </trkpt>
      <trkpt lat="44.56425" lon="0.91895">
        <ele>215</ele>
        <time>2012-01-10T14:01:10Z</time>
      </trkpt>
      <trkpt lat="44.56429" lon="0.91891">
        <ele>214</ele>
        <time>2012-01-10T14:01:11Z</time>
      </trkpt>
      <trkpt lat="44.56437" lon="0.91881">
        <ele>213</ele>
        <time>2012-01-10T14:01:15Z</time>
      </trkpt>
      <trkpt lat="44.56443" lon="0.91863">
        <ele>212</ele>
        <time>2012-01-10T14:01:16Z</time>
      </trkpt>
      <trkpt lat="44.56444" lon="0.91855">
        <ele>211</ele>
        <time>2012-01-10T14:01:17Z</time>
      </trkpt>
      <trkpt lat="44.56445" lon="0.91848">
        <ele>210</ele>
        <time>2012-01-10T14:01:18Z</time>
      </trkpt>
      <trkpt lat="44.56446" lon="0.91833">
        <ele>209</ele>
        <time>2012-01-10T14:01:22Z</time>
      </trkpt>
      <trkpt lat="44.56444" lon="0.91809">
        <ele>208</ele>
        <time>2012-01-10T14:01:23Z</time>
      </trkpt>
      <trkpt lat="44.56443" lon="0.91801">
        <ele>207</ele>
        <time>2012-01-10T14:01:24Z</time>
      </trkpt>
      <trkpt lat="44.5644" lon="0.91785">
        <ele>206</ele>
        <time>2012-01-10T14:01:29Z</time>
      </trkpt>
      <trkpt lat="44.56433" lon="0.91761">
        <ele>205</ele>
        <time>2012-01-10T14:01:29Z</time>
      </trkpt>
      <trkpt lat="44.56428" lon="0.91754">
        <ele>204</ele>
        <time>2012-01-10T14:01:30Z</time>
      </trkpt>
      <trkpt lat="44.56422" lon="0.91747">
        <ele>203</ele>
        <time>2012-01-10T14:01:31Z</time>
      </trkpt>
      <trkpt lat="44.56411" lon="0.91733">
        <ele>202</ele>
        <time>2012-01-10T14:01:36Z</time>
      </trkpt>
      <trkpt lat="44.56391" lon="0.91701">
        <ele>201</ele>
        <time>2012-01-10T14:01:37Z</time>
      </trkpt>
      <trkpt lat="44.56389" lon="0.91691">
        <ele>200</ele>
        <time>2012-01-10T14:01:38Z</time>
      </trkpt>
      <trkpt lat="44.56384" lon="0.91673">
        <ele>200</ele>
        <time>2012-01-10T14:01:44Z</time>
      </trkpt>
      <trkpt lat="44.56363" lon="0.9165">
        <ele>199</ele>
        <time>2012-01-10T14:01:44Z</time>
      </trkpt>
      <trkpt lat="44.56356" lon="0.91645">
        <ele>199</ele>
        <time>2012-01-10T14:01:45Z</time>
      </trkpt>
      <trkpt lat="44.56343" lon="0.91636">
        <ele>199</ele>
        <time>2012-01-10T14:01:50Z</time>
      </trkpt>
      <trkpt lat="44.56318" lon="0.91619">
        <ele>199</ele>
        <time>2012-01-10T14:01:51Z</time>
      </trkpt>
      <trkpt lat="44.5629" lon="0.9161">
        <ele>199</ele>
        <time>2012-01-10T14:01:56Z</time>
      </trkpt>
      <trkpt lat="44.56284" lon="0.91609">
        <ele>199</ele>
        <time>2012-01-10T14:01:57Z</time>
      </trkpt>
      <trkpt lat="44.56278" lon="0.91609">
        <ele>199</ele>
        <time>2012-01-10T14:01:58Z</time>
      </trkpt>
      <trkpt lat="44.56248" lon="0.91605">
        <ele>199</ele>
        <time>2012-01-10T14:02:03Z</time>
      </trkpt>
      <trkpt lat="44.56242" lon="0.91603">
        <ele>199</ele>
        <time>2012-01-10T14:02:04Z</time>
      </trkpt>
      <trkpt lat="44.5623" lon="0.91598">
        <ele>199</ele>
        <time>2012-01-10T14:02:09Z</time>
      </trkpt>
      <trkpt lat="44.56213" lon="0.91583">
        <ele>199</ele>
        <time>2012-01-10T14:02:10Z</time>
      </trkpt>
      <trkpt lat="44.56213" lon="0.91578">
        <ele>199</ele>
        <time>2012-01-10T14:02:11Z</time>
      </trkpt>
      <trkpt lat="44.56214" lon="0.91566">
        <ele>199</ele>
        <time>2012-01-10T14:02:17Z</time>
      </trkpt>
      <trkpt lat="44.56217" lon="0.91541">
        <ele>199</ele>
        <time>2012-01-10T14:02:17Z</time>
      </trkpt>
      <trkpt lat="44.56218" lon="0.91534">
        <ele>199</ele>
        <time>2012-01-10T14:02:18Z</time>
      </trkpt>
      <trkpt lat="44.5622" lon="0.91521">
        <ele>199</ele>
        <time>2012-01-10T14:02:23Z</time>
      </trkpt>
      <trkpt lat="44.56224" lon="0.915">
        <ele>199</ele>
        <time>2012-01-10T14:02:23Z</time>
      </trkpt>
      <trkpt lat="44.56226" lon="0.91492">
        <ele>199</ele>
        <time>2012-01-10T14:02:24Z</time>
      </trkpt>
      <trkpt lat="44.56237" lon="0.91461">
        <ele>199</ele>
        <time>2012-01-10T14:02:29Z</time>
      </trkpt>
      <trkpt lat="44.56239" lon="0.91453">
        <ele>199</ele>
        <time>2012-01-10T14:02:30Z</time>
      </trkpt>
      <trkpt lat="44.56251" lon="0.91405">
        <ele>199</ele>
        <time>2012-01-10T14:02:35Z</time>
      </trkpt>
      <trkpt lat="44.56251" lon="0.91392">
        <ele>198</ele>
        <time>2012-01-10T14:02:37Z</time>
      </trkpt>
      <trkpt lat="44.56251" lon="0.91378">
        <ele>197</ele>
        <time>2012-01-10T14:02:37Z</time>
      </trkpt>
      <trkpt lat="44.56239" lon="0.91306">
        <ele>196</ele>
        <time>2012-01-10T14:02:42Z</time>
      </trkpt>
      <trkpt lat="44.56237" lon="0.91291">
        <ele>195</ele>
        <time>2012-01-10T14:02:43Z</time>
      </trkpt>
      <trkpt lat="44.56233" lon="0.91277">
        <ele>194</ele>
        <time>2012-01-10T14:02:44Z</time>
      </trkpt>
      <trkpt lat="44.56227" lon="0.91252">
        <ele>193</ele>
        <time>2012-01-10T14:02:49Z</time>
      </trkpt>
      <trkpt lat="44.56216" lon="0.91224">
        <ele>192</ele>
        <time>2012-01-10T14:02:49Z</time>
      </trkpt>
      <trkpt lat="44.56209" lon="0.91214">
        <ele>191</ele>
        <time>2012-01-10T14:02:50Z</time>
      </trkpt>
      <trkpt lat="44.56204" lon="0.91204">
        <ele>189</ele>
        <time>2012-01-10T14:02:51Z</time>
      </trkpt>
      <trkpt lat="44.56195" lon="0.91182">
        <ele>187</ele>
        <time>2012-01-10T14:02:55Z</time>
      </trkpt>
      <trkpt lat="44.56184" lon="0.91145">
        <ele>185</ele>
        <time>2012-01-10T14:02:56Z</time>
      </trkpt>
      <trkpt lat="44.56182" lon="0.91131">
        <ele>183</ele>
        <time>2012-01-10T14:02:57Z</time>
      </trkpt>
      <trkpt lat="44.5618" lon="0.91118">
        <ele>182</ele>
        <time>2012-01-10T14:02:58Z</time>
      </trkpt>
      <trkpt lat="44.56175" lon="0.91092">
        <ele>181</ele>
        <time>2012-01-10T14:03:03Z</time>
      </trkpt>
      <trkpt lat="44.56161" lon="0.9106">
        <ele>180</ele>
        <time>2012-01-10T14:03:03Z</time>
      </trkpt>
      <trkpt lat="44.56155" lon="0.9105">
        <ele>179</ele>
        <time>2012-01-10T14:03:04Z</time>
      </trkpt>
      <trkpt lat="44.56149" lon="0.91041">
        <ele>178</ele>
        <time>2012-01-10T14:03:06Z</time>
      </trkpt>
      <trkpt lat="44.56132" lon="0.91006">
        <ele>177</ele>
        <time>2012-01-10T14:03:10Z</time>
      </trkpt>
      <trkpt lat="44.5613" lon="0.91003">
        <ele>176</ele>
        <time>2012-01-10T14:03:11Z</time>
      </trkpt>
      <trkpt lat="44.5612" lon="0.90983">
        <ele>176</ele>
        <time>2012-01-10T14:03:16Z</time>
      </trkpt>
      <trkpt lat="44.5612" lon="0.90979">
        <ele>176</ele>
        <time>2012-01-10T14:03:17Z</time>
      </trkpt>
      <trkpt lat="44.56118" lon="0.90975">
        <ele>176</ele>
        <time>2012-01-10T14:03:18Z</time>
      </trkpt>
      <trkpt lat="44.56117" lon="0.90968">
        <ele>176</ele>
        <time>2012-01-10T14:03:23Z</time>
      </trkpt>
      <trkpt lat="44.56114" lon="0.90959">
        <ele>177</ele>
        <time>2012-01-10T14:03:23Z</time>
      </trkpt>
      <trkpt lat="44.56114" lon="0.90955">
        <ele>178</ele>
        <time>2012-01-10T14:03:24Z</time>
      </trkpt>
      <trkpt lat="44.56107" lon="0.90938">
        <ele>179</ele>
        <time>2012-01-10T14:03:29Z</time>
      </trkpt>
      <trkpt lat="44.56107" lon="0.90935">
        <ele>180</ele>
        <time>2012-01-10T14:03:30Z</time>
      </trkpt>
      <trkpt lat="44.56106" lon="0.90931">
        <ele>181</ele>
        <time>2012-01-10T14:03:31Z</time>
      </trkpt>
      <trkpt lat="44.56105" lon="0.90924">
        <ele>182</ele>
        <time>2012-01-10T14:03:35Z</time>
      </trkpt>
      <trkpt lat="44.56103" lon="0.90915">
        <ele>183</ele>
        <time>2012-01-10T14:03:36Z</time>
      </trkpt>
      <trkpt lat="44.56102" lon="0.90912">
        <ele>184</ele>
        <time>2012-01-10T14:03:37Z</time>
      </trkpt>
      <trkpt lat="44.561" lon="0.90904">
        <ele>185</ele>
        <time>2012-01-10T14:03:42Z</time>
      </trkpt>
      <trkpt lat="44.56098" lon="0.90891">
        <ele>186</ele>
        <time>2012-01-10T14:03:42Z</time>
      </trkpt>
      <trkpt lat="44.56098" lon="0.90888">
        <ele>187</ele>
        <time>2012-01-10T14:03:43Z</time>
      </trkpt>
      <trkpt lat="44.56096" lon="0.90881">
        <ele>188</ele>
        <time>2012-01-10T14:03:48Z</time>
      </trkpt>
      <trkpt lat="44.56092" lon="0.90869">
        <ele>189</ele>
        <time>2012-01-10T14:03:48Z</time>
      </trkpt>
      <trkpt lat="44.56091" lon="0.90864">
        <ele>190</ele>
        <time>2012-01-10T14:03:49Z</time>
      </trkpt>
      <trkpt lat="44.56089" lon="0.9086">
        <ele>191</ele>
        <time>2012-01-10T14:03:50Z</time>
      </trkpt>
      <trkpt lat="44.56085" lon="0.90853">
        <ele>192</ele>
        <time>2012-01-10T14:03:54Z</time>
      </trkpt>
      <trkpt lat="44.56078" lon="0.90841">
        <ele>192</ele>
        <time>2012-01-10T14:03:55Z</time>
      </trkpt>
      <trkpt lat="44.56077" lon="0.90838">
        <ele>193</ele>
        <time>2012-01-10T14:03:56Z</time>
      </trkpt>
      <trkpt lat="44.56076" lon="0.90833">
        <ele>194</ele>
        <time>2012-01-10T14:03:57Z</time>
      </trkpt>
      <trkpt lat="44.56076" lon="0.90829">
        <ele>194</ele>
        <time>2012-01-10T14:03:58Z</time>
      </trkpt>
      <trkpt lat="44.56076" lon="0.90822">
        <ele>195</ele>
        <time>2012-01-10T14:04:02Z</time>
      </trkpt>
      <trkpt lat="44.56079" lon="0.9081">
        <ele>196</ele>
        <time>2012-01-10T14:04:03Z</time>
      </trkpt>
      <trkpt lat="44.56079" lon="0.90807">
        <ele>197</ele>
        <time>2012-01-10T14:04:05Z</time>
      </trkpt>
      <trkpt lat="44.5608" lon="0.90805">
        <ele>198</ele>
        <time>2012-01-10T14:04:05Z</time>
      </trkpt>
      <trkpt lat="44.56081" lon="0.90801">
        <ele>199</ele>
        <time>2012-01-10T14:04:10Z</time>
      </trkpt>
      <trkpt lat="44.56083" lon="0.90795">
        <ele>200</ele>
        <time>2012-01-10T14:04:10Z</time>
      </trkpt>
      <trkpt lat="44.56083" lon="0.90793">
        <ele>201</ele>
        <time>2012-01-10T14:04:11Z</time>
      </trkpt>
      <trkpt lat="44.56085" lon="0.90788">
        <ele>202</ele>
        <time>2012-01-10T14:04:16Z</time>
      </trkpt>
      <trkpt lat="44.56085" lon="0.90786">
        <ele>204</ele>
        <time>2012-01-10T14:04:25Z</time>
      </trkpt>
      <trkpt lat="44.56086" lon="0.90785">
        <ele>206</ele>
        <time>2012-01-10T14:04:27Z</time>
      </trkpt>
      <trkpt lat="44.56086" lon="0.90783">
        <ele>206</ele>
        <time>2012-01-10T14:04:32Z</time>
      </trkpt>
      <trkpt lat="44.56086" lon="0.90782">
        <ele>206</ele>
        <time>2012-01-10T14:04:40Z</time>
      </trkpt>
      <trkpt lat="44.56085" lon="0.9078">
        <ele>206</ele>
        <time>2012-01-10T14:04:43Z</time>
      </trkpt>
      <trkpt lat="44.56087" lon="0.90779">
        <ele>206</ele>
        <time>2012-01-10T14:04:52Z</time>
      </trkpt>
      <trkpt lat="44.56087" lon="0.90776">
        <ele>206</ele>
        <time>2012-01-10T14:04:54Z</time>
      </trkpt>
      <trkpt lat="44.56089" lon="0.90776">
        <ele>206</ele>
        <time>2012-01-10T14:04:57Z</time>
      </trkpt>
      <trkpt lat="44.5609" lon="0.90776">
        <ele>206</ele>
        <time>2012-01-10T14:04:58Z</time>
      </trkpt>
      <trkpt lat="44.56094" lon="0.9077">
        <ele>206</ele>
        <time>2012-01-10T14:05:10Z</time>
      </trkpt>
      <trkpt lat="44.56096" lon="0.90767">
        <ele>206</ele>
        <time>2012-01-10T14:05:11Z</time>
      </trkpt>
      <trkpt lat="44.56099" lon="0.90759">
        <ele>206</ele>
        <time>2012-01-10T14:05:16Z</time>
      </trkpt>
      <trkpt lat="44.56104" lon="0.90747">
        <ele>206</ele>
        <time>2012-01-10T14:05:16Z</time>
      </trkpt>
      <trkpt lat="44.56105" lon="0.90743">
        <ele>206</ele>
        <time>2012-01-10T14:05:17Z</time>
      </trkpt>
      <trkpt lat="44.56109" lon="0.90734">
        <ele>205</ele>
        <time>2012-01-10T14:05:22Z</time>
      </trkpt>
      <trkpt lat="44.56114" lon="0.90721">
        <ele>204</ele>
        <time>2012-01-10T14:05:22Z</time>
      </trkpt>
      <trkpt lat="44.56116" lon="0.90717">
        <ele>203</ele>
        <time>2012-01-10T14:05:23Z</time>
      </trkpt>
      <trkpt lat="44.56127" lon="0.90698">
        <ele>203</ele>
        <time>2012-01-10T14:05:28Z</time>
      </trkpt>
      <trkpt lat="44.56129" lon="0.90694">
        <ele>202</ele>
        <time>2012-01-10T14:05:29Z</time>
      </trkpt>
      <trkpt lat="44.56133" lon="0.90686">
        <ele>201</ele>
        <time>2012-01-10T14:05:34Z</time>
      </trkpt>
      <trkpt lat="44.56139" lon="0.90669">
        <ele>201</ele>
        <time>2012-01-10T14:05:35Z</time>
      </trkpt>
      <trkpt lat="44.56139" lon="0.90664">
        <ele>201</ele>
        <time>2012-01-10T14:05:36Z</time>
      </trkpt>
      <trkpt lat="44.56146" lon="0.90633">
        <ele>201</ele>
        <time>2012-01-10T14:05:42Z</time>
      </trkpt>
      <trkpt lat="44.56147" lon="0.90628">
        <ele>201</ele>
        <time>2012-01-10T14:05:43Z</time>
      </trkpt>
      <trkpt lat="44.56149" lon="0.90617">
        <ele>201</ele>
        <time>2012-01-10T14:05:47Z</time>
      </trkpt>
      <trkpt lat="44.56152" lon="0.90602">
        <ele>201</ele>
        <time>2012-01-10T14:05:48Z</time>
      </trkpt>
      <trkpt lat="44.56153" lon="0.90597">
        <ele>201</ele>
        <time>2012-01-10T14:05:49Z</time>
      </trkpt>
      <trkpt lat="44.56156" lon="0.90587">
        <ele>201</ele>
        <time>2012-01-10T14:05:54Z</time>
      </trkpt>
      <trkpt lat="44.56159" lon="0.90574">
        <ele>201</ele>
        <time>2012-01-10T14:05:54Z</time>
      </trkpt>
      <trkpt lat="44.5616" lon="0.9057">
        <ele>201</ele>
        <time>2012-01-10T14:05:55Z</time>
      </trkpt>
      <trkpt lat="44.56165" lon="0.90566">
        <ele>201</ele>
        <time>2012-01-10T14:06:00Z</time>
      </trkpt>
      <trkpt lat="44.56175" lon="0.90568">
        <ele>201</ele>
        <time>2012-01-10T14:06:00Z</time>
      </trkpt>
      <trkpt lat="44.56179" lon="0.90569">
        <ele>201</ele>
        <time>2012-01-10T14:06:01Z</time>
      </trkpt>
      <trkpt lat="44.56182" lon="0.9057">
        <ele>201</ele>
        <time>2012-01-10T14:06:02Z</time>
      </trkpt>
      <trkpt lat="44.56201" lon="0.90573">
        <ele>201</ele>
        <time>2012-01-10T14:06:07Z</time>
      </trkpt>
      <trkpt lat="44.56205" lon="0.90573">
        <ele>201</ele>
        <time>2012-01-10T14:06:08Z</time>
      </trkpt>
      <trkpt lat="44.56213" lon="0.90573">
        <ele>201</ele>
        <time>2012-01-10T14:06:13Z</time>
      </trkpt>
      <trkpt lat="44.5623" lon="0.90574">
        <ele>201</ele>
        <time>2012-01-10T14:06:14Z</time>
      </trkpt>
      <trkpt lat="44.56235" lon="0.90573">
        <ele>201</ele>
        <time>2012-01-10T14:06:15Z</time>
      </trkpt>
      <trkpt lat="44.56244" lon="0.90572">
        <ele>201</ele>
        <time>2012-01-10T14:06:19Z</time>
      </trkpt>
      <trkpt lat="44.56258" lon="0.90569">
        <ele>201</ele>
        <time>2012-01-10T14:06:20Z</time>
      </trkpt>
      <trkpt lat="44.56263" lon="0.90568">
        <ele>201</ele>
        <time>2012-01-10T14:06:21Z</time>
      </trkpt>
      <trkpt lat="44.56274" lon="0.90566">
        <ele>201</ele>
        <time>2012-01-10T14:06:26Z</time>
      </trkpt>
      <trkpt lat="44.5629" lon="0.90562">
        <ele>201</ele>
        <time>2012-01-10T14:06:26Z</time>
      </trkpt>
      <trkpt lat="44.56296" lon="0.90561">
        <ele>201</ele>
        <time>2012-01-10T14:06:27Z</time>
      </trkpt>
      <trkpt lat="44.56307" lon="0.90558">
        <ele>201</ele>
        <time>2012-01-10T14:06:32Z</time>
      </trkpt>
      <trkpt lat="44.56324" lon="0.90554">
        <ele>201</ele>
        <time>2012-01-10T14:06:32Z</time>
      </trkpt>
      <trkpt lat="44.56329" lon="0.90553">
        <ele>201</ele>
        <time>2012-01-10T14:06:33Z</time>
      </trkpt>
      <trkpt lat="44.56357" lon="0.90548">
        <ele>201</ele>
        <time>2012-01-10T14:06:38Z</time>
      </trkpt>
      <trkpt lat="44.56363" lon="0.90546">
        <ele>201</ele>
        <time>2012-01-10T14:06:39Z</time>
      </trkpt>
      <trkpt lat="44.56374" lon="0.90544">
        <ele>201</ele>
        <time>2012-01-10T14:06:44Z</time>
      </trkpt>
      <trkpt lat="44.56398" lon="0.9054">
        <ele>201</ele>
        <time>2012-01-10T14:06:45Z</time>
      </trkpt>
      <trkpt lat="44.56404" lon="0.90539">
        <ele>201</ele>
        <time>2012-01-10T14:06:46Z</time>
      </trkpt>
      <trkpt lat="44.56416" lon="0.90538">
        <ele>201</ele>
        <time>2012-01-10T14:06:50Z</time>
      </trkpt>
      <trkpt lat="44.56434" lon="0.90537">
        <ele>201</ele>
        <time>2012-01-10T14:06:51Z</time>
      </trkpt>
      <trkpt lat="44.5644" lon="0.90538">
        <ele>201</ele>
        <time>2012-01-10T14:06:52Z</time>
      </trkpt>
      <trkpt lat="44.56453" lon="0.90539">
        <ele>201</ele>
        <time>2012-01-10T14:06:57Z</time>
      </trkpt>
      <trkpt lat="44.56471" lon="0.90543">
        <ele>201</ele>
        <time>2012-01-10T14:06:57Z</time>
      </trkpt>
      <trkpt lat="44.56477" lon="0.90544">
        <ele>201</ele>
        <time>2012-01-10T14:06:58Z</time>
      </trkpt>
      <trkpt lat="44.5649" lon="0.90547">
        <ele>201</ele>
        <time>2012-01-10T14:07:03Z</time>
      </trkpt>
      <trkpt lat="44.56505" lon="0.90553">
        <ele>201</ele>
        <time>2012-01-10T14:07:03Z</time>
      </trkpt>
      <trkpt lat="44.56511" lon="0.90555">
        <ele>201</ele>
        <time>2012-01-10T14:07:04Z</time>
      </trkpt>
      <trkpt lat="44.5654" lon="0.90566">
        <ele>201</ele>
        <time>2012-01-10T14:07:09Z</time>
      </trkpt>
      <trkpt lat="44.56546" lon="0.90568">
        <ele>201</ele>
        <time>2012-01-10T14:07:10Z</time>
      </trkpt>
      <trkpt lat="44.56551" lon="0.9057">
        <ele>201</ele>
        <time>2012-01-10T14:07:11Z</time>
      </trkpt>
      <trkpt lat="44.56563" lon="0.90574">
        <ele>201</ele>
        <time>2012-01-10T14:07:15Z</time>
      </trkpt>
      <trkpt lat="44.56581" lon="0.90581">
        <ele>201</ele>
        <time>2012-01-10T14:07:16Z</time>
      </trkpt>
      <trkpt lat="44.56587" lon="0.90583">
        <ele>201</ele>
        <time>2012-01-10T14:07:17Z</time>
      </trkpt>
      <trkpt lat="44.56598" lon="0.9059">
        <ele>201</ele>
        <time>2012-01-10T14:07:22Z</time>
      </trkpt>
      <trkpt lat="44.56614" lon="0.90605">
        <ele>201</ele>
        <time>2012-01-10T14:07:22Z</time>
      </trkpt>
      <trkpt lat="44.56618" lon="0.90611">
        <ele>201</ele>
        <time>2012-01-10T14:07:23Z</time>
      </trkpt>
      <trkpt lat="44.56622" lon="0.90617">
        <ele>201</ele>
        <time>2012-01-10T14:07:24Z</time>
      </trkpt>
      <trkpt lat="44.5663" lon="0.9063">
        <ele>201</ele>
        <time>2012-01-10T14:07:29Z</time>
      </trkpt>
      <trkpt lat="44.5664" lon="0.90649">
        <ele>201</ele>
        <time>2012-01-10T14:07:29Z</time>
      </trkpt>
      <trkpt lat="44.56644" lon="0.90656">
        <ele>201</ele>
        <time>2012-01-10T14:07:30Z</time>
      </trkpt>
      <trkpt lat="44.5665" lon="0.90669">
        <ele>201</ele>
        <time>2012-01-10T14:07:35Z</time>
      </trkpt>
      <trkpt lat="44.56659" lon="0.90687">
        <ele>201</ele>
        <time>2012-01-10T14:07:35Z</time>
      </trkpt>
      <trkpt lat="44.56662" lon="0.90692">
        <ele>201</ele>
        <time>2012-01-10T14:07:36Z</time>
      </trkpt>
      <trkpt lat="44.56674" lon="0.90711">
        <ele>201</ele>
        <time>2012-01-10T14:07:41Z</time>
      </trkpt>
      <trkpt lat="44.56676" lon="0.90715">
        <ele>201</ele>
        <time>2012-01-10T14:07:42Z</time>
      </trkpt>
      <trkpt lat="44.56678" lon="0.90718">
        <ele>201</ele>
        <time>2012-01-10T14:07:43Z</time>
      </trkpt>
      <trkpt lat="44.56683" lon="0.90724">
        <ele>202</ele>
        <time>2012-01-10T14:07:47Z</time>
      </trkpt>
      <trkpt lat="44.56691" lon="0.90733">
        <ele>202</ele>
        <time>2012-01-10T14:07:48Z</time>
      </trkpt>
      <trkpt lat="44.56693" lon="0.90736">
        <ele>203</ele>
        <time>2012-01-10T14:07:49Z</time>
      </trkpt>
      <trkpt lat="44.56699" lon="0.9074">
        <ele>204</ele>
        <time>2012-01-10T14:07:54Z</time>
      </trkpt>
      <trkpt lat="44.56707" lon="0.90748">
        <ele>204</ele>
        <time>2012-01-10T14:07:54Z</time>
      </trkpt>
      <trkpt lat="44.5671" lon="0.9075">
        <ele>205</ele>
        <time>2012-01-10T14:07:55Z</time>
      </trkpt>
      <trkpt lat="44.56725" lon="0.90762">
        <ele>205</ele>
        <time>2012-01-10T14:08:00Z</time>
      </trkpt>
      <trkpt lat="44.56728" lon="0.90764">
        <ele>205</ele>
        <time>2012-01-10T14:08:01Z</time>
      </trkpt>
      <trkpt lat="44.56734" lon="0.90768">
        <ele>206</ele>
        <time>2012-01-10T14:08:06Z</time>
      </trkpt>
      <trkpt lat="44.56746" lon="0.90776">
        <ele>206</ele>
        <time>2012-01-10T14:08:07Z</time>
      </trkpt>
      <trkpt lat="44.56749" lon="0.90778">
        <ele>206</ele>
        <time>2012-01-10T14:08:08Z</time>
      </trkpt>
      <trkpt lat="44.56755" lon="0.90782">
        <ele>207</ele>
        <time>2012-01-10T14:08:12Z</time>
      </trkpt>
      <trkpt lat="44.56765" lon="0.90788">
        <ele>207</ele>
        <time>2012-01-10T14:08:13Z</time>
      </trkpt>
      <trkpt lat="44.56768" lon="0.9079">
        <ele>208</ele>
        <time>2012-01-10T14:08:14Z</time>
      </trkpt>
      <trkpt lat="44.56775" lon="0.90794">
        <ele>208</ele>
        <time>2012-01-10T14:08:19Z</time>
      </trkpt>
      <trkpt lat="44.56786" lon="0.908">
        <ele>208</ele>
        <time>2012-01-10T14:08:19Z</time>
      </trkpt>
      <trkpt lat="44.56789" lon="0.90802">
        <ele>209</ele>
        <time>2012-01-10T14:08:20Z</time>
      </trkpt>
      <trkpt lat="44.56806" lon="0.90812">
        <ele>209</ele>
        <time>2012-01-10T14:08:25Z</time>
      </trkpt>
      <trkpt lat="44.5681" lon="0.90813">
        <ele>209</ele>
        <time>2012-01-10T14:08:26Z</time>
      </trkpt>
      <trkpt lat="44.56817" lon="0.90817">
        <ele>209</ele>
        <time>2012-01-10T14:08:31Z</time>
      </trkpt>
      <trkpt lat="44.56833" lon="0.90824">
        <ele>209</ele>
        <time>2012-01-10T14:08:32Z</time>
      </trkpt>
      <trkpt lat="44.56836" lon="0.90825">
        <ele>209</ele>
        <time>2012-01-10T14:08:33Z</time>
      </trkpt>
      <trkpt lat="44.56844" lon="0.90828">
        <ele>210</ele>
        <time>2012-01-10T14:08:37Z</time>
      </trkpt>
      <trkpt lat="44.56855" lon="0.90834">
        <ele>210</ele>
        <time>2012-01-10T14:08:38Z</time>
      </trkpt>
      <trkpt lat="44.56859" lon="0.90836">
        <ele>210</ele>
        <time>2012-01-10T14:08:39Z</time>
      </trkpt>
      <trkpt lat="44.56867" lon="0.9084">
        <ele>210</ele>
        <time>2012-01-10T14:08:44Z</time>
      </trkpt>
      <trkpt lat="44.56878" lon="0.90844">
        <ele>211</ele>
        <time>2012-01-10T14:08:44Z</time>
      </trkpt>
      <trkpt lat="44.56881" lon="0.90846">
        <ele>211</ele>
        <time>2012-01-10T14:08:45Z</time>
      </trkpt>
      <trkpt lat="44.569" lon="0.90854">
        <ele>211</ele>
        <time>2012-01-10T14:08:50Z</time>
      </trkpt>
      <trkpt lat="44.56903" lon="0.90855">
        <ele>211</ele>
        <time>2012-01-10T14:08:51Z</time>
      </trkpt>
      <trkpt lat="44.56911" lon="0.90856">
        <ele>211</ele>
        <time>2012-01-10T14:08:56Z</time>
      </trkpt>
      <trkpt lat="44.56926" lon="0.90863">
        <ele>211</ele>
        <time>2012-01-10T14:08:57Z</time>
      </trkpt>
      <trkpt lat="44.56929" lon="0.90864">
        <ele>211</ele>
        <time>2012-01-10T14:08:58Z</time>
      </trkpt>
      <trkpt lat="44.56935" lon="0.90865">
        <ele>212</ele>
        <time>2012-01-10T14:09:02Z</time>
      </trkpt>
      <trkpt lat="44.56945" lon="0.90869">
        <ele>212</ele>
        <time>2012-01-10T14:09:03Z</time>
      </trkpt>
      <trkpt lat="44.56947" lon="0.90871">
        <ele>212</ele>
        <time>2012-01-10T14:09:04Z</time>
      </trkpt>
      <trkpt lat="44.56953" lon="0.90873">
        <ele>212</ele>
        <time>2012-01-10T14:09:09Z</time>
      </trkpt>
      <trkpt lat="44.56962" lon="0.90877">
        <ele>212</ele>
        <time>2012-01-10T14:09:09Z</time>
      </trkpt>
      <trkpt lat="44.56965" lon="0.90878">
        <ele>212</ele>
        <time>2012-01-10T14:09:10Z</time>
      </trkpt>
      <trkpt lat="44.5698" lon="0.90883">
        <ele>212</ele>
        <time>2012-01-10T14:09:15Z</time>
      </trkpt>
      <trkpt lat="44.56983" lon="0.90884">
        <ele>212</ele>
        <time>2012-01-10T14:09:16Z</time>
      </trkpt>
      <trkpt lat="44.5699" lon="0.90886">
        <ele>212</ele>
        <time>2012-01-10T14:09:21Z</time>
      </trkpt>
      <trkpt lat="44.57004" lon="0.90892">
        <ele>212</ele>
        <time>2012-01-10T14:09:22Z</time>
      </trkpt>
      <trkpt lat="44.57008" lon="0.90893">
        <ele>212</ele>
        <time>2012-01-10T14:09:23Z</time>
      </trkpt>
      <trkpt lat="44.57015" lon="0.90896">
        <ele>212</ele>
        <time>2012-01-10T14:09:27Z</time>
      </trkpt>
      <trkpt lat="44.57025" lon="0.90901">
        <ele>212</ele>
        <time>2012-01-10T14:09:28Z</time>
      </trkpt>
      <trkpt lat="44.57029" lon="0.90902">
        <ele>212</ele>
        <time>2012-01-10T14:09:29Z</time>
      </trkpt>
      <trkpt lat="44.57036" lon="0.90905">
        <ele>212</ele>
        <time>2012-01-10T14:09:34Z</time>
      </trkpt>
      <trkpt lat="44.57047" lon="0.9091">
        <ele>212</ele>
        <time>2012-01-10T14:09:34Z</time>
      </trkpt>
      <trkpt lat="44.57051" lon="0.90912">
        <ele>212</ele>
        <time>2012-01-10T14:09:35Z</time>
      </trkpt>
      <trkpt lat="44.57068" lon="0.9092">
        <ele>212</ele>
        <time>2012-01-10T14:09:40Z</time>
      </trkpt>
      <trkpt lat="44.57072" lon="0.90921">
        <ele>212</ele>
        <time>2012-01-10T14:09:41Z</time>
      </trkpt>
      <trkpt lat="44.57075" lon="0.90922">
        <ele>212</ele>
        <time>2012-01-10T14:09:42Z</time>
      </trkpt>
      <trkpt lat="44.57082" lon="0.90925">
        <ele>212</ele>
        <time>2012-01-10T14:09:46Z</time>
      </trkpt>
      <trkpt lat="44.57092" lon="0.9093">
        <ele>212</ele>
        <time>2012-01-10T14:09:47Z</time>
      </trkpt>
      <trkpt lat="44.57095" lon="0.90931">
        <ele>212</ele>
        <time>2012-01-10T14:09:48Z</time>
      </trkpt>
      <trkpt lat="44.57102" lon="0.90934">
        <ele>212</ele>
        <time>2012-01-10T14:09:53Z</time>
      </trkpt>
      <trkpt lat="44.57113" lon="0.90939">
        <ele>212</ele>
        <time>2012-01-10T14:09:53Z</time>
      </trkpt>
      <trkpt lat="44.57116" lon="0.9094">
        <ele>212</ele>
        <time>2012-01-10T14:09:54Z</time>
      </trkpt>
      <trkpt lat="44.57132" lon="0.90948">
        <ele>212</ele>
        <time>2012-01-10T14:09:59Z</time>
      </trkpt>
      <trkpt lat="44.57135" lon="0.9095">
        <ele>212</ele>
        <time>2012-01-10T14:10:00Z</time>
      </trkpt>
      <trkpt lat="44.57141" lon="0.90955">
        <ele>212</ele>
        <time>2012-01-10T14:10:05Z</time>
      </trkpt>
      <trkpt lat="44.57153" lon="0.90965">
        <ele>213</ele>
        <time>2012-01-10T14:10:06Z</time>
      </trkpt>
      <trkpt lat="44.57155" lon="0.90968">
        <ele>213</ele>
        <time>2012-01-10T14:10:07Z</time>
      </trkpt>
      <trkpt lat="44.5716" lon="0.90974">
        <ele>214</ele>
        <time>2012-01-10T14:10:11Z</time>
      </trkpt>
      <trkpt lat="44.57166" lon="0.90982">
        <ele>214</ele>
        <time>2012-01-10T14:10:12Z</time>
      </trkpt>
      <trkpt lat="44.57168" lon="0.90984">
        <ele>214</ele>
        <time>2012-01-10T14:10:13Z</time>
      </trkpt>
      <trkpt lat="44.57172" lon="0.9099">
        <ele>214</ele>
        <time>2012-01-10T14:10:18Z</time>
      </trkpt>
      <trkpt lat="44.57176" lon="0.90998">
        <ele>215</ele>
        <time>2012-01-10T14:10:18Z</time>
      </trkpt>
      <trkpt lat="44.57178" lon="0.91001">
        <ele>215</ele>
        <time>2012-01-10T14:10:19Z</time>
      </trkpt>
      <trkpt lat="44.5718" lon="0.91008">
        <ele>215</ele>
        <time>2012-01-10T14:10:24Z</time>
      </trkpt>
      <trkpt lat="44.57186" lon="0.91022">
        <ele>215</ele>
        <time>2012-01-10T14:10:25Z</time>
      </trkpt>
      <trkpt lat="44.57187" lon="0.91026">
        <ele>215</ele>
        <time>2012-01-10T14:10:26Z</time>
      </trkpt>
      <trkpt lat="44.57189" lon="0.91034">
        <ele>215</ele>
        <time>2012-01-10T14:10:31Z</time>
      </trkpt>
      <trkpt lat="44.57192" lon="0.91046">
        <ele>215</ele>
        <time>2012-01-10T14:10:31Z</time>
      </trkpt>
      <trkpt lat="44.57194" lon="0.91051">
        <ele>216</ele>
        <time>2012-01-10T14:10:32Z</time>
      </trkpt>
      <trkpt lat="44.57196" lon="0.91061">
        <ele>216</ele>
        <time>2012-01-10T14:10:37Z</time>
      </trkpt>
      <trkpt lat="44.57201" lon="0.91075">
        <ele>217</ele>
        <time>2012-01-10T14:10:37Z</time>
      </trkpt>
      <trkpt lat="44.57202" lon="0.9108">
        <ele>217</ele>
        <time>2012-01-10T14:10:38Z</time>
      </trkpt>
      <trkpt lat="44.57205" lon="0.9109">
        <ele>217</ele>
        <time>2012-01-10T14:10:43Z</time>
      </trkpt>
      <trkpt lat="44.57211" lon="0.9111">
        <ele>218</ele>
        <time>2012-01-10T14:10:44Z</time>
      </trkpt>
      <trkpt lat="44.57212" lon="0.91115">
        <ele>218</ele>
        <time>2012-01-10T14:10:45Z</time>
      </trkpt>
      <trkpt lat="44.57215" lon="0.91125">
        <ele>218</ele>
        <time>2012-01-10T14:10:49Z</time>
      </trkpt>
      <trkpt lat="44.5722" lon="0.9114">
        <ele>219</ele>
        <time>2012-01-10T14:10:50Z</time>
      </trkpt>
      <trkpt lat="44.57221" lon="0.91144">
        <ele>219</ele>
        <time>2012-01-10T14:10:51Z</time>
      </trkpt>
      <trkpt lat="44.57224" lon="0.91154">
        <ele>220</ele>
        <time>2012-01-10T14:10:56Z</time>
      </trkpt>
      <trkpt lat="44.57228" lon="0.91169">
        <ele>221</ele>
        <time>2012-01-10T14:10:56Z</time>
      </trkpt>
      <trkpt lat="44.5723" lon="0.91173">
        <ele>221</ele>
        <time>2012-01-10T14:10:57Z</time>
      </trkpt>
      <trkpt lat="44.57236" lon="0.91198">
        <ele>222</ele>
        <time>2012-01-10T14:11:02Z</time>
      </trkpt>
      <trkpt lat="44.57238" lon="0.91203">
        <ele>223</ele>
        <time>2012-01-10T14:11:03Z</time>
      </trkpt>
      <trkpt lat="44.57239" lon="0.91207">
        <ele>224</ele>
        <time>2012-01-10T14:11:04Z</time>
      </trkpt>
      <trkpt lat="44.57241" lon="0.91217">
        <ele>224</ele>
        <time>2012-01-10T14:11:08Z</time>
      </trkpt>
      <trkpt lat="44.57245" lon="0.91229">
        <ele>225</ele>
        <time>2012-01-10T14:11:09Z</time>
      </trkpt>
      <trkpt lat="44.57246" lon="0.91233">
        <ele>226</ele>
        <time>2012-01-10T14:11:10Z</time>
      </trkpt>
      <trkpt lat="44.57248" lon="0.91242">
        <ele>227</ele>
        <time>2012-01-10T14:11:15Z</time>
      </trkpt>
      <trkpt lat="44.57252" lon="0.91254">
        <ele>227</ele>
        <time>2012-01-10T14:11:15Z</time>
      </trkpt>
      <trkpt lat="44.57253" lon="0.91259">
        <ele>228</ele>
        <time>2012-01-10T14:11:16Z</time>
      </trkpt>
      <trkpt lat="44.57256" lon="0.91267">
        <ele>229</ele>
        <time>2012-01-10T14:11:21Z</time>
      </trkpt>
      <trkpt lat="44.5726" lon="0.91283">
        <ele>229</ele>
        <time>2012-01-10T14:11:22Z</time>
      </trkpt>
      <trkpt lat="44.57262" lon="0.91287">
        <ele>230</ele>
        <time>2012-01-10T14:11:23Z</time>
      </trkpt>
      <trkpt lat="44.57264" lon="0.91295">
        <ele>231</ele>
        <time>2012-01-10T14:11:27Z</time>
      </trkpt>
      <trkpt lat="44.57267" lon="0.91307">
        <ele>231</ele>
        <time>2012-01-10T14:11:28Z</time>
      </trkpt>
      <trkpt lat="44.57269" lon="0.91311">
        <ele>231</ele>
        <time>2012-01-10T14:11:29Z</time>
      </trkpt>
      <trkpt lat="44.57271" lon="0.91319">
        <ele>231</ele>
        <time>2012-01-10T14:11:34Z</time>
      </trkpt>
      <trkpt lat="44.57275" lon="0.91333">
        <ele>231</ele>
        <time>2012-01-10T14:11:34Z</time>
      </trkpt>
      <trkpt lat="44.57276" lon="0.91337">
        <ele>231</ele>
        <time>2012-01-10T14:11:35Z</time>
      </trkpt>
      <trkpt lat="44.5728" lon="0.91348">
        <ele>231</ele>
        <time>2012-01-10T14:11:40Z</time>
      </trkpt>
      <trkpt lat="44.57286" lon="0.9137">
        <ele>231</ele>
        <time>2012-01-10T14:11:41Z</time>
      </trkpt>
      <trkpt lat="44.57288" lon="0.91376">
        <ele>231</ele>
        <time>2012-01-10T14:11:42Z</time>
      </trkpt>
      <trkpt lat="44.57291" lon="0.91387">
        <ele>231</ele>
        <time>2012-01-10T14:11:46Z</time>
      </trkpt>
      <trkpt lat="44.57296" lon="0.91404">
        <ele>231</ele>
        <time>2012-01-10T14:11:47Z</time>
      </trkpt>
      <trkpt lat="44.57298" lon="0.91408">
        <ele>231</ele>
        <time>2012-01-10T14:11:48Z</time>
      </trkpt>
      <trkpt lat="44.57299" lon="0.91417">
        <ele>231</ele>
        <time>2012-01-10T14:11:53Z</time>
      </trkpt>
      <trkpt lat="44.57304" lon="0.9143">
        <ele>231</ele>
        <time>2012-01-10T14:11:53Z</time>
      </trkpt>
      <trkpt lat="44.57305" lon="0.91435">
        <ele>231</ele>
        <time>2012-01-10T14:11:54Z</time>
      </trkpt>
      <trkpt lat="44.57307" lon="0.91444">
        <ele>231</ele>
        <time>2012-01-10T14:11:59Z</time>
      </trkpt>
      <trkpt lat="44.57313" lon="0.9146">
        <ele>231</ele>
        <time>2012-01-10T14:12:00Z</time>
      </trkpt>
      <trkpt lat="44.57314" lon="0.91464">
        <ele>231</ele>
        <time>2012-01-10T14:12:01Z</time>
      </trkpt>
      <trkpt lat="44.57317" lon="0.91472">
        <ele>231</ele>
        <time>2012-01-10T14:12:05Z</time>
      </trkpt>
      <trkpt lat="44.5732" lon="0.91485">
        <ele>232</ele>
        <time>2012-01-10T14:12:06Z</time>
      </trkpt>
      <trkpt lat="44.57322" lon="0.91489">
        <ele>232</ele>
        <time>2012-01-10T14:12:07Z</time>
      </trkpt>
      <trkpt lat="44.57325" lon="0.91498">
        <ele>233</ele>
        <time>2012-01-10T14:12:12Z</time>
      </trkpt>
      <trkpt lat="44.57328" lon="0.91511">
        <ele>233</ele>
        <time>2012-01-10T14:12:12Z</time>
      </trkpt>
      <trkpt lat="44.5733" lon="0.91515">
        <ele>234</ele>
        <time>2012-01-10T14:12:13Z</time>
      </trkpt>
      <trkpt lat="44.57332" lon="0.91524">
        <ele>234</ele>
        <time>2012-01-10T14:12:18Z</time>
      </trkpt>
      <trkpt lat="44.57336" lon="0.91543">
        <ele>235</ele>
        <time>2012-01-10T14:12:19Z</time>
      </trkpt>
      <trkpt lat="44.57337" lon="0.91547">
        <ele>235</ele>
        <time>2012-01-10T14:12:20Z</time>
      </trkpt>
      <trkpt lat="44.5734" lon="0.91557">
        <ele>236</ele>
        <time>2012-01-10T14:12:25Z</time>
      </trkpt>
      <trkpt lat="44.57343" lon="0.9157">
        <ele>236</ele>
        <time>2012-01-10T14:12:25Z</time>
      </trkpt>
      <trkpt lat="44.57344" lon="0.91575">
        <ele>237</ele>
        <time>2012-01-10T14:12:26Z</time>
      </trkpt>
      <trkpt lat="44.57352" lon="0.91599">
        <ele>237</ele>
        <time>2012-01-10T14:12:31Z</time>
      </trkpt>
      <trkpt lat="44.57354" lon="0.91604">
        <ele>237</ele>
        <time>2012-01-10T14:12:32Z</time>
      </trkpt>
      <trkpt lat="44.57359" lon="0.91613">
        <ele>237</ele>
        <time>2012-01-10T14:12:37Z</time>
      </trkpt>
      <trkpt lat="44.57369" lon="0.91632">
        <ele>237</ele>
        <time>2012-01-10T14:12:38Z</time>
      </trkpt>
      <trkpt lat="44.57372" lon="0.91637">
        <ele>237</ele>
        <time>2012-01-10T14:12:39Z</time>
      </trkpt>
      <trkpt lat="44.57379" lon="0.91647">
        <ele>237</ele>
        <time>2012-01-10T14:12:44Z</time>
      </trkpt>
      <trkpt lat="44.57391" lon="0.91662">
        <ele>237</ele>
        <time>2012-01-10T14:12:44Z</time>
      </trkpt>
      <trkpt lat="44.57396" lon="0.91665">
        <ele>237</ele>
        <time>2012-01-10T14:12:45Z</time>
      </trkpt>
      <trkpt lat="44.57418" lon="0.91688">
        <ele>237</ele>
        <time>2012-01-10T14:12:50Z</time>
      </trkpt>
      <trkpt lat="44.57423" lon="0.91692">
        <ele>237</ele>
        <time>2012-01-10T14:12:51Z</time>
      </trkpt>
      <trkpt lat="44.57432" lon="0.917">
        <ele>237</ele>
        <time>2012-01-10T14:12:56Z</time>
      </trkpt>
      <trkpt lat="44.57451" lon="0.91719">
        <ele>237</ele>
        <time>2012-01-10T14:12:57Z</time>
      </trkpt>
      <trkpt lat="44.57455" lon="0.91724">
        <ele>236</ele>
        <time>2012-01-10T14:12:58Z</time>
      </trkpt>
      <trkpt lat="44.57464" lon="0.91735">
        <ele>235</ele>
        <time>2012-01-10T14:13:02Z</time>
      </trkpt>
      <trkpt lat="44.57478" lon="0.9175">
        <ele>235</ele>
        <time>2012-01-10T14:13:03Z</time>
      </trkpt>
      <trkpt lat="44.57483" lon="0.91755">
        <ele>235</ele>
        <time>2012-01-10T14:13:04Z</time>
      </trkpt>
      <trkpt lat="44.57492" lon="0.91764">
        <ele>235</ele>
        <time>2012-01-10T14:13:09Z</time>
      </trkpt>
      <trkpt lat="44.57505" lon="0.91775">
        <ele>235</ele>
        <time>2012-01-10T14:13:09Z</time>
      </trkpt>
      <trkpt lat="44.5751" lon="0.91778">
        <ele>235</ele>
        <time>2012-01-10T14:13:10Z</time>
      </trkpt>
      <trkpt lat="44.57519" lon="0.91783">
        <ele>235</ele>
        <time>2012-01-10T14:13:15Z</time>
      </trkpt>
      <trkpt lat="44.57537" lon="0.9179">
        <ele>235</ele>
        <time>2012-01-10T14:13:16Z</time>
      </trkpt>
      <trkpt lat="44.57541" lon="0.91793">
        <ele>235</ele>
        <time>2012-01-10T14:13:17Z</time>
      </trkpt>
      <trkpt lat="44.5755" lon="0.91798">
        <ele>235</ele>
        <time>2012-01-10T14:13:21Z</time>
      </trkpt>
      <trkpt lat="44.57565" lon="0.91805">
        <ele>235</ele>
        <time>2012-01-10T14:13:22Z</time>
      </trkpt>
      <trkpt lat="44.5757" lon="0.91808">
        <ele>234</ele>
        <time>2012-01-10T14:13:23Z</time>
      </trkpt>
      <trkpt lat="44.57578" lon="0.91817">
        <ele>234</ele>
        <time>2012-01-10T14:13:28Z</time>
      </trkpt>
      <trkpt lat="44.5759" lon="0.91832">
        <ele>233</ele>
        <time>2012-01-10T14:13:28Z</time>
      </trkpt>
      <trkpt lat="44.57594" lon="0.91838">
        <ele>233</ele>
        <time>2012-01-10T14:13:29Z</time>
      </trkpt>
      <trkpt lat="44.576" lon="0.91849">
        <ele>233</ele>
        <time>2012-01-10T14:13:34Z</time>
      </trkpt>
      <trkpt lat="44.57609" lon="0.91878">
        <ele>233</ele>
        <time>2012-01-10T14:13:35Z</time>
      </trkpt>
      <trkpt lat="44.57611" lon="0.91885">
        <ele>233</ele>
        <time>2012-01-10T14:13:36Z</time>
      </trkpt>
      <trkpt lat="44.57613" lon="0.91892">
        <ele>233</ele>
        <time>2012-01-10T14:13:37Z</time>
      </trkpt>
      <trkpt lat="44.57616" lon="0.91907">
        <ele>232</ele>
        <time>2012-01-10T14:13:41Z</time>
      </trkpt>
      <trkpt lat="44.57623" lon="0.91928">
        <ele>232</ele>
        <time>2012-01-10T14:13:42Z</time>
      </trkpt>
      <trkpt lat="44.57624" lon="0.91935">
        <ele>231</ele>
        <time>2012-01-10T14:13:43Z</time>
      </trkpt>
      <trkpt lat="44.57633" lon="0.91971">
        <ele>231</ele>
        <time>2012-01-10T14:13:48Z</time>
      </trkpt>
      <trkpt lat="44.57635" lon="0.91978">
        <ele>231</ele>
        <time>2012-01-10T14:13:49Z</time>
      </trkpt>
      <trkpt lat="44.57642" lon="0.91989">
        <ele>231</ele>
        <time>2012-01-10T14:13:54Z</time>
      </trkpt>
      <trkpt lat="44.57657" lon="0.9201">
        <ele>231</ele>
        <time>2012-01-10T14:13:55Z</time>
      </trkpt>
      <trkpt lat="44.5766" lon="0.92015">
        <ele>231</ele>
        <time>2012-01-10T14:13:56Z</time>
      </trkpt>
      <trkpt lat="44.57664" lon="0.9202">
        <ele>231</ele>
        <time>2012-01-10T14:13:57Z</time>
      </trkpt>
      <trkpt lat="44.57673" lon="0.92031">
        <ele>231</ele>
        <time>2012-01-10T14:14:02Z</time>
      </trkpt>
      <trkpt lat="44.57689" lon="0.92044">
        <ele>231</ele>
        <time>2012-01-10T14:14:02Z</time>
      </trkpt>
      <trkpt lat="44.57694" lon="0.92049">
        <ele>231</ele>
        <time>2012-01-10T14:14:03Z</time>
      </trkpt>
      <trkpt lat="44.57724" lon="0.92071">
        <ele>231</ele>
        <time>2012-01-10T14:14:08Z</time>
      </trkpt>
      <trkpt lat="44.57731" lon="0.92074">
        <ele>231</ele>
        <time>2012-01-10T14:14:09Z</time>
      </trkpt>
      <trkpt lat="44.57737" lon="0.92077">
        <ele>231</ele>
        <time>2012-01-10T14:14:10Z</time>
      </trkpt>
      <trkpt lat="44.57743" lon="0.9208">
        <ele>231</ele>
        <time>2012-01-10T14:14:11Z</time>
      </trkpt>
      <trkpt lat="44.57756" lon="0.92084">
        <ele>231</ele>
        <time>2012-01-10T14:14:15Z</time>
      </trkpt>
      <trkpt lat="44.57776" lon="0.92089">
        <ele>231</ele>
        <time>2012-01-10T14:14:16Z</time>
      </trkpt>
      <trkpt lat="44.57783" lon="0.92091">
        <ele>231</ele>
        <time>2012-01-10T14:14:17Z</time>
      </trkpt>
      <trkpt lat="44.57823" lon="0.92099">
        <ele>231</ele>
        <time>2012-01-10T14:14:22Z</time>
      </trkpt>
      <trkpt lat="44.57831" lon="0.921">
        <ele>230</ele>
        <time>2012-01-10T14:14:23Z</time>
      </trkpt>
      <trkpt lat="44.57848" lon="0.92105">
        <ele>229</ele>
        <time>2012-01-10T14:14:28Z</time>
      </trkpt>
      <trkpt lat="44.57875" lon="0.92128">
        <ele>228</ele>
        <time>2012-01-10T14:14:29Z</time>
      </trkpt>
      <trkpt lat="44.57882" lon="0.92135">
        <ele>227</ele>
        <time>2012-01-10T14:14:30Z</time>
      </trkpt>
      <trkpt lat="44.57888" lon="0.92143">
        <ele>226</ele>
        <time>2012-01-10T14:14:31Z</time>
      </trkpt>
      <trkpt lat="44.579" lon="0.92158">
        <ele>225</ele>
        <time>2012-01-10T14:14:36Z</time>
      </trkpt>
      <trkpt lat="44.57919" lon="0.92181">
        <ele>224</ele>
        <time>2012-01-10T14:14:36Z</time>
      </trkpt>
      <trkpt lat="44.57925" lon="0.92189">
        <ele>223</ele>
        <time>2012-01-10T14:14:37Z</time>
      </trkpt>
      <trkpt lat="44.57938" lon="0.92206">
        <ele>222</ele>
        <time>2012-01-10T14:14:42Z</time>
      </trkpt>
      <trkpt lat="44.57965" lon="0.92236">
        <ele>222</ele>
        <time>2012-01-10T14:14:43Z</time>
      </trkpt>
      <trkpt lat="44.57973" lon="0.92242">
        <ele>221</ele>
        <time>2012-01-10T14:14:44Z</time>
      </trkpt>
      <trkpt lat="44.57988" lon="0.92252">
        <ele>221</ele>
        <time>2012-01-10T14:14:49Z</time>
      </trkpt>
      <trkpt lat="44.58009" lon="0.9226">
        <ele>221</ele>
        <time>2012-01-10T14:14:49Z</time>
      </trkpt>
      <trkpt lat="44.58017" lon="0.9226">
        <ele>220</ele>
        <time>2012-01-10T14:14:50Z</time>
      </trkpt>
      <trkpt lat="44.58024" lon="0.92261">
        <ele>220</ele>
        <time>2012-01-10T14:14:51Z</time>
      </trkpt>
      <trkpt lat="44.58037" lon="0.92262">
        <ele>220</ele>
        <time>2012-01-10T14:14:56Z</time>
      </trkpt>
      <trkpt lat="44.58057" lon="0.92265">
        <ele>220</ele>
        <time>2012-01-10T14:14:56Z</time>
      </trkpt>
      <trkpt lat="44.58064" lon="0.92266">
        <ele>220</ele>
        <time>2012-01-10T14:14:57Z</time>
      </trkpt>
      <trkpt lat="44.58079" lon="0.92267">
        <ele>220</ele>
        <time>2012-01-10T14:15:02Z</time>
      </trkpt>
      <trkpt lat="44.58103" lon="0.92273">
        <ele>220</ele>
        <time>2012-01-10T14:15:03Z</time>
      </trkpt>
      <trkpt lat="44.58108" lon="0.92275">
        <ele>220</ele>
        <time>2012-01-10T14:15:04Z</time>
      </trkpt>
      <trkpt lat="44.58117" lon="0.92282">
        <ele>220</ele>
        <time>2012-01-10T14:15:09Z</time>
      </trkpt>
      <trkpt lat="44.58129" lon="0.92299">
        <ele>220</ele>
        <time>2012-01-10T14:15:09Z</time>
      </trkpt>
      <trkpt lat="44.58132" lon="0.92304">
        <ele>220</ele>
        <time>2012-01-10T14:15:10Z</time>
      </trkpt>
      <trkpt lat="44.58136" lon="0.9231">
        <ele>220</ele>
        <time>2012-01-10T14:15:11Z</time>
      </trkpt>
      <trkpt lat="44.58142" lon="0.92322">
        <ele>220</ele>
        <time>2012-01-10T14:15:16Z</time>
      </trkpt>
      <trkpt lat="44.58151" lon="0.92339">
        <ele>220</ele>
        <time>2012-01-10T14:15:16Z</time>
      </trkpt>
      <trkpt lat="44.58154" lon="0.92345">
        <ele>220</ele>
        <time>2012-01-10T14:15:17Z</time>
      </trkpt>
      <trkpt lat="44.58159" lon="0.92357">
        <ele>220</ele>
        <time>2012-01-10T14:15:22Z</time>
      </trkpt>
      <trkpt lat="44.58168" lon="0.92384">
        <ele>220</ele>
        <time>2012-01-10T14:15:23Z</time>
      </trkpt>
      <trkpt lat="44.5817" lon="0.92391">
        <ele>220</ele>
        <time>2012-01-10T14:15:24Z</time>
      </trkpt>
      <trkpt lat="44.58174" lon="0.92404">
        <ele>221</ele>
        <time>2012-01-10T14:15:29Z</time>
      </trkpt>
      <trkpt lat="44.58181" lon="0.92421">
        <ele>222</ele>
        <time>2012-01-10T14:15:29Z</time>
      </trkpt>
      <trkpt lat="44.58184" lon="0.92427">
        <ele>223</ele>
        <time>2012-01-10T14:15:30Z</time>
      </trkpt>
      <trkpt lat="44.58193" lon="0.92453">
        <ele>223</ele>
        <time>2012-01-10T14:15:35Z</time>
      </trkpt>
      <trkpt lat="44.58195" lon="0.92459">
        <ele>223</ele>
        <time>2012-01-10T14:15:36Z</time>
      </trkpt>
      <trkpt lat="44.58197" lon="0.92464">
        <ele>223</ele>
        <time>2012-01-10T14:15:37Z</time>
      </trkpt>
      <trkpt lat="44.582" lon="0.92474">
        <ele>223</ele>
        <time>2012-01-10T14:15:42Z</time>
      </trkpt>
      <trkpt lat="44.58206" lon="0.92488">
        <ele>223</ele>
        <time>2012-01-10T14:15:42Z</time>
      </trkpt>
      <trkpt lat="44.58208" lon="0.92493">
        <ele>223</ele>
        <time>2012-01-10T14:15:43Z</time>
      </trkpt>
      <trkpt lat="44.58218" lon="0.92506">
        <ele>223</ele>
        <time>2012-01-10T14:15:48Z</time>
      </trkpt>
      <trkpt lat="44.5822" lon="0.92506">
        <ele>223</ele>
        <time>2012-01-10T14:15:49Z</time>
      </trkpt>
      <trkpt lat="44.58221" lon="0.92506">
        <ele>223</ele>
        <time>2012-01-10T14:15:50Z</time>
      </trkpt>
      <trkpt lat="44.58225" lon="0.92506">
        <ele>223</ele>
        <time>2012-01-10T14:15:55Z</time>
      </trkpt>
      <trkpt lat="44.58231" lon="0.92505">
        <ele>223</ele>
        <time>2012-01-10T14:15:55Z</time>
      </trkpt>
      <trkpt lat="44.58233" lon="0.92505">
        <ele>223</ele>
        <time>2012-01-10T14:15:56Z</time>
      </trkpt>
      <trkpt lat="44.58247" lon="0.92502">
        <ele>223</ele>
        <time>2012-01-10T14:16:01Z</time>
      </trkpt>
      <trkpt lat="44.5825" lon="0.92501">
        <ele>223</ele>
        <time>2012-01-10T14:16:02Z</time>
      </trkpt>
      <trkpt lat="44.58253" lon="0.92501">
        <ele>223</ele>
        <time>2012-01-10T14:16:03Z</time>
      </trkpt>
      <trkpt lat="44.58258" lon="0.92499">
        <ele>223</ele>
        <time>2012-01-10T14:16:08Z</time>
      </trkpt>
      <trkpt lat="44.58266" lon="0.92496">
        <ele>223</ele>
        <time>2012-01-10T14:16:08Z</time>
      </trkpt>
      <trkpt lat="44.58269" lon="0.92495">
        <ele>223</ele>
        <time>2012-01-10T14:16:09Z</time>
      </trkpt>
      <trkpt lat="44.58283" lon="0.92486">
        <ele>223</ele>
        <time>2012-01-10T14:16:14Z</time>
      </trkpt>
      <trkpt lat="44.58286" lon="0.92485">
        <ele>223</ele>
        <time>2012-01-10T14:16:15Z</time>
      </trkpt>
      <trkpt lat="44.58289" lon="0.92483">
        <ele>223</ele>
        <time>2012-01-10T14:16:16Z</time>
      </trkpt>
      <trkpt lat="44.58296" lon="0.92479">
        <ele>223</ele>
        <time>2012-01-10T14:16:21Z</time>
      </trkpt>
      <trkpt lat="44.58305" lon="0.92474">
        <ele>223</ele>
        <time>2012-01-10T14:16:21Z</time>
      </trkpt>
      <trkpt lat="44.58308" lon="0.92473">
        <ele>223</ele>
        <time>2012-01-10T14:16:22Z</time>
      </trkpt>
      <trkpt lat="44.58326" lon="0.9247">
        <ele>223</ele>
        <time>2012-01-10T14:16:27Z</time>
      </trkpt>
      <trkpt lat="44.58331" lon="0.9247">
        <ele>223</ele>
        <time>2012-01-10T14:16:28Z</time>
      </trkpt>
      <trkpt lat="44.58335" lon="0.9247">
        <ele>223</ele>
        <time>2012-01-10T14:16:29Z</time>
      </trkpt>
      <trkpt lat="44.58345" lon="0.92471">
        <ele>223</ele>
        <time>2012-01-10T14:16:34Z</time>
      </trkpt>
      <trkpt lat="44.58359" lon="0.92473">
        <ele>223</ele>
        <time>2012-01-10T14:16:34Z</time>
      </trkpt>
      <trkpt lat="44.58364" lon="0.92473">
        <ele>223</ele>
        <time>2012-01-10T14:16:35Z</time>
      </trkpt>
      <trkpt lat="44.58376" lon="0.92474">
        <ele>223</ele>
        <time>2012-01-10T14:16:40Z</time>
      </trkpt>
      <trkpt lat="44.58396" lon="0.92476">
        <ele>223</ele>
        <time>2012-01-10T14:16:41Z</time>
      </trkpt>
      <trkpt lat="44.58401" lon="0.92477">
        <ele>223</ele>
        <time>2012-01-10T14:16:42Z</time>
      </trkpt>
      <trkpt lat="44.58412" lon="0.92477">
        <ele>223</ele>
        <time>2012-01-10T14:16:47Z</time>
      </trkpt>
      <trkpt lat="44.58428" lon="0.92478">
        <ele>223</ele>
        <time>2012-01-10T14:16:47Z</time>
      </trkpt>
      <trkpt lat="44.58433" lon="0.92479">
        <ele>223</ele>
        <time>2012-01-10T14:16:48Z</time>
      </trkpt>
      <trkpt lat="44.58443" lon="0.92479">
        <ele>223</ele>
        <time>2012-01-10T14:16:53Z</time>
      </trkpt>
      <trkpt lat="44.58463" lon="0.92481">
        <ele>223</ele>
        <time>2012-01-10T14:16:54Z</time>
      </trkpt>
      <trkpt lat="44.58468" lon="0.92481">
        <ele>223</ele>
        <time>2012-01-10T14:16:55Z</time>
      </trkpt>
      <trkpt lat="44.58478" lon="0.92482">
        <ele>223</ele>
        <time>2012-01-10T14:17:00Z</time>
      </trkpt>
      <trkpt lat="44.58494" lon="0.92484">
        <ele>223</ele>
        <time>2012-01-10T14:17:00Z</time>
      </trkpt>
      <trkpt lat="44.58499" lon="0.92484">
        <ele>223</ele>
        <time>2012-01-10T14:17:01Z</time>
      </trkpt>
      <trkpt lat="44.58509" lon="0.92485">
        <ele>223</ele>
        <time>2012-01-10T14:17:06Z</time>
      </trkpt>
      <trkpt lat="44.58529" lon="0.92486">
        <ele>224</ele>
        <time>2012-01-10T14:17:07Z</time>
      </trkpt>
      <trkpt lat="44.58533" lon="0.92487">
        <ele>224</ele>
        <time>2012-01-10T14:17:08Z</time>
      </trkpt>
      <trkpt lat="44.58543" lon="0.92488">
        <ele>224</ele>
        <time>2012-01-10T14:17:13Z</time>
      </trkpt>
      <trkpt lat="44.58558" lon="0.9249">
        <ele>224</ele>
        <time>2012-01-10T14:17:13Z</time>
      </trkpt>
      <trkpt lat="44.58563" lon="0.92491">
        <ele>225</ele>
        <time>2012-01-10T14:17:14Z</time>
      </trkpt>
      <trkpt lat="44.58573" lon="0.92492">
        <ele>225</ele>
        <time>2012-01-10T14:17:19Z</time>
      </trkpt>
      <trkpt lat="44.58593" lon="0.92498">
        <ele>225</ele>
        <time>2012-01-10T14:17:20Z</time>
      </trkpt>
      <trkpt lat="44.58598" lon="0.92501">
        <ele>225</ele>
        <time>2012-01-10T14:17:21Z</time>
      </trkpt>
      <trkpt lat="44.58607" lon="0.92505">
        <ele>225</ele>
        <time>2012-01-10T14:17:26Z</time>
      </trkpt>
      <trkpt lat="44.58623" lon="0.92513">
        <ele>225</ele>
        <time>2012-01-10T14:17:26Z</time>
      </trkpt>
      <trkpt lat="44.58628" lon="0.92516">
        <ele>225</ele>
        <time>2012-01-10T14:17:27Z</time>
      </trkpt>
      <trkpt lat="44.58639" lon="0.92521">
        <ele>225</ele>
        <time>2012-01-10T14:17:32Z</time>
      </trkpt>
      <trkpt lat="44.5866" lon="0.92528">
        <ele>225</ele>
        <time>2012-01-10T14:17:33Z</time>
      </trkpt>
      <trkpt lat="44.58664" lon="0.92525">
        <ele>225</ele>
        <time>2012-01-10T14:17:34Z</time>
      </trkpt>
      <trkpt lat="44.58667" lon="0.9252">
        <ele>225</ele>
        <time>2012-01-10T14:17:35Z</time>
      </trkpt>
      <trkpt lat="44.58667" lon="0.92507">
        <ele>225</ele>
        <time>2012-01-10T14:17:41Z</time>
      </trkpt>
      <trkpt lat="44.58661" lon="0.92485">
        <ele>225</ele>
        <time>2012-01-10T14:17:41Z</time>
      </trkpt>
      <trkpt lat="44.5866" lon="0.92479">
        <ele>225</ele>
        <time>2012-01-10T14:17:42Z</time>
      </trkpt>
      <trkpt lat="44.58662" lon="0.9247">
        <ele>225</ele>
        <time>2012-01-10T14:17:47Z</time>
      </trkpt>
      <trkpt lat="44.58675" lon="0.92466">
        <ele>225</ele>
        <time>2012-01-10T14:17:48Z</time>
      </trkpt>
      <trkpt lat="44.58679" lon="0.92466">
        <ele>225</ele>
        <time>2012-01-10T14:17:49Z</time>
      </trkpt>
      <trkpt lat="44.58683" lon="0.92465">
        <ele>225</ele>
        <time>2012-01-10T14:17:50Z</time>
      </trkpt>
      <trkpt lat="44.5869" lon="0.92464">
        <ele>226</ele>
        <time>2012-01-10T14:17:55Z</time>
      </trkpt>
      <trkpt lat="44.58704" lon="0.92462">
        <ele>226</ele>
        <time>2012-01-10T14:17:56Z</time>
      </trkpt>
      <trkpt lat="44.58707" lon="0.92462">
        <ele>226</ele>
        <time>2012-01-10T14:17:57Z</time>
      </trkpt>
      <trkpt lat="44.58714" lon="0.92461">
        <ele>227</ele>
        <time>2012-01-10T14:18:02Z</time>
      </trkpt>
      <trkpt lat="44.58725" lon="0.92459">
        <ele>227</ele>
        <time>2012-01-10T14:18:02Z</time>
      </trkpt>
      <trkpt lat="44.58728" lon="0.92459">
        <ele>227</ele>
        <time>2012-01-10T14:18:03Z</time>
      </trkpt>
      <trkpt lat="44.58735" lon="0.92459">
        <ele>228</ele>
        <time>2012-01-10T14:18:08Z</time>
      </trkpt>
      <trkpt lat="44.58746" lon="0.92457">
        <ele>228</ele>
        <time>2012-01-10T14:18:09Z</time>
      </trkpt>
      <trkpt lat="44.58749" lon="0.92456">
        <ele>229</ele>
        <time>2012-01-10T14:18:10Z</time>
      </trkpt>
      <trkpt lat="44.58754" lon="0.92455">
        <ele>229</ele>
        <time>2012-01-10T14:18:15Z</time>
      </trkpt>
      <trkpt lat="44.58761" lon="0.92452">
        <ele>229</ele>
        <time>2012-01-10T14:18:15Z</time>
      </trkpt>
      <trkpt lat="44.58764" lon="0.92451">
        <ele>230</ele>
        <time>2012-01-10T14:18:16Z</time>
      </trkpt>
      <trkpt lat="44.5877" lon="0.92449">
        <ele>230</ele>
        <time>2012-01-10T14:18:21Z</time>
      </trkpt>
      <trkpt lat="44.5878" lon="0.92448">
        <ele>230</ele>
        <time>2012-01-10T14:18:22Z</time>
      </trkpt>
      <trkpt lat="44.58781" lon="0.92448">
        <ele>230</ele>
        <time>2012-01-10T14:18:23Z</time>
      </trkpt>
      <trkpt lat="44.58783" lon="0.92449">
        <ele>230</ele>
        <time>2012-01-10T14:18:24Z</time>
      </trkpt>
      <trkpt lat="44.58787" lon="0.92448">
        <ele>230</ele>
        <time>2012-01-10T14:18:29Z</time>
      </trkpt>
      <trkpt lat="44.58794" lon="0.92446">
        <ele>230</ele>
        <time>2012-01-10T14:18:29Z</time>
      </trkpt>
      <trkpt lat="44.58796" lon="0.92446">
        <ele>230</ele>
        <time>2012-01-10T14:18:30Z</time>
      </trkpt>
      <trkpt lat="44.58801" lon="0.92445">
        <ele>230</ele>
        <time>2012-01-10T14:18:35Z</time>
      </trkpt>
      <trkpt lat="44.58811" lon="0.92442">
        <ele>230</ele>
        <time>2012-01-10T14:18:36Z</time>
      </trkpt>
      <trkpt lat="44.58813" lon="0.92441">
        <ele>230</ele>
        <time>2012-01-10T14:18:37Z</time>
      </trkpt>
      <trkpt lat="44.58818" lon="0.9244">
        <ele>230</ele>
        <time>2012-01-10T14:18:42Z</time>
      </trkpt>
      <trkpt lat="44.58825" lon="0.92438">
        <ele>230</ele>
        <time>2012-01-10T14:18:42Z</time>
      </trkpt>
      <trkpt lat="44.58827" lon="0.92438">
        <ele>230</ele>
        <time>2012-01-10T14:18:43Z</time>
      </trkpt>
      <trkpt lat="44.58832" lon="0.92437">
        <ele>230</ele>
        <time>2012-01-10T14:18:48Z</time>
      </trkpt>
      <trkpt lat="44.58842" lon="0.92433">
        <ele>231</ele>
        <time>2012-01-10T14:18:49Z</time>
      </trkpt>
      <trkpt lat="44.58846" lon="0.92431">
        <ele>231</ele>
        <time>2012-01-10T14:18:50Z</time>
      </trkpt>
      <trkpt lat="44.58848" lon="0.92429">
        <ele>231</ele>
        <time>2012-01-10T14:18:51Z</time>
      </trkpt>
      <trkpt lat="44.58854" lon="0.92425">
        <ele>232</ele>
        <time>2012-01-10T14:18:56Z</time>
      </trkpt>
      <trkpt lat="44.58863" lon="0.92419">
        <ele>232</ele>
        <time>2012-01-10T14:18:56Z</time>
      </trkpt>
      <trkpt lat="44.58867" lon="0.92418">
        <ele>232</ele>
        <time>2012-01-10T14:18:57Z</time>
      </trkpt>
      <trkpt lat="44.58874" lon="0.92415">
        <ele>232</ele>
        <time>2012-01-10T14:19:02Z</time>
      </trkpt>
      <trkpt lat="44.58892" lon="0.9241">
        <ele>232</ele>
        <time>2012-01-10T14:19:03Z</time>
      </trkpt>
      <trkpt lat="44.58898" lon="0.92408">
        <ele>232</ele>
        <time>2012-01-10T14:19:04Z</time>
      </trkpt>
      <trkpt lat="44.5891" lon="0.92402">
        <ele>232</ele>
        <time>2012-01-10T14:19:09Z</time>
      </trkpt>
      <trkpt lat="44.58931" lon="0.92392">
        <ele>232</ele>
        <time>2012-01-10T14:19:09Z</time>
      </trkpt>
      <trkpt lat="44.58938" lon="0.9239">
        <ele>232</ele>
        <time>2012-01-10T14:19:10Z</time>
      </trkpt>
      <trkpt lat="44.58949" lon="0.92396">
        <ele>232</ele>
        <time>2012-01-10T14:19:15Z</time>
      </trkpt>
      <trkpt lat="44.58966" lon="0.92423">
        <ele>232</ele>
        <time>2012-01-10T14:19:16Z</time>
      </trkpt>
      <trkpt lat="44.58969" lon="0.92431">
        <ele>232</ele>
        <time>2012-01-10T14:19:17Z</time>
      </trkpt>
      <trkpt lat="44.58972" lon="0.92439">
        <ele>232</ele>
        <time>2012-01-10T14:19:18Z</time>
      </trkpt>
      <trkpt lat="44.58978" lon="0.92455">
        <ele>232</ele>
        <time>2012-01-10T14:19:23Z</time>
      </trkpt>
      <trkpt lat="44.58988" lon="0.92477">
        <ele>232</ele>
        <time>2012-01-10T14:19:23Z</time>
      </trkpt>
      <trkpt lat="44.58991" lon="0.92484">
        <ele>232</ele>
        <time>2012-01-10T14:19:24Z</time>
      </trkpt>
      <trkpt lat="44.58996" lon="0.92496">
        <ele>232</ele>
        <time>2012-01-10T14:19:29Z</time>
      </trkpt>
      <trkpt lat="44.59005" lon="0.92516">
        <ele>232</ele>
        <time>2012-01-10T14:19:30Z</time>
      </trkpt>
      <trkpt lat="44.59007" lon="0.9252">
        <ele>232</ele>
        <time>2012-01-10T14:19:31Z</time>
      </trkpt>
      <trkpt lat="44.59011" lon="0.92528">
        <ele>232</ele>
        <time>2012-01-10T14:19:36Z</time>
      </trkpt>
      <trkpt lat="44.59016" lon="0.9254">
        <ele>232</ele>
        <time>2012-01-10T14:19:36Z</time>
      </trkpt>
      <trkpt lat="44.59018" lon="0.92543">
        <ele>232</ele>
        <time>2012-01-10T14:19:37Z</time>
      </trkpt>
      <trkpt lat="44.59021" lon="0.92551">
        <ele>232</ele>
        <time>2012-01-10T14:19:42Z</time>
      </trkpt>
      <trkpt lat="44.59027" lon="0.92564">
        <ele>232</ele>
        <time>2012-01-10T14:19:43Z</time>
      </trkpt>
      <trkpt lat="44.59028" lon="0.92568">
        <ele>232</ele>
        <time>2012-01-10T14:19:44Z</time>
      </trkpt>
      <trkpt lat="44.5903" lon="0.92574">
        <ele>232</ele>
        <time>2012-01-10T14:19:49Z</time>
      </trkpt>
      <trkpt lat="44.59032" lon="0.92583">
        <ele>232</ele>
        <time>2012-01-10T14:19:49Z</time>
      </trkpt>
      <trkpt lat="44.59032" lon="0.92587">
        <ele>232</ele>
        <time>2012-01-10T14:19:50Z</time>
      </trkpt>
      <trkpt lat="44.59033" lon="0.92595">
        <ele>232</ele>
        <time>2012-01-10T14:19:55Z</time>
      </trkpt>
      <trkpt lat="44.59032" lon="0.92607">
        <ele>232</ele>
        <time>2012-01-10T14:19:56Z</time>
      </trkpt>
      <trkpt lat="44.59031" lon="0.9261">
        <ele>232</ele>
        <time>2012-01-10T14:19:57Z</time>
      </trkpt>
      <trkpt lat="44.5903" lon="0.92613">
        <ele>232</ele>
        <time>2012-01-10T14:19:58Z</time>
      </trkpt>
      <trkpt lat="44.59029" lon="0.9262">
        <ele>232</ele>
        <time>2012-01-10T14:20:03Z</time>
      </trkpt>
      <trkpt lat="44.59027" lon="0.92632">
        <ele>232</ele>
        <time>2012-01-10T14:20:03Z</time>
      </trkpt>
      <trkpt lat="44.59026" lon="0.92635">
        <ele>232</ele>
        <time>2012-01-10T14:20:04Z</time>
      </trkpt>
      <trkpt lat="44.59024" lon="0.92643">
        <ele>232</ele>
        <time>2012-01-10T14:20:09Z</time>
      </trkpt>
      <trkpt lat="44.59019" lon="0.92656">
        <ele>232</ele>
        <time>2012-01-10T14:20:10Z</time>
      </trkpt>
      <trkpt lat="44.59017" lon="0.92659">
        <ele>232</ele>
        <time>2012-01-10T14:20:11Z</time>
      </trkpt>
      <trkpt lat="44.59014" lon="0.92664">
        <ele>232</ele>
        <time>2012-01-10T14:20:16Z</time>
      </trkpt>
      <trkpt lat="44.5901" lon="0.92673">
        <ele>232</ele>
        <time>2012-01-10T14:20:16Z</time>
      </trkpt>
      <trkpt lat="44.59009" lon="0.92675">
        <ele>232</ele>
        <time>2012-01-10T14:20:17Z</time>
      </trkpt>
      <trkpt lat="44.59008" lon="0.92678">
        <ele>232</ele>
        <time>2012-01-10T14:20:18Z</time>
      </trkpt>
      <trkpt lat="44.59006" lon="0.92684">
        <ele>232</ele>
        <time>2012-01-10T14:20:23Z</time>
      </trkpt>
      <trkpt lat="44.59001" lon="0.92695">
        <ele>232</ele>
        <time>2012-01-10T14:20:24Z</time>
      </trkpt>
      <trkpt lat="44.59" lon="0.92698">
        <ele>232</ele>
        <time>2012-01-10T14:20:25Z</time>
      </trkpt>
      <trkpt lat="44.58997" lon="0.92704">
        <ele>232</ele>
        <time>2012-01-10T14:20:30Z</time>
      </trkpt>
      <trkpt lat="44.58993" lon="0.92714">
        <ele>232</ele>
        <time>2012-01-10T14:20:30Z</time>
      </trkpt>
      <trkpt lat="44.58992" lon="0.92718">
        <ele>232</ele>
        <time>2012-01-10T14:20:31Z</time>
      </trkpt>
      <trkpt lat="44.58992" lon="0.92726">
        <ele>232</ele>
        <time>2012-01-10T14:20:36Z</time>
      </trkpt>
      <trkpt lat="44.59002" lon="0.92734">
        <ele>232</ele>
        <time>2012-01-10T14:20:37Z</time>
      </trkpt>
      <trkpt lat="44.59006" lon="0.92735">
        <ele>232</ele>
        <time>2012-01-10T14:20:38Z</time>
      </trkpt>
      <trkpt lat="44.5901" lon="0.92736">
        <ele>232</ele>
        <time>2012-01-10T14:20:39Z</time>
      </trkpt>
      <trkpt lat="44.59017" lon="0.92738">
        <ele>232</ele>
        <time>2012-01-10T14:20:44Z</time>
      </trkpt>
      <trkpt lat="44.59033" lon="0.92743">
        <ele>232</ele>
        <time>2012-01-10T14:20:45Z</time>
      </trkpt>
      <trkpt lat="44.59037" lon="0.92744">
        <ele>232</ele>
        <time>2012-01-10T14:20:46Z</time>
      </trkpt>
      <trkpt lat="44.59046" lon="0.92747">
        <ele>232</ele>
        <time>2012-01-10T14:20:51Z</time>
      </trkpt>
      <trkpt lat="44.59058" lon="0.9275">
        <ele>232</ele>
        <time>2012-01-10T14:20:51Z</time>
      </trkpt>
      <trkpt lat="44.59062" lon="0.92752">
        <ele>232</ele>
        <time>2012-01-10T14:20:52Z</time>
      </trkpt>
      <trkpt lat="44.5907" lon="0.92756">
        <ele>232</ele>
        <time>2012-01-10T14:20:57Z</time>
      </trkpt>
      <trkpt lat="44.59087" lon="0.92765">
        <ele>232</ele>
        <time>2012-01-10T14:20:58Z</time>
      </trkpt>
      <trkpt lat="44.5909" lon="0.92768">
        <ele>232</ele>
        <time>2012-01-10T14:20:59Z</time>
      </trkpt>
      <trkpt lat="44.59098" lon="0.92773">
        <ele>232</ele>
        <time>2012-01-10T14:21:04Z</time>
      </trkpt>
      <trkpt lat="44.59109" lon="0.92781">
        <ele>232</ele>
        <time>2012-01-10T14:21:04Z</time>
      </trkpt>
      <trkpt lat="44.59114" lon="0.92782">
        <ele>232</ele>
        <time>2012-01-10T14:21:05Z</time>
      </trkpt>
      <trkpt lat="44.59118" lon="0.92782">
        <ele>232</ele>
        <time>2012-01-10T14:21:06Z</time>
      </trkpt>
      <trkpt lat="44.59142" lon="0.92771">
        <ele>232</ele>
        <time>2012-01-10T14:21:12Z</time>
      </trkpt>
      <trkpt lat="44.59145" lon="0.92768">
        <ele>232</ele>
        <time>2012-01-10T14:21:13Z</time>
      </trkpt>
      <trkpt lat="44.5915" lon="0.92766">
        <ele>232</ele>
        <time>2012-01-10T14:21:14Z</time>
      </trkpt>
      <trkpt lat="44.59156" lon="0.92763">
        <ele>232</ele>
        <time>2012-01-10T14:21:19Z</time>
      </trkpt>
      <trkpt lat="44.59166" lon="0.92755">
        <ele>232</ele>
        <time>2012-01-10T14:21:19Z</time>
      </trkpt>
      <trkpt lat="44.5917" lon="0.92752">
        <ele>232</ele>
        <time>2012-01-10T14:21:20Z</time>
      </trkpt>
      <trkpt lat="44.59179" lon="0.92751">
        <ele>232</ele>
        <time>2012-01-10T14:21:25Z</time>
      </trkpt>
      <trkpt lat="44.59194" lon="0.92753">
        <ele>232</ele>
        <time>2012-01-10T14:21:26Z</time>
      </trkpt>
      <trkpt lat="44.59198" lon="0.92755">
        <ele>232</ele>
        <time>2012-01-10T14:21:27Z</time>
      </trkpt>
      <trkpt lat="44.59202" lon="0.92756">
        <ele>232</ele>
        <time>2012-01-10T14:21:28Z</time>
      </trkpt>
      <trkpt lat="44.59209" lon="0.92764">
        <ele>232</ele>
        <time>2012-01-10T14:21:34Z</time>
      </trkpt>
      <trkpt lat="44.59225" lon="0.92786">
        <ele>232</ele>
        <time>2012-01-10T14:21:35Z</time>
      </trkpt>
      <trkpt lat="44.59228" lon="0.92791">
        <ele>232</ele>
        <time>2012-01-10T14:21:36Z</time>
      </trkpt>
      <trkpt lat="44.59232" lon="0.92802">
        <ele>232</ele>
        <time>2012-01-10T14:21:42Z</time>
      </trkpt>
      <trkpt lat="44.59238" lon="0.92823">
        <ele>232</ele>
        <time>2012-01-10T14:21:42Z</time>
      </trkpt>
      <trkpt lat="44.5924" lon="0.92829">
        <ele>232</ele>
        <time>2012-01-10T14:21:43Z</time>
      </trkpt>
      <trkpt lat="44.59239" lon="0.92835">
        <ele>232</ele>
        <time>2012-01-10T14:21:44Z</time>
      </trkpt>
      <trkpt lat="44.59237" lon="0.9284">
        <ele>232</ele>
        <time>2012-01-10T14:21:45Z</time>
      </trkpt>
      <trkpt lat="44.59232" lon="0.9285">
        <ele>232</ele>
        <time>2012-01-10T14:21:51Z</time>
      </trkpt>
      <trkpt lat="44.59218" lon="0.92867">
        <ele>232</ele>
        <time>2012-01-10T14:21:52Z</time>
      </trkpt>
      <trkpt lat="44.59215" lon="0.92872">
        <ele>232</ele>
        <time>2012-01-10T14:21:52Z</time>
      </trkpt>
      <trkpt lat="44.59208" lon="0.92884">
        <ele>232</ele>
        <time>2012-01-10T14:21:57Z</time>
      </trkpt>
      <trkpt lat="44.59201" lon="0.92906">
        <ele>232</ele>
        <time>2012-01-10T14:21:57Z</time>
      </trkpt>
      <trkpt lat="44.59199" lon="0.92915">
        <ele>232</ele>
        <time>2012-01-10T14:21:58Z</time>
      </trkpt>
      <trkpt lat="44.59197" lon="0.92924">
        <ele>231</ele>
        <time>2012-01-10T14:21:59Z</time>
      </trkpt>
      <trkpt lat="44.59193" lon="0.92977">
        <ele>230</ele>
        <time>2012-01-10T14:22:04Z</time>
      </trkpt>
      <trkpt lat="44.59193" lon="0.92989">
        <ele>229</ele>
        <time>2012-01-10T14:22:05Z</time>
      </trkpt>
      <trkpt lat="44.59193" lon="0.93001">
        <ele>228</ele>
        <time>2012-01-10T14:22:06Z</time>
      </trkpt>
      <trkpt lat="44.59192" lon="0.93025">
        <ele>227</ele>
        <time>2012-01-10T14:22:11Z</time>
      </trkpt>
      <trkpt lat="44.59189" lon="0.93076">
        <ele>226</ele>
        <time>2012-01-10T14:22:12Z</time>
      </trkpt>
      <trkpt lat="44.59188" lon="0.93088">
        <ele>225</ele>
        <time>2012-01-10T14:22:13Z</time>
      </trkpt>
      <trkpt lat="44.59187" lon="0.93114">
        <ele>224</ele>
        <time>2012-01-10T14:22:18Z</time>
      </trkpt>
      <trkpt lat="44.59184" lon="0.93154">
        <ele>223</ele>
        <time>2012-01-10T14:22:18Z</time>
      </trkpt>
      <trkpt lat="44.59183" lon="0.93168">
        <ele>222</ele>
        <time>2012-01-10T14:22:19Z</time>
      </trkpt>
      <trkpt lat="44.59181" lon="0.93195">
        <ele>221</ele>
        <time>2012-01-10T14:22:24Z</time>
      </trkpt>
      <trkpt lat="44.59178" lon="0.9325">
        <ele>220</ele>
        <time>2012-01-10T14:22:25Z</time>
      </trkpt>
      <trkpt lat="44.59176" lon="0.93263">
        <ele>219</ele>
        <time>2012-01-10T14:22:26Z</time>
      </trkpt>
      <trkpt lat="44.59173" lon="0.93289">
        <ele>218</ele>
        <time>2012-01-10T14:22:31Z</time>
      </trkpt>
      <trkpt lat="44.59166" lon="0.93325">
        <ele>217</ele>
        <time>2012-01-10T14:22:31Z</time>
      </trkpt>
      <trkpt lat="44.59164" lon="0.93336">
        <ele>216</ele>
        <time>2012-01-10T14:22:32Z</time>
      </trkpt>
      <trkpt lat="44.59158" lon="0.93359">
        <ele>215</ele>
        <time>2012-01-10T14:22:37Z</time>
      </trkpt>
      <trkpt lat="44.59145" lon="0.93399">
        <ele>215</ele>
        <time>2012-01-10T14:22:38Z</time>
      </trkpt>
      <trkpt lat="44.59141" lon="0.93409">
        <ele>215</ele>
        <time>2012-01-10T14:22:39Z</time>
      </trkpt>
      <trkpt lat="44.59123" lon="0.93449">
        <ele>215</ele>
        <time>2012-01-10T14:22:44Z</time>
      </trkpt>
      <trkpt lat="44.5912" lon="0.93456">
        <ele>215</ele>
        <time>2012-01-10T14:22:45Z</time>
      </trkpt>
      <trkpt lat="44.59114" lon="0.93467">
        <ele>215</ele>
        <time>2012-01-10T14:22:50Z</time>
      </trkpt>
      <trkpt lat="44.59106" lon="0.93487">
        <ele>215</ele>
        <time>2012-01-10T14:22:51Z</time>
      </trkpt>
      <trkpt lat="44.59105" lon="0.93492">
        <ele>215</ele>
        <time>2012-01-10T14:22:52Z</time>
      </trkpt>
      <trkpt lat="44.59097" lon="0.93513">
        <ele>215</ele>
        <time>2012-01-10T14:22:57Z</time>
      </trkpt>
      <trkpt lat="44.59095" lon="0.93517">
        <ele>215</ele>
        <time>2012-01-10T14:22:58Z</time>
      </trkpt>
      <trkpt lat="44.59093" lon="0.93521">
        <ele>216</ele>
        <time>2012-01-10T14:22:59Z</time>
      </trkpt>
      <trkpt lat="44.5909" lon="0.9353">
        <ele>216</ele>
        <time>2012-01-10T14:23:04Z</time>
      </trkpt>
      <trkpt lat="44.59083" lon="0.93544">
        <ele>217</ele>
        <time>2012-01-10T14:23:04Z</time>
      </trkpt>
      <trkpt lat="44.59081" lon="0.93549">
        <ele>217</ele>
        <time>2012-01-10T14:23:05Z</time>
      </trkpt>
      <trkpt lat="44.59075" lon="0.93558">
        <ele>217</ele>
        <time>2012-01-10T14:23:10Z</time>
      </trkpt>
      <trkpt lat="44.5906" lon="0.9358">
        <ele>217</ele>
        <time>2012-01-10T14:23:11Z</time>
      </trkpt>
      <trkpt lat="44.59056" lon="0.93586">
        <ele>218</ele>
        <time>2012-01-10T14:23:12Z</time>
      </trkpt>
      <trkpt lat="44.59038" lon="0.93613">
        <ele>218</ele>
        <time>2012-01-10T14:23:17Z</time>
      </trkpt>
      <trkpt lat="44.59035" lon="0.93616">
        <ele>218</ele>
        <time>2012-01-10T14:23:18Z</time>
      </trkpt>
      <trkpt lat="44.59029" lon="0.93624">
        <ele>218</ele>
        <time>2012-01-10T14:23:23Z</time>
      </trkpt>
      <trkpt lat="44.59017" lon="0.93638">
        <ele>218</ele>
        <time>2012-01-10T14:23:24Z</time>
      </trkpt>
      <trkpt lat="44.59014" lon="0.93642">
        <ele>218</ele>
        <time>2012-01-10T14:23:25Z</time>
      </trkpt>
      <trkpt lat="44.59008" lon="0.93649">
        <ele>218</ele>
        <time>2012-01-10T14:23:30Z</time>
      </trkpt>
      <trkpt lat="44.58995" lon="0.93663">
        <ele>218</ele>
        <time>2012-01-10T14:23:31Z</time>
      </trkpt>
      <trkpt lat="44.58992" lon="0.93666">
        <ele>218</ele>
        <time>2012-01-10T14:23:32Z</time>
      </trkpt>
      <trkpt lat="44.58986" lon="0.93672">
        <ele>218</ele>
        <time>2012-01-10T14:23:37Z</time>
      </trkpt>
      <trkpt lat="44.58976" lon="0.93682">
        <ele>218</ele>
        <time>2012-01-10T14:23:37Z</time>
      </trkpt>
      <trkpt lat="44.58973" lon="0.93685">
        <ele>218</ele>
        <time>2012-01-10T14:23:38Z</time>
      </trkpt>
      <trkpt lat="44.58967" lon="0.93691">
        <ele>217</ele>
        <time>2012-01-10T14:23:43Z</time>
      </trkpt>
      <trkpt lat="44.58955" lon="0.93705">
        <ele>217</ele>
        <time>2012-01-10T14:23:44Z</time>
      </trkpt>
      <trkpt lat="44.58952" lon="0.93708">
        <ele>217</ele>
        <time>2012-01-10T14:23:45Z</time>
      </trkpt>
      <trkpt lat="44.58934" lon="0.93726">
        <ele>216</ele>
        <time>2012-01-10T14:23:50Z</time>
      </trkpt>
      <trkpt lat="44.58931" lon="0.93729">
        <ele>216</ele>
        <time>2012-01-10T14:23:51Z</time>
      </trkpt>
      <trkpt lat="44.58923" lon="0.93737">
        <ele>216</ele>
        <time>2012-01-10T14:23:56Z</time>
      </trkpt>
      <trkpt lat="44.58906" lon="0.93753">
        <ele>215</ele>
        <time>2012-01-10T14:23:57Z</time>
      </trkpt>
      <trkpt lat="44.58902" lon="0.93757">
        <ele>215</ele>
        <time>2012-01-10T14:23:58Z</time>
      </trkpt>
      <trkpt lat="44.58892" lon="0.93765">
        <ele>215</ele>
        <time>2012-01-10T14:24:03Z</time>
      </trkpt>
      <trkpt lat="44.5887" lon="0.9378">
        <ele>214</ele>
        <time>2012-01-10T14:24:04Z</time>
      </trkpt>
      <trkpt lat="44.58864" lon="0.93783">
        <ele>213</ele>
        <time>2012-01-10T14:24:05Z</time>
      </trkpt>
      <trkpt lat="44.58853" lon="0.9379">
        <ele>213</ele>
        <time>2012-01-10T14:24:10Z</time>
      </trkpt>
      <trkpt lat="44.58836" lon="0.93799">
        <ele>212</ele>
        <time>2012-01-10T14:24:10Z</time>
      </trkpt>
      <trkpt lat="44.5883" lon="0.93802">
        <ele>212</ele>
        <time>2012-01-10T14:24:11Z</time>
      </trkpt>
      <trkpt lat="44.58818" lon="0.93806">
        <ele>212</ele>
        <time>2012-01-10T14:24:16Z</time>
      </trkpt>
      <trkpt lat="44.58794" lon="0.93818">
        <ele>212</ele>
        <time>2012-01-10T14:24:17Z</time>
      </trkpt>
      <trkpt lat="44.58788" lon="0.93822">
        <ele>212</ele>
        <time>2012-01-10T14:24:18Z</time>
      </trkpt>
      <trkpt lat="44.58762" lon="0.93846">
        <ele>211</ele>
        <time>2012-01-10T14:24:23Z</time>
      </trkpt>
      <trkpt lat="44.58757" lon="0.93852">
        <ele>211</ele>
        <time>2012-01-10T14:24:24Z</time>
      </trkpt>
      <trkpt lat="44.58752" lon="0.93858">
        <ele>211</ele>
        <time>2012-01-10T14:24:25Z</time>
      </trkpt>
      <trkpt lat="44.58742" lon="0.93873">
        <ele>211</ele>
        <time>2012-01-10T14:24:30Z</time>
      </trkpt>
      <trkpt lat="44.58727" lon="0.93896">
        <ele>210</ele>
        <time>2012-01-10T14:24:30Z</time>
      </trkpt>
      <trkpt lat="44.58722" lon="0.93903">
        <ele>210</ele>
        <time>2012-01-10T14:24:31Z</time>
      </trkpt>
      <trkpt lat="44.58712" lon="0.93918">
        <ele>209</ele>
        <time>2012-01-10T14:24:36Z</time>
      </trkpt>
      <trkpt lat="44.58692" lon="0.93948">
        <ele>209</ele>
        <time>2012-01-10T14:24:37Z</time>
      </trkpt>
      <trkpt lat="44.58687" lon="0.93955">
        <ele>209</ele>
        <time>2012-01-10T14:24:38Z</time>
      </trkpt>
      <trkpt lat="44.58664" lon="0.93994">
        <ele>209</ele>
        <time>2012-01-10T14:24:43Z</time>
      </trkpt>
      <trkpt lat="44.5866" lon="0.94002">
        <ele>209</ele>
        <time>2012-01-10T14:24:44Z</time>
      </trkpt>
      <trkpt lat="44.58655" lon="0.9401">
        <ele>209</ele>
        <time>2012-01-10T14:24:45Z</time>
      </trkpt>
      <trkpt lat="44.58647" lon="0.94025">
        <ele>209</ele>
        <time>2012-01-10T14:24:50Z</time>
      </trkpt>
      <trkpt lat="44.58635" lon="0.94047">
        <ele>209</ele>
        <time>2012-01-10T14:24:50Z</time>
      </trkpt>
      <trkpt lat="44.58631" lon="0.94054">
        <ele>209</ele>
        <time>2012-01-10T14:24:51Z</time>
      </trkpt>
      <trkpt lat="44.58624" lon="0.94067">
        <ele>209</ele>
        <time>2012-01-10T14:24:56Z</time>
      </trkpt>
      <trkpt lat="44.58609" lon="0.94092">
        <ele>209</ele>
        <time>2012-01-10T14:24:57Z</time>
      </trkpt>
      <trkpt lat="44.58606" lon="0.94098">
        <ele>209</ele>
        <time>2012-01-10T14:24:58Z</time>
      </trkpt>
      <trkpt lat="44.586" lon="0.94109">
        <ele>209</ele>
        <time>2012-01-10T14:25:03Z</time>
      </trkpt>
      <trkpt lat="44.58589" lon="0.94133">
        <ele>209</ele>
        <time>2012-01-10T14:25:04Z</time>
      </trkpt>
      <trkpt lat="44.58586" lon="0.94139">
        <ele>209</ele>
        <time>2012-01-10T14:25:05Z</time>
      </trkpt>
      <trkpt lat="44.58579" lon="0.94151">
        <ele>209</ele>
        <time>2012-01-10T14:25:10Z</time>
      </trkpt>
      <trkpt lat="44.58569" lon="0.94169">
        <ele>209</ele>
        <time>2012-01-10T14:25:10Z</time>
      </trkpt>
      <trkpt lat="44.58566" lon="0.94174">
        <ele>209</ele>
        <time>2012-01-10T14:25:11Z</time>
      </trkpt>
      <trkpt lat="44.58561" lon="0.94184">
        <ele>209</ele>
        <time>2012-01-10T14:25:16Z</time>
      </trkpt>
      <trkpt lat="44.58551" lon="0.942">
        <ele>210</ele>
        <time>2012-01-10T14:25:17Z</time>
      </trkpt>
      <trkpt lat="44.58549" lon="0.94204">
        <ele>211</ele>
        <time>2012-01-10T14:25:18Z</time>
      </trkpt>
      <trkpt lat="44.58543" lon="0.94213">
        <ele>211</ele>
        <time>2012-01-10T14:25:23Z</time>
      </trkpt>
      <trkpt lat="44.58531" lon="0.94232">
        <ele>212</ele>
        <time>2012-01-10T14:25:24Z</time>
      </trkpt>
      <trkpt lat="44.58529" lon="0.94235">
        <ele>212</ele>
        <time>2012-01-10T14:25:25Z</time>
      </trkpt>
      <trkpt lat="44.58524" lon="0.94244">
        <ele>212</ele>
        <time>2012-01-10T14:25:30Z</time>
      </trkpt>
      <trkpt lat="44.58516" lon="0.94258">
        <ele>213</ele>
        <time>2012-01-10T14:25:30Z</time>
      </trkpt>
      <trkpt lat="44.58514" lon="0.94262">
        <ele>214</ele>
        <time>2012-01-10T14:25:31Z</time>
      </trkpt>
      <trkpt lat="44.58509" lon="0.94271">
        <ele>214</ele>
        <time>2012-01-10T14:25:36Z</time>
      </trkpt>
      <trkpt lat="44.58502" lon="0.94287">
        <ele>215</ele>
        <time>2012-01-10T14:25:37Z</time>
      </trkpt>
      <trkpt lat="44.585" lon="0.94291">
        <ele>215</ele>
        <time>2012-01-10T14:25:38Z</time>
      </trkpt>
      <trkpt lat="44.58495" lon="0.94299">
        <ele>215</ele>
        <time>2012-01-10T14:25:43Z</time>
      </trkpt>
      <trkpt lat="44.58487" lon="0.94317">
        <ele>216</ele>
        <time>2012-01-10T14:25:44Z</time>
      </trkpt>
      <trkpt lat="44.58485" lon="0.94321">
        <ele>216</ele>
        <time>2012-01-10T14:25:45Z</time>
      </trkpt>
      <trkpt lat="44.58482" lon="0.9433">
        <ele>216</ele>
        <time>2012-01-10T14:25:50Z</time>
      </trkpt>
      <trkpt lat="44.58474" lon="0.94345">
        <ele>216</ele>
        <time>2012-01-10T14:25:50Z</time>
      </trkpt>
      <trkpt lat="44.58471" lon="0.9435">
        <ele>216</ele>
        <time>2012-01-10T14:25:51Z</time>
      </trkpt>
      <trkpt lat="44.58466" lon="0.94362">
        <ele>216</ele>
        <time>2012-01-10T14:25:56Z</time>
      </trkpt>
      <trkpt lat="44.58455" lon="0.94386">
        <ele>216</ele>
        <time>2012-01-10T14:25:57Z</time>
      </trkpt>
      <trkpt lat="44.58452" lon="0.94392">
        <ele>216</ele>
        <time>2012-01-10T14:25:58Z</time>
      </trkpt>
      <trkpt lat="44.58447" lon="0.94403">
        <ele>216</ele>
        <time>2012-01-10T14:26:03Z</time>
      </trkpt>
      <trkpt lat="44.58436" lon="0.94425">
        <ele>216</ele>
        <time>2012-01-10T14:26:04Z</time>
      </trkpt>
      <trkpt lat="44.58434" lon="0.94431">
        <ele>215</ele>
        <time>2012-01-10T14:26:05Z</time>
      </trkpt>
      <trkpt lat="44.58419" lon="0.9446">
        <ele>214</ele>
        <time>2012-01-10T14:26:10Z</time>
      </trkpt>
      <trkpt lat="44.58416" lon="0.94466">
        <ele>213</ele>
        <time>2012-01-10T14:26:11Z</time>
      </trkpt>
      <trkpt lat="44.5841" lon="0.94477">
        <ele>213</ele>
        <time>2012-01-10T14:26:16Z</time>
      </trkpt>
      <trkpt lat="44.58396" lon="0.94499">
        <ele>213</ele>
        <time>2012-01-10T14:26:17Z</time>
      </trkpt>
      <trkpt lat="44.58393" lon="0.94505">
        <ele>213</ele>
        <time>2012-01-10T14:26:18Z</time>
      </trkpt>
      <trkpt lat="44.58386" lon="0.94516">
        <ele>213</ele>
        <time>2012-01-10T14:26:23Z</time>
      </trkpt>
      <trkpt lat="44.58373" lon="0.94539">
        <ele>213</ele>
        <time>2012-01-10T14:26:24Z</time>
      </trkpt>
      <trkpt lat="44.5837" lon="0.94545">
        <ele>213</ele>
        <time>2012-01-10T14:26:25Z</time>
      </trkpt>
      <trkpt lat="44.58357" lon="0.94577">
        <ele>213</ele>
        <time>2012-01-10T14:26:30Z</time>
      </trkpt>
      <trkpt lat="44.58355" lon="0.94583">
        <ele>213</ele>
        <time>2012-01-10T14:26:31Z</time>
      </trkpt>
      <trkpt lat="44.58351" lon="0.94596">
        <ele>213</ele>
        <time>2012-01-10T14:26:36Z</time>
      </trkpt>
      <trkpt lat="44.58344" lon="0.94621">
        <ele>213</ele>
        <time>2012-01-10T14:26:37Z</time>
      </trkpt>
      <trkpt lat="44.58342" lon="0.94628">
        <ele>213</ele>
        <time>2012-01-10T14:26:38Z</time>
      </trkpt>
      <trkpt lat="44.58339" lon="0.9464">
        <ele>213</ele>
        <time>2012-01-10T14:26:43Z</time>
      </trkpt>
      <trkpt lat="44.58335" lon="0.94664">
        <ele>213</ele>
        <time>2012-01-10T14:26:44Z</time>
      </trkpt>
      <trkpt lat="44.58334" lon="0.94669">
        <ele>213</ele>
        <time>2012-01-10T14:26:45Z</time>
      </trkpt>
      <trkpt lat="44.58334" lon="0.94674">
        <ele>213</ele>
        <time>2012-01-10T14:26:46Z</time>
      </trkpt>
      <trkpt lat="44.58337" lon="0.94696">
        <ele>213</ele>
        <time>2012-01-10T14:26:51Z</time>
      </trkpt>
      <trkpt lat="44.58338" lon="0.94701">
        <ele>213</ele>
        <time>2012-01-10T14:26:52Z</time>
      </trkpt>
      <trkpt lat="44.58339" lon="0.94705">
        <ele>213</ele>
        <time>2012-01-10T14:26:53Z</time>
      </trkpt>
      <trkpt lat="44.58342" lon="0.94714">
        <ele>213</ele>
        <time>2012-01-10T14:26:58Z</time>
      </trkpt>
      <trkpt lat="44.58348" lon="0.94732">
        <ele>213</ele>
        <time>2012-01-10T14:26:59Z</time>
      </trkpt>
      <trkpt lat="44.58349" lon="0.94737">
        <ele>214</ele>
        <time>2012-01-10T14:27:00Z</time>
      </trkpt>
      <trkpt lat="44.58355" lon="0.94762">
        <ele>214</ele>
        <time>2012-01-10T14:27:05Z</time>
      </trkpt>
      <trkpt lat="44.58356" lon="0.94767">
        <ele>215</ele>
        <time>2012-01-10T14:27:06Z</time>
      </trkpt>
      <trkpt lat="44.58358" lon="0.94772">
        <ele>216</ele>
        <time>2012-01-10T14:27:07Z</time>
      </trkpt>
      <trkpt lat="44.58364" lon="0.94797">
        <ele>216</ele>
        <time>2012-01-10T14:27:12Z</time>
      </trkpt>
      <trkpt lat="44.58365" lon="0.94803">
        <ele>217</ele>
        <time>2012-01-10T14:27:13Z</time>
      </trkpt>
      <trkpt lat="44.58366" lon="0.94814">
        <ele>218</ele>
        <time>2012-01-10T14:27:18Z</time>
      </trkpt>
      <trkpt lat="44.58366" lon="0.94834">
        <ele>218</ele>
        <time>2012-01-10T14:27:19Z</time>
      </trkpt>
      <trkpt lat="44.58366" lon="0.94839">
        <ele>219</ele>
        <time>2012-01-10T14:27:20Z</time>
      </trkpt>
      <trkpt lat="44.58366" lon="0.94849">
        <ele>219</ele>
        <time>2012-01-10T14:27:25Z</time>
      </trkpt>
      <trkpt lat="44.58363" lon="0.94866">
        <ele>220</ele>
        <time>2012-01-10T14:27:26Z</time>
      </trkpt>
      <trkpt lat="44.58363" lon="0.9487">
        <ele>220</ele>
        <time>2012-01-10T14:27:27Z</time>
      </trkpt>
      <trkpt lat="44.58361" lon="0.94877">
        <ele>221</ele>
        <time>2012-01-10T14:27:32Z</time>
      </trkpt>
      <trkpt lat="44.58358" lon="0.94888">
        <ele>222</ele>
        <time>2012-01-10T14:27:33Z</time>
      </trkpt>
      <trkpt lat="44.58357" lon="0.94891">
        <ele>223</ele>
        <time>2012-01-10T14:27:34Z</time>
      </trkpt>
      <trkpt lat="44.58356" lon="0.94894">
        <ele>224</ele>
        <time>2012-01-10T14:27:35Z</time>
      </trkpt>
      <trkpt lat="44.58354" lon="0.94899">
        <ele>225</ele>
        <time>2012-01-10T14:27:40Z</time>
      </trkpt>
      <trkpt lat="44.5835" lon="0.94913">
        <ele>226</ele>
        <time>2012-01-10T14:27:41Z</time>
      </trkpt>
      <trkpt lat="44.58349" lon="0.94916">
        <ele>227</ele>
        <time>2012-01-10T14:27:42Z</time>
      </trkpt>
      <trkpt lat="44.58348" lon="0.94923">
        <ele>228</ele>
        <time>2012-01-10T14:27:47Z</time>
      </trkpt>
      <trkpt lat="44.58345" lon="0.94935">
        <ele>228</ele>
        <time>2012-01-10T14:27:48Z</time>
      </trkpt>
      <trkpt lat="44.58345" lon="0.94938">
        <ele>229</ele>
        <time>2012-01-10T14:27:49Z</time>
      </trkpt>
      <trkpt lat="44.58347" lon="0.94949">
        <ele>229</ele>
        <time>2012-01-10T14:27:54Z</time>
      </trkpt>
      <trkpt lat="44.58346" lon="0.94951">
        <ele>229</ele>
        <time>2012-01-10T14:27:55Z</time>
      </trkpt>
      <trkpt lat="44.58346" lon="0.94954">
        <ele>229</ele>
        <time>2012-01-10T14:27:56Z</time>
      </trkpt>
      <trkpt lat="44.58344" lon="0.94965">
        <ele>229</ele>
        <time>2012-01-10T14:28:01Z</time>
      </trkpt>
      <trkpt lat="44.58344" lon="0.94968">
        <ele>229</ele>
        <time>2012-01-10T14:28:02Z</time>
      </trkpt>
      <trkpt lat="44.58344" lon="0.94971">
        <ele>229</ele>
        <time>2012-01-10T14:28:03Z</time>
      </trkpt>
      <trkpt lat="44.58343" lon="0.94975">
        <ele>229</ele>
        <time>2012-01-10T14:28:08Z</time>
      </trkpt>
      <trkpt lat="44.58342" lon="0.94986">
        <ele>229</ele>
        <time>2012-01-10T14:28:09Z</time>
      </trkpt>
      <trkpt lat="44.58342" lon="0.94988">
        <ele>229</ele>
        <time>2012-01-10T14:28:10Z</time>
      </trkpt>
      <trkpt lat="44.58342" lon="0.95002">
        <ele>229</ele>
        <time>2012-01-10T14:28:15Z</time>
      </trkpt>
      <trkpt lat="44.58342" lon="0.95004">
        <ele>229</ele>
        <time>2012-01-10T14:28:16Z</time>
      </trkpt>
      <trkpt lat="44.58341" lon="0.95009">
        <ele>229</ele>
        <time>2012-01-10T14:28:21Z</time>
      </trkpt>
      <trkpt lat="44.5834" lon="0.95019">
        <ele>229</ele>
        <time>2012-01-10T14:28:22Z</time>
      </trkpt>
      <trkpt lat="44.5834" lon="0.95021">
        <ele>229</ele>
        <time>2012-01-10T14:28:23Z</time>
      </trkpt>
      <trkpt lat="44.58339" lon="0.95026">
        <ele>229</ele>
        <time>2012-01-10T14:28:28Z</time>
      </trkpt>
      <trkpt lat="44.58337" lon="0.95035">
        <ele>229</ele>
        <time>2012-01-10T14:28:29Z</time>
      </trkpt>
      <trkpt lat="44.58337" lon="0.95037">
        <ele>229</ele>
        <time>2012-01-10T14:28:30Z</time>
      </trkpt>
      <trkpt lat="44.58338" lon="0.95039">
        <ele>229</ele>
        <time>2012-01-10T14:28:31Z</time>
      </trkpt>
      <trkpt lat="44.58339" lon="0.95045">
        <ele>229</ele>
        <time>2012-01-10T14:28:36Z</time>
      </trkpt>
      <trkpt lat="44.58338" lon="0.95047">
        <ele>230</ele>
        <time>2012-01-10T14:28:46Z</time>
      </trkpt>
      <trkpt lat="44.58339" lon="0.95047">
        <ele>231</ele>
        <time>2012-01-10T14:28:54Z</time>
      </trkpt>
      <trkpt lat="44.58341" lon="0.95047">
        <ele>231</ele>
        <time>2012-01-10T14:29:01Z</time>
      </trkpt>
      <trkpt lat="44.5834" lon="0.95048">
        <ele>231</ele>
        <time>2012-01-10T14:29:02Z</time>
      </trkpt>
      <trkpt lat="44.5834" lon="0.95051">
        <ele>231</ele>
        <time>2012-01-10T14:29:03Z</time>
      </trkpt>
      <trkpt lat="44.58339" lon="0.95054">
        <ele>231</ele>
        <time>2012-01-10T14:29:04Z</time>
      </trkpt>
      <trkpt lat="44.58339" lon="0.9506">
        <ele>231</ele>
        <time>2012-01-10T14:29:10Z</time>
      </trkpt>
      <trkpt lat="44.58339" lon="0.9508">
        <ele>231</ele>
        <time>2012-01-10T14:29:10Z</time>
      </trkpt>
      <trkpt lat="44.58339" lon="0.95086">
        <ele>231</ele>
        <time>2012-01-10T14:29:11Z</time>
      </trkpt>
      <trkpt lat="44.58339" lon="0.951">
        <ele>231</ele>
        <time>2012-01-10T14:29:16Z</time>
      </trkpt>
      <trkpt lat="44.5834" lon="0.95131">
        <ele>231</ele>
        <time>2012-01-10T14:29:17Z</time>
      </trkpt>
      <trkpt lat="44.58339" lon="0.95139">
        <ele>230</ele>
        <time>2012-01-10T14:29:18Z</time>
      </trkpt>
      <trkpt lat="44.58335" lon="0.95173">
        <ele>229</ele>
        <time>2012-01-10T14:29:23Z</time>
      </trkpt>
      <trkpt lat="44.58334" lon="0.95179">
        <ele>228</ele>
        <time>2012-01-10T14:29:24Z</time>
      </trkpt>
      <trkpt lat="44.58334" lon="0.9519">
        <ele>227</ele>
        <time>2012-01-10T14:29:30Z</time>
      </trkpt>
      <trkpt lat="44.58342" lon="0.95205">
        <ele>226</ele>
        <time>2012-01-10T14:29:30Z</time>
      </trkpt>
      <trkpt lat="44.58344" lon="0.95207">
        <ele>225</ele>
        <time>2012-01-10T14:29:31Z</time>
      </trkpt>
      <trkpt lat="44.58347" lon="0.95209">
        <ele>224</ele>
        <time>2012-01-10T14:29:32Z</time>
      </trkpt>
      <trkpt lat="44.58348" lon="0.95212">
        <ele>224</ele>
        <time>2012-01-10T14:29:33Z</time>
      </trkpt>
      <trkpt lat="44.58352" lon="0.95218">
        <ele>224</ele>
        <time>2012-01-10T14:29:39Z</time>
      </trkpt>
      <trkpt lat="44.5836" lon="0.95229">
        <ele>223</ele>
        <time>2012-01-10T14:29:39Z</time>
      </trkpt>
      <trkpt lat="44.58361" lon="0.95231">
        <ele>223</ele>
        <time>2012-01-10T14:29:40Z</time>
      </trkpt>
      <trkpt lat="44.58367" lon="0.95246">
        <ele>223</ele>
        <time>2012-01-10T14:29:45Z</time>
      </trkpt>
      <trkpt lat="44.58368" lon="0.9525">
        <ele>223</ele>
        <time>2012-01-10T14:29:46Z</time>
      </trkpt>
      <trkpt lat="44.58368" lon="0.95253">
        <ele>223</ele>
        <time>2012-01-10T14:29:48Z</time>
      </trkpt>
      <trkpt lat="44.58369" lon="0.95256">
        <ele>223</ele>
        <time>2012-01-10T14:29:48Z</time>
      </trkpt>
      <trkpt lat="44.58371" lon="0.95271">
        <ele>223</ele>
        <time>2012-01-10T14:29:53Z</time>
      </trkpt>
      <trkpt lat="44.58371" lon="0.95275">
        <ele>223</ele>
        <time>2012-01-10T14:29:54Z</time>
      </trkpt>
      <trkpt lat="44.58372" lon="0.9528">
        <ele>223</ele>
        <time>2012-01-10T14:29:59Z</time>
      </trkpt>
      <trkpt lat="44.58373" lon="0.95292">
        <ele>223</ele>
        <time>2012-01-10T14:30:00Z</time>
      </trkpt>
      <trkpt lat="44.58373" lon="0.95294">
        <ele>223</ele>
        <time>2012-01-10T14:30:01Z</time>
      </trkpt>
      <trkpt lat="44.58374" lon="0.95301">
        <ele>223</ele>
        <time>2012-01-10T14:30:06Z</time>
      </trkpt>
      <trkpt lat="44.58375" lon="0.95316">
        <ele>223</ele>
        <time>2012-01-10T14:30:07Z</time>
      </trkpt>
      <trkpt lat="44.58376" lon="0.9532">
        <ele>223</ele>
        <time>2012-01-10T14:30:08Z</time>
      </trkpt>
      <trkpt lat="44.58377" lon="0.95343">
        <ele>223</ele>
        <time>2012-01-10T14:30:13Z</time>
      </trkpt>
      <trkpt lat="44.58378" lon="0.95347">
        <ele>223</ele>
        <time>2012-01-10T14:30:14Z</time>
      </trkpt>
      <trkpt lat="44.58379" lon="0.95351">
        <ele>223</ele>
        <time>2012-01-10T14:30:15Z</time>
      </trkpt>
      <trkpt lat="44.58381" lon="0.95375">
        <ele>223</ele>
        <time>2012-01-10T14:30:20Z</time>
      </trkpt>
      <trkpt lat="44.58382" lon="0.9538">
        <ele>223</ele>
        <time>2012-01-10T14:30:21Z</time>
      </trkpt>
      <trkpt lat="44.58383" lon="0.95389">
        <ele>223</ele>
        <time>2012-01-10T14:30:27Z</time>
      </trkpt>
      <trkpt lat="44.58386" lon="0.95409">
        <ele>223</ele>
        <time>2012-01-10T14:30:27Z</time>
      </trkpt>
      <trkpt lat="44.58387" lon="0.95414">
        <ele>223</ele>
        <time>2012-01-10T14:30:28Z</time>
      </trkpt>
      <trkpt lat="44.58387" lon="0.95424">
        <ele>223</ele>
        <time>2012-01-10T14:30:33Z</time>
      </trkpt>
      <trkpt lat="44.58389" lon="0.95446">
        <ele>223</ele>
        <time>2012-01-10T14:30:34Z</time>
      </trkpt>
      <trkpt lat="44.58388" lon="0.95451">
        <ele>223</ele>
        <time>2012-01-10T14:30:35Z</time>
      </trkpt>
      <trkpt lat="44.58387" lon="0.95458">
        <ele>223</ele>
        <time>2012-01-10T14:30:37Z</time>
      </trkpt>
      <trkpt lat="44.58383" lon="0.95469">
        <ele>223</ele>
        <time>2012-01-10T14:30:42Z</time>
      </trkpt>
      <trkpt lat="44.5837" lon="0.95489">
        <ele>223</ele>
        <time>2012-01-10T14:30:42Z</time>
      </trkpt>
      <trkpt lat="44.58366" lon="0.95494">
        <ele>223</ele>
        <time>2012-01-10T14:30:43Z</time>
      </trkpt>
      <trkpt lat="44.58362" lon="0.95498">
        <ele>223</ele>
        <time>2012-01-10T14:30:44Z</time>
      </trkpt>
      <trkpt lat="44.58345" lon="0.95522">
        <ele>223</ele>
        <time>2012-01-10T14:30:49Z</time>
      </trkpt>
      <trkpt lat="44.58343" lon="0.95528">
        <ele>223</ele>
        <time>2012-01-10T14:30:50Z</time>
      </trkpt>
      <trkpt lat="44.58342" lon="0.95535">
        <ele>223</ele>
        <time>2012-01-10T14:30:51Z</time>
      </trkpt>
      <trkpt lat="44.5834" lon="0.9555">
        <ele>223</ele>
        <time>2012-01-10T14:30:56Z</time>
      </trkpt>
      <trkpt lat="44.58343" lon="0.95581">
        <ele>222</ele>
        <time>2012-01-10T14:30:57Z</time>
      </trkpt>
      <trkpt lat="44.58344" lon="0.95589">
        <ele>222</ele>
        <time>2012-01-10T14:30:58Z</time>
      </trkpt>
      <trkpt lat="44.58345" lon="0.95597">
        <ele>221</ele>
        <time>2012-01-10T14:30:59Z</time>
      </trkpt>
      <trkpt lat="44.58347" lon="0.95613">
        <ele>221</ele>
        <time>2012-01-10T14:31:04Z</time>
      </trkpt>
      <trkpt lat="44.58354" lon="0.95646">
        <ele>221</ele>
        <time>2012-01-10T14:31:05Z</time>
      </trkpt>
      <trkpt lat="44.58358" lon="0.95654">
        <ele>220</ele>
        <time>2012-01-10T14:31:06Z</time>
      </trkpt>
      <trkpt lat="44.58367" lon="0.95669">
        <ele>220</ele>
        <time>2012-01-10T14:31:12Z</time>
      </trkpt>
      <trkpt lat="44.58391" lon="0.95702">
        <ele>219</ele>
        <time>2012-01-10T14:31:13Z</time>
      </trkpt>
      <trkpt lat="44.58396" lon="0.95719">
        <ele>218</ele>
        <time>2012-01-10T14:31:18Z</time>
      </trkpt>
      <trkpt lat="44.584" lon="0.95755">
        <ele>218</ele>
        <time>2012-01-10T14:31:19Z</time>
      </trkpt>
      <trkpt lat="44.584" lon="0.95764">
        <ele>217</ele>
        <time>2012-01-10T14:31:20Z</time>
      </trkpt>
      <trkpt lat="44.58396" lon="0.95823">
        <ele>216</ele>
        <time>2012-01-10T14:31:26Z</time>
      </trkpt>
      <trkpt lat="44.58396" lon="0.95833">
        <ele>215</ele>
        <time>2012-01-10T14:31:27Z</time>
      </trkpt>
      <trkpt lat="44.58395" lon="0.95852">
        <ele>215</ele>
        <time>2012-01-10T14:31:32Z</time>
      </trkpt>
      <trkpt lat="44.58406" lon="0.9589">
        <ele>215</ele>
        <time>2012-01-10T14:31:33Z</time>
      </trkpt>
      <trkpt lat="44.58412" lon="0.95899">
        <ele>214</ele>
        <time>2012-01-10T14:31:34Z</time>
      </trkpt>
      <trkpt lat="44.58418" lon="0.95906">
        <ele>214</ele>
        <time>2012-01-10T14:31:35Z</time>
      </trkpt>
      <trkpt lat="44.58461" lon="0.95924">
        <ele>213</ele>
        <time>2012-01-10T14:31:41Z</time>
      </trkpt>
      <trkpt lat="44.58469" lon="0.95927">
        <ele>212</ele>
        <time>2012-01-10T14:31:42Z</time>
      </trkpt>
      <trkpt lat="44.58483" lon="0.95935">
        <ele>212</ele>
        <time>2012-01-10T14:31:47Z</time>
      </trkpt>
      <trkpt lat="44.58508" lon="0.95954">
        <ele>211</ele>
        <time>2012-01-10T14:31:48Z</time>
      </trkpt>
      <trkpt lat="44.58514" lon="0.95957">
        <ele>210</ele>
        <time>2012-01-10T14:31:49Z</time>
      </trkpt>
      <trkpt lat="44.58529" lon="0.95965">
        <ele>209</ele>
        <time>2012-01-10T14:31:54Z</time>
      </trkpt>
      <trkpt lat="44.58546" lon="0.95994">
        <ele>208</ele>
        <time>2012-01-10T14:31:55Z</time>
      </trkpt>
      <trkpt lat="44.58548" lon="0.96001">
        <ele>207</ele>
        <time>2012-01-10T14:31:56Z</time>
      </trkpt>
      <trkpt lat="44.58548" lon="0.96009">
        <ele>207</ele>
        <time>2012-01-10T14:31:57Z</time>
      </trkpt>
      <trkpt lat="44.58548" lon="0.96021">
        <ele>206</ele>
        <time>2012-01-10T14:32:03Z</time>
      </trkpt>
      <trkpt lat="44.5856" lon="0.96038">
        <ele>205</ele>
        <time>2012-01-10T14:32:04Z</time>
      </trkpt>
      <trkpt lat="44.58564" lon="0.96039">
        <ele>204</ele>
        <time>2012-01-10T14:32:05Z</time>
      </trkpt>
      <trkpt lat="44.58568" lon="0.96039">
        <ele>203</ele>
        <time>2012-01-10T14:32:06Z</time>
      </trkpt>
      <trkpt lat="44.58577" lon="0.96041">
        <ele>203</ele>
        <time>2012-01-10T14:32:11Z</time>
      </trkpt>
      <trkpt lat="44.58597" lon="0.96044">
        <ele>202</ele>
        <time>2012-01-10T14:32:12Z</time>
      </trkpt>
      <trkpt lat="44.58602" lon="0.96044">
        <ele>202</ele>
        <time>2012-01-10T14:32:13Z</time>
      </trkpt>
      <trkpt lat="44.58613" lon="0.96044">
        <ele>201</ele>
        <time>2012-01-10T14:32:18Z</time>
      </trkpt>
      <trkpt lat="44.58635" lon="0.96045">
        <ele>200</ele>
        <time>2012-01-10T14:32:19Z</time>
      </trkpt>
      <trkpt lat="44.58641" lon="0.96046">
        <ele>199</ele>
        <time>2012-01-10T14:32:20Z</time>
      </trkpt>
      <trkpt lat="44.58669" lon="0.96061">
        <ele>199</ele>
        <time>2012-01-10T14:32:25Z</time>
      </trkpt>
      <trkpt lat="44.58674" lon="0.96065">
        <ele>198</ele>
        <time>2012-01-10T14:32:26Z</time>
      </trkpt>
      <trkpt lat="44.5868" lon="0.96069">
        <ele>197</ele>
        <time>2012-01-10T14:32:27Z</time>
      </trkpt>
      <trkpt lat="44.58691" lon="0.96075">
        <ele>197</ele>
        <time>2012-01-10T14:32:32Z</time>
      </trkpt>
      <trkpt lat="44.58713" lon="0.96083">
        <ele>197</ele>
        <time>2012-01-10T14:32:33Z</time>
      </trkpt>
      <trkpt lat="44.58719" lon="0.96085">
        <ele>197</ele>
        <time>2012-01-10T14:32:34Z</time>
      </trkpt>
      <trkpt lat="44.58748" lon="0.9609">
        <ele>197</ele>
        <time>2012-01-10T14:32:39Z</time>
      </trkpt>
      <trkpt lat="44.58754" lon="0.96091">
        <ele>196</ele>
        <time>2012-01-10T14:32:40Z</time>
      </trkpt>
      <trkpt lat="44.5876" lon="0.96092">
        <ele>195</ele>
        <time>2012-01-10T14:32:41Z</time>
      </trkpt>
      <trkpt lat="44.58772" lon="0.96094">
        <ele>195</ele>
        <time>2012-01-10T14:32:46Z</time>
      </trkpt>
      <trkpt lat="44.58797" lon="0.96099">
        <ele>195</ele>
        <time>2012-01-10T14:32:47Z</time>
      </trkpt>
      <trkpt lat="44.58804" lon="0.96102">
        <ele>195</ele>
        <time>2012-01-10T14:32:48Z</time>
      </trkpt>
      <trkpt lat="44.58839" lon="0.96116">
        <ele>195</ele>
        <time>2012-01-10T14:32:53Z</time>
      </trkpt>
      <trkpt lat="44.58847" lon="0.96118">
        <ele>195</ele>
        <time>2012-01-10T14:32:54Z</time>
      </trkpt>
      <trkpt lat="44.58855" lon="0.96119">
        <ele>195</ele>
        <time>2012-01-10T14:32:55Z</time>
      </trkpt>
      <trkpt lat="44.58892" lon="0.96135">
        <ele>195</ele>
        <time>2012-01-10T14:33:00Z</time>
      </trkpt>
      <trkpt lat="44.58897" lon="0.96142">
        <ele>194</ele>
        <time>2012-01-10T14:33:01Z</time>
      </trkpt>
      <trkpt lat="44.58904" lon="0.96148">
        <ele>194</ele>
        <time>2012-01-10T14:33:02Z</time>
      </trkpt>
      <trkpt lat="44.58918" lon="0.96157">
        <ele>193</ele>
        <time>2012-01-10T14:33:07Z</time>
      </trkpt>
      <trkpt lat="44.58941" lon="0.96171">
        <ele>192</ele>
        <time>2012-01-10T14:33:08Z</time>
      </trkpt>
      <trkpt lat="44.58944" lon="0.96173">
        <ele>192</ele>
        <time>2012-01-10T14:33:09Z</time>
      </trkpt>
      <trkpt lat="44.58946" lon="0.96177">
        <ele>191</ele>
        <time>2012-01-10T14:33:14Z</time>
      </trkpt>
      <trkpt lat="44.58945" lon="0.96175">
        <ele>191</ele>
        <time>2012-01-10T14:33:23Z</time>
      </trkpt>
      <trkpt lat="44.58944" lon="0.96175">
        <ele>191</ele>
        <time>2012-01-10T14:33:29Z</time>
      </trkpt>
      <trkpt lat="44.58944" lon="0.96175">
        <ele>190</ele>
        <time>2012-01-10T14:33:39Z</time>
      </trkpt>
    </trkseg>
  </trk>
</gpx>